<?xml version="1.0" encoding="UTF-8" standalone="no" ?>
<gpx xmlns="http://www.topografix.com/GPX/1/1" xmlns:xsi="http://www.w3.org/2001/XMLSchema-instance" xsi:schemaLocation="http://www.topografix.com/GPX/1/1 http://www.topografix.com/GPX/1/1/gpx.xsd" version="1.1" creator="VisuGPX - https://www.visugpx.com">
  <metadata>
    <name>VTT - Les balcons de Dabo - 20km - Caro, Viviane &amp; Noah</name>
    <desc><![CDATA[Le parcours réalisé lors des Balcons de Dabo par Caroline, Viviane et Noah !
]]></desc>
  </metadata>
  <trk>
    <name><![CDATA[2011-08-14 09:34 Dabo]]></name>
    <desc><![CDATA[
]]></desc>
    <trkseg>
      <trkpt lat="48.65793" lon="7.22728">
        <ele>473.1</ele>
        <time>2011-08-14T07:33:06Z</time>
      </trkpt>
      <trkpt lat="48.65793" lon="7.22728">
        <ele>473.1</ele>
        <time>2011-08-14T07:33:06Z</time>
      </trkpt>
      <trkpt lat="48.65793" lon="7.22728">
        <ele>473.1</ele>
        <time>2011-08-14T07:33:16Z</time>
      </trkpt>
      <trkpt lat="48.65856" lon="7.22949">
        <ele>522</ele>
        <time>2011-08-14T07:33:17Z</time>
      </trkpt>
      <trkpt lat="48.65856" lon="7.22949">
        <ele>522</ele>
        <time>2011-08-14T07:33:17Z</time>
      </trkpt>
      <trkpt lat="48.65856" lon="7.22949">
        <ele>522</ele>
        <time>2011-08-14T07:33:22Z</time>
      </trkpt>
      <trkpt lat="48.65849" lon="7.22962">
        <ele>556</ele>
        <time>2011-08-14T07:33:23Z</time>
      </trkpt>
      <trkpt lat="48.65849" lon="7.22962">
        <ele>556</ele>
        <time>2011-08-14T07:33:23Z</time>
      </trkpt>
      <trkpt lat="48.65849" lon="7.22962">
        <ele>556</ele>
        <time>2011-08-14T07:33:26Z</time>
      </trkpt>
      <trkpt lat="48.65843" lon="7.22977">
        <ele>563</ele>
        <time>2011-08-14T07:33:27Z</time>
      </trkpt>
      <trkpt lat="48.65843" lon="7.22977">
        <ele>563</ele>
        <time>2011-08-14T07:33:27Z</time>
      </trkpt>
      <trkpt lat="48.65843" lon="7.22977">
        <ele>563</ele>
        <time>2011-08-14T07:33:28Z</time>
      </trkpt>
      <trkpt lat="48.65839" lon="7.22973">
        <ele>538</ele>
        <time>2011-08-14T07:33:32Z</time>
      </trkpt>
      <trkpt lat="48.65846" lon="7.22953">
        <ele>516</ele>
        <time>2011-08-14T07:33:33Z</time>
      </trkpt>
      <trkpt lat="48.65843" lon="7.22926">
        <ele>510</ele>
        <time>2011-08-14T07:33:34Z</time>
      </trkpt>
      <trkpt lat="48.65843" lon="7.22902">
        <ele>506</ele>
        <time>2011-08-14T07:33:35Z</time>
      </trkpt>
      <trkpt lat="48.65843" lon="7.22888">
        <ele>506</ele>
        <time>2011-08-14T07:33:36Z</time>
      </trkpt>
      <trkpt lat="48.65845" lon="7.22881">
        <ele>506</ele>
        <time>2011-08-14T07:33:37Z</time>
      </trkpt>
      <trkpt lat="48.65849" lon="7.22876">
        <ele>505</ele>
        <time>2011-08-14T07:33:40Z</time>
      </trkpt>
      <trkpt lat="48.65853" lon="7.22874">
        <ele>494</ele>
        <time>2011-08-14T07:33:44Z</time>
      </trkpt>
      <trkpt lat="48.65853" lon="7.22874">
        <ele>494</ele>
        <time>2011-08-14T07:33:44Z</time>
      </trkpt>
      <trkpt lat="48.65853" lon="7.22874">
        <ele>494</ele>
        <time>2011-08-14T07:34:04Z</time>
      </trkpt>
      <trkpt lat="48.65866" lon="7.22874">
        <ele>488</ele>
        <time>2011-08-14T07:34:05Z</time>
      </trkpt>
      <trkpt lat="48.6587" lon="7.22874">
        <ele>488</ele>
        <time>2011-08-14T07:34:06Z</time>
      </trkpt>
      <trkpt lat="48.65876" lon="7.22878">
        <ele>487</ele>
        <time>2011-08-14T07:34:09Z</time>
      </trkpt>
      <trkpt lat="48.65871" lon="7.22882">
        <ele>487</ele>
        <time>2011-08-14T07:34:12Z</time>
      </trkpt>
      <trkpt lat="48.65867" lon="7.22888">
        <ele>486</ele>
        <time>2011-08-14T07:34:15Z</time>
      </trkpt>
      <trkpt lat="48.65867" lon="7.22896">
        <ele>486</ele>
        <time>2011-08-14T07:34:18Z</time>
      </trkpt>
      <trkpt lat="48.65869" lon="7.22906">
        <ele>486</ele>
        <time>2011-08-14T07:34:21Z</time>
      </trkpt>
      <trkpt lat="48.65868" lon="7.22914">
        <ele>485</ele>
        <time>2011-08-14T07:34:24Z</time>
      </trkpt>
      <trkpt lat="48.65866" lon="7.22922">
        <ele>485</ele>
        <time>2011-08-14T07:34:27Z</time>
      </trkpt>
      <trkpt lat="48.65862" lon="7.2293">
        <ele>485</ele>
        <time>2011-08-14T07:34:30Z</time>
      </trkpt>
      <trkpt lat="48.65858" lon="7.22935">
        <ele>485</ele>
        <time>2011-08-14T07:34:32Z</time>
      </trkpt>
      <trkpt lat="48.65854" lon="7.22941">
        <ele>485</ele>
        <time>2011-08-14T07:34:34Z</time>
      </trkpt>
      <trkpt lat="48.6585" lon="7.22946">
        <ele>485</ele>
        <time>2011-08-14T07:34:36Z</time>
      </trkpt>
      <trkpt lat="48.65847" lon="7.22952">
        <ele>485</ele>
        <time>2011-08-14T07:34:38Z</time>
      </trkpt>
      <trkpt lat="48.65843" lon="7.22958">
        <ele>485</ele>
        <time>2011-08-14T07:34:40Z</time>
      </trkpt>
      <trkpt lat="48.6584" lon="7.22963">
        <ele>484</ele>
        <time>2011-08-14T07:34:42Z</time>
      </trkpt>
      <trkpt lat="48.65836" lon="7.22969">
        <ele>484</ele>
        <time>2011-08-14T07:34:44Z</time>
      </trkpt>
      <trkpt lat="48.65833" lon="7.22974">
        <ele>484</ele>
        <time>2011-08-14T07:34:46Z</time>
      </trkpt>
      <trkpt lat="48.65829" lon="7.22979">
        <ele>484</ele>
        <time>2011-08-14T07:34:48Z</time>
      </trkpt>
      <trkpt lat="48.65825" lon="7.22985">
        <ele>484</ele>
        <time>2011-08-14T07:34:50Z</time>
      </trkpt>
      <trkpt lat="48.65822" lon="7.2299">
        <ele>484</ele>
        <time>2011-08-14T07:34:52Z</time>
      </trkpt>
      <trkpt lat="48.65819" lon="7.22997">
        <ele>484</ele>
        <time>2011-08-14T07:34:55Z</time>
      </trkpt>
      <trkpt lat="48.65816" lon="7.23002">
        <ele>484</ele>
        <time>2011-08-14T07:35:00Z</time>
      </trkpt>
      <trkpt lat="48.65813" lon="7.23007">
        <ele>483</ele>
        <time>2011-08-14T07:35:06Z</time>
      </trkpt>
      <trkpt lat="48.65815" lon="7.23014">
        <ele>483</ele>
        <time>2011-08-14T07:35:13Z</time>
      </trkpt>
      <trkpt lat="48.65812" lon="7.23019">
        <ele>483</ele>
        <time>2011-08-14T07:35:17Z</time>
      </trkpt>
      <trkpt lat="48.65808" lon="7.23025">
        <ele>482</ele>
        <time>2011-08-14T07:35:20Z</time>
      </trkpt>
      <trkpt lat="48.65803" lon="7.23031">
        <ele>482</ele>
        <time>2011-08-14T07:35:23Z</time>
      </trkpt>
      <trkpt lat="48.65798" lon="7.23038">
        <ele>482</ele>
        <time>2011-08-14T07:35:26Z</time>
      </trkpt>
      <trkpt lat="48.65793" lon="7.23044">
        <ele>482</ele>
        <time>2011-08-14T07:35:29Z</time>
      </trkpt>
      <trkpt lat="48.65788" lon="7.2305">
        <ele>482</ele>
        <time>2011-08-14T07:35:32Z</time>
      </trkpt>
      <trkpt lat="48.65783" lon="7.23056">
        <ele>483</ele>
        <time>2011-08-14T07:35:35Z</time>
      </trkpt>
      <trkpt lat="48.6578" lon="7.2306">
        <ele>483</ele>
        <time>2011-08-14T07:35:37Z</time>
      </trkpt>
      <trkpt lat="48.65776" lon="7.23065">
        <ele>483</ele>
        <time>2011-08-14T07:35:39Z</time>
      </trkpt>
      <trkpt lat="48.65773" lon="7.2307">
        <ele>483</ele>
        <time>2011-08-14T07:35:41Z</time>
      </trkpt>
      <trkpt lat="48.65768" lon="7.23077">
        <ele>483</ele>
        <time>2011-08-14T07:35:44Z</time>
      </trkpt>
      <trkpt lat="48.65763" lon="7.23084">
        <ele>483</ele>
        <time>2011-08-14T07:35:47Z</time>
      </trkpt>
      <trkpt lat="48.65759" lon="7.2309">
        <ele>483</ele>
        <time>2011-08-14T07:35:50Z</time>
      </trkpt>
      <trkpt lat="48.65755" lon="7.23098">
        <ele>483</ele>
        <time>2011-08-14T07:35:53Z</time>
      </trkpt>
      <trkpt lat="48.65751" lon="7.23106">
        <ele>483</ele>
        <time>2011-08-14T07:35:56Z</time>
      </trkpt>
      <trkpt lat="48.65748" lon="7.23112">
        <ele>483</ele>
        <time>2011-08-14T07:35:58Z</time>
      </trkpt>
      <trkpt lat="48.65746" lon="7.23118">
        <ele>483</ele>
        <time>2011-08-14T07:36:00Z</time>
      </trkpt>
      <trkpt lat="48.65744" lon="7.23124">
        <ele>483</ele>
        <time>2011-08-14T07:36:02Z</time>
      </trkpt>
      <trkpt lat="48.65741" lon="7.23133">
        <ele>483</ele>
        <time>2011-08-14T07:36:05Z</time>
      </trkpt>
      <trkpt lat="48.65739" lon="7.23142">
        <ele>483</ele>
        <time>2011-08-14T07:36:08Z</time>
      </trkpt>
      <trkpt lat="48.65737" lon="7.23151">
        <ele>483</ele>
        <time>2011-08-14T07:36:11Z</time>
      </trkpt>
      <trkpt lat="48.65736" lon="7.2316">
        <ele>484</ele>
        <time>2011-08-14T07:36:14Z</time>
      </trkpt>
      <trkpt lat="48.65735" lon="7.23169">
        <ele>484</ele>
        <time>2011-08-14T07:36:17Z</time>
      </trkpt>
      <trkpt lat="48.65735" lon="7.23176">
        <ele>484</ele>
        <time>2011-08-14T07:36:19Z</time>
      </trkpt>
      <trkpt lat="48.65735" lon="7.23183">
        <ele>484</ele>
        <time>2011-08-14T07:36:21Z</time>
      </trkpt>
      <trkpt lat="48.65735" lon="7.23191">
        <ele>484</ele>
        <time>2011-08-14T07:36:23Z</time>
      </trkpt>
      <trkpt lat="48.65736" lon="7.23198">
        <ele>484</ele>
        <time>2011-08-14T07:36:25Z</time>
      </trkpt>
      <trkpt lat="48.65736" lon="7.23206">
        <ele>484</ele>
        <time>2011-08-14T07:36:27Z</time>
      </trkpt>
      <trkpt lat="48.65737" lon="7.23213">
        <ele>484</ele>
        <time>2011-08-14T07:36:29Z</time>
      </trkpt>
      <trkpt lat="48.65737" lon="7.23221">
        <ele>485</ele>
        <time>2011-08-14T07:36:31Z</time>
      </trkpt>
      <trkpt lat="48.65738" lon="7.2323">
        <ele>485</ele>
        <time>2011-08-14T07:36:33Z</time>
      </trkpt>
      <trkpt lat="48.65738" lon="7.23238">
        <ele>485</ele>
        <time>2011-08-14T07:36:35Z</time>
      </trkpt>
      <trkpt lat="48.6574" lon="7.23246">
        <ele>485</ele>
        <time>2011-08-14T07:36:37Z</time>
      </trkpt>
      <trkpt lat="48.65742" lon="7.23252">
        <ele>485</ele>
        <time>2011-08-14T07:36:39Z</time>
      </trkpt>
      <trkpt lat="48.65744" lon="7.23258">
        <ele>485</ele>
        <time>2011-08-14T07:36:41Z</time>
      </trkpt>
      <trkpt lat="48.65748" lon="7.23266">
        <ele>485</ele>
        <time>2011-08-14T07:36:44Z</time>
      </trkpt>
      <trkpt lat="48.65753" lon="7.23272">
        <ele>486</ele>
        <time>2011-08-14T07:36:47Z</time>
      </trkpt>
      <trkpt lat="48.65758" lon="7.23276">
        <ele>486</ele>
        <time>2011-08-14T07:36:50Z</time>
      </trkpt>
      <trkpt lat="48.65762" lon="7.2328">
        <ele>486</ele>
        <time>2011-08-14T07:36:53Z</time>
      </trkpt>
      <trkpt lat="48.65766" lon="7.23284">
        <ele>486</ele>
        <time>2011-08-14T07:36:56Z</time>
      </trkpt>
      <trkpt lat="48.6577" lon="7.2329">
        <ele>487</ele>
        <time>2011-08-14T07:37:00Z</time>
      </trkpt>
      <trkpt lat="48.65774" lon="7.23295">
        <ele>487</ele>
        <time>2011-08-14T07:37:03Z</time>
      </trkpt>
      <trkpt lat="48.65778" lon="7.23301">
        <ele>487</ele>
        <time>2011-08-14T07:37:07Z</time>
      </trkpt>
      <trkpt lat="48.65781" lon="7.23308">
        <ele>488</ele>
        <time>2011-08-14T07:37:11Z</time>
      </trkpt>
      <trkpt lat="48.65785" lon="7.23314">
        <ele>488</ele>
        <time>2011-08-14T07:37:15Z</time>
      </trkpt>
      <trkpt lat="48.65789" lon="7.23321">
        <ele>488</ele>
        <time>2011-08-14T07:37:19Z</time>
      </trkpt>
      <trkpt lat="48.65791" lon="7.23327">
        <ele>489</ele>
        <time>2011-08-14T07:37:23Z</time>
      </trkpt>
      <trkpt lat="48.65793" lon="7.23334">
        <ele>489</ele>
        <time>2011-08-14T07:37:27Z</time>
      </trkpt>
      <trkpt lat="48.65796" lon="7.23341">
        <ele>490</ele>
        <time>2011-08-14T07:37:31Z</time>
      </trkpt>
      <trkpt lat="48.65797" lon="7.23349">
        <ele>490</ele>
        <time>2011-08-14T07:37:35Z</time>
      </trkpt>
      <trkpt lat="48.65797" lon="7.23357">
        <ele>490</ele>
        <time>2011-08-14T07:37:39Z</time>
      </trkpt>
      <trkpt lat="48.65798" lon="7.23365">
        <ele>491</ele>
        <time>2011-08-14T07:37:43Z</time>
      </trkpt>
      <trkpt lat="48.65799" lon="7.23373">
        <ele>491</ele>
        <time>2011-08-14T07:37:47Z</time>
      </trkpt>
      <trkpt lat="48.658" lon="7.23381">
        <ele>492</ele>
        <time>2011-08-14T07:37:51Z</time>
      </trkpt>
      <trkpt lat="48.65801" lon="7.23388">
        <ele>492</ele>
        <time>2011-08-14T07:37:54Z</time>
      </trkpt>
      <trkpt lat="48.65802" lon="7.23395">
        <ele>492</ele>
        <time>2011-08-14T07:37:57Z</time>
      </trkpt>
      <trkpt lat="48.65802" lon="7.23401">
        <ele>493</ele>
        <time>2011-08-14T07:38:00Z</time>
      </trkpt>
      <trkpt lat="48.65801" lon="7.2341">
        <ele>493</ele>
        <time>2011-08-14T07:38:04Z</time>
      </trkpt>
      <trkpt lat="48.65801" lon="7.23417">
        <ele>494</ele>
        <time>2011-08-14T07:38:08Z</time>
      </trkpt>
      <trkpt lat="48.65802" lon="7.23425">
        <ele>494</ele>
        <time>2011-08-14T07:38:12Z</time>
      </trkpt>
      <trkpt lat="48.65802" lon="7.23434">
        <ele>495</ele>
        <time>2011-08-14T07:38:16Z</time>
      </trkpt>
      <trkpt lat="48.65802" lon="7.23443">
        <ele>495</ele>
        <time>2011-08-14T07:38:20Z</time>
      </trkpt>
      <trkpt lat="48.65801" lon="7.23451">
        <ele>496</ele>
        <time>2011-08-14T07:38:24Z</time>
      </trkpt>
      <trkpt lat="48.658" lon="7.2346">
        <ele>497</ele>
        <time>2011-08-14T07:38:28Z</time>
      </trkpt>
      <trkpt lat="48.65799" lon="7.23469">
        <ele>497</ele>
        <time>2011-08-14T07:38:32Z</time>
      </trkpt>
      <trkpt lat="48.65799" lon="7.23476">
        <ele>497</ele>
        <time>2011-08-14T07:38:35Z</time>
      </trkpt>
      <trkpt lat="48.65799" lon="7.23484">
        <ele>498</ele>
        <time>2011-08-14T07:38:38Z</time>
      </trkpt>
      <trkpt lat="48.65799" lon="7.23491">
        <ele>498</ele>
        <time>2011-08-14T07:38:41Z</time>
      </trkpt>
      <trkpt lat="48.65798" lon="7.23499">
        <ele>499</ele>
        <time>2011-08-14T07:38:44Z</time>
      </trkpt>
      <trkpt lat="48.65797" lon="7.23506">
        <ele>499</ele>
        <time>2011-08-14T07:38:47Z</time>
      </trkpt>
      <trkpt lat="48.65796" lon="7.23514">
        <ele>500</ele>
        <time>2011-08-14T07:38:50Z</time>
      </trkpt>
      <trkpt lat="48.65795" lon="7.23521">
        <ele>501</ele>
        <time>2011-08-14T07:38:53Z</time>
      </trkpt>
      <trkpt lat="48.65794" lon="7.23528">
        <ele>501</ele>
        <time>2011-08-14T07:38:56Z</time>
      </trkpt>
      <trkpt lat="48.65792" lon="7.23534">
        <ele>502</ele>
        <time>2011-08-14T07:38:59Z</time>
      </trkpt>
      <trkpt lat="48.6579" lon="7.23542">
        <ele>503</ele>
        <time>2011-08-14T07:39:03Z</time>
      </trkpt>
      <trkpt lat="48.65788" lon="7.23549">
        <ele>503</ele>
        <time>2011-08-14T07:39:07Z</time>
      </trkpt>
      <trkpt lat="48.65786" lon="7.23555">
        <ele>505</ele>
        <time>2011-08-14T07:39:25Z</time>
      </trkpt>
      <trkpt lat="48.65783" lon="7.23561">
        <ele>506</ele>
        <time>2011-08-14T07:39:28Z</time>
      </trkpt>
      <trkpt lat="48.6578" lon="7.23567">
        <ele>506</ele>
        <time>2011-08-14T07:39:31Z</time>
      </trkpt>
      <trkpt lat="48.65777" lon="7.23573">
        <ele>506</ele>
        <time>2011-08-14T07:39:34Z</time>
      </trkpt>
      <trkpt lat="48.65774" lon="7.23579">
        <ele>507</ele>
        <time>2011-08-14T07:39:37Z</time>
      </trkpt>
      <trkpt lat="48.6577" lon="7.23583">
        <ele>507</ele>
        <time>2011-08-14T07:39:40Z</time>
      </trkpt>
      <trkpt lat="48.65766" lon="7.23587">
        <ele>507</ele>
        <time>2011-08-14T07:39:43Z</time>
      </trkpt>
      <trkpt lat="48.65761" lon="7.2359">
        <ele>507</ele>
        <time>2011-08-14T07:39:46Z</time>
      </trkpt>
      <trkpt lat="48.65756" lon="7.23591">
        <ele>508</ele>
        <time>2011-08-14T07:39:49Z</time>
      </trkpt>
      <trkpt lat="48.65751" lon="7.23586">
        <ele>508</ele>
        <time>2011-08-14T07:39:52Z</time>
      </trkpt>
      <trkpt lat="48.65747" lon="7.23579">
        <ele>508</ele>
        <time>2011-08-14T07:39:55Z</time>
      </trkpt>
      <trkpt lat="48.65744" lon="7.23572">
        <ele>509</ele>
        <time>2011-08-14T07:39:58Z</time>
      </trkpt>
      <trkpt lat="48.65739" lon="7.23566">
        <ele>509</ele>
        <time>2011-08-14T07:40:02Z</time>
      </trkpt>
      <trkpt lat="48.65735" lon="7.23562">
        <ele>509</ele>
        <time>2011-08-14T07:40:05Z</time>
      </trkpt>
      <trkpt lat="48.65731" lon="7.2356">
        <ele>510</ele>
        <time>2011-08-14T07:40:08Z</time>
      </trkpt>
      <trkpt lat="48.65726" lon="7.23558">
        <ele>510</ele>
        <time>2011-08-14T07:40:11Z</time>
      </trkpt>
      <trkpt lat="48.65721" lon="7.23558">
        <ele>510</ele>
        <time>2011-08-14T07:40:14Z</time>
      </trkpt>
      <trkpt lat="48.65716" lon="7.23558">
        <ele>511</ele>
        <time>2011-08-14T07:40:17Z</time>
      </trkpt>
      <trkpt lat="48.65712" lon="7.23558">
        <ele>511</ele>
        <time>2011-08-14T07:40:20Z</time>
      </trkpt>
      <trkpt lat="48.65707" lon="7.23558">
        <ele>512</ele>
        <time>2011-08-14T07:40:23Z</time>
      </trkpt>
      <trkpt lat="48.65702" lon="7.23557">
        <ele>512</ele>
        <time>2011-08-14T07:40:26Z</time>
      </trkpt>
      <trkpt lat="48.65696" lon="7.23556">
        <ele>513</ele>
        <time>2011-08-14T07:40:30Z</time>
      </trkpt>
      <trkpt lat="48.65691" lon="7.23556">
        <ele>514</ele>
        <time>2011-08-14T07:40:34Z</time>
      </trkpt>
      <trkpt lat="48.65685" lon="7.23556">
        <ele>514</ele>
        <time>2011-08-14T07:40:38Z</time>
      </trkpt>
      <trkpt lat="48.6568" lon="7.23558">
        <ele>515</ele>
        <time>2011-08-14T07:40:42Z</time>
      </trkpt>
      <trkpt lat="48.65674" lon="7.23559">
        <ele>516</ele>
        <time>2011-08-14T07:40:46Z</time>
      </trkpt>
      <trkpt lat="48.65669" lon="7.23557">
        <ele>516</ele>
        <time>2011-08-14T07:40:50Z</time>
      </trkpt>
      <trkpt lat="48.65663" lon="7.23553">
        <ele>517</ele>
        <time>2011-08-14T07:40:54Z</time>
      </trkpt>
      <trkpt lat="48.65658" lon="7.2355">
        <ele>518</ele>
        <time>2011-08-14T07:40:57Z</time>
      </trkpt>
      <trkpt lat="48.65654" lon="7.23546">
        <ele>518</ele>
        <time>2011-08-14T07:41:01Z</time>
      </trkpt>
      <trkpt lat="48.6565" lon="7.23542">
        <ele>519</ele>
        <time>2011-08-14T07:41:05Z</time>
      </trkpt>
      <trkpt lat="48.65645" lon="7.2354">
        <ele>520</ele>
        <time>2011-08-14T07:41:09Z</time>
      </trkpt>
      <trkpt lat="48.65641" lon="7.23538">
        <ele>521</ele>
        <time>2011-08-14T07:41:13Z</time>
      </trkpt>
      <trkpt lat="48.65636" lon="7.23534">
        <ele>522</ele>
        <time>2011-08-14T07:41:17Z</time>
      </trkpt>
      <trkpt lat="48.65632" lon="7.23529">
        <ele>522</ele>
        <time>2011-08-14T07:41:21Z</time>
      </trkpt>
      <trkpt lat="48.65628" lon="7.23521">
        <ele>523</ele>
        <time>2011-08-14T07:41:25Z</time>
      </trkpt>
      <trkpt lat="48.65625" lon="7.23514">
        <ele>524</ele>
        <time>2011-08-14T07:41:29Z</time>
      </trkpt>
      <trkpt lat="48.65623" lon="7.23506">
        <ele>524</ele>
        <time>2011-08-14T07:41:33Z</time>
      </trkpt>
      <trkpt lat="48.65621" lon="7.23497">
        <ele>525</ele>
        <time>2011-08-14T07:41:37Z</time>
      </trkpt>
      <trkpt lat="48.6562" lon="7.23488">
        <ele>526</ele>
        <time>2011-08-14T07:41:41Z</time>
      </trkpt>
      <trkpt lat="48.65618" lon="7.2348">
        <ele>526</ele>
        <time>2011-08-14T07:41:45Z</time>
      </trkpt>
      <trkpt lat="48.65616" lon="7.23472">
        <ele>527</ele>
        <time>2011-08-14T07:41:49Z</time>
      </trkpt>
      <trkpt lat="48.65614" lon="7.23464">
        <ele>527</ele>
        <time>2011-08-14T07:41:53Z</time>
      </trkpt>
      <trkpt lat="48.65612" lon="7.23456">
        <ele>528</ele>
        <time>2011-08-14T07:41:57Z</time>
      </trkpt>
      <trkpt lat="48.6561" lon="7.23448">
        <ele>529</ele>
        <time>2011-08-14T07:42:01Z</time>
      </trkpt>
      <trkpt lat="48.65608" lon="7.23442">
        <ele>529</ele>
        <time>2011-08-14T07:42:05Z</time>
      </trkpt>
      <trkpt lat="48.65606" lon="7.23434">
        <ele>530</ele>
        <time>2011-08-14T07:42:09Z</time>
      </trkpt>
      <trkpt lat="48.65603" lon="7.23426">
        <ele>531</ele>
        <time>2011-08-14T07:42:13Z</time>
      </trkpt>
      <trkpt lat="48.65601" lon="7.2342">
        <ele>531</ele>
        <time>2011-08-14T07:42:17Z</time>
      </trkpt>
      <trkpt lat="48.65599" lon="7.23412">
        <ele>532</ele>
        <time>2011-08-14T07:42:21Z</time>
      </trkpt>
      <trkpt lat="48.65596" lon="7.23404">
        <ele>533</ele>
        <time>2011-08-14T07:42:25Z</time>
      </trkpt>
      <trkpt lat="48.65595" lon="7.23398">
        <ele>533</ele>
        <time>2011-08-14T07:42:28Z</time>
      </trkpt>
      <trkpt lat="48.65593" lon="7.23392">
        <ele>534</ele>
        <time>2011-08-14T07:42:31Z</time>
      </trkpt>
      <trkpt lat="48.65591" lon="7.23385">
        <ele>535</ele>
        <time>2011-08-14T07:42:34Z</time>
      </trkpt>
      <trkpt lat="48.65589" lon="7.23378">
        <ele>535</ele>
        <time>2011-08-14T07:42:37Z</time>
      </trkpt>
      <trkpt lat="48.65587" lon="7.23371">
        <ele>536</ele>
        <time>2011-08-14T07:42:40Z</time>
      </trkpt>
      <trkpt lat="48.65585" lon="7.23364">
        <ele>536</ele>
        <time>2011-08-14T07:42:43Z</time>
      </trkpt>
      <trkpt lat="48.65584" lon="7.23356">
        <ele>537</ele>
        <time>2011-08-14T07:42:46Z</time>
      </trkpt>
      <trkpt lat="48.65581" lon="7.23349">
        <ele>537</ele>
        <time>2011-08-14T07:42:49Z</time>
      </trkpt>
      <trkpt lat="48.65578" lon="7.23342">
        <ele>538</ele>
        <time>2011-08-14T07:42:52Z</time>
      </trkpt>
      <trkpt lat="48.65576" lon="7.23335">
        <ele>538</ele>
        <time>2011-08-14T07:42:54Z</time>
      </trkpt>
      <trkpt lat="48.65574" lon="7.23328">
        <ele>538</ele>
        <time>2011-08-14T07:42:56Z</time>
      </trkpt>
      <trkpt lat="48.65572" lon="7.2332">
        <ele>539</ele>
        <time>2011-08-14T07:42:58Z</time>
      </trkpt>
      <trkpt lat="48.65569" lon="7.23311">
        <ele>539</ele>
        <time>2011-08-14T07:43:00Z</time>
      </trkpt>
      <trkpt lat="48.65566" lon="7.23302">
        <ele>539</ele>
        <time>2011-08-14T07:43:02Z</time>
      </trkpt>
      <trkpt lat="48.65563" lon="7.2329">
        <ele>542</ele>
        <time>2011-08-14T07:43:04Z</time>
      </trkpt>
      <trkpt lat="48.65561" lon="7.23284">
        <ele>542</ele>
        <time>2011-08-14T07:43:05Z</time>
      </trkpt>
      <trkpt lat="48.65559" lon="7.23278">
        <ele>543</ele>
        <time>2011-08-14T07:43:06Z</time>
      </trkpt>
      <trkpt lat="48.65554" lon="7.23266">
        <ele>544</ele>
        <time>2011-08-14T07:43:08Z</time>
      </trkpt>
      <trkpt lat="48.65552" lon="7.2326">
        <ele>544</ele>
        <time>2011-08-14T07:43:09Z</time>
      </trkpt>
      <trkpt lat="48.6555" lon="7.23253">
        <ele>544</ele>
        <time>2011-08-14T07:43:10Z</time>
      </trkpt>
      <trkpt lat="48.65548" lon="7.23246">
        <ele>544</ele>
        <time>2011-08-14T07:43:11Z</time>
      </trkpt>
      <trkpt lat="48.65546" lon="7.2324">
        <ele>544</ele>
        <time>2011-08-14T07:43:12Z</time>
      </trkpt>
      <trkpt lat="48.65543" lon="7.23233">
        <ele>544</ele>
        <time>2011-08-14T07:43:13Z</time>
      </trkpt>
      <trkpt lat="48.65541" lon="7.23226">
        <ele>544</ele>
        <time>2011-08-14T07:43:14Z</time>
      </trkpt>
      <trkpt lat="48.65538" lon="7.23218">
        <ele>544</ele>
        <time>2011-08-14T07:43:15Z</time>
      </trkpt>
      <trkpt lat="48.65536" lon="7.2321">
        <ele>544</ele>
        <time>2011-08-14T07:43:16Z</time>
      </trkpt>
      <trkpt lat="48.65533" lon="7.23202">
        <ele>544</ele>
        <time>2011-08-14T07:43:17Z</time>
      </trkpt>
      <trkpt lat="48.6553" lon="7.23194">
        <ele>544</ele>
        <time>2011-08-14T07:43:18Z</time>
      </trkpt>
      <trkpt lat="48.65528" lon="7.23186">
        <ele>544</ele>
        <time>2011-08-14T07:43:19Z</time>
      </trkpt>
      <trkpt lat="48.65525" lon="7.23178">
        <ele>543</ele>
        <time>2011-08-14T07:43:20Z</time>
      </trkpt>
      <trkpt lat="48.65522" lon="7.2317">
        <ele>543</ele>
        <time>2011-08-14T07:43:21Z</time>
      </trkpt>
      <trkpt lat="48.65519" lon="7.23161">
        <ele>543</ele>
        <time>2011-08-14T07:43:22Z</time>
      </trkpt>
      <trkpt lat="48.65516" lon="7.23151">
        <ele>542</ele>
        <time>2011-08-14T07:43:23Z</time>
      </trkpt>
      <trkpt lat="48.65512" lon="7.23142">
        <ele>542</ele>
        <time>2011-08-14T07:43:24Z</time>
      </trkpt>
      <trkpt lat="48.65509" lon="7.23131">
        <ele>542</ele>
        <time>2011-08-14T07:43:25Z</time>
      </trkpt>
      <trkpt lat="48.65506" lon="7.23121">
        <ele>542</ele>
        <time>2011-08-14T07:43:26Z</time>
      </trkpt>
      <trkpt lat="48.65502" lon="7.2311">
        <ele>542</ele>
        <time>2011-08-14T07:43:27Z</time>
      </trkpt>
      <trkpt lat="48.655" lon="7.23099">
        <ele>542</ele>
        <time>2011-08-14T07:43:28Z</time>
      </trkpt>
      <trkpt lat="48.65498" lon="7.23089">
        <ele>542</ele>
        <time>2011-08-14T07:43:29Z</time>
      </trkpt>
      <trkpt lat="48.65497" lon="7.2308">
        <ele>542</ele>
        <time>2011-08-14T07:43:30Z</time>
      </trkpt>
      <trkpt lat="48.65497" lon="7.23071">
        <ele>542</ele>
        <time>2011-08-14T07:43:31Z</time>
      </trkpt>
      <trkpt lat="48.65498" lon="7.23064">
        <ele>542</ele>
        <time>2011-08-14T07:43:32Z</time>
      </trkpt>
      <trkpt lat="48.65498" lon="7.23052">
        <ele>542</ele>
        <time>2011-08-14T07:43:34Z</time>
      </trkpt>
      <trkpt lat="48.65499" lon="7.23044">
        <ele>542</ele>
        <time>2011-08-14T07:43:36Z</time>
      </trkpt>
      <trkpt lat="48.655" lon="7.23036">
        <ele>542</ele>
        <time>2011-08-14T07:43:39Z</time>
      </trkpt>
      <trkpt lat="48.65501" lon="7.23027">
        <ele>542</ele>
        <time>2011-08-14T07:43:42Z</time>
      </trkpt>
      <trkpt lat="48.65503" lon="7.23018">
        <ele>541</ele>
        <time>2011-08-14T07:43:45Z</time>
      </trkpt>
      <trkpt lat="48.65505" lon="7.2301">
        <ele>541</ele>
        <time>2011-08-14T07:43:47Z</time>
      </trkpt>
      <trkpt lat="48.65507" lon="7.23003">
        <ele>541</ele>
        <time>2011-08-14T07:43:49Z</time>
      </trkpt>
      <trkpt lat="48.65508" lon="7.22995">
        <ele>541</ele>
        <time>2011-08-14T07:43:51Z</time>
      </trkpt>
      <trkpt lat="48.6551" lon="7.22987">
        <ele>541</ele>
        <time>2011-08-14T07:43:53Z</time>
      </trkpt>
      <trkpt lat="48.65513" lon="7.22978">
        <ele>541</ele>
        <time>2011-08-14T07:43:55Z</time>
      </trkpt>
      <trkpt lat="48.65516" lon="7.22968">
        <ele>541</ele>
        <time>2011-08-14T07:43:57Z</time>
      </trkpt>
      <trkpt lat="48.65519" lon="7.22958">
        <ele>540</ele>
        <time>2011-08-14T07:43:59Z</time>
      </trkpt>
      <trkpt lat="48.65523" lon="7.22949">
        <ele>540</ele>
        <time>2011-08-14T07:44:01Z</time>
      </trkpt>
      <trkpt lat="48.65527" lon="7.22939">
        <ele>540</ele>
        <time>2011-08-14T07:44:03Z</time>
      </trkpt>
      <trkpt lat="48.65531" lon="7.22929">
        <ele>540</ele>
        <time>2011-08-14T07:44:05Z</time>
      </trkpt>
      <trkpt lat="48.65536" lon="7.2292">
        <ele>540</ele>
        <time>2011-08-14T07:44:07Z</time>
      </trkpt>
      <trkpt lat="48.6554" lon="7.2291">
        <ele>538</ele>
        <time>2011-08-14T07:44:09Z</time>
      </trkpt>
      <trkpt lat="48.65546" lon="7.229">
        <ele>537</ele>
        <time>2011-08-14T07:44:11Z</time>
      </trkpt>
      <trkpt lat="48.65552" lon="7.22891">
        <ele>536</ele>
        <time>2011-08-14T07:44:13Z</time>
      </trkpt>
      <trkpt lat="48.65559" lon="7.22884">
        <ele>535</ele>
        <time>2011-08-14T07:44:15Z</time>
      </trkpt>
      <trkpt lat="48.65563" lon="7.2288">
        <ele>535</ele>
        <time>2011-08-14T07:44:16Z</time>
      </trkpt>
      <trkpt lat="48.65567" lon="7.22876">
        <ele>535</ele>
        <time>2011-08-14T07:44:17Z</time>
      </trkpt>
      <trkpt lat="48.65571" lon="7.22872">
        <ele>535</ele>
        <time>2011-08-14T07:44:18Z</time>
      </trkpt>
      <trkpt lat="48.65575" lon="7.22868">
        <ele>534</ele>
        <time>2011-08-14T07:44:19Z</time>
      </trkpt>
      <trkpt lat="48.65579" lon="7.22864">
        <ele>534</ele>
        <time>2011-08-14T07:44:20Z</time>
      </trkpt>
      <trkpt lat="48.65584" lon="7.22859">
        <ele>534</ele>
        <time>2011-08-14T07:44:21Z</time>
      </trkpt>
      <trkpt lat="48.65588" lon="7.22855">
        <ele>534</ele>
        <time>2011-08-14T07:44:22Z</time>
      </trkpt>
      <trkpt lat="48.65593" lon="7.22851">
        <ele>534</ele>
        <time>2011-08-14T07:44:23Z</time>
      </trkpt>
      <trkpt lat="48.65598" lon="7.22847">
        <ele>534</ele>
        <time>2011-08-14T07:44:24Z</time>
      </trkpt>
      <trkpt lat="48.65604" lon="7.22844">
        <ele>534</ele>
        <time>2011-08-14T07:44:25Z</time>
      </trkpt>
      <trkpt lat="48.65609" lon="7.22842">
        <ele>534</ele>
        <time>2011-08-14T07:44:26Z</time>
      </trkpt>
      <trkpt lat="48.65613" lon="7.2284">
        <ele>534</ele>
        <time>2011-08-14T07:44:27Z</time>
      </trkpt>
      <trkpt lat="48.65622" lon="7.2284">
        <ele>533</ele>
        <time>2011-08-14T07:44:29Z</time>
      </trkpt>
      <trkpt lat="48.65629" lon="7.2284">
        <ele>533</ele>
        <time>2011-08-14T07:44:31Z</time>
      </trkpt>
      <trkpt lat="48.65636" lon="7.2284">
        <ele>533</ele>
        <time>2011-08-14T07:44:33Z</time>
      </trkpt>
      <trkpt lat="48.65643" lon="7.2284">
        <ele>533</ele>
        <time>2011-08-14T07:44:35Z</time>
      </trkpt>
      <trkpt lat="48.65649" lon="7.22841">
        <ele>533</ele>
        <time>2011-08-14T07:44:37Z</time>
      </trkpt>
      <trkpt lat="48.65656" lon="7.22842">
        <ele>533</ele>
        <time>2011-08-14T07:44:39Z</time>
      </trkpt>
      <trkpt lat="48.65662" lon="7.22844">
        <ele>533</ele>
        <time>2011-08-14T07:44:41Z</time>
      </trkpt>
      <trkpt lat="48.65668" lon="7.22842">
        <ele>533</ele>
        <time>2011-08-14T07:44:43Z</time>
      </trkpt>
      <trkpt lat="48.65675" lon="7.22839">
        <ele>533</ele>
        <time>2011-08-14T07:44:45Z</time>
      </trkpt>
      <trkpt lat="48.65679" lon="7.22835">
        <ele>533</ele>
        <time>2011-08-14T07:44:46Z</time>
      </trkpt>
      <trkpt lat="48.65684" lon="7.2283">
        <ele>533</ele>
        <time>2011-08-14T07:44:47Z</time>
      </trkpt>
      <trkpt lat="48.65688" lon="7.22825">
        <ele>533</ele>
        <time>2011-08-14T07:44:48Z</time>
      </trkpt>
      <trkpt lat="48.65693" lon="7.2282">
        <ele>533</ele>
        <time>2011-08-14T07:44:49Z</time>
      </trkpt>
      <trkpt lat="48.65697" lon="7.22816">
        <ele>532</ele>
        <time>2011-08-14T07:44:50Z</time>
      </trkpt>
      <trkpt lat="48.657" lon="7.22812">
        <ele>532</ele>
        <time>2011-08-14T07:44:51Z</time>
      </trkpt>
      <trkpt lat="48.65706" lon="7.22805">
        <ele>532</ele>
        <time>2011-08-14T07:44:53Z</time>
      </trkpt>
      <trkpt lat="48.6571" lon="7.228">
        <ele>532</ele>
        <time>2011-08-14T07:44:55Z</time>
      </trkpt>
      <trkpt lat="48.65715" lon="7.22794">
        <ele>531</ele>
        <time>2011-08-14T07:44:58Z</time>
      </trkpt>
      <trkpt lat="48.6572" lon="7.22789">
        <ele>531</ele>
        <time>2011-08-14T07:45:01Z</time>
      </trkpt>
      <trkpt lat="48.65724" lon="7.22783">
        <ele>531</ele>
        <time>2011-08-14T07:45:04Z</time>
      </trkpt>
      <trkpt lat="48.65728" lon="7.22777">
        <ele>531</ele>
        <time>2011-08-14T07:45:07Z</time>
      </trkpt>
      <trkpt lat="48.65731" lon="7.2277">
        <ele>531</ele>
        <time>2011-08-14T07:45:10Z</time>
      </trkpt>
      <trkpt lat="48.65733" lon="7.22763">
        <ele>531</ele>
        <time>2011-08-14T07:45:13Z</time>
      </trkpt>
      <trkpt lat="48.65733" lon="7.22754">
        <ele>531</ele>
        <time>2011-08-14T07:45:17Z</time>
      </trkpt>
      <trkpt lat="48.65734" lon="7.22746">
        <ele>531</ele>
        <time>2011-08-14T07:45:21Z</time>
      </trkpt>
      <trkpt lat="48.65735" lon="7.22739">
        <ele>531</ele>
        <time>2011-08-14T07:45:23Z</time>
      </trkpt>
      <trkpt lat="48.65735" lon="7.22731">
        <ele>531</ele>
        <time>2011-08-14T07:45:28Z</time>
      </trkpt>
      <trkpt lat="48.65736" lon="7.2272">
        <ele>531</ele>
        <time>2011-08-14T07:45:35Z</time>
      </trkpt>
      <trkpt lat="48.65736" lon="7.2271">
        <ele>531</ele>
        <time>2011-08-14T07:45:37Z</time>
      </trkpt>
      <trkpt lat="48.65736" lon="7.22703">
        <ele>531</ele>
        <time>2011-08-14T07:45:39Z</time>
      </trkpt>
      <trkpt lat="48.65736" lon="7.22693">
        <ele>531</ele>
        <time>2011-08-14T07:45:41Z</time>
      </trkpt>
      <trkpt lat="48.65737" lon="7.22686">
        <ele>531</ele>
        <time>2011-08-14T07:45:44Z</time>
      </trkpt>
      <trkpt lat="48.65737" lon="7.22677">
        <ele>531</ele>
        <time>2011-08-14T07:45:47Z</time>
      </trkpt>
      <trkpt lat="48.65737" lon="7.22667">
        <ele>531</ele>
        <time>2011-08-14T07:45:50Z</time>
      </trkpt>
      <trkpt lat="48.65737" lon="7.22658">
        <ele>531</ele>
        <time>2011-08-14T07:45:52Z</time>
      </trkpt>
      <trkpt lat="48.65736" lon="7.22651">
        <ele>532</ele>
        <time>2011-08-14T07:45:53Z</time>
      </trkpt>
      <trkpt lat="48.65736" lon="7.22644">
        <ele>532</ele>
        <time>2011-08-14T07:45:54Z</time>
      </trkpt>
      <trkpt lat="48.65735" lon="7.22625">
        <ele>532</ele>
        <time>2011-08-14T07:45:55Z</time>
      </trkpt>
      <trkpt lat="48.65733" lon="7.22615">
        <ele>532</ele>
        <time>2011-08-14T07:45:57Z</time>
      </trkpt>
      <trkpt lat="48.6573" lon="7.22605">
        <ele>532</ele>
        <time>2011-08-14T07:45:59Z</time>
      </trkpt>
      <trkpt lat="48.65727" lon="7.22596">
        <ele>532</ele>
        <time>2011-08-14T07:46:01Z</time>
      </trkpt>
      <trkpt lat="48.65724" lon="7.22588">
        <ele>532</ele>
        <time>2011-08-14T07:46:03Z</time>
      </trkpt>
      <trkpt lat="48.65721" lon="7.2258">
        <ele>532</ele>
        <time>2011-08-14T07:46:05Z</time>
      </trkpt>
      <trkpt lat="48.65718" lon="7.22572">
        <ele>532</ele>
        <time>2011-08-14T07:46:07Z</time>
      </trkpt>
      <trkpt lat="48.65715" lon="7.22565">
        <ele>532</ele>
        <time>2011-08-14T07:46:09Z</time>
      </trkpt>
      <trkpt lat="48.65713" lon="7.22556">
        <ele>532</ele>
        <time>2011-08-14T07:46:11Z</time>
      </trkpt>
      <trkpt lat="48.65711" lon="7.22547">
        <ele>532</ele>
        <time>2011-08-14T07:46:13Z</time>
      </trkpt>
      <trkpt lat="48.65708" lon="7.22536">
        <ele>532</ele>
        <time>2011-08-14T07:46:15Z</time>
      </trkpt>
      <trkpt lat="48.65707" lon="7.22526">
        <ele>532</ele>
        <time>2011-08-14T07:46:17Z</time>
      </trkpt>
      <trkpt lat="48.65705" lon="7.22507">
        <ele>531</ele>
        <time>2011-08-14T07:46:21Z</time>
      </trkpt>
      <trkpt lat="48.65705" lon="7.22507">
        <ele>531</ele>
        <time>2011-08-14T07:46:21Z</time>
      </trkpt>
      <trkpt lat="48.65705" lon="7.22507">
        <ele>531</ele>
        <time>2011-08-14T07:46:22Z</time>
      </trkpt>
      <trkpt lat="48.65703" lon="7.22498">
        <ele>531</ele>
        <time>2011-08-14T07:46:23Z</time>
      </trkpt>
      <trkpt lat="48.65703" lon="7.22498">
        <ele>531</ele>
        <time>2011-08-14T07:46:23Z</time>
      </trkpt>
      <trkpt lat="48.65703" lon="7.22498">
        <ele>531</ele>
        <time>2011-08-14T07:46:26Z</time>
      </trkpt>
      <trkpt lat="48.65695" lon="7.22489">
        <ele>531</ele>
        <time>2011-08-14T07:46:27Z</time>
      </trkpt>
      <trkpt lat="48.65691" lon="7.22498">
        <ele>530</ele>
        <time>2011-08-14T07:46:30Z</time>
      </trkpt>
      <trkpt lat="48.65689" lon="7.22507">
        <ele>530</ele>
        <time>2011-08-14T07:46:32Z</time>
      </trkpt>
      <trkpt lat="48.65686" lon="7.22517">
        <ele>530</ele>
        <time>2011-08-14T07:46:34Z</time>
      </trkpt>
      <trkpt lat="48.65684" lon="7.22527">
        <ele>530</ele>
        <time>2011-08-14T07:46:36Z</time>
      </trkpt>
      <trkpt lat="48.65681" lon="7.22536">
        <ele>530</ele>
        <time>2011-08-14T07:46:38Z</time>
      </trkpt>
      <trkpt lat="48.65679" lon="7.22546">
        <ele>529</ele>
        <time>2011-08-14T07:46:40Z</time>
      </trkpt>
      <trkpt lat="48.65677" lon="7.22555">
        <ele>529</ele>
        <time>2011-08-14T07:46:42Z</time>
      </trkpt>
      <trkpt lat="48.65674" lon="7.22564">
        <ele>529</ele>
        <time>2011-08-14T07:46:44Z</time>
      </trkpt>
      <trkpt lat="48.65672" lon="7.22572">
        <ele>529</ele>
        <time>2011-08-14T07:46:46Z</time>
      </trkpt>
      <trkpt lat="48.6567" lon="7.2258">
        <ele>529</ele>
        <time>2011-08-14T07:46:48Z</time>
      </trkpt>
      <trkpt lat="48.65667" lon="7.2259">
        <ele>529</ele>
        <time>2011-08-14T07:46:50Z</time>
      </trkpt>
      <trkpt lat="48.65664" lon="7.22601">
        <ele>527</ele>
        <time>2011-08-14T07:46:52Z</time>
      </trkpt>
      <trkpt lat="48.65661" lon="7.22613">
        <ele>526</ele>
        <time>2011-08-14T07:46:54Z</time>
      </trkpt>
      <trkpt lat="48.65659" lon="7.2262">
        <ele>525</ele>
        <time>2011-08-14T07:46:55Z</time>
      </trkpt>
      <trkpt lat="48.65658" lon="7.22627">
        <ele>525</ele>
        <time>2011-08-14T07:46:56Z</time>
      </trkpt>
      <trkpt lat="48.65656" lon="7.22634">
        <ele>524</ele>
        <time>2011-08-14T07:46:57Z</time>
      </trkpt>
      <trkpt lat="48.65653" lon="7.22641">
        <ele>524</ele>
        <time>2011-08-14T07:46:58Z</time>
      </trkpt>
      <trkpt lat="48.65651" lon="7.22648">
        <ele>524</ele>
        <time>2011-08-14T07:46:59Z</time>
      </trkpt>
      <trkpt lat="48.65649" lon="7.22654">
        <ele>523</ele>
        <time>2011-08-14T07:47:00Z</time>
      </trkpt>
      <trkpt lat="48.65646" lon="7.2266">
        <ele>523</ele>
        <time>2011-08-14T07:47:01Z</time>
      </trkpt>
      <trkpt lat="48.65641" lon="7.2267">
        <ele>522</ele>
        <time>2011-08-14T07:47:03Z</time>
      </trkpt>
      <trkpt lat="48.65636" lon="7.2268">
        <ele>522</ele>
        <time>2011-08-14T07:47:05Z</time>
      </trkpt>
      <trkpt lat="48.65631" lon="7.22689">
        <ele>521</ele>
        <time>2011-08-14T07:47:07Z</time>
      </trkpt>
      <trkpt lat="48.65625" lon="7.22698">
        <ele>521</ele>
        <time>2011-08-14T07:47:09Z</time>
      </trkpt>
      <trkpt lat="48.6562" lon="7.22707">
        <ele>520</ele>
        <time>2011-08-14T07:47:11Z</time>
      </trkpt>
      <trkpt lat="48.65616" lon="7.22714">
        <ele>520</ele>
        <time>2011-08-14T07:47:13Z</time>
      </trkpt>
      <trkpt lat="48.65612" lon="7.22719">
        <ele>520</ele>
        <time>2011-08-14T07:47:16Z</time>
      </trkpt>
      <trkpt lat="48.65612" lon="7.22719">
        <ele>520</ele>
        <time>2011-08-14T07:47:16Z</time>
      </trkpt>
      <trkpt lat="48.65612" lon="7.22719">
        <ele>520</ele>
        <time>2011-08-14T07:47:18Z</time>
      </trkpt>
      <trkpt lat="48.65608" lon="7.22724">
        <ele>520</ele>
        <time>2011-08-14T07:47:21Z</time>
      </trkpt>
      <trkpt lat="48.65603" lon="7.22728">
        <ele>520</ele>
        <time>2011-08-14T07:47:25Z</time>
      </trkpt>
      <trkpt lat="48.65597" lon="7.22733">
        <ele>520</ele>
        <time>2011-08-14T07:47:28Z</time>
      </trkpt>
      <trkpt lat="48.65592" lon="7.22736">
        <ele>520</ele>
        <time>2011-08-14T07:47:30Z</time>
      </trkpt>
      <trkpt lat="48.65584" lon="7.22738">
        <ele>519</ele>
        <time>2011-08-14T07:47:32Z</time>
      </trkpt>
      <trkpt lat="48.65578" lon="7.22742">
        <ele>519</ele>
        <time>2011-08-14T07:47:34Z</time>
      </trkpt>
      <trkpt lat="48.65571" lon="7.22745">
        <ele>519</ele>
        <time>2011-08-14T07:47:36Z</time>
      </trkpt>
      <trkpt lat="48.65564" lon="7.22748">
        <ele>519</ele>
        <time>2011-08-14T07:47:38Z</time>
      </trkpt>
      <trkpt lat="48.65555" lon="7.22751">
        <ele>518</ele>
        <time>2011-08-14T07:47:40Z</time>
      </trkpt>
      <trkpt lat="48.6555" lon="7.22753">
        <ele>517</ele>
        <time>2011-08-14T07:47:41Z</time>
      </trkpt>
      <trkpt lat="48.65545" lon="7.22755">
        <ele>516</ele>
        <time>2011-08-14T07:47:42Z</time>
      </trkpt>
      <trkpt lat="48.6554" lon="7.22758">
        <ele>516</ele>
        <time>2011-08-14T07:47:43Z</time>
      </trkpt>
      <trkpt lat="48.65536" lon="7.2276">
        <ele>516</ele>
        <time>2011-08-14T07:47:44Z</time>
      </trkpt>
      <trkpt lat="48.65531" lon="7.22764">
        <ele>515</ele>
        <time>2011-08-14T07:47:45Z</time>
      </trkpt>
      <trkpt lat="48.65527" lon="7.22767">
        <ele>515</ele>
        <time>2011-08-14T07:47:46Z</time>
      </trkpt>
      <trkpt lat="48.6552" lon="7.22774">
        <ele>514</ele>
        <time>2011-08-14T07:47:48Z</time>
      </trkpt>
      <trkpt lat="48.65513" lon="7.2278">
        <ele>514</ele>
        <time>2011-08-14T07:47:50Z</time>
      </trkpt>
      <trkpt lat="48.65506" lon="7.22786">
        <ele>514</ele>
        <time>2011-08-14T07:47:52Z</time>
      </trkpt>
      <trkpt lat="48.655" lon="7.22793">
        <ele>514</ele>
        <time>2011-08-14T07:47:54Z</time>
      </trkpt>
      <trkpt lat="48.65495" lon="7.22799">
        <ele>514</ele>
        <time>2011-08-14T07:47:56Z</time>
      </trkpt>
      <trkpt lat="48.6549" lon="7.22806">
        <ele>514</ele>
        <time>2011-08-14T07:47:58Z</time>
      </trkpt>
      <trkpt lat="48.65485" lon="7.22813">
        <ele>513</ele>
        <time>2011-08-14T07:48:00Z</time>
      </trkpt>
      <trkpt lat="48.65481" lon="7.2282">
        <ele>513</ele>
        <time>2011-08-14T07:48:02Z</time>
      </trkpt>
      <trkpt lat="48.65476" lon="7.22827">
        <ele>513</ele>
        <time>2011-08-14T07:48:04Z</time>
      </trkpt>
      <trkpt lat="48.65471" lon="7.22836">
        <ele>513</ele>
        <time>2011-08-14T07:48:06Z</time>
      </trkpt>
      <trkpt lat="48.65466" lon="7.22844">
        <ele>513</ele>
        <time>2011-08-14T07:48:08Z</time>
      </trkpt>
      <trkpt lat="48.65461" lon="7.22853">
        <ele>513</ele>
        <time>2011-08-14T07:48:10Z</time>
      </trkpt>
      <trkpt lat="48.65456" lon="7.22862">
        <ele>513</ele>
        <time>2011-08-14T07:48:12Z</time>
      </trkpt>
      <trkpt lat="48.65452" lon="7.22871">
        <ele>513</ele>
        <time>2011-08-14T07:48:14Z</time>
      </trkpt>
      <trkpt lat="48.65447" lon="7.2288">
        <ele>513</ele>
        <time>2011-08-14T07:48:16Z</time>
      </trkpt>
      <trkpt lat="48.65443" lon="7.22889">
        <ele>513</ele>
        <time>2011-08-14T07:48:18Z</time>
      </trkpt>
      <trkpt lat="48.65439" lon="7.22897">
        <ele>513</ele>
        <time>2011-08-14T07:48:20Z</time>
      </trkpt>
      <trkpt lat="48.65435" lon="7.22905">
        <ele>513</ele>
        <time>2011-08-14T07:48:22Z</time>
      </trkpt>
      <trkpt lat="48.65432" lon="7.22913">
        <ele>512</ele>
        <time>2011-08-14T07:48:24Z</time>
      </trkpt>
      <trkpt lat="48.65428" lon="7.22922">
        <ele>512</ele>
        <time>2011-08-14T07:48:26Z</time>
      </trkpt>
      <trkpt lat="48.65424" lon="7.2293">
        <ele>512</ele>
        <time>2011-08-14T07:48:28Z</time>
      </trkpt>
      <trkpt lat="48.6542" lon="7.22938">
        <ele>512</ele>
        <time>2011-08-14T07:48:30Z</time>
      </trkpt>
      <trkpt lat="48.65415" lon="7.22947">
        <ele>512</ele>
        <time>2011-08-14T07:48:32Z</time>
      </trkpt>
      <trkpt lat="48.6541" lon="7.22956">
        <ele>511</ele>
        <time>2011-08-14T07:48:34Z</time>
      </trkpt>
      <trkpt lat="48.65406" lon="7.22967">
        <ele>511</ele>
        <time>2011-08-14T07:48:36Z</time>
      </trkpt>
      <trkpt lat="48.65403" lon="7.22978">
        <ele>510</ele>
        <time>2011-08-14T07:48:38Z</time>
      </trkpt>
      <trkpt lat="48.65401" lon="7.2299">
        <ele>510</ele>
        <time>2011-08-14T07:48:40Z</time>
      </trkpt>
      <trkpt lat="48.654" lon="7.23003">
        <ele>510</ele>
        <time>2011-08-14T07:48:42Z</time>
      </trkpt>
      <trkpt lat="48.65399" lon="7.23015">
        <ele>510</ele>
        <time>2011-08-14T07:48:44Z</time>
      </trkpt>
      <trkpt lat="48.65397" lon="7.23027">
        <ele>510</ele>
        <time>2011-08-14T07:48:46Z</time>
      </trkpt>
      <trkpt lat="48.65396" lon="7.23039">
        <ele>510</ele>
        <time>2011-08-14T07:48:48Z</time>
      </trkpt>
      <trkpt lat="48.65394" lon="7.23049">
        <ele>509</ele>
        <time>2011-08-14T07:48:50Z</time>
      </trkpt>
      <trkpt lat="48.65393" lon="7.23057">
        <ele>509</ele>
        <time>2011-08-14T07:48:52Z</time>
      </trkpt>
      <trkpt lat="48.65391" lon="7.23064">
        <ele>509</ele>
        <time>2011-08-14T07:48:54Z</time>
      </trkpt>
      <trkpt lat="48.65389" lon="7.23071">
        <ele>509</ele>
        <time>2011-08-14T07:48:56Z</time>
      </trkpt>
      <trkpt lat="48.65386" lon="7.23079">
        <ele>509</ele>
        <time>2011-08-14T07:48:58Z</time>
      </trkpt>
      <trkpt lat="48.65384" lon="7.23087">
        <ele>509</ele>
        <time>2011-08-14T07:49:00Z</time>
      </trkpt>
      <trkpt lat="48.65382" lon="7.23094">
        <ele>509</ele>
        <time>2011-08-14T07:49:03Z</time>
      </trkpt>
      <trkpt lat="48.65378" lon="7.23103">
        <ele>509</ele>
        <time>2011-08-14T07:49:07Z</time>
      </trkpt>
      <trkpt lat="48.65377" lon="7.23111">
        <ele>509</ele>
        <time>2011-08-14T07:49:09Z</time>
      </trkpt>
      <trkpt lat="48.65376" lon="7.2312">
        <ele>508</ele>
        <time>2011-08-14T07:49:11Z</time>
      </trkpt>
      <trkpt lat="48.65375" lon="7.2313">
        <ele>508</ele>
        <time>2011-08-14T07:49:13Z</time>
      </trkpt>
      <trkpt lat="48.65375" lon="7.2314">
        <ele>508</ele>
        <time>2011-08-14T07:49:15Z</time>
      </trkpt>
      <trkpt lat="48.65375" lon="7.2315">
        <ele>508</ele>
        <time>2011-08-14T07:49:17Z</time>
      </trkpt>
      <trkpt lat="48.65375" lon="7.23159">
        <ele>508</ele>
        <time>2011-08-14T07:49:19Z</time>
      </trkpt>
      <trkpt lat="48.65375" lon="7.23167">
        <ele>508</ele>
        <time>2011-08-14T07:49:21Z</time>
      </trkpt>
      <trkpt lat="48.65374" lon="7.23175">
        <ele>508</ele>
        <time>2011-08-14T07:49:23Z</time>
      </trkpt>
      <trkpt lat="48.65374" lon="7.23183">
        <ele>508</ele>
        <time>2011-08-14T07:49:25Z</time>
      </trkpt>
      <trkpt lat="48.65374" lon="7.2319">
        <ele>508</ele>
        <time>2011-08-14T07:49:27Z</time>
      </trkpt>
      <trkpt lat="48.65374" lon="7.23198">
        <ele>507</ele>
        <time>2011-08-14T07:49:29Z</time>
      </trkpt>
      <trkpt lat="48.65374" lon="7.23205">
        <ele>507</ele>
        <time>2011-08-14T07:49:31Z</time>
      </trkpt>
      <trkpt lat="48.65374" lon="7.23212">
        <ele>507</ele>
        <time>2011-08-14T07:49:33Z</time>
      </trkpt>
      <trkpt lat="48.65375" lon="7.23219">
        <ele>507</ele>
        <time>2011-08-14T07:49:35Z</time>
      </trkpt>
      <trkpt lat="48.65375" lon="7.23227">
        <ele>507</ele>
        <time>2011-08-14T07:49:37Z</time>
      </trkpt>
      <trkpt lat="48.65375" lon="7.23234">
        <ele>507</ele>
        <time>2011-08-14T07:49:39Z</time>
      </trkpt>
      <trkpt lat="48.65376" lon="7.23241">
        <ele>507</ele>
        <time>2011-08-14T07:49:41Z</time>
      </trkpt>
      <trkpt lat="48.65376" lon="7.23248">
        <ele>507</ele>
        <time>2011-08-14T07:49:43Z</time>
      </trkpt>
      <trkpt lat="48.65376" lon="7.23255">
        <ele>507</ele>
        <time>2011-08-14T07:49:45Z</time>
      </trkpt>
      <trkpt lat="48.65376" lon="7.23262">
        <ele>507</ele>
        <time>2011-08-14T07:49:47Z</time>
      </trkpt>
      <trkpt lat="48.65377" lon="7.23269">
        <ele>507</ele>
        <time>2011-08-14T07:49:49Z</time>
      </trkpt>
      <trkpt lat="48.65377" lon="7.23276">
        <ele>507</ele>
        <time>2011-08-14T07:49:51Z</time>
      </trkpt>
      <trkpt lat="48.65377" lon="7.23283">
        <ele>507</ele>
        <time>2011-08-14T07:49:53Z</time>
      </trkpt>
      <trkpt lat="48.65378" lon="7.2329">
        <ele>507</ele>
        <time>2011-08-14T07:49:55Z</time>
      </trkpt>
      <trkpt lat="48.65377" lon="7.23297">
        <ele>507</ele>
        <time>2011-08-14T07:49:57Z</time>
      </trkpt>
      <trkpt lat="48.65377" lon="7.23304">
        <ele>507</ele>
        <time>2011-08-14T07:49:59Z</time>
      </trkpt>
      <trkpt lat="48.65376" lon="7.23312">
        <ele>507</ele>
        <time>2011-08-14T07:50:01Z</time>
      </trkpt>
      <trkpt lat="48.65376" lon="7.23322">
        <ele>507</ele>
        <time>2011-08-14T07:50:04Z</time>
      </trkpt>
      <trkpt lat="48.65376" lon="7.23331">
        <ele>507</ele>
        <time>2011-08-14T07:50:06Z</time>
      </trkpt>
      <trkpt lat="48.65375" lon="7.23341">
        <ele>507</ele>
        <time>2011-08-14T07:50:08Z</time>
      </trkpt>
      <trkpt lat="48.65374" lon="7.2335">
        <ele>507</ele>
        <time>2011-08-14T07:50:10Z</time>
      </trkpt>
      <trkpt lat="48.65373" lon="7.23359">
        <ele>507</ele>
        <time>2011-08-14T07:50:13Z</time>
      </trkpt>
      <trkpt lat="48.65373" lon="7.23369">
        <ele>507</ele>
        <time>2011-08-14T07:50:16Z</time>
      </trkpt>
      <trkpt lat="48.65372" lon="7.23378">
        <ele>507</ele>
        <time>2011-08-14T07:50:19Z</time>
      </trkpt>
      <trkpt lat="48.65371" lon="7.23388">
        <ele>507</ele>
        <time>2011-08-14T07:50:22Z</time>
      </trkpt>
      <trkpt lat="48.6537" lon="7.23395">
        <ele>507</ele>
        <time>2011-08-14T07:50:24Z</time>
      </trkpt>
      <trkpt lat="48.6537" lon="7.23402">
        <ele>507</ele>
        <time>2011-08-14T07:50:26Z</time>
      </trkpt>
      <trkpt lat="48.65369" lon="7.2341">
        <ele>507</ele>
        <time>2011-08-14T07:50:28Z</time>
      </trkpt>
      <trkpt lat="48.65368" lon="7.23417">
        <ele>507</ele>
        <time>2011-08-14T07:50:30Z</time>
      </trkpt>
      <trkpt lat="48.65368" lon="7.23425">
        <ele>507</ele>
        <time>2011-08-14T07:50:32Z</time>
      </trkpt>
      <trkpt lat="48.65367" lon="7.23432">
        <ele>507</ele>
        <time>2011-08-14T07:50:34Z</time>
      </trkpt>
      <trkpt lat="48.65366" lon="7.2344">
        <ele>507</ele>
        <time>2011-08-14T07:50:36Z</time>
      </trkpt>
      <trkpt lat="48.65366" lon="7.23447">
        <ele>507</ele>
        <time>2011-08-14T07:50:38Z</time>
      </trkpt>
      <trkpt lat="48.65365" lon="7.23455">
        <ele>507</ele>
        <time>2011-08-14T07:50:40Z</time>
      </trkpt>
      <trkpt lat="48.65364" lon="7.23462">
        <ele>507</ele>
        <time>2011-08-14T07:50:42Z</time>
      </trkpt>
      <trkpt lat="48.65363" lon="7.2347">
        <ele>507</ele>
        <time>2011-08-14T07:50:44Z</time>
      </trkpt>
      <trkpt lat="48.65362" lon="7.2348">
        <ele>508</ele>
        <time>2011-08-14T07:50:47Z</time>
      </trkpt>
      <trkpt lat="48.65361" lon="7.23489">
        <ele>508</ele>
        <time>2011-08-14T07:50:49Z</time>
      </trkpt>
      <trkpt lat="48.65361" lon="7.23499">
        <ele>508</ele>
        <time>2011-08-14T07:50:51Z</time>
      </trkpt>
      <trkpt lat="48.6536" lon="7.23508">
        <ele>508</ele>
        <time>2011-08-14T07:50:53Z</time>
      </trkpt>
      <trkpt lat="48.6536" lon="7.23516">
        <ele>508</ele>
        <time>2011-08-14T07:50:55Z</time>
      </trkpt>
      <trkpt lat="48.6536" lon="7.23525">
        <ele>508</ele>
        <time>2011-08-14T07:50:58Z</time>
      </trkpt>
      <trkpt lat="48.65359" lon="7.23534">
        <ele>508</ele>
        <time>2011-08-14T07:51:01Z</time>
      </trkpt>
      <trkpt lat="48.65357" lon="7.23542">
        <ele>508</ele>
        <time>2011-08-14T07:51:04Z</time>
      </trkpt>
      <trkpt lat="48.65353" lon="7.23546">
        <ele>508</ele>
        <time>2011-08-14T07:51:06Z</time>
      </trkpt>
      <trkpt lat="48.65349" lon="7.23551">
        <ele>508</ele>
        <time>2011-08-14T07:51:08Z</time>
      </trkpt>
      <trkpt lat="48.65346" lon="7.23555">
        <ele>508</ele>
        <time>2011-08-14T07:51:10Z</time>
      </trkpt>
      <trkpt lat="48.65342" lon="7.23559">
        <ele>509</ele>
        <time>2011-08-14T07:51:12Z</time>
      </trkpt>
      <trkpt lat="48.65337" lon="7.23563">
        <ele>509</ele>
        <time>2011-08-14T07:51:14Z</time>
      </trkpt>
      <trkpt lat="48.65332" lon="7.23565">
        <ele>509</ele>
        <time>2011-08-14T07:51:16Z</time>
      </trkpt>
      <trkpt lat="48.65325" lon="7.23571">
        <ele>509</ele>
        <time>2011-08-14T07:51:22Z</time>
      </trkpt>
      <trkpt lat="48.65318" lon="7.2358">
        <ele>509</ele>
        <time>2011-08-14T07:51:25Z</time>
      </trkpt>
      <trkpt lat="48.65314" lon="7.23584">
        <ele>510</ele>
        <time>2011-08-14T07:51:28Z</time>
      </trkpt>
      <trkpt lat="48.65307" lon="7.23584">
        <ele>510</ele>
        <time>2011-08-14T07:51:33Z</time>
      </trkpt>
      <trkpt lat="48.65307" lon="7.23584">
        <ele>510</ele>
        <time>2011-08-14T07:51:33Z</time>
      </trkpt>
      <trkpt lat="48.65307" lon="7.23584">
        <ele>510</ele>
        <time>2011-08-14T07:51:36Z</time>
      </trkpt>
      <trkpt lat="48.653" lon="7.2358">
        <ele>510</ele>
        <time>2011-08-14T07:51:37Z</time>
      </trkpt>
      <trkpt lat="48.65294" lon="7.23577">
        <ele>510</ele>
        <time>2011-08-14T07:51:39Z</time>
      </trkpt>
      <trkpt lat="48.6529" lon="7.23574">
        <ele>510</ele>
        <time>2011-08-14T07:51:41Z</time>
      </trkpt>
      <trkpt lat="48.65284" lon="7.2357">
        <ele>511</ele>
        <time>2011-08-14T07:51:43Z</time>
      </trkpt>
      <trkpt lat="48.65278" lon="7.23566">
        <ele>511</ele>
        <time>2011-08-14T07:51:45Z</time>
      </trkpt>
      <trkpt lat="48.65273" lon="7.23562">
        <ele>511</ele>
        <time>2011-08-14T07:51:47Z</time>
      </trkpt>
      <trkpt lat="48.65267" lon="7.23556">
        <ele>511</ele>
        <time>2011-08-14T07:51:49Z</time>
      </trkpt>
      <trkpt lat="48.65262" lon="7.23551">
        <ele>511</ele>
        <time>2011-08-14T07:51:51Z</time>
      </trkpt>
      <trkpt lat="48.65256" lon="7.23546">
        <ele>511</ele>
        <time>2011-08-14T07:51:53Z</time>
      </trkpt>
      <trkpt lat="48.6525" lon="7.23543">
        <ele>511</ele>
        <time>2011-08-14T07:51:55Z</time>
      </trkpt>
      <trkpt lat="48.65245" lon="7.23539">
        <ele>512</ele>
        <time>2011-08-14T07:51:56Z</time>
      </trkpt>
      <trkpt lat="48.6524" lon="7.23536">
        <ele>512</ele>
        <time>2011-08-14T07:51:57Z</time>
      </trkpt>
      <trkpt lat="48.65234" lon="7.23533">
        <ele>513</ele>
        <time>2011-08-14T07:51:58Z</time>
      </trkpt>
      <trkpt lat="48.65229" lon="7.23531">
        <ele>513</ele>
        <time>2011-08-14T07:51:59Z</time>
      </trkpt>
      <trkpt lat="48.65224" lon="7.23529">
        <ele>513</ele>
        <time>2011-08-14T07:52:00Z</time>
      </trkpt>
      <trkpt lat="48.65219" lon="7.23527">
        <ele>513</ele>
        <time>2011-08-14T07:52:01Z</time>
      </trkpt>
      <trkpt lat="48.65214" lon="7.23526">
        <ele>513</ele>
        <time>2011-08-14T07:52:02Z</time>
      </trkpt>
      <trkpt lat="48.65209" lon="7.23524">
        <ele>514</ele>
        <time>2011-08-14T07:52:03Z</time>
      </trkpt>
      <trkpt lat="48.65204" lon="7.23521">
        <ele>514</ele>
        <time>2011-08-14T07:52:04Z</time>
      </trkpt>
      <trkpt lat="48.65199" lon="7.23519">
        <ele>514</ele>
        <time>2011-08-14T07:52:05Z</time>
      </trkpt>
      <trkpt lat="48.65193" lon="7.23516">
        <ele>514</ele>
        <time>2011-08-14T07:52:06Z</time>
      </trkpt>
      <trkpt lat="48.65188" lon="7.23514">
        <ele>514</ele>
        <time>2011-08-14T07:52:07Z</time>
      </trkpt>
      <trkpt lat="48.65182" lon="7.23511">
        <ele>514</ele>
        <time>2011-08-14T07:52:08Z</time>
      </trkpt>
      <trkpt lat="48.65177" lon="7.23508">
        <ele>514</ele>
        <time>2011-08-14T07:52:09Z</time>
      </trkpt>
      <trkpt lat="48.65172" lon="7.23506">
        <ele>514</ele>
        <time>2011-08-14T07:52:10Z</time>
      </trkpt>
      <trkpt lat="48.65167" lon="7.23504">
        <ele>514</ele>
        <time>2011-08-14T07:52:11Z</time>
      </trkpt>
      <trkpt lat="48.65162" lon="7.23502">
        <ele>514</ele>
        <time>2011-08-14T07:52:12Z</time>
      </trkpt>
      <trkpt lat="48.65157" lon="7.235">
        <ele>514</ele>
        <time>2011-08-14T07:52:13Z</time>
      </trkpt>
      <trkpt lat="48.65152" lon="7.23498">
        <ele>514</ele>
        <time>2011-08-14T07:52:14Z</time>
      </trkpt>
      <trkpt lat="48.65147" lon="7.23498">
        <ele>514</ele>
        <time>2011-08-14T07:52:15Z</time>
      </trkpt>
      <trkpt lat="48.65143" lon="7.23496">
        <ele>514</ele>
        <time>2011-08-14T07:52:16Z</time>
      </trkpt>
      <trkpt lat="48.65138" lon="7.23495">
        <ele>515</ele>
        <time>2011-08-14T07:52:17Z</time>
      </trkpt>
      <trkpt lat="48.65133" lon="7.23494">
        <ele>515</ele>
        <time>2011-08-14T07:52:18Z</time>
      </trkpt>
      <trkpt lat="48.65128" lon="7.23492">
        <ele>515</ele>
        <time>2011-08-14T07:52:19Z</time>
      </trkpt>
      <trkpt lat="48.65123" lon="7.2349">
        <ele>515</ele>
        <time>2011-08-14T07:52:20Z</time>
      </trkpt>
      <trkpt lat="48.65118" lon="7.23488">
        <ele>515</ele>
        <time>2011-08-14T07:52:21Z</time>
      </trkpt>
      <trkpt lat="48.65114" lon="7.23483">
        <ele>515</ele>
        <time>2011-08-14T07:52:22Z</time>
      </trkpt>
      <trkpt lat="48.65111" lon="7.23478">
        <ele>514</ele>
        <time>2011-08-14T07:52:23Z</time>
      </trkpt>
      <trkpt lat="48.65107" lon="7.23473">
        <ele>514</ele>
        <time>2011-08-14T07:52:24Z</time>
      </trkpt>
      <trkpt lat="48.65103" lon="7.23467">
        <ele>514</ele>
        <time>2011-08-14T07:52:25Z</time>
      </trkpt>
      <trkpt lat="48.65099" lon="7.23462">
        <ele>514</ele>
        <time>2011-08-14T07:52:26Z</time>
      </trkpt>
      <trkpt lat="48.65095" lon="7.23456">
        <ele>513</ele>
        <time>2011-08-14T07:52:27Z</time>
      </trkpt>
      <trkpt lat="48.65091" lon="7.23451">
        <ele>513</ele>
        <time>2011-08-14T07:52:28Z</time>
      </trkpt>
      <trkpt lat="48.65086" lon="7.23446">
        <ele>513</ele>
        <time>2011-08-14T07:52:29Z</time>
      </trkpt>
      <trkpt lat="48.65081" lon="7.23441">
        <ele>513</ele>
        <time>2011-08-14T07:52:30Z</time>
      </trkpt>
      <trkpt lat="48.65076" lon="7.23437">
        <ele>513</ele>
        <time>2011-08-14T07:52:31Z</time>
      </trkpt>
      <trkpt lat="48.65071" lon="7.23434">
        <ele>513</ele>
        <time>2011-08-14T07:52:32Z</time>
      </trkpt>
      <trkpt lat="48.65066" lon="7.23431">
        <ele>513</ele>
        <time>2011-08-14T07:52:33Z</time>
      </trkpt>
      <trkpt lat="48.65061" lon="7.23428">
        <ele>513</ele>
        <time>2011-08-14T07:52:34Z</time>
      </trkpt>
      <trkpt lat="48.65056" lon="7.23426">
        <ele>513</ele>
        <time>2011-08-14T07:52:35Z</time>
      </trkpt>
      <trkpt lat="48.65051" lon="7.23423">
        <ele>513</ele>
        <time>2011-08-14T07:52:36Z</time>
      </trkpt>
      <trkpt lat="48.65044" lon="7.23421">
        <ele>513</ele>
        <time>2011-08-14T07:52:39Z</time>
      </trkpt>
      <trkpt lat="48.65038" lon="7.23421">
        <ele>513</ele>
        <time>2011-08-14T07:52:41Z</time>
      </trkpt>
      <trkpt lat="48.65033" lon="7.2342">
        <ele>513</ele>
        <time>2011-08-14T07:52:43Z</time>
      </trkpt>
      <trkpt lat="48.65028" lon="7.2342">
        <ele>513</ele>
        <time>2011-08-14T07:52:45Z</time>
      </trkpt>
      <trkpt lat="48.65023" lon="7.23419">
        <ele>513</ele>
        <time>2011-08-14T07:52:47Z</time>
      </trkpt>
      <trkpt lat="48.65018" lon="7.23418">
        <ele>513</ele>
        <time>2011-08-14T07:52:49Z</time>
      </trkpt>
      <trkpt lat="48.65013" lon="7.23418">
        <ele>512</ele>
        <time>2011-08-14T07:52:51Z</time>
      </trkpt>
      <trkpt lat="48.65007" lon="7.23419">
        <ele>512</ele>
        <time>2011-08-14T07:52:53Z</time>
      </trkpt>
      <trkpt lat="48.65001" lon="7.23421">
        <ele>512</ele>
        <time>2011-08-14T07:52:55Z</time>
      </trkpt>
      <trkpt lat="48.64995" lon="7.23424">
        <ele>512</ele>
        <time>2011-08-14T07:52:57Z</time>
      </trkpt>
      <trkpt lat="48.6499" lon="7.23428">
        <ele>512</ele>
        <time>2011-08-14T07:52:59Z</time>
      </trkpt>
      <trkpt lat="48.64985" lon="7.23432">
        <ele>512</ele>
        <time>2011-08-14T07:53:01Z</time>
      </trkpt>
      <trkpt lat="48.6498" lon="7.23437">
        <ele>512</ele>
        <time>2011-08-14T07:53:03Z</time>
      </trkpt>
      <trkpt lat="48.64976" lon="7.23442">
        <ele>512</ele>
        <time>2011-08-14T07:53:05Z</time>
      </trkpt>
      <trkpt lat="48.64971" lon="7.23447">
        <ele>512</ele>
        <time>2011-08-14T07:53:07Z</time>
      </trkpt>
      <trkpt lat="48.64968" lon="7.23454">
        <ele>512</ele>
        <time>2011-08-14T07:53:09Z</time>
      </trkpt>
      <trkpt lat="48.64964" lon="7.23459">
        <ele>512</ele>
        <time>2011-08-14T07:53:11Z</time>
      </trkpt>
      <trkpt lat="48.64959" lon="7.23463">
        <ele>512</ele>
        <time>2011-08-14T07:53:13Z</time>
      </trkpt>
      <trkpt lat="48.64955" lon="7.23467">
        <ele>512</ele>
        <time>2011-08-14T07:53:15Z</time>
      </trkpt>
      <trkpt lat="48.64949" lon="7.23471">
        <ele>512</ele>
        <time>2011-08-14T07:53:18Z</time>
      </trkpt>
      <trkpt lat="48.64944" lon="7.23473">
        <ele>512</ele>
        <time>2011-08-14T07:53:21Z</time>
      </trkpt>
      <trkpt lat="48.64938" lon="7.23474">
        <ele>512</ele>
        <time>2011-08-14T07:53:24Z</time>
      </trkpt>
      <trkpt lat="48.64932" lon="7.23475">
        <ele>512</ele>
        <time>2011-08-14T07:53:27Z</time>
      </trkpt>
      <trkpt lat="48.64925" lon="7.23476">
        <ele>512</ele>
        <time>2011-08-14T07:53:30Z</time>
      </trkpt>
      <trkpt lat="48.64921" lon="7.23477">
        <ele>512</ele>
        <time>2011-08-14T07:53:32Z</time>
      </trkpt>
      <trkpt lat="48.64916" lon="7.23478">
        <ele>512</ele>
        <time>2011-08-14T07:53:34Z</time>
      </trkpt>
      <trkpt lat="48.64911" lon="7.2348">
        <ele>512</ele>
        <time>2011-08-14T07:53:36Z</time>
      </trkpt>
      <trkpt lat="48.64906" lon="7.23482">
        <ele>512</ele>
        <time>2011-08-14T07:53:38Z</time>
      </trkpt>
      <trkpt lat="48.64901" lon="7.23483">
        <ele>512</ele>
        <time>2011-08-14T07:53:40Z</time>
      </trkpt>
      <trkpt lat="48.64896" lon="7.23485">
        <ele>512</ele>
        <time>2011-08-14T07:53:42Z</time>
      </trkpt>
      <trkpt lat="48.6489" lon="7.23488">
        <ele>512</ele>
        <time>2011-08-14T07:53:44Z</time>
      </trkpt>
      <trkpt lat="48.64884" lon="7.23492">
        <ele>512</ele>
        <time>2011-08-14T07:53:46Z</time>
      </trkpt>
      <trkpt lat="48.64877" lon="7.23495">
        <ele>512</ele>
        <time>2011-08-14T07:53:48Z</time>
      </trkpt>
      <trkpt lat="48.6487" lon="7.23501">
        <ele>512</ele>
        <time>2011-08-14T07:53:50Z</time>
      </trkpt>
      <trkpt lat="48.64863" lon="7.23507">
        <ele>512</ele>
        <time>2011-08-14T07:53:52Z</time>
      </trkpt>
      <trkpt lat="48.64856" lon="7.23514">
        <ele>512</ele>
        <time>2011-08-14T07:53:54Z</time>
      </trkpt>
      <trkpt lat="48.64849" lon="7.23522">
        <ele>512</ele>
        <time>2011-08-14T07:53:56Z</time>
      </trkpt>
      <trkpt lat="48.64842" lon="7.23531">
        <ele>513</ele>
        <time>2011-08-14T07:53:58Z</time>
      </trkpt>
      <trkpt lat="48.64836" lon="7.2354">
        <ele>513</ele>
        <time>2011-08-14T07:54:00Z</time>
      </trkpt>
      <trkpt lat="48.64831" lon="7.23549">
        <ele>513</ele>
        <time>2011-08-14T07:54:02Z</time>
      </trkpt>
      <trkpt lat="48.64825" lon="7.23558">
        <ele>513</ele>
        <time>2011-08-14T07:54:04Z</time>
      </trkpt>
      <trkpt lat="48.64819" lon="7.23566">
        <ele>513</ele>
        <time>2011-08-14T07:54:06Z</time>
      </trkpt>
      <trkpt lat="48.64813" lon="7.23574">
        <ele>513</ele>
        <time>2011-08-14T07:54:08Z</time>
      </trkpt>
      <trkpt lat="48.6481" lon="7.2358">
        <ele>513</ele>
        <time>2011-08-14T07:54:09Z</time>
      </trkpt>
      <trkpt lat="48.64806" lon="7.23585">
        <ele>513</ele>
        <time>2011-08-14T07:54:10Z</time>
      </trkpt>
      <trkpt lat="48.64803" lon="7.23591">
        <ele>513</ele>
        <time>2011-08-14T07:54:11Z</time>
      </trkpt>
      <trkpt lat="48.64799" lon="7.23597">
        <ele>513</ele>
        <time>2011-08-14T07:54:12Z</time>
      </trkpt>
      <trkpt lat="48.64796" lon="7.23603">
        <ele>513</ele>
        <time>2011-08-14T07:54:13Z</time>
      </trkpt>
      <trkpt lat="48.64792" lon="7.2361">
        <ele>513</ele>
        <time>2011-08-14T07:54:14Z</time>
      </trkpt>
      <trkpt lat="48.64789" lon="7.23616">
        <ele>513</ele>
        <time>2011-08-14T07:54:15Z</time>
      </trkpt>
      <trkpt lat="48.64785" lon="7.23622">
        <ele>513</ele>
        <time>2011-08-14T07:54:16Z</time>
      </trkpt>
      <trkpt lat="48.6478" lon="7.23628">
        <ele>513</ele>
        <time>2011-08-14T07:54:17Z</time>
      </trkpt>
      <trkpt lat="48.64776" lon="7.23633">
        <ele>513</ele>
        <time>2011-08-14T07:54:18Z</time>
      </trkpt>
      <trkpt lat="48.6477" lon="7.23637">
        <ele>513</ele>
        <time>2011-08-14T07:54:19Z</time>
      </trkpt>
      <trkpt lat="48.64764" lon="7.23641">
        <ele>512</ele>
        <time>2011-08-14T07:54:20Z</time>
      </trkpt>
      <trkpt lat="48.64759" lon="7.23644">
        <ele>512</ele>
        <time>2011-08-14T07:54:21Z</time>
      </trkpt>
      <trkpt lat="48.64753" lon="7.23647">
        <ele>512</ele>
        <time>2011-08-14T07:54:22Z</time>
      </trkpt>
      <trkpt lat="48.64747" lon="7.2365">
        <ele>512</ele>
        <time>2011-08-14T07:54:23Z</time>
      </trkpt>
      <trkpt lat="48.64741" lon="7.23653">
        <ele>511</ele>
        <time>2011-08-14T07:54:24Z</time>
      </trkpt>
      <trkpt lat="48.64735" lon="7.23655">
        <ele>511</ele>
        <time>2011-08-14T07:54:25Z</time>
      </trkpt>
      <trkpt lat="48.64729" lon="7.23658">
        <ele>511</ele>
        <time>2011-08-14T07:54:26Z</time>
      </trkpt>
      <trkpt lat="48.64723" lon="7.2366">
        <ele>511</ele>
        <time>2011-08-14T07:54:27Z</time>
      </trkpt>
      <trkpt lat="48.64717" lon="7.23662">
        <ele>510</ele>
        <time>2011-08-14T07:54:28Z</time>
      </trkpt>
      <trkpt lat="48.64711" lon="7.23665">
        <ele>510</ele>
        <time>2011-08-14T07:54:29Z</time>
      </trkpt>
      <trkpt lat="48.64706" lon="7.23666">
        <ele>510</ele>
        <time>2011-08-14T07:54:30Z</time>
      </trkpt>
      <trkpt lat="48.64702" lon="7.23666">
        <ele>510</ele>
        <time>2011-08-14T07:54:31Z</time>
      </trkpt>
      <trkpt lat="48.64693" lon="7.23662">
        <ele>509</ele>
        <time>2011-08-14T07:54:33Z</time>
      </trkpt>
      <trkpt lat="48.64688" lon="7.23653">
        <ele>508</ele>
        <time>2011-08-14T07:54:35Z</time>
      </trkpt>
      <trkpt lat="48.64688" lon="7.23644">
        <ele>508</ele>
        <time>2011-08-14T07:54:37Z</time>
      </trkpt>
      <trkpt lat="48.6469" lon="7.23636">
        <ele>508</ele>
        <time>2011-08-14T07:54:39Z</time>
      </trkpt>
      <trkpt lat="48.64694" lon="7.23629">
        <ele>508</ele>
        <time>2011-08-14T07:54:41Z</time>
      </trkpt>
      <trkpt lat="48.64697" lon="7.23622">
        <ele>507</ele>
        <time>2011-08-14T07:54:43Z</time>
      </trkpt>
      <trkpt lat="48.64701" lon="7.23616">
        <ele>507</ele>
        <time>2011-08-14T07:54:45Z</time>
      </trkpt>
      <trkpt lat="48.64705" lon="7.2361">
        <ele>507</ele>
        <time>2011-08-14T07:54:47Z</time>
      </trkpt>
      <trkpt lat="48.6471" lon="7.23605">
        <ele>507</ele>
        <time>2011-08-14T07:54:49Z</time>
      </trkpt>
      <trkpt lat="48.64715" lon="7.236">
        <ele>507</ele>
        <time>2011-08-14T07:54:51Z</time>
      </trkpt>
      <trkpt lat="48.6472" lon="7.23596">
        <ele>507</ele>
        <time>2011-08-14T07:54:53Z</time>
      </trkpt>
      <trkpt lat="48.64726" lon="7.23589">
        <ele>507</ele>
        <time>2011-08-14T07:54:55Z</time>
      </trkpt>
      <trkpt lat="48.64732" lon="7.23582">
        <ele>507</ele>
        <time>2011-08-14T07:54:57Z</time>
      </trkpt>
      <trkpt lat="48.64737" lon="7.23574">
        <ele>507</ele>
        <time>2011-08-14T07:54:59Z</time>
      </trkpt>
      <trkpt lat="48.64741" lon="7.23566">
        <ele>507</ele>
        <time>2011-08-14T07:55:01Z</time>
      </trkpt>
      <trkpt lat="48.64744" lon="7.23556">
        <ele>507</ele>
        <time>2011-08-14T07:55:03Z</time>
      </trkpt>
      <trkpt lat="48.64749" lon="7.23548">
        <ele>508</ele>
        <time>2011-08-14T07:55:05Z</time>
      </trkpt>
      <trkpt lat="48.64754" lon="7.23544">
        <ele>508</ele>
        <time>2011-08-14T07:55:07Z</time>
      </trkpt>
      <trkpt lat="48.64759" lon="7.2353">
        <ele>508</ele>
        <time>2011-08-14T07:55:13Z</time>
      </trkpt>
      <trkpt lat="48.64759" lon="7.23519">
        <ele>508</ele>
        <time>2011-08-14T07:55:15Z</time>
      </trkpt>
      <trkpt lat="48.64759" lon="7.23507">
        <ele>508</ele>
        <time>2011-08-14T07:55:17Z</time>
      </trkpt>
      <trkpt lat="48.64757" lon="7.23496">
        <ele>509</ele>
        <time>2011-08-14T07:55:19Z</time>
      </trkpt>
      <trkpt lat="48.64756" lon="7.23488">
        <ele>509</ele>
        <time>2011-08-14T07:55:21Z</time>
      </trkpt>
      <trkpt lat="48.64756" lon="7.2348">
        <ele>509</ele>
        <time>2011-08-14T07:55:23Z</time>
      </trkpt>
      <trkpt lat="48.64757" lon="7.23473">
        <ele>510</ele>
        <time>2011-08-14T07:55:25Z</time>
      </trkpt>
      <trkpt lat="48.64757" lon="7.23466">
        <ele>510</ele>
        <time>2011-08-14T07:55:27Z</time>
      </trkpt>
      <trkpt lat="48.64758" lon="7.23459">
        <ele>511</ele>
        <time>2011-08-14T07:55:29Z</time>
      </trkpt>
      <trkpt lat="48.64759" lon="7.23452">
        <ele>511</ele>
        <time>2011-08-14T07:55:31Z</time>
      </trkpt>
      <trkpt lat="48.6476" lon="7.23444">
        <ele>512</ele>
        <time>2011-08-14T07:55:33Z</time>
      </trkpt>
      <trkpt lat="48.64761" lon="7.23437">
        <ele>512</ele>
        <time>2011-08-14T07:55:35Z</time>
      </trkpt>
      <trkpt lat="48.64762" lon="7.23429">
        <ele>513</ele>
        <time>2011-08-14T07:55:37Z</time>
      </trkpt>
      <trkpt lat="48.64764" lon="7.23422">
        <ele>513</ele>
        <time>2011-08-14T07:55:39Z</time>
      </trkpt>
      <trkpt lat="48.64766" lon="7.23415">
        <ele>514</ele>
        <time>2011-08-14T07:55:41Z</time>
      </trkpt>
      <trkpt lat="48.64768" lon="7.23408">
        <ele>514</ele>
        <time>2011-08-14T07:55:43Z</time>
      </trkpt>
      <trkpt lat="48.64771" lon="7.234">
        <ele>514</ele>
        <time>2011-08-14T07:55:45Z</time>
      </trkpt>
      <trkpt lat="48.64773" lon="7.23392">
        <ele>515</ele>
        <time>2011-08-14T07:55:47Z</time>
      </trkpt>
      <trkpt lat="48.64775" lon="7.23383">
        <ele>515</ele>
        <time>2011-08-14T07:55:49Z</time>
      </trkpt>
      <trkpt lat="48.64776" lon="7.23376">
        <ele>516</ele>
        <time>2011-08-14T07:55:51Z</time>
      </trkpt>
      <trkpt lat="48.64778" lon="7.23368">
        <ele>516</ele>
        <time>2011-08-14T07:55:53Z</time>
      </trkpt>
      <trkpt lat="48.64779" lon="7.2336">
        <ele>516</ele>
        <time>2011-08-14T07:55:55Z</time>
      </trkpt>
      <trkpt lat="48.6478" lon="7.23352">
        <ele>516</ele>
        <time>2011-08-14T07:55:57Z</time>
      </trkpt>
      <trkpt lat="48.64781" lon="7.23343">
        <ele>517</ele>
        <time>2011-08-14T07:55:59Z</time>
      </trkpt>
      <trkpt lat="48.64781" lon="7.23333">
        <ele>517</ele>
        <time>2011-08-14T07:56:01Z</time>
      </trkpt>
      <trkpt lat="48.64781" lon="7.23324">
        <ele>517</ele>
        <time>2011-08-14T07:56:03Z</time>
      </trkpt>
      <trkpt lat="48.64779" lon="7.23316">
        <ele>518</ele>
        <time>2011-08-14T07:56:05Z</time>
      </trkpt>
      <trkpt lat="48.64775" lon="7.23308">
        <ele>518</ele>
        <time>2011-08-14T07:56:07Z</time>
      </trkpt>
      <trkpt lat="48.64772" lon="7.23301">
        <ele>518</ele>
        <time>2011-08-14T07:56:09Z</time>
      </trkpt>
      <trkpt lat="48.64768" lon="7.23295">
        <ele>518</ele>
        <time>2011-08-14T07:56:11Z</time>
      </trkpt>
      <trkpt lat="48.64764" lon="7.23288">
        <ele>519</ele>
        <time>2011-08-14T07:56:13Z</time>
      </trkpt>
      <trkpt lat="48.64761" lon="7.23283">
        <ele>519</ele>
        <time>2011-08-14T07:56:15Z</time>
      </trkpt>
      <trkpt lat="48.6476" lon="7.23274">
        <ele>519</ele>
        <time>2011-08-14T07:56:18Z</time>
      </trkpt>
      <trkpt lat="48.64758" lon="7.23264">
        <ele>520</ele>
        <time>2011-08-14T07:56:21Z</time>
      </trkpt>
      <trkpt lat="48.6476" lon="7.23257">
        <ele>520</ele>
        <time>2011-08-14T07:56:23Z</time>
      </trkpt>
      <trkpt lat="48.64762" lon="7.23251">
        <ele>520</ele>
        <time>2011-08-14T07:56:25Z</time>
      </trkpt>
      <trkpt lat="48.64766" lon="7.23246">
        <ele>521</ele>
        <time>2011-08-14T07:56:27Z</time>
      </trkpt>
      <trkpt lat="48.64775" lon="7.23238">
        <ele>522</ele>
        <time>2011-08-14T07:56:31Z</time>
      </trkpt>
      <trkpt lat="48.64775" lon="7.23238">
        <ele>522</ele>
        <time>2011-08-14T07:56:31Z</time>
      </trkpt>
      <trkpt lat="48.64775" lon="7.23238">
        <ele>522</ele>
        <time>2011-08-14T07:56:32Z</time>
      </trkpt>
      <trkpt lat="48.64781" lon="7.23232">
        <ele>522</ele>
        <time>2011-08-14T07:56:35Z</time>
      </trkpt>
      <trkpt lat="48.64788" lon="7.23226">
        <ele>523</ele>
        <time>2011-08-14T07:56:38Z</time>
      </trkpt>
      <trkpt lat="48.64788" lon="7.23226">
        <ele>523</ele>
        <time>2011-08-14T07:56:38Z</time>
      </trkpt>
      <trkpt lat="48.64788" lon="7.23226">
        <ele>523</ele>
        <time>2011-08-14T07:56:44Z</time>
      </trkpt>
      <trkpt lat="48.64802" lon="7.23216">
        <ele>524</ele>
        <time>2011-08-14T07:56:45Z</time>
      </trkpt>
      <trkpt lat="48.64808" lon="7.23213">
        <ele>524</ele>
        <time>2011-08-14T07:56:49Z</time>
      </trkpt>
      <trkpt lat="48.64808" lon="7.23213">
        <ele>524</ele>
        <time>2011-08-14T07:56:49Z</time>
      </trkpt>
      <trkpt lat="48.64808" lon="7.23213">
        <ele>524</ele>
        <time>2011-08-14T07:57:17Z</time>
      </trkpt>
      <trkpt lat="48.64812" lon="7.2321">
        <ele>524</ele>
        <time>2011-08-14T07:57:27Z</time>
      </trkpt>
      <trkpt lat="48.64817" lon="7.23208">
        <ele>522</ele>
        <time>2011-08-14T07:57:40Z</time>
      </trkpt>
      <trkpt lat="48.64823" lon="7.23209">
        <ele>522</ele>
        <time>2011-08-14T07:57:43Z</time>
      </trkpt>
      <trkpt lat="48.64828" lon="7.23209">
        <ele>522</ele>
        <time>2011-08-14T07:57:45Z</time>
      </trkpt>
      <trkpt lat="48.64834" lon="7.23208">
        <ele>522</ele>
        <time>2011-08-14T07:57:47Z</time>
      </trkpt>
      <trkpt lat="48.64842" lon="7.23207">
        <ele>522</ele>
        <time>2011-08-14T07:57:49Z</time>
      </trkpt>
      <trkpt lat="48.64847" lon="7.23205">
        <ele>522</ele>
        <time>2011-08-14T07:57:51Z</time>
      </trkpt>
      <trkpt lat="48.64853" lon="7.23203">
        <ele>522</ele>
        <time>2011-08-14T07:57:53Z</time>
      </trkpt>
      <trkpt lat="48.64862" lon="7.23195">
        <ele>521</ele>
        <time>2011-08-14T07:58:01Z</time>
      </trkpt>
      <trkpt lat="48.64871" lon="7.23184">
        <ele>521</ele>
        <time>2011-08-14T07:58:03Z</time>
      </trkpt>
      <trkpt lat="48.64876" lon="7.23178">
        <ele>521</ele>
        <time>2011-08-14T07:58:05Z</time>
      </trkpt>
      <trkpt lat="48.64881" lon="7.23172">
        <ele>521</ele>
        <time>2011-08-14T07:58:07Z</time>
      </trkpt>
      <trkpt lat="48.64884" lon="7.23165">
        <ele>521</ele>
        <time>2011-08-14T07:58:09Z</time>
      </trkpt>
      <trkpt lat="48.64888" lon="7.23158">
        <ele>521</ele>
        <time>2011-08-14T07:58:11Z</time>
      </trkpt>
      <trkpt lat="48.6489" lon="7.23151">
        <ele>521</ele>
        <time>2011-08-14T07:58:13Z</time>
      </trkpt>
      <trkpt lat="48.64891" lon="7.23144">
        <ele>521</ele>
        <time>2011-08-14T07:58:15Z</time>
      </trkpt>
      <trkpt lat="48.64892" lon="7.23136">
        <ele>521</ele>
        <time>2011-08-14T07:58:17Z</time>
      </trkpt>
      <trkpt lat="48.64894" lon="7.2313">
        <ele>521</ele>
        <time>2011-08-14T07:58:19Z</time>
      </trkpt>
      <trkpt lat="48.64895" lon="7.23122">
        <ele>521</ele>
        <time>2011-08-14T07:58:21Z</time>
      </trkpt>
      <trkpt lat="48.64897" lon="7.23114">
        <ele>521</ele>
        <time>2011-08-14T07:58:23Z</time>
      </trkpt>
      <trkpt lat="48.64898" lon="7.23107">
        <ele>521</ele>
        <time>2011-08-14T07:58:25Z</time>
      </trkpt>
      <trkpt lat="48.649" lon="7.23099">
        <ele>521</ele>
        <time>2011-08-14T07:58:27Z</time>
      </trkpt>
      <trkpt lat="48.64903" lon="7.23092">
        <ele>521</ele>
        <time>2011-08-14T07:58:29Z</time>
      </trkpt>
      <trkpt lat="48.64906" lon="7.23084">
        <ele>521</ele>
        <time>2011-08-14T07:58:31Z</time>
      </trkpt>
      <trkpt lat="48.64908" lon="7.23076">
        <ele>521</ele>
        <time>2011-08-14T07:58:33Z</time>
      </trkpt>
      <trkpt lat="48.64911" lon="7.23068">
        <ele>521</ele>
        <time>2011-08-14T07:58:35Z</time>
      </trkpt>
      <trkpt lat="48.64914" lon="7.23059">
        <ele>521</ele>
        <time>2011-08-14T07:58:37Z</time>
      </trkpt>
      <trkpt lat="48.64916" lon="7.23051">
        <ele>521</ele>
        <time>2011-08-14T07:58:39Z</time>
      </trkpt>
      <trkpt lat="48.64919" lon="7.23042">
        <ele>521</ele>
        <time>2011-08-14T07:58:41Z</time>
      </trkpt>
      <trkpt lat="48.64922" lon="7.23034">
        <ele>521</ele>
        <time>2011-08-14T07:58:43Z</time>
      </trkpt>
      <trkpt lat="48.64924" lon="7.23026">
        <ele>521</ele>
        <time>2011-08-14T07:58:45Z</time>
      </trkpt>
      <trkpt lat="48.64927" lon="7.23018">
        <ele>521</ele>
        <time>2011-08-14T07:58:47Z</time>
      </trkpt>
      <trkpt lat="48.6493" lon="7.2301">
        <ele>521</ele>
        <time>2011-08-14T07:58:49Z</time>
      </trkpt>
      <trkpt lat="48.64933" lon="7.23001">
        <ele>521</ele>
        <time>2011-08-14T07:58:51Z</time>
      </trkpt>
      <trkpt lat="48.64935" lon="7.22991">
        <ele>521</ele>
        <time>2011-08-14T07:58:53Z</time>
      </trkpt>
      <trkpt lat="48.64938" lon="7.22982">
        <ele>521</ele>
        <time>2011-08-14T07:58:55Z</time>
      </trkpt>
      <trkpt lat="48.64941" lon="7.22972">
        <ele>521</ele>
        <time>2011-08-14T07:58:57Z</time>
      </trkpt>
      <trkpt lat="48.64946" lon="7.22961">
        <ele>521</ele>
        <time>2011-08-14T07:58:59Z</time>
      </trkpt>
      <trkpt lat="48.64949" lon="7.22951">
        <ele>521</ele>
        <time>2011-08-14T07:59:01Z</time>
      </trkpt>
      <trkpt lat="48.64952" lon="7.2294">
        <ele>521</ele>
        <time>2011-08-14T07:59:03Z</time>
      </trkpt>
      <trkpt lat="48.64956" lon="7.2293">
        <ele>521</ele>
        <time>2011-08-14T07:59:05Z</time>
      </trkpt>
      <trkpt lat="48.64958" lon="7.22919">
        <ele>521</ele>
        <time>2011-08-14T07:59:07Z</time>
      </trkpt>
      <trkpt lat="48.64961" lon="7.22908">
        <ele>521</ele>
        <time>2011-08-14T07:59:09Z</time>
      </trkpt>
      <trkpt lat="48.64964" lon="7.22896">
        <ele>521</ele>
        <time>2011-08-14T07:59:11Z</time>
      </trkpt>
      <trkpt lat="48.64968" lon="7.22884">
        <ele>521</ele>
        <time>2011-08-14T07:59:13Z</time>
      </trkpt>
      <trkpt lat="48.64972" lon="7.22872">
        <ele>522</ele>
        <time>2011-08-14T07:59:15Z</time>
      </trkpt>
      <trkpt lat="48.64975" lon="7.2286">
        <ele>522</ele>
        <time>2011-08-14T07:59:17Z</time>
      </trkpt>
      <trkpt lat="48.64978" lon="7.22849">
        <ele>522</ele>
        <time>2011-08-14T07:59:19Z</time>
      </trkpt>
      <trkpt lat="48.6498" lon="7.22838">
        <ele>522</ele>
        <time>2011-08-14T07:59:21Z</time>
      </trkpt>
      <trkpt lat="48.64983" lon="7.22829">
        <ele>522</ele>
        <time>2011-08-14T07:59:23Z</time>
      </trkpt>
      <trkpt lat="48.64985" lon="7.22819">
        <ele>522</ele>
        <time>2011-08-14T07:59:25Z</time>
      </trkpt>
      <trkpt lat="48.64986" lon="7.2281">
        <ele>523</ele>
        <time>2011-08-14T07:59:27Z</time>
      </trkpt>
      <trkpt lat="48.64987" lon="7.228">
        <ele>523</ele>
        <time>2011-08-14T07:59:29Z</time>
      </trkpt>
      <trkpt lat="48.64988" lon="7.2279">
        <ele>523</ele>
        <time>2011-08-14T07:59:31Z</time>
      </trkpt>
      <trkpt lat="48.64988" lon="7.22781">
        <ele>523</ele>
        <time>2011-08-14T07:59:33Z</time>
      </trkpt>
      <trkpt lat="48.64986" lon="7.22772">
        <ele>523</ele>
        <time>2011-08-14T07:59:35Z</time>
      </trkpt>
      <trkpt lat="48.64985" lon="7.22764">
        <ele>523</ele>
        <time>2011-08-14T07:59:37Z</time>
      </trkpt>
      <trkpt lat="48.64984" lon="7.22756">
        <ele>523</ele>
        <time>2011-08-14T07:59:40Z</time>
      </trkpt>
      <trkpt lat="48.64983" lon="7.22749">
        <ele>523</ele>
        <time>2011-08-14T07:59:43Z</time>
      </trkpt>
      <trkpt lat="48.64982" lon="7.22741">
        <ele>523</ele>
        <time>2011-08-14T07:59:45Z</time>
      </trkpt>
      <trkpt lat="48.64982" lon="7.22732">
        <ele>524</ele>
        <time>2011-08-14T07:59:47Z</time>
      </trkpt>
      <trkpt lat="48.64982" lon="7.22724">
        <ele>524</ele>
        <time>2011-08-14T07:59:49Z</time>
      </trkpt>
      <trkpt lat="48.64981" lon="7.22716">
        <ele>524</ele>
        <time>2011-08-14T07:59:51Z</time>
      </trkpt>
      <trkpt lat="48.64979" lon="7.22709">
        <ele>524</ele>
        <time>2011-08-14T07:59:53Z</time>
      </trkpt>
      <trkpt lat="48.64978" lon="7.22702">
        <ele>524</ele>
        <time>2011-08-14T07:59:55Z</time>
      </trkpt>
      <trkpt lat="48.64976" lon="7.22696">
        <ele>524</ele>
        <time>2011-08-14T07:59:57Z</time>
      </trkpt>
      <trkpt lat="48.64974" lon="7.22689">
        <ele>524</ele>
        <time>2011-08-14T07:59:59Z</time>
      </trkpt>
      <trkpt lat="48.64971" lon="7.22682">
        <ele>524</ele>
        <time>2011-08-14T08:00:01Z</time>
      </trkpt>
      <trkpt lat="48.64968" lon="7.22676">
        <ele>524</ele>
        <time>2011-08-14T08:00:03Z</time>
      </trkpt>
      <trkpt lat="48.64965" lon="7.22671">
        <ele>524</ele>
        <time>2011-08-14T08:00:05Z</time>
      </trkpt>
      <trkpt lat="48.64961" lon="7.22663">
        <ele>524</ele>
        <time>2011-08-14T08:00:08Z</time>
      </trkpt>
      <trkpt lat="48.64957" lon="7.22656">
        <ele>524</ele>
        <time>2011-08-14T08:00:11Z</time>
      </trkpt>
      <trkpt lat="48.64953" lon="7.22648">
        <ele>524</ele>
        <time>2011-08-14T08:00:14Z</time>
      </trkpt>
      <trkpt lat="48.6495" lon="7.22641">
        <ele>524</ele>
        <time>2011-08-14T08:00:17Z</time>
      </trkpt>
      <trkpt lat="48.64946" lon="7.22634">
        <ele>524</ele>
        <time>2011-08-14T08:00:20Z</time>
      </trkpt>
      <trkpt lat="48.64942" lon="7.22628">
        <ele>524</ele>
        <time>2011-08-14T08:00:23Z</time>
      </trkpt>
      <trkpt lat="48.64938" lon="7.2262">
        <ele>524</ele>
        <time>2011-08-14T08:00:26Z</time>
      </trkpt>
      <trkpt lat="48.64935" lon="7.22615">
        <ele>524</ele>
        <time>2011-08-14T08:00:28Z</time>
      </trkpt>
      <trkpt lat="48.64932" lon="7.22609">
        <ele>524</ele>
        <time>2011-08-14T08:00:30Z</time>
      </trkpt>
      <trkpt lat="48.64929" lon="7.22603">
        <ele>524</ele>
        <time>2011-08-14T08:00:32Z</time>
      </trkpt>
      <trkpt lat="48.64926" lon="7.22598">
        <ele>524</ele>
        <time>2011-08-14T08:00:34Z</time>
      </trkpt>
      <trkpt lat="48.64923" lon="7.22592">
        <ele>524</ele>
        <time>2011-08-14T08:00:36Z</time>
      </trkpt>
      <trkpt lat="48.6492" lon="7.22586">
        <ele>523</ele>
        <time>2011-08-14T08:00:38Z</time>
      </trkpt>
      <trkpt lat="48.64917" lon="7.2258">
        <ele>523</ele>
        <time>2011-08-14T08:00:40Z</time>
      </trkpt>
      <trkpt lat="48.64914" lon="7.22575">
        <ele>523</ele>
        <time>2011-08-14T08:00:42Z</time>
      </trkpt>
      <trkpt lat="48.64911" lon="7.2257">
        <ele>523</ele>
        <time>2011-08-14T08:00:44Z</time>
      </trkpt>
      <trkpt lat="48.64907" lon="7.22564">
        <ele>523</ele>
        <time>2011-08-14T08:00:46Z</time>
      </trkpt>
      <trkpt lat="48.64904" lon="7.22558">
        <ele>523</ele>
        <time>2011-08-14T08:00:48Z</time>
      </trkpt>
      <trkpt lat="48.64901" lon="7.22551">
        <ele>523</ele>
        <time>2011-08-14T08:00:50Z</time>
      </trkpt>
      <trkpt lat="48.64898" lon="7.22545">
        <ele>523</ele>
        <time>2011-08-14T08:00:52Z</time>
      </trkpt>
      <trkpt lat="48.64894" lon="7.22538">
        <ele>523</ele>
        <time>2011-08-14T08:00:54Z</time>
      </trkpt>
      <trkpt lat="48.6489" lon="7.2253">
        <ele>523</ele>
        <time>2011-08-14T08:00:56Z</time>
      </trkpt>
      <trkpt lat="48.64887" lon="7.22522">
        <ele>523</ele>
        <time>2011-08-14T08:00:58Z</time>
      </trkpt>
      <trkpt lat="48.64884" lon="7.22515">
        <ele>523</ele>
        <time>2011-08-14T08:01:00Z</time>
      </trkpt>
      <trkpt lat="48.64881" lon="7.22507">
        <ele>522</ele>
        <time>2011-08-14T08:01:02Z</time>
      </trkpt>
      <trkpt lat="48.64879" lon="7.22497">
        <ele>522</ele>
        <time>2011-08-14T08:01:04Z</time>
      </trkpt>
      <trkpt lat="48.64875" lon="7.22488">
        <ele>522</ele>
        <time>2011-08-14T08:01:06Z</time>
      </trkpt>
      <trkpt lat="48.64871" lon="7.22484">
        <ele>522</ele>
        <time>2011-08-14T08:01:08Z</time>
      </trkpt>
      <trkpt lat="48.64866" lon="7.2248">
        <ele>521</ele>
        <time>2011-08-14T08:01:12Z</time>
      </trkpt>
      <trkpt lat="48.64863" lon="7.22476">
        <ele>519</ele>
        <time>2011-08-14T08:01:44Z</time>
      </trkpt>
      <trkpt lat="48.64863" lon="7.22469">
        <ele>519</ele>
        <time>2011-08-14T08:02:02Z</time>
      </trkpt>
      <trkpt lat="48.64861" lon="7.22462">
        <ele>519</ele>
        <time>2011-08-14T08:02:08Z</time>
      </trkpt>
      <trkpt lat="48.6486" lon="7.22455">
        <ele>519</ele>
        <time>2011-08-14T08:02:13Z</time>
      </trkpt>
      <trkpt lat="48.64858" lon="7.22448">
        <ele>518</ele>
        <time>2011-08-14T08:02:23Z</time>
      </trkpt>
      <trkpt lat="48.64859" lon="7.22438">
        <ele>517</ele>
        <time>2011-08-14T08:02:26Z</time>
      </trkpt>
      <trkpt lat="48.64858" lon="7.22431">
        <ele>516</ele>
        <time>2011-08-14T08:02:29Z</time>
      </trkpt>
      <trkpt lat="48.64857" lon="7.22424">
        <ele>515</ele>
        <time>2011-08-14T08:02:33Z</time>
      </trkpt>
      <trkpt lat="48.64856" lon="7.22416">
        <ele>515</ele>
        <time>2011-08-14T08:02:36Z</time>
      </trkpt>
      <trkpt lat="48.64854" lon="7.22408">
        <ele>514</ele>
        <time>2011-08-14T08:02:41Z</time>
      </trkpt>
      <trkpt lat="48.64852" lon="7.22397">
        <ele>513</ele>
        <time>2011-08-14T08:02:46Z</time>
      </trkpt>
      <trkpt lat="48.64849" lon="7.22388">
        <ele>513</ele>
        <time>2011-08-14T08:02:48Z</time>
      </trkpt>
      <trkpt lat="48.64846" lon="7.22378">
        <ele>512</ele>
        <time>2011-08-14T08:02:50Z</time>
      </trkpt>
      <trkpt lat="48.64844" lon="7.22368">
        <ele>512</ele>
        <time>2011-08-14T08:02:52Z</time>
      </trkpt>
      <trkpt lat="48.64842" lon="7.22359">
        <ele>511</ele>
        <time>2011-08-14T08:02:54Z</time>
      </trkpt>
      <trkpt lat="48.6484" lon="7.22349">
        <ele>511</ele>
        <time>2011-08-14T08:02:56Z</time>
      </trkpt>
      <trkpt lat="48.64838" lon="7.22341">
        <ele>510</ele>
        <time>2011-08-14T08:02:58Z</time>
      </trkpt>
      <trkpt lat="48.64837" lon="7.22332">
        <ele>510</ele>
        <time>2011-08-14T08:03:00Z</time>
      </trkpt>
      <trkpt lat="48.64836" lon="7.22323">
        <ele>510</ele>
        <time>2011-08-14T08:03:02Z</time>
      </trkpt>
      <trkpt lat="48.64834" lon="7.22314">
        <ele>509</ele>
        <time>2011-08-14T08:03:04Z</time>
      </trkpt>
      <trkpt lat="48.64832" lon="7.22306">
        <ele>509</ele>
        <time>2011-08-14T08:03:06Z</time>
      </trkpt>
      <trkpt lat="48.6483" lon="7.22298">
        <ele>509</ele>
        <time>2011-08-14T08:03:08Z</time>
      </trkpt>
      <trkpt lat="48.64828" lon="7.22289">
        <ele>508</ele>
        <time>2011-08-14T08:03:10Z</time>
      </trkpt>
      <trkpt lat="48.64826" lon="7.2228">
        <ele>508</ele>
        <time>2011-08-14T08:03:12Z</time>
      </trkpt>
      <trkpt lat="48.64823" lon="7.2227">
        <ele>507</ele>
        <time>2011-08-14T08:03:14Z</time>
      </trkpt>
      <trkpt lat="48.64819" lon="7.22261">
        <ele>507</ele>
        <time>2011-08-14T08:03:16Z</time>
      </trkpt>
      <trkpt lat="48.64815" lon="7.22252">
        <ele>507</ele>
        <time>2011-08-14T08:03:18Z</time>
      </trkpt>
      <trkpt lat="48.64812" lon="7.22245">
        <ele>507</ele>
        <time>2011-08-14T08:03:20Z</time>
      </trkpt>
      <trkpt lat="48.64808" lon="7.22237">
        <ele>506</ele>
        <time>2011-08-14T08:03:22Z</time>
      </trkpt>
      <trkpt lat="48.64805" lon="7.22229">
        <ele>506</ele>
        <time>2011-08-14T08:03:24Z</time>
      </trkpt>
      <trkpt lat="48.64802" lon="7.22222">
        <ele>506</ele>
        <time>2011-08-14T08:03:26Z</time>
      </trkpt>
      <trkpt lat="48.64799" lon="7.22216">
        <ele>506</ele>
        <time>2011-08-14T08:03:29Z</time>
      </trkpt>
      <trkpt lat="48.64796" lon="7.22209">
        <ele>505</ele>
        <time>2011-08-14T08:03:53Z</time>
      </trkpt>
      <trkpt lat="48.64793" lon="7.22203">
        <ele>505</ele>
        <time>2011-08-14T08:03:58Z</time>
      </trkpt>
      <trkpt lat="48.64789" lon="7.22198">
        <ele>505</ele>
        <time>2011-08-14T08:04:02Z</time>
      </trkpt>
      <trkpt lat="48.64785" lon="7.22193">
        <ele>505</ele>
        <time>2011-08-14T08:04:07Z</time>
      </trkpt>
      <trkpt lat="48.64781" lon="7.22188">
        <ele>505</ele>
        <time>2011-08-14T08:04:17Z</time>
      </trkpt>
      <trkpt lat="48.64776" lon="7.22188">
        <ele>505</ele>
        <time>2011-08-14T08:04:39Z</time>
      </trkpt>
      <trkpt lat="48.64772" lon="7.22184">
        <ele>505</ele>
        <time>2011-08-14T08:04:55Z</time>
      </trkpt>
      <trkpt lat="48.64768" lon="7.22179">
        <ele>505</ele>
        <time>2011-08-14T08:06:27Z</time>
      </trkpt>
      <trkpt lat="48.64764" lon="7.22175">
        <ele>505</ele>
        <time>2011-08-14T08:06:32Z</time>
      </trkpt>
      <trkpt lat="48.64758" lon="7.22174">
        <ele>505</ele>
        <time>2011-08-14T08:06:37Z</time>
      </trkpt>
      <trkpt lat="48.64753" lon="7.22174">
        <ele>505</ele>
        <time>2011-08-14T08:06:41Z</time>
      </trkpt>
      <trkpt lat="48.64748" lon="7.22173">
        <ele>504</ele>
        <time>2011-08-14T08:06:48Z</time>
      </trkpt>
      <trkpt lat="48.64743" lon="7.2217">
        <ele>504</ele>
        <time>2011-08-14T08:06:52Z</time>
      </trkpt>
      <trkpt lat="48.64738" lon="7.22168">
        <ele>504</ele>
        <time>2011-08-14T08:06:56Z</time>
      </trkpt>
      <trkpt lat="48.64732" lon="7.22167">
        <ele>503</ele>
        <time>2011-08-14T08:07:00Z</time>
      </trkpt>
      <trkpt lat="48.64728" lon="7.22164">
        <ele>503</ele>
        <time>2011-08-14T08:07:09Z</time>
      </trkpt>
      <trkpt lat="48.64723" lon="7.22162">
        <ele>503</ele>
        <time>2011-08-14T08:07:13Z</time>
      </trkpt>
      <trkpt lat="48.6472" lon="7.22156">
        <ele>503</ele>
        <time>2011-08-14T08:07:28Z</time>
      </trkpt>
      <trkpt lat="48.64716" lon="7.2215">
        <ele>503</ele>
        <time>2011-08-14T08:07:44Z</time>
      </trkpt>
      <trkpt lat="48.64712" lon="7.22145">
        <ele>504</ele>
        <time>2011-08-14T08:08:14Z</time>
      </trkpt>
      <trkpt lat="48.64708" lon="7.22142">
        <ele>505</ele>
        <time>2011-08-14T08:08:19Z</time>
      </trkpt>
      <trkpt lat="48.64708" lon="7.22142">
        <ele>505</ele>
        <time>2011-08-14T08:08:19Z</time>
      </trkpt>
      <trkpt lat="48.64708" lon="7.22142">
        <ele>505</ele>
        <time>2011-08-14T08:08:21Z</time>
      </trkpt>
      <trkpt lat="48.64703" lon="7.22141">
        <ele>505</ele>
        <time>2011-08-14T08:08:33Z</time>
      </trkpt>
      <trkpt lat="48.64699" lon="7.22137">
        <ele>503</ele>
        <time>2011-08-14T08:09:38Z</time>
      </trkpt>
      <trkpt lat="48.64693" lon="7.22135">
        <ele>503</ele>
        <time>2011-08-14T08:09:43Z</time>
      </trkpt>
      <trkpt lat="48.64688" lon="7.22133">
        <ele>503</ele>
        <time>2011-08-14T08:09:45Z</time>
      </trkpt>
      <trkpt lat="48.64683" lon="7.22131">
        <ele>502</ele>
        <time>2011-08-14T08:09:47Z</time>
      </trkpt>
      <trkpt lat="48.64677" lon="7.22128">
        <ele>502</ele>
        <time>2011-08-14T08:09:50Z</time>
      </trkpt>
      <trkpt lat="48.64672" lon="7.22126">
        <ele>502</ele>
        <time>2011-08-14T08:09:54Z</time>
      </trkpt>
      <trkpt lat="48.64668" lon="7.22122">
        <ele>502</ele>
        <time>2011-08-14T08:09:59Z</time>
      </trkpt>
      <trkpt lat="48.64664" lon="7.22119">
        <ele>502</ele>
        <time>2011-08-14T08:10:03Z</time>
      </trkpt>
      <trkpt lat="48.6466" lon="7.22119">
        <ele>502</ele>
        <time>2011-08-14T08:10:11Z</time>
      </trkpt>
      <trkpt lat="48.64655" lon="7.22118">
        <ele>502</ele>
        <time>2011-08-14T08:10:33Z</time>
      </trkpt>
      <trkpt lat="48.64649" lon="7.22117">
        <ele>502</ele>
        <time>2011-08-14T08:10:36Z</time>
      </trkpt>
      <trkpt lat="48.64644" lon="7.22117">
        <ele>502</ele>
        <time>2011-08-14T08:10:39Z</time>
      </trkpt>
      <trkpt lat="48.64639" lon="7.2212">
        <ele>502</ele>
        <time>2011-08-14T08:10:52Z</time>
      </trkpt>
      <trkpt lat="48.64634" lon="7.2212">
        <ele>502</ele>
        <time>2011-08-14T08:10:56Z</time>
      </trkpt>
      <trkpt lat="48.64629" lon="7.22116">
        <ele>502</ele>
        <time>2011-08-14T08:11:03Z</time>
      </trkpt>
      <trkpt lat="48.64624" lon="7.22114">
        <ele>502</ele>
        <time>2011-08-14T08:11:05Z</time>
      </trkpt>
      <trkpt lat="48.64618" lon="7.22112">
        <ele>501</ele>
        <time>2011-08-14T08:11:08Z</time>
      </trkpt>
      <trkpt lat="48.64611" lon="7.22112">
        <ele>501</ele>
        <time>2011-08-14T08:11:11Z</time>
      </trkpt>
      <trkpt lat="48.64606" lon="7.22111">
        <ele>501</ele>
        <time>2011-08-14T08:11:13Z</time>
      </trkpt>
      <trkpt lat="48.64602" lon="7.22111">
        <ele>501</ele>
        <time>2011-08-14T08:11:15Z</time>
      </trkpt>
      <trkpt lat="48.64596" lon="7.22111">
        <ele>500</ele>
        <time>2011-08-14T08:11:18Z</time>
      </trkpt>
      <trkpt lat="48.64591" lon="7.2211">
        <ele>499</ele>
        <time>2011-08-14T08:11:22Z</time>
      </trkpt>
      <trkpt lat="48.64586" lon="7.22106">
        <ele>498</ele>
        <time>2011-08-14T08:11:26Z</time>
      </trkpt>
      <trkpt lat="48.64582" lon="7.22102">
        <ele>497</ele>
        <time>2011-08-14T08:11:32Z</time>
      </trkpt>
      <trkpt lat="48.64582" lon="7.22094">
        <ele>496</ele>
        <time>2011-08-14T08:11:37Z</time>
      </trkpt>
      <trkpt lat="48.64579" lon="7.22085">
        <ele>495</ele>
        <time>2011-08-14T08:11:40Z</time>
      </trkpt>
      <trkpt lat="48.64578" lon="7.22078">
        <ele>495</ele>
        <time>2011-08-14T08:11:43Z</time>
      </trkpt>
      <trkpt lat="48.64579" lon="7.22071">
        <ele>494</ele>
        <time>2011-08-14T08:11:58Z</time>
      </trkpt>
      <trkpt lat="48.64581" lon="7.22064">
        <ele>493</ele>
        <time>2011-08-14T08:12:04Z</time>
      </trkpt>
      <trkpt lat="48.64585" lon="7.22059">
        <ele>493</ele>
        <time>2011-08-14T08:12:12Z</time>
      </trkpt>
      <trkpt lat="48.64588" lon="7.22054">
        <ele>493</ele>
        <time>2011-08-14T08:12:17Z</time>
      </trkpt>
      <trkpt lat="48.64591" lon="7.22048">
        <ele>493</ele>
        <time>2011-08-14T08:12:21Z</time>
      </trkpt>
      <trkpt lat="48.64593" lon="7.2204">
        <ele>493</ele>
        <time>2011-08-14T08:12:33Z</time>
      </trkpt>
      <trkpt lat="48.64596" lon="7.22036">
        <ele>494</ele>
        <time>2011-08-14T08:12:42Z</time>
      </trkpt>
      <trkpt lat="48.64601" lon="7.22031">
        <ele>494</ele>
        <time>2011-08-14T08:12:48Z</time>
      </trkpt>
      <trkpt lat="48.64605" lon="7.22027">
        <ele>494</ele>
        <time>2011-08-14T08:12:50Z</time>
      </trkpt>
      <trkpt lat="48.6461" lon="7.22024">
        <ele>495</ele>
        <time>2011-08-14T08:12:53Z</time>
      </trkpt>
      <trkpt lat="48.64614" lon="7.22022">
        <ele>495</ele>
        <time>2011-08-14T08:12:56Z</time>
      </trkpt>
      <trkpt lat="48.64621" lon="7.22019">
        <ele>495</ele>
        <time>2011-08-14T08:12:59Z</time>
      </trkpt>
      <trkpt lat="48.64626" lon="7.22016">
        <ele>495</ele>
        <time>2011-08-14T08:13:01Z</time>
      </trkpt>
      <trkpt lat="48.6463" lon="7.22012">
        <ele>495</ele>
        <time>2011-08-14T08:13:03Z</time>
      </trkpt>
      <trkpt lat="48.64635" lon="7.22008">
        <ele>495</ele>
        <time>2011-08-14T08:13:06Z</time>
      </trkpt>
      <trkpt lat="48.6464" lon="7.22004">
        <ele>495</ele>
        <time>2011-08-14T08:13:09Z</time>
      </trkpt>
      <trkpt lat="48.64645" lon="7.21999">
        <ele>495</ele>
        <time>2011-08-14T08:13:12Z</time>
      </trkpt>
      <trkpt lat="48.64649" lon="7.21994">
        <ele>495</ele>
        <time>2011-08-14T08:13:14Z</time>
      </trkpt>
      <trkpt lat="48.64653" lon="7.2199">
        <ele>494</ele>
        <time>2011-08-14T08:13:16Z</time>
      </trkpt>
      <trkpt lat="48.64658" lon="7.21986">
        <ele>494</ele>
        <time>2011-08-14T08:13:19Z</time>
      </trkpt>
      <trkpt lat="48.64664" lon="7.21983">
        <ele>493</ele>
        <time>2011-08-14T08:13:22Z</time>
      </trkpt>
      <trkpt lat="48.6467" lon="7.2198">
        <ele>493</ele>
        <time>2011-08-14T08:13:25Z</time>
      </trkpt>
      <trkpt lat="48.64676" lon="7.21978">
        <ele>493</ele>
        <time>2011-08-14T08:13:28Z</time>
      </trkpt>
      <trkpt lat="48.64682" lon="7.21977">
        <ele>492</ele>
        <time>2011-08-14T08:13:31Z</time>
      </trkpt>
      <trkpt lat="48.64687" lon="7.21976">
        <ele>492</ele>
        <time>2011-08-14T08:13:34Z</time>
      </trkpt>
      <trkpt lat="48.64693" lon="7.21973">
        <ele>492</ele>
        <time>2011-08-14T08:13:37Z</time>
      </trkpt>
      <trkpt lat="48.64699" lon="7.21971">
        <ele>492</ele>
        <time>2011-08-14T08:13:40Z</time>
      </trkpt>
      <trkpt lat="48.64704" lon="7.21971">
        <ele>492</ele>
        <time>2011-08-14T08:13:44Z</time>
      </trkpt>
      <trkpt lat="48.64708" lon="7.21969">
        <ele>491</ele>
        <time>2011-08-14T08:13:49Z</time>
      </trkpt>
      <trkpt lat="48.64713" lon="7.21968">
        <ele>491</ele>
        <time>2011-08-14T08:13:55Z</time>
      </trkpt>
      <trkpt lat="48.64717" lon="7.21966">
        <ele>490</ele>
        <time>2011-08-14T08:14:15Z</time>
      </trkpt>
      <trkpt lat="48.64722" lon="7.21964">
        <ele>490</ele>
        <time>2011-08-14T08:14:18Z</time>
      </trkpt>
      <trkpt lat="48.64727" lon="7.21962">
        <ele>490</ele>
        <time>2011-08-14T08:14:21Z</time>
      </trkpt>
      <trkpt lat="48.64733" lon="7.2196">
        <ele>490</ele>
        <time>2011-08-14T08:14:24Z</time>
      </trkpt>
      <trkpt lat="48.64738" lon="7.21957">
        <ele>490</ele>
        <time>2011-08-14T08:14:26Z</time>
      </trkpt>
      <trkpt lat="48.64743" lon="7.21953">
        <ele>490</ele>
        <time>2011-08-14T08:14:29Z</time>
      </trkpt>
      <trkpt lat="48.64749" lon="7.21949">
        <ele>490</ele>
        <time>2011-08-14T08:14:32Z</time>
      </trkpt>
      <trkpt lat="48.64755" lon="7.21945">
        <ele>490</ele>
        <time>2011-08-14T08:14:35Z</time>
      </trkpt>
      <trkpt lat="48.64759" lon="7.21942">
        <ele>490</ele>
        <time>2011-08-14T08:14:37Z</time>
      </trkpt>
      <trkpt lat="48.64764" lon="7.21938">
        <ele>490</ele>
        <time>2011-08-14T08:14:39Z</time>
      </trkpt>
      <trkpt lat="48.64769" lon="7.21935">
        <ele>490</ele>
        <time>2011-08-14T08:14:41Z</time>
      </trkpt>
      <trkpt lat="48.64773" lon="7.21931">
        <ele>489</ele>
        <time>2011-08-14T08:14:43Z</time>
      </trkpt>
      <trkpt lat="48.64778" lon="7.21928">
        <ele>489</ele>
        <time>2011-08-14T08:14:45Z</time>
      </trkpt>
      <trkpt lat="48.64783" lon="7.21924">
        <ele>489</ele>
        <time>2011-08-14T08:14:47Z</time>
      </trkpt>
      <trkpt lat="48.64787" lon="7.2192">
        <ele>489</ele>
        <time>2011-08-14T08:14:49Z</time>
      </trkpt>
      <trkpt lat="48.64792" lon="7.21916">
        <ele>489</ele>
        <time>2011-08-14T08:14:51Z</time>
      </trkpt>
      <trkpt lat="48.64797" lon="7.21912">
        <ele>489</ele>
        <time>2011-08-14T08:14:53Z</time>
      </trkpt>
      <trkpt lat="48.64802" lon="7.21907">
        <ele>489</ele>
        <time>2011-08-14T08:14:55Z</time>
      </trkpt>
      <trkpt lat="48.64807" lon="7.21902">
        <ele>489</ele>
        <time>2011-08-14T08:14:57Z</time>
      </trkpt>
      <trkpt lat="48.64811" lon="7.21898">
        <ele>489</ele>
        <time>2011-08-14T08:14:59Z</time>
      </trkpt>
      <trkpt lat="48.64816" lon="7.21893">
        <ele>489</ele>
        <time>2011-08-14T08:15:01Z</time>
      </trkpt>
      <trkpt lat="48.64818" lon="7.21886">
        <ele>489</ele>
        <time>2011-08-14T08:15:03Z</time>
      </trkpt>
      <trkpt lat="48.6482" lon="7.21878">
        <ele>489</ele>
        <time>2011-08-14T08:15:05Z</time>
      </trkpt>
      <trkpt lat="48.64822" lon="7.2187">
        <ele>489</ele>
        <time>2011-08-14T08:15:07Z</time>
      </trkpt>
      <trkpt lat="48.64824" lon="7.21862">
        <ele>488</ele>
        <time>2011-08-14T08:15:09Z</time>
      </trkpt>
      <trkpt lat="48.64826" lon="7.21853">
        <ele>488</ele>
        <time>2011-08-14T08:15:11Z</time>
      </trkpt>
      <trkpt lat="48.64828" lon="7.21845">
        <ele>488</ele>
        <time>2011-08-14T08:15:13Z</time>
      </trkpt>
      <trkpt lat="48.6483" lon="7.21839">
        <ele>488</ele>
        <time>2011-08-14T08:15:15Z</time>
      </trkpt>
      <trkpt lat="48.64834" lon="7.21834">
        <ele>487</ele>
        <time>2011-08-14T08:15:17Z</time>
      </trkpt>
      <trkpt lat="48.64836" lon="7.21828">
        <ele>487</ele>
        <time>2011-08-14T08:15:19Z</time>
      </trkpt>
      <trkpt lat="48.64838" lon="7.2182">
        <ele>487</ele>
        <time>2011-08-14T08:15:21Z</time>
      </trkpt>
      <trkpt lat="48.64839" lon="7.21811">
        <ele>487</ele>
        <time>2011-08-14T08:15:23Z</time>
      </trkpt>
      <trkpt lat="48.6484" lon="7.21802">
        <ele>487</ele>
        <time>2011-08-14T08:15:25Z</time>
      </trkpt>
      <trkpt lat="48.6484" lon="7.21793">
        <ele>487</ele>
        <time>2011-08-14T08:15:27Z</time>
      </trkpt>
      <trkpt lat="48.64841" lon="7.21784">
        <ele>487</ele>
        <time>2011-08-14T08:15:29Z</time>
      </trkpt>
      <trkpt lat="48.64841" lon="7.21774">
        <ele>487</ele>
        <time>2011-08-14T08:15:31Z</time>
      </trkpt>
      <trkpt lat="48.64842" lon="7.21764">
        <ele>487</ele>
        <time>2011-08-14T08:15:33Z</time>
      </trkpt>
      <trkpt lat="48.64842" lon="7.21753">
        <ele>487</ele>
        <time>2011-08-14T08:15:35Z</time>
      </trkpt>
      <trkpt lat="48.64843" lon="7.21741">
        <ele>487</ele>
        <time>2011-08-14T08:15:37Z</time>
      </trkpt>
      <trkpt lat="48.64843" lon="7.21729">
        <ele>487</ele>
        <time>2011-08-14T08:15:39Z</time>
      </trkpt>
      <trkpt lat="48.64843" lon="7.21717">
        <ele>487</ele>
        <time>2011-08-14T08:15:41Z</time>
      </trkpt>
      <trkpt lat="48.64843" lon="7.21706">
        <ele>488</ele>
        <time>2011-08-14T08:15:43Z</time>
      </trkpt>
      <trkpt lat="48.64843" lon="7.21695">
        <ele>488</ele>
        <time>2011-08-14T08:15:45Z</time>
      </trkpt>
      <trkpt lat="48.64843" lon="7.21685">
        <ele>488</ele>
        <time>2011-08-14T08:15:47Z</time>
      </trkpt>
      <trkpt lat="48.64843" lon="7.21675">
        <ele>489</ele>
        <time>2011-08-14T08:15:49Z</time>
      </trkpt>
      <trkpt lat="48.64842" lon="7.21665">
        <ele>489</ele>
        <time>2011-08-14T08:15:51Z</time>
      </trkpt>
      <trkpt lat="48.64842" lon="7.21655">
        <ele>489</ele>
        <time>2011-08-14T08:15:53Z</time>
      </trkpt>
      <trkpt lat="48.64842" lon="7.21647">
        <ele>489</ele>
        <time>2011-08-14T08:15:55Z</time>
      </trkpt>
      <trkpt lat="48.64841" lon="7.2164">
        <ele>489</ele>
        <time>2011-08-14T08:15:57Z</time>
      </trkpt>
      <trkpt lat="48.64841" lon="7.21632">
        <ele>489</ele>
        <time>2011-08-14T08:16:00Z</time>
      </trkpt>
      <trkpt lat="48.64843" lon="7.21624">
        <ele>490</ele>
        <time>2011-08-14T08:16:03Z</time>
      </trkpt>
      <trkpt lat="48.64847" lon="7.21618">
        <ele>490</ele>
        <time>2011-08-14T08:16:05Z</time>
      </trkpt>
      <trkpt lat="48.64854" lon="7.21613">
        <ele>490</ele>
        <time>2011-08-14T08:16:07Z</time>
      </trkpt>
      <trkpt lat="48.64861" lon="7.2161">
        <ele>490</ele>
        <time>2011-08-14T08:16:09Z</time>
      </trkpt>
      <trkpt lat="48.64868" lon="7.21608">
        <ele>490</ele>
        <time>2011-08-14T08:16:11Z</time>
      </trkpt>
      <trkpt lat="48.64874" lon="7.21607">
        <ele>490</ele>
        <time>2011-08-14T08:16:13Z</time>
      </trkpt>
      <trkpt lat="48.64878" lon="7.21606">
        <ele>490</ele>
        <time>2011-08-14T08:16:15Z</time>
      </trkpt>
      <trkpt lat="48.64882" lon="7.21605">
        <ele>490</ele>
        <time>2011-08-14T08:16:19Z</time>
      </trkpt>
      <trkpt lat="48.64886" lon="7.216">
        <ele>490</ele>
        <time>2011-08-14T08:16:32Z</time>
      </trkpt>
      <trkpt lat="48.64891" lon="7.216">
        <ele>490</ele>
        <time>2011-08-14T08:16:36Z</time>
      </trkpt>
      <trkpt lat="48.64897" lon="7.216">
        <ele>490</ele>
        <time>2011-08-14T08:16:40Z</time>
      </trkpt>
      <trkpt lat="48.64902" lon="7.216">
        <ele>490</ele>
        <time>2011-08-14T08:16:42Z</time>
      </trkpt>
      <trkpt lat="48.64907" lon="7.21601">
        <ele>490</ele>
        <time>2011-08-14T08:16:44Z</time>
      </trkpt>
      <trkpt lat="48.64912" lon="7.21602">
        <ele>490</ele>
        <time>2011-08-14T08:16:46Z</time>
      </trkpt>
      <trkpt lat="48.64917" lon="7.21604">
        <ele>490</ele>
        <time>2011-08-14T08:16:48Z</time>
      </trkpt>
      <trkpt lat="48.64922" lon="7.21605">
        <ele>490</ele>
        <time>2011-08-14T08:16:50Z</time>
      </trkpt>
      <trkpt lat="48.64926" lon="7.21606">
        <ele>490</ele>
        <time>2011-08-14T08:16:52Z</time>
      </trkpt>
      <trkpt lat="48.64932" lon="7.21606">
        <ele>490</ele>
        <time>2011-08-14T08:16:54Z</time>
      </trkpt>
      <trkpt lat="48.64937" lon="7.21605">
        <ele>489</ele>
        <time>2011-08-14T08:16:56Z</time>
      </trkpt>
      <trkpt lat="48.64942" lon="7.21601">
        <ele>489</ele>
        <time>2011-08-14T08:16:58Z</time>
      </trkpt>
      <trkpt lat="48.64946" lon="7.21597">
        <ele>488</ele>
        <time>2011-08-14T08:17:00Z</time>
      </trkpt>
      <trkpt lat="48.64951" lon="7.21592">
        <ele>488</ele>
        <time>2011-08-14T08:17:02Z</time>
      </trkpt>
      <trkpt lat="48.64955" lon="7.21586">
        <ele>487</ele>
        <time>2011-08-14T08:17:04Z</time>
      </trkpt>
      <trkpt lat="48.64959" lon="7.2158">
        <ele>487</ele>
        <time>2011-08-14T08:17:06Z</time>
      </trkpt>
      <trkpt lat="48.64962" lon="7.21574">
        <ele>486</ele>
        <time>2011-08-14T08:17:08Z</time>
      </trkpt>
      <trkpt lat="48.64965" lon="7.21569">
        <ele>485</ele>
        <time>2011-08-14T08:17:13Z</time>
      </trkpt>
      <trkpt lat="48.64968" lon="7.21564">
        <ele>484</ele>
        <time>2011-08-14T08:17:21Z</time>
      </trkpt>
      <trkpt lat="48.64971" lon="7.21558">
        <ele>483</ele>
        <time>2011-08-14T08:17:26Z</time>
      </trkpt>
      <trkpt lat="48.64976" lon="7.21552">
        <ele>483</ele>
        <time>2011-08-14T08:17:29Z</time>
      </trkpt>
      <trkpt lat="48.64981" lon="7.21547">
        <ele>482</ele>
        <time>2011-08-14T08:17:31Z</time>
      </trkpt>
      <trkpt lat="48.64986" lon="7.21543">
        <ele>482</ele>
        <time>2011-08-14T08:17:33Z</time>
      </trkpt>
      <trkpt lat="48.64991" lon="7.21538">
        <ele>482</ele>
        <time>2011-08-14T08:17:35Z</time>
      </trkpt>
      <trkpt lat="48.64996" lon="7.21533">
        <ele>482</ele>
        <time>2011-08-14T08:17:37Z</time>
      </trkpt>
      <trkpt lat="48.65001" lon="7.21528">
        <ele>482</ele>
        <time>2011-08-14T08:17:39Z</time>
      </trkpt>
      <trkpt lat="48.65006" lon="7.21521">
        <ele>481</ele>
        <time>2011-08-14T08:17:41Z</time>
      </trkpt>
      <trkpt lat="48.6501" lon="7.21515">
        <ele>481</ele>
        <time>2011-08-14T08:17:43Z</time>
      </trkpt>
      <trkpt lat="48.65014" lon="7.21508">
        <ele>481</ele>
        <time>2011-08-14T08:17:45Z</time>
      </trkpt>
      <trkpt lat="48.65018" lon="7.215">
        <ele>481</ele>
        <time>2011-08-14T08:17:47Z</time>
      </trkpt>
      <trkpt lat="48.65021" lon="7.21491">
        <ele>481</ele>
        <time>2011-08-14T08:17:49Z</time>
      </trkpt>
      <trkpt lat="48.65023" lon="7.21482">
        <ele>481</ele>
        <time>2011-08-14T08:17:51Z</time>
      </trkpt>
      <trkpt lat="48.65024" lon="7.21476">
        <ele>481</ele>
        <time>2011-08-14T08:17:53Z</time>
      </trkpt>
      <trkpt lat="48.65025" lon="7.21466">
        <ele>481</ele>
        <time>2011-08-14T08:17:56Z</time>
      </trkpt>
      <trkpt lat="48.65025" lon="7.21459">
        <ele>480</ele>
        <time>2011-08-14T08:17:58Z</time>
      </trkpt>
      <trkpt lat="48.65025" lon="7.21449">
        <ele>480</ele>
        <time>2011-08-14T08:18:00Z</time>
      </trkpt>
      <trkpt lat="48.65026" lon="7.21441">
        <ele>480</ele>
        <time>2011-08-14T08:18:02Z</time>
      </trkpt>
      <trkpt lat="48.65027" lon="7.21431">
        <ele>480</ele>
        <time>2011-08-14T08:18:05Z</time>
      </trkpt>
      <trkpt lat="48.65029" lon="7.21422">
        <ele>480</ele>
        <time>2011-08-14T08:18:07Z</time>
      </trkpt>
      <trkpt lat="48.65031" lon="7.2141">
        <ele>479</ele>
        <time>2011-08-14T08:18:09Z</time>
      </trkpt>
      <trkpt lat="48.65032" lon="7.21398">
        <ele>479</ele>
        <time>2011-08-14T08:18:11Z</time>
      </trkpt>
      <trkpt lat="48.65034" lon="7.21387">
        <ele>479</ele>
        <time>2011-08-14T08:18:13Z</time>
      </trkpt>
      <trkpt lat="48.65035" lon="7.21377">
        <ele>479</ele>
        <time>2011-08-14T08:18:15Z</time>
      </trkpt>
      <trkpt lat="48.65037" lon="7.21366">
        <ele>478</ele>
        <time>2011-08-14T08:18:17Z</time>
      </trkpt>
      <trkpt lat="48.65038" lon="7.21357">
        <ele>478</ele>
        <time>2011-08-14T08:18:19Z</time>
      </trkpt>
      <trkpt lat="48.65039" lon="7.21348">
        <ele>478</ele>
        <time>2011-08-14T08:18:21Z</time>
      </trkpt>
      <trkpt lat="48.6504" lon="7.2134">
        <ele>478</ele>
        <time>2011-08-14T08:18:23Z</time>
      </trkpt>
      <trkpt lat="48.65042" lon="7.21332">
        <ele>478</ele>
        <time>2011-08-14T08:18:25Z</time>
      </trkpt>
      <trkpt lat="48.65043" lon="7.21325">
        <ele>477</ele>
        <time>2011-08-14T08:18:27Z</time>
      </trkpt>
      <trkpt lat="48.65043" lon="7.21318">
        <ele>477</ele>
        <time>2011-08-14T08:18:29Z</time>
      </trkpt>
      <trkpt lat="48.65044" lon="7.2131">
        <ele>477</ele>
        <time>2011-08-14T08:18:31Z</time>
      </trkpt>
      <trkpt lat="48.65044" lon="7.21302">
        <ele>477</ele>
        <time>2011-08-14T08:18:33Z</time>
      </trkpt>
      <trkpt lat="48.65044" lon="7.21294">
        <ele>477</ele>
        <time>2011-08-14T08:18:35Z</time>
      </trkpt>
      <trkpt lat="48.65043" lon="7.21287">
        <ele>477</ele>
        <time>2011-08-14T08:18:37Z</time>
      </trkpt>
      <trkpt lat="48.65041" lon="7.2128">
        <ele>477</ele>
        <time>2011-08-14T08:18:39Z</time>
      </trkpt>
      <trkpt lat="48.65041" lon="7.21273">
        <ele>477</ele>
        <time>2011-08-14T08:18:41Z</time>
      </trkpt>
      <trkpt lat="48.65041" lon="7.21265">
        <ele>477</ele>
        <time>2011-08-14T08:18:43Z</time>
      </trkpt>
      <trkpt lat="48.65044" lon="7.21254">
        <ele>477</ele>
        <time>2011-08-14T08:18:45Z</time>
      </trkpt>
      <trkpt lat="48.65044" lon="7.21247">
        <ele>477</ele>
        <time>2011-08-14T08:18:47Z</time>
      </trkpt>
      <trkpt lat="48.65045" lon="7.21238">
        <ele>477</ele>
        <time>2011-08-14T08:18:49Z</time>
      </trkpt>
      <trkpt lat="48.6505" lon="7.21224">
        <ele>477</ele>
        <time>2011-08-14T08:18:50Z</time>
      </trkpt>
      <trkpt lat="48.65051" lon="7.21211">
        <ele>477</ele>
        <time>2011-08-14T08:18:52Z</time>
      </trkpt>
      <trkpt lat="48.65054" lon="7.21198">
        <ele>476</ele>
        <time>2011-08-14T08:18:54Z</time>
      </trkpt>
      <trkpt lat="48.65059" lon="7.21189">
        <ele>475</ele>
        <time>2011-08-14T08:18:56Z</time>
      </trkpt>
      <trkpt lat="48.65063" lon="7.21186">
        <ele>474</ele>
        <time>2011-08-14T08:18:57Z</time>
      </trkpt>
      <trkpt lat="48.65068" lon="7.21183">
        <ele>474</ele>
        <time>2011-08-14T08:18:58Z</time>
      </trkpt>
      <trkpt lat="48.65073" lon="7.21182">
        <ele>473</ele>
        <time>2011-08-14T08:18:59Z</time>
      </trkpt>
      <trkpt lat="48.65078" lon="7.21181">
        <ele>473</ele>
        <time>2011-08-14T08:19:00Z</time>
      </trkpt>
      <trkpt lat="48.65083" lon="7.21179">
        <ele>472</ele>
        <time>2011-08-14T08:19:01Z</time>
      </trkpt>
      <trkpt lat="48.65087" lon="7.21178">
        <ele>472</ele>
        <time>2011-08-14T08:19:02Z</time>
      </trkpt>
      <trkpt lat="48.65092" lon="7.21177">
        <ele>472</ele>
        <time>2011-08-14T08:19:03Z</time>
      </trkpt>
      <trkpt lat="48.65096" lon="7.21175">
        <ele>471</ele>
        <time>2011-08-14T08:19:04Z</time>
      </trkpt>
      <trkpt lat="48.65101" lon="7.21174">
        <ele>471</ele>
        <time>2011-08-14T08:19:05Z</time>
      </trkpt>
      <trkpt lat="48.65109" lon="7.21169">
        <ele>471</ele>
        <time>2011-08-14T08:19:07Z</time>
      </trkpt>
      <trkpt lat="48.65117" lon="7.21164">
        <ele>470</ele>
        <time>2011-08-14T08:19:09Z</time>
      </trkpt>
      <trkpt lat="48.65122" lon="7.2116">
        <ele>470</ele>
        <time>2011-08-14T08:19:10Z</time>
      </trkpt>
      <trkpt lat="48.65126" lon="7.21157">
        <ele>470</ele>
        <time>2011-08-14T08:19:11Z</time>
      </trkpt>
      <trkpt lat="48.6513" lon="7.21154">
        <ele>470</ele>
        <time>2011-08-14T08:19:12Z</time>
      </trkpt>
      <trkpt lat="48.65134" lon="7.2115">
        <ele>470</ele>
        <time>2011-08-14T08:19:13Z</time>
      </trkpt>
      <trkpt lat="48.65139" lon="7.21147">
        <ele>470</ele>
        <time>2011-08-14T08:19:14Z</time>
      </trkpt>
      <trkpt lat="48.65143" lon="7.21143">
        <ele>470</ele>
        <time>2011-08-14T08:19:15Z</time>
      </trkpt>
      <trkpt lat="48.65147" lon="7.2114">
        <ele>470</ele>
        <time>2011-08-14T08:19:16Z</time>
      </trkpt>
      <trkpt lat="48.65151" lon="7.21136">
        <ele>470</ele>
        <time>2011-08-14T08:19:17Z</time>
      </trkpt>
      <trkpt lat="48.65155" lon="7.21132">
        <ele>470</ele>
        <time>2011-08-14T08:19:18Z</time>
      </trkpt>
      <trkpt lat="48.65159" lon="7.21128">
        <ele>470</ele>
        <time>2011-08-14T08:19:19Z</time>
      </trkpt>
      <trkpt lat="48.65163" lon="7.21123">
        <ele>470</ele>
        <time>2011-08-14T08:19:20Z</time>
      </trkpt>
      <trkpt lat="48.65167" lon="7.21118">
        <ele>470</ele>
        <time>2011-08-14T08:19:21Z</time>
      </trkpt>
      <trkpt lat="48.65171" lon="7.21113">
        <ele>470</ele>
        <time>2011-08-14T08:19:22Z</time>
      </trkpt>
      <trkpt lat="48.65174" lon="7.21107">
        <ele>469</ele>
        <time>2011-08-14T08:19:23Z</time>
      </trkpt>
      <trkpt lat="48.65178" lon="7.211">
        <ele>469</ele>
        <time>2011-08-14T08:19:24Z</time>
      </trkpt>
      <trkpt lat="48.65182" lon="7.21094">
        <ele>468</ele>
        <time>2011-08-14T08:19:25Z</time>
      </trkpt>
      <trkpt lat="48.65185" lon="7.21088">
        <ele>468</ele>
        <time>2011-08-14T08:19:26Z</time>
      </trkpt>
      <trkpt lat="48.65188" lon="7.21082">
        <ele>467</ele>
        <time>2011-08-14T08:19:27Z</time>
      </trkpt>
      <trkpt lat="48.65191" lon="7.21076">
        <ele>467</ele>
        <time>2011-08-14T08:19:28Z</time>
      </trkpt>
      <trkpt lat="48.65194" lon="7.21069">
        <ele>467</ele>
        <time>2011-08-14T08:19:29Z</time>
      </trkpt>
      <trkpt lat="48.65197" lon="7.21063">
        <ele>467</ele>
        <time>2011-08-14T08:19:30Z</time>
      </trkpt>
      <trkpt lat="48.652" lon="7.21056">
        <ele>466</ele>
        <time>2011-08-14T08:19:31Z</time>
      </trkpt>
      <trkpt lat="48.65203" lon="7.21049">
        <ele>466</ele>
        <time>2011-08-14T08:19:32Z</time>
      </trkpt>
      <trkpt lat="48.65205" lon="7.21041">
        <ele>466</ele>
        <time>2011-08-14T08:19:33Z</time>
      </trkpt>
      <trkpt lat="48.65207" lon="7.21034">
        <ele>465</ele>
        <time>2011-08-14T08:19:34Z</time>
      </trkpt>
      <trkpt lat="48.65209" lon="7.21026">
        <ele>465</ele>
        <time>2011-08-14T08:19:35Z</time>
      </trkpt>
      <trkpt lat="48.65212" lon="7.21018">
        <ele>465</ele>
        <time>2011-08-14T08:19:36Z</time>
      </trkpt>
      <trkpt lat="48.65214" lon="7.2101">
        <ele>465</ele>
        <time>2011-08-14T08:19:37Z</time>
      </trkpt>
      <trkpt lat="48.65215" lon="7.21003">
        <ele>464</ele>
        <time>2011-08-14T08:19:38Z</time>
      </trkpt>
      <trkpt lat="48.65217" lon="7.20995">
        <ele>464</ele>
        <time>2011-08-14T08:19:39Z</time>
      </trkpt>
      <trkpt lat="48.65218" lon="7.20987">
        <ele>464</ele>
        <time>2011-08-14T08:19:40Z</time>
      </trkpt>
      <trkpt lat="48.6522" lon="7.20981">
        <ele>464</ele>
        <time>2011-08-14T08:19:41Z</time>
      </trkpt>
      <trkpt lat="48.65222" lon="7.20968">
        <ele>464</ele>
        <time>2011-08-14T08:19:43Z</time>
      </trkpt>
      <trkpt lat="48.65224" lon="7.20957">
        <ele>464</ele>
        <time>2011-08-14T08:19:45Z</time>
      </trkpt>
      <trkpt lat="48.65225" lon="7.20948">
        <ele>464</ele>
        <time>2011-08-14T08:19:47Z</time>
      </trkpt>
      <trkpt lat="48.65226" lon="7.2094">
        <ele>464</ele>
        <time>2011-08-14T08:19:49Z</time>
      </trkpt>
      <trkpt lat="48.65227" lon="7.20931">
        <ele>464</ele>
        <time>2011-08-14T08:19:51Z</time>
      </trkpt>
      <trkpt lat="48.65228" lon="7.2092">
        <ele>464</ele>
        <time>2011-08-14T08:19:53Z</time>
      </trkpt>
      <trkpt lat="48.6523" lon="7.20908">
        <ele>463</ele>
        <time>2011-08-14T08:19:55Z</time>
      </trkpt>
      <trkpt lat="48.65232" lon="7.20896">
        <ele>463</ele>
        <time>2011-08-14T08:19:57Z</time>
      </trkpt>
      <trkpt lat="48.65234" lon="7.20884">
        <ele>462</ele>
        <time>2011-08-14T08:19:59Z</time>
      </trkpt>
      <trkpt lat="48.65235" lon="7.20875">
        <ele>462</ele>
        <time>2011-08-14T08:20:01Z</time>
      </trkpt>
      <trkpt lat="48.65235" lon="7.20865">
        <ele>462</ele>
        <time>2011-08-14T08:20:03Z</time>
      </trkpt>
      <trkpt lat="48.65234" lon="7.20856">
        <ele>462</ele>
        <time>2011-08-14T08:20:05Z</time>
      </trkpt>
      <trkpt lat="48.65233" lon="7.20848">
        <ele>462</ele>
        <time>2011-08-14T08:20:07Z</time>
      </trkpt>
      <trkpt lat="48.65232" lon="7.2084">
        <ele>462</ele>
        <time>2011-08-14T08:20:09Z</time>
      </trkpt>
      <trkpt lat="48.6523" lon="7.20833">
        <ele>462</ele>
        <time>2011-08-14T08:20:11Z</time>
      </trkpt>
      <trkpt lat="48.65229" lon="7.20825">
        <ele>462</ele>
        <time>2011-08-14T08:20:13Z</time>
      </trkpt>
      <trkpt lat="48.65227" lon="7.20817">
        <ele>462</ele>
        <time>2011-08-14T08:20:15Z</time>
      </trkpt>
      <trkpt lat="48.65225" lon="7.2081">
        <ele>462</ele>
        <time>2011-08-14T08:20:17Z</time>
      </trkpt>
      <trkpt lat="48.65224" lon="7.20803">
        <ele>462</ele>
        <time>2011-08-14T08:20:19Z</time>
      </trkpt>
      <trkpt lat="48.65222" lon="7.20796">
        <ele>462</ele>
        <time>2011-08-14T08:20:21Z</time>
      </trkpt>
      <trkpt lat="48.65219" lon="7.2079">
        <ele>462</ele>
        <time>2011-08-14T08:20:23Z</time>
      </trkpt>
      <trkpt lat="48.65216" lon="7.20784">
        <ele>462</ele>
        <time>2011-08-14T08:20:25Z</time>
      </trkpt>
      <trkpt lat="48.65213" lon="7.20778">
        <ele>462</ele>
        <time>2011-08-14T08:20:27Z</time>
      </trkpt>
      <trkpt lat="48.6521" lon="7.20772">
        <ele>461</ele>
        <time>2011-08-14T08:20:29Z</time>
      </trkpt>
      <trkpt lat="48.65206" lon="7.20766">
        <ele>461</ele>
        <time>2011-08-14T08:20:31Z</time>
      </trkpt>
      <trkpt lat="48.65203" lon="7.2076">
        <ele>461</ele>
        <time>2011-08-14T08:20:33Z</time>
      </trkpt>
      <trkpt lat="48.652" lon="7.20755">
        <ele>461</ele>
        <time>2011-08-14T08:20:35Z</time>
      </trkpt>
      <trkpt lat="48.65196" lon="7.20749">
        <ele>461</ele>
        <time>2011-08-14T08:20:37Z</time>
      </trkpt>
      <trkpt lat="48.65192" lon="7.20744">
        <ele>461</ele>
        <time>2011-08-14T08:20:39Z</time>
      </trkpt>
      <trkpt lat="48.65189" lon="7.20737">
        <ele>461</ele>
        <time>2011-08-14T08:20:41Z</time>
      </trkpt>
      <trkpt lat="48.65185" lon="7.20732">
        <ele>461</ele>
        <time>2011-08-14T08:20:43Z</time>
      </trkpt>
      <trkpt lat="48.65182" lon="7.20726">
        <ele>461</ele>
        <time>2011-08-14T08:20:45Z</time>
      </trkpt>
      <trkpt lat="48.65178" lon="7.2072">
        <ele>460</ele>
        <time>2011-08-14T08:20:47Z</time>
      </trkpt>
      <trkpt lat="48.65174" lon="7.20713">
        <ele>460</ele>
        <time>2011-08-14T08:20:49Z</time>
      </trkpt>
      <trkpt lat="48.6517" lon="7.20705">
        <ele>460</ele>
        <time>2011-08-14T08:20:51Z</time>
      </trkpt>
      <trkpt lat="48.65166" lon="7.20698">
        <ele>460</ele>
        <time>2011-08-14T08:20:53Z</time>
      </trkpt>
      <trkpt lat="48.65162" lon="7.20692">
        <ele>460</ele>
        <time>2011-08-14T08:20:55Z</time>
      </trkpt>
      <trkpt lat="48.65158" lon="7.20685">
        <ele>460</ele>
        <time>2011-08-14T08:20:57Z</time>
      </trkpt>
      <trkpt lat="48.65154" lon="7.20678">
        <ele>460</ele>
        <time>2011-08-14T08:20:59Z</time>
      </trkpt>
      <trkpt lat="48.65151" lon="7.20671">
        <ele>460</ele>
        <time>2011-08-14T08:21:01Z</time>
      </trkpt>
      <trkpt lat="48.65147" lon="7.20663">
        <ele>460</ele>
        <time>2011-08-14T08:21:03Z</time>
      </trkpt>
      <trkpt lat="48.65142" lon="7.20655">
        <ele>459</ele>
        <time>2011-08-14T08:21:05Z</time>
      </trkpt>
      <trkpt lat="48.65137" lon="7.20647">
        <ele>459</ele>
        <time>2011-08-14T08:21:07Z</time>
      </trkpt>
      <trkpt lat="48.65133" lon="7.20638">
        <ele>459</ele>
        <time>2011-08-14T08:21:09Z</time>
      </trkpt>
      <trkpt lat="48.65128" lon="7.20631">
        <ele>459</ele>
        <time>2011-08-14T08:21:11Z</time>
      </trkpt>
      <trkpt lat="48.65124" lon="7.20623">
        <ele>459</ele>
        <time>2011-08-14T08:21:13Z</time>
      </trkpt>
      <trkpt lat="48.65119" lon="7.20616">
        <ele>459</ele>
        <time>2011-08-14T08:21:15Z</time>
      </trkpt>
      <trkpt lat="48.65114" lon="7.20609">
        <ele>459</ele>
        <time>2011-08-14T08:21:17Z</time>
      </trkpt>
      <trkpt lat="48.6511" lon="7.20603">
        <ele>459</ele>
        <time>2011-08-14T08:21:19Z</time>
      </trkpt>
      <trkpt lat="48.65106" lon="7.20596">
        <ele>459</ele>
        <time>2011-08-14T08:21:21Z</time>
      </trkpt>
      <trkpt lat="48.65102" lon="7.20591">
        <ele>459</ele>
        <time>2011-08-14T08:21:23Z</time>
      </trkpt>
      <trkpt lat="48.65098" lon="7.20586">
        <ele>459</ele>
        <time>2011-08-14T08:21:25Z</time>
      </trkpt>
      <trkpt lat="48.65095" lon="7.20581">
        <ele>459</ele>
        <time>2011-08-14T08:21:27Z</time>
      </trkpt>
      <trkpt lat="48.65091" lon="7.20576">
        <ele>458</ele>
        <time>2011-08-14T08:21:29Z</time>
      </trkpt>
      <trkpt lat="48.65087" lon="7.20571">
        <ele>458</ele>
        <time>2011-08-14T08:21:31Z</time>
      </trkpt>
      <trkpt lat="48.65083" lon="7.20566">
        <ele>458</ele>
        <time>2011-08-14T08:21:33Z</time>
      </trkpt>
      <trkpt lat="48.6508" lon="7.20562">
        <ele>458</ele>
        <time>2011-08-14T08:21:35Z</time>
      </trkpt>
      <trkpt lat="48.65075" lon="7.2056">
        <ele>458</ele>
        <time>2011-08-14T08:21:37Z</time>
      </trkpt>
      <trkpt lat="48.6507" lon="7.20557">
        <ele>458</ele>
        <time>2011-08-14T08:21:39Z</time>
      </trkpt>
      <trkpt lat="48.65065" lon="7.20555">
        <ele>458</ele>
        <time>2011-08-14T08:21:41Z</time>
      </trkpt>
      <trkpt lat="48.6506" lon="7.20553">
        <ele>458</ele>
        <time>2011-08-14T08:21:43Z</time>
      </trkpt>
      <trkpt lat="48.65055" lon="7.2055">
        <ele>458</ele>
        <time>2011-08-14T08:21:45Z</time>
      </trkpt>
      <trkpt lat="48.6505" lon="7.20548">
        <ele>458</ele>
        <time>2011-08-14T08:21:47Z</time>
      </trkpt>
      <trkpt lat="48.65045" lon="7.20546">
        <ele>458</ele>
        <time>2011-08-14T08:21:49Z</time>
      </trkpt>
      <trkpt lat="48.6504" lon="7.20543">
        <ele>458</ele>
        <time>2011-08-14T08:21:51Z</time>
      </trkpt>
      <trkpt lat="48.65035" lon="7.2054">
        <ele>458</ele>
        <time>2011-08-14T08:21:53Z</time>
      </trkpt>
      <trkpt lat="48.6503" lon="7.20538">
        <ele>458</ele>
        <time>2011-08-14T08:21:55Z</time>
      </trkpt>
      <trkpt lat="48.65026" lon="7.20536">
        <ele>458</ele>
        <time>2011-08-14T08:21:57Z</time>
      </trkpt>
      <trkpt lat="48.6502" lon="7.20535">
        <ele>458</ele>
        <time>2011-08-14T08:21:59Z</time>
      </trkpt>
      <trkpt lat="48.65016" lon="7.20533">
        <ele>458</ele>
        <time>2011-08-14T08:22:01Z</time>
      </trkpt>
      <trkpt lat="48.65011" lon="7.20532">
        <ele>458</ele>
        <time>2011-08-14T08:22:03Z</time>
      </trkpt>
      <trkpt lat="48.65006" lon="7.20531">
        <ele>458</ele>
        <time>2011-08-14T08:22:05Z</time>
      </trkpt>
      <trkpt lat="48.65" lon="7.2053">
        <ele>458</ele>
        <time>2011-08-14T08:22:08Z</time>
      </trkpt>
      <trkpt lat="48.64993" lon="7.20529">
        <ele>458</ele>
        <time>2011-08-14T08:22:11Z</time>
      </trkpt>
      <trkpt lat="48.64988" lon="7.20529">
        <ele>458</ele>
        <time>2011-08-14T08:22:13Z</time>
      </trkpt>
      <trkpt lat="48.64984" lon="7.20529">
        <ele>458</ele>
        <time>2011-08-14T08:22:15Z</time>
      </trkpt>
      <trkpt lat="48.64979" lon="7.20529">
        <ele>458</ele>
        <time>2011-08-14T08:22:17Z</time>
      </trkpt>
      <trkpt lat="48.64974" lon="7.20529">
        <ele>458</ele>
        <time>2011-08-14T08:22:19Z</time>
      </trkpt>
      <trkpt lat="48.64965" lon="7.2053">
        <ele>458</ele>
        <time>2011-08-14T08:22:25Z</time>
      </trkpt>
      <trkpt lat="48.6496" lon="7.20532">
        <ele>458</ele>
        <time>2011-08-14T08:22:27Z</time>
      </trkpt>
      <trkpt lat="48.64955" lon="7.20533">
        <ele>458</ele>
        <time>2011-08-14T08:22:30Z</time>
      </trkpt>
      <trkpt lat="48.6495" lon="7.20536">
        <ele>458</ele>
        <time>2011-08-14T08:22:33Z</time>
      </trkpt>
      <trkpt lat="48.6495" lon="7.20536">
        <ele>458</ele>
        <time>2011-08-14T08:22:33Z</time>
      </trkpt>
      <trkpt lat="48.6495" lon="7.20536">
        <ele>458</ele>
        <time>2011-08-14T08:22:36Z</time>
      </trkpt>
      <trkpt lat="48.64946" lon="7.2054">
        <ele>458</ele>
        <time>2011-08-14T08:22:39Z</time>
      </trkpt>
      <trkpt lat="48.64942" lon="7.20544">
        <ele>458</ele>
        <time>2011-08-14T08:22:44Z</time>
      </trkpt>
      <trkpt lat="48.64937" lon="7.2055">
        <ele>459</ele>
        <time>2011-08-14T08:22:59Z</time>
      </trkpt>
      <trkpt lat="48.64933" lon="7.20561">
        <ele>459</ele>
        <time>2011-08-14T08:23:03Z</time>
      </trkpt>
      <trkpt lat="48.64937" lon="7.20562">
        <ele>459</ele>
        <time>2011-08-14T08:23:25Z</time>
      </trkpt>
      <trkpt lat="48.64938" lon="7.20569">
        <ele>459</ele>
        <time>2011-08-14T08:23:49Z</time>
      </trkpt>
      <trkpt lat="48.64934" lon="7.20573">
        <ele>459</ele>
        <time>2011-08-14T08:23:53Z</time>
      </trkpt>
      <trkpt lat="48.6493" lon="7.20578">
        <ele>459</ele>
        <time>2011-08-14T08:23:57Z</time>
      </trkpt>
      <trkpt lat="48.64927" lon="7.20584">
        <ele>459</ele>
        <time>2011-08-14T08:24:00Z</time>
      </trkpt>
      <trkpt lat="48.64922" lon="7.20591">
        <ele>459</ele>
        <time>2011-08-14T08:24:03Z</time>
      </trkpt>
      <trkpt lat="48.64918" lon="7.206">
        <ele>459</ele>
        <time>2011-08-14T08:24:06Z</time>
      </trkpt>
      <trkpt lat="48.64916" lon="7.20605">
        <ele>459</ele>
        <time>2011-08-14T08:24:08Z</time>
      </trkpt>
      <trkpt lat="48.64914" lon="7.20611">
        <ele>459</ele>
        <time>2011-08-14T08:24:10Z</time>
      </trkpt>
      <trkpt lat="48.64911" lon="7.2062">
        <ele>459</ele>
        <time>2011-08-14T08:24:13Z</time>
      </trkpt>
      <trkpt lat="48.64909" lon="7.20628">
        <ele>459</ele>
        <time>2011-08-14T08:24:16Z</time>
      </trkpt>
      <trkpt lat="48.64907" lon="7.20637">
        <ele>459</ele>
        <time>2011-08-14T08:24:19Z</time>
      </trkpt>
      <trkpt lat="48.64905" lon="7.20644">
        <ele>460</ele>
        <time>2011-08-14T08:24:22Z</time>
      </trkpt>
      <trkpt lat="48.64903" lon="7.20652">
        <ele>460</ele>
        <time>2011-08-14T08:24:25Z</time>
      </trkpt>
      <trkpt lat="48.64902" lon="7.2066">
        <ele>460</ele>
        <time>2011-08-14T08:24:28Z</time>
      </trkpt>
      <trkpt lat="48.649" lon="7.20669">
        <ele>460</ele>
        <time>2011-08-14T08:24:31Z</time>
      </trkpt>
      <trkpt lat="48.64898" lon="7.20677">
        <ele>461</ele>
        <time>2011-08-14T08:24:34Z</time>
      </trkpt>
      <trkpt lat="48.64897" lon="7.20686">
        <ele>461</ele>
        <time>2011-08-14T08:24:37Z</time>
      </trkpt>
      <trkpt lat="48.64894" lon="7.20693">
        <ele>461</ele>
        <time>2011-08-14T08:24:40Z</time>
      </trkpt>
      <trkpt lat="48.64892" lon="7.20701">
        <ele>461</ele>
        <time>2011-08-14T08:24:43Z</time>
      </trkpt>
      <trkpt lat="48.64889" lon="7.20708">
        <ele>462</ele>
        <time>2011-08-14T08:24:46Z</time>
      </trkpt>
      <trkpt lat="48.64886" lon="7.20713">
        <ele>462</ele>
        <time>2011-08-14T08:24:49Z</time>
      </trkpt>
      <trkpt lat="48.64884" lon="7.2072">
        <ele>462</ele>
        <time>2011-08-14T08:24:52Z</time>
      </trkpt>
      <trkpt lat="48.64883" lon="7.20726">
        <ele>462</ele>
        <time>2011-08-14T08:24:55Z</time>
      </trkpt>
      <trkpt lat="48.64882" lon="7.20734">
        <ele>462</ele>
        <time>2011-08-14T08:24:58Z</time>
      </trkpt>
      <trkpt lat="48.6488" lon="7.20744">
        <ele>463</ele>
        <time>2011-08-14T08:25:01Z</time>
      </trkpt>
      <trkpt lat="48.64878" lon="7.20751">
        <ele>463</ele>
        <time>2011-08-14T08:25:03Z</time>
      </trkpt>
      <trkpt lat="48.64876" lon="7.20758">
        <ele>463</ele>
        <time>2011-08-14T08:25:05Z</time>
      </trkpt>
      <trkpt lat="48.64874" lon="7.20766">
        <ele>463</ele>
        <time>2011-08-14T08:25:07Z</time>
      </trkpt>
      <trkpt lat="48.64873" lon="7.20772">
        <ele>463</ele>
        <time>2011-08-14T08:25:09Z</time>
      </trkpt>
      <trkpt lat="48.64872" lon="7.20782">
        <ele>463</ele>
        <time>2011-08-14T08:25:12Z</time>
      </trkpt>
      <trkpt lat="48.64871" lon="7.20789">
        <ele>463</ele>
        <time>2011-08-14T08:25:14Z</time>
      </trkpt>
      <trkpt lat="48.64869" lon="7.20798">
        <ele>464</ele>
        <time>2011-08-14T08:25:17Z</time>
      </trkpt>
      <trkpt lat="48.64868" lon="7.20807">
        <ele>464</ele>
        <time>2011-08-14T08:25:20Z</time>
      </trkpt>
      <trkpt lat="48.64867" lon="7.20815">
        <ele>464</ele>
        <time>2011-08-14T08:25:23Z</time>
      </trkpt>
      <trkpt lat="48.64866" lon="7.20822">
        <ele>464</ele>
        <time>2011-08-14T08:25:26Z</time>
      </trkpt>
      <trkpt lat="48.64865" lon="7.20829">
        <ele>464</ele>
        <time>2011-08-14T08:25:29Z</time>
      </trkpt>
      <trkpt lat="48.64863" lon="7.20836">
        <ele>465</ele>
        <time>2011-08-14T08:25:32Z</time>
      </trkpt>
      <trkpt lat="48.64862" lon="7.20843">
        <ele>465</ele>
        <time>2011-08-14T08:25:35Z</time>
      </trkpt>
      <trkpt lat="48.64861" lon="7.2085">
        <ele>465</ele>
        <time>2011-08-14T08:25:38Z</time>
      </trkpt>
      <trkpt lat="48.64859" lon="7.20857">
        <ele>465</ele>
        <time>2011-08-14T08:25:41Z</time>
      </trkpt>
      <trkpt lat="48.64856" lon="7.20865">
        <ele>465</ele>
        <time>2011-08-14T08:25:44Z</time>
      </trkpt>
      <trkpt lat="48.64852" lon="7.20873">
        <ele>466</ele>
        <time>2011-08-14T08:25:47Z</time>
      </trkpt>
      <trkpt lat="48.64849" lon="7.20878">
        <ele>466</ele>
        <time>2011-08-14T08:25:49Z</time>
      </trkpt>
      <trkpt lat="48.64846" lon="7.20885">
        <ele>466</ele>
        <time>2011-08-14T08:25:52Z</time>
      </trkpt>
      <trkpt lat="48.64843" lon="7.20893">
        <ele>466</ele>
        <time>2011-08-14T08:25:55Z</time>
      </trkpt>
      <trkpt lat="48.6484" lon="7.209">
        <ele>466</ele>
        <time>2011-08-14T08:25:58Z</time>
      </trkpt>
      <trkpt lat="48.64837" lon="7.20907">
        <ele>466</ele>
        <time>2011-08-14T08:26:01Z</time>
      </trkpt>
      <trkpt lat="48.64834" lon="7.20912">
        <ele>467</ele>
        <time>2011-08-14T08:26:03Z</time>
      </trkpt>
      <trkpt lat="48.64829" lon="7.20916">
        <ele>467</ele>
        <time>2011-08-14T08:26:05Z</time>
      </trkpt>
      <trkpt lat="48.64825" lon="7.20919">
        <ele>467</ele>
        <time>2011-08-14T08:26:07Z</time>
      </trkpt>
      <trkpt lat="48.64821" lon="7.20923">
        <ele>467</ele>
        <time>2011-08-14T08:26:09Z</time>
      </trkpt>
      <trkpt lat="48.64815" lon="7.20929">
        <ele>467</ele>
        <time>2011-08-14T08:26:12Z</time>
      </trkpt>
      <trkpt lat="48.64809" lon="7.20933">
        <ele>467</ele>
        <time>2011-08-14T08:26:15Z</time>
      </trkpt>
      <trkpt lat="48.64805" lon="7.20935">
        <ele>468</ele>
        <time>2011-08-14T08:26:17Z</time>
      </trkpt>
      <trkpt lat="48.64799" lon="7.2094">
        <ele>468</ele>
        <time>2011-08-14T08:26:20Z</time>
      </trkpt>
      <trkpt lat="48.64793" lon="7.20945">
        <ele>468</ele>
        <time>2011-08-14T08:26:23Z</time>
      </trkpt>
      <trkpt lat="48.64788" lon="7.2095">
        <ele>468</ele>
        <time>2011-08-14T08:26:26Z</time>
      </trkpt>
      <trkpt lat="48.64783" lon="7.20955">
        <ele>468</ele>
        <time>2011-08-14T08:26:29Z</time>
      </trkpt>
      <trkpt lat="48.64778" lon="7.20961">
        <ele>469</ele>
        <time>2011-08-14T08:26:33Z</time>
      </trkpt>
      <trkpt lat="48.64773" lon="7.20966">
        <ele>469</ele>
        <time>2011-08-14T08:26:36Z</time>
      </trkpt>
      <trkpt lat="48.64768" lon="7.20971">
        <ele>469</ele>
        <time>2011-08-14T08:26:39Z</time>
      </trkpt>
      <trkpt lat="48.64763" lon="7.20976">
        <ele>469</ele>
        <time>2011-08-14T08:26:42Z</time>
      </trkpt>
      <trkpt lat="48.64758" lon="7.20981">
        <ele>470</ele>
        <time>2011-08-14T08:26:45Z</time>
      </trkpt>
      <trkpt lat="48.64754" lon="7.20986">
        <ele>470</ele>
        <time>2011-08-14T08:26:48Z</time>
      </trkpt>
      <trkpt lat="48.6475" lon="7.20992">
        <ele>470</ele>
        <time>2011-08-14T08:26:51Z</time>
      </trkpt>
      <trkpt lat="48.64745" lon="7.20998">
        <ele>470</ele>
        <time>2011-08-14T08:26:54Z</time>
      </trkpt>
      <trkpt lat="48.64741" lon="7.21004">
        <ele>471</ele>
        <time>2011-08-14T08:26:57Z</time>
      </trkpt>
      <trkpt lat="48.64736" lon="7.21012">
        <ele>471</ele>
        <time>2011-08-14T08:27:00Z</time>
      </trkpt>
      <trkpt lat="48.64733" lon="7.21017">
        <ele>471</ele>
        <time>2011-08-14T08:27:02Z</time>
      </trkpt>
      <trkpt lat="48.64729" lon="7.21024">
        <ele>471</ele>
        <time>2011-08-14T08:27:04Z</time>
      </trkpt>
      <trkpt lat="48.64726" lon="7.2103">
        <ele>472</ele>
        <time>2011-08-14T08:27:06Z</time>
      </trkpt>
      <trkpt lat="48.64722" lon="7.21036">
        <ele>472</ele>
        <time>2011-08-14T08:27:08Z</time>
      </trkpt>
      <trkpt lat="48.64718" lon="7.21042">
        <ele>472</ele>
        <time>2011-08-14T08:27:10Z</time>
      </trkpt>
      <trkpt lat="48.64714" lon="7.21047">
        <ele>472</ele>
        <time>2011-08-14T08:27:12Z</time>
      </trkpt>
      <trkpt lat="48.6471" lon="7.21053">
        <ele>472</ele>
        <time>2011-08-14T08:27:14Z</time>
      </trkpt>
      <trkpt lat="48.64706" lon="7.21059">
        <ele>472</ele>
        <time>2011-08-14T08:27:16Z</time>
      </trkpt>
      <trkpt lat="48.64702" lon="7.21064">
        <ele>473</ele>
        <time>2011-08-14T08:27:18Z</time>
      </trkpt>
      <trkpt lat="48.64698" lon="7.21069">
        <ele>473</ele>
        <time>2011-08-14T08:27:20Z</time>
      </trkpt>
      <trkpt lat="48.64694" lon="7.21074">
        <ele>473</ele>
        <time>2011-08-14T08:27:22Z</time>
      </trkpt>
      <trkpt lat="48.64691" lon="7.2108">
        <ele>473</ele>
        <time>2011-08-14T08:27:24Z</time>
      </trkpt>
      <trkpt lat="48.64688" lon="7.21085">
        <ele>474</ele>
        <time>2011-08-14T08:27:26Z</time>
      </trkpt>
      <trkpt lat="48.64684" lon="7.2109">
        <ele>474</ele>
        <time>2011-08-14T08:27:27Z</time>
      </trkpt>
      <trkpt lat="48.64681" lon="7.21096">
        <ele>474</ele>
        <time>2011-08-14T08:27:29Z</time>
      </trkpt>
      <trkpt lat="48.64678" lon="7.21101">
        <ele>474</ele>
        <time>2011-08-14T08:27:31Z</time>
      </trkpt>
      <trkpt lat="48.64674" lon="7.21109">
        <ele>474</ele>
        <time>2011-08-14T08:27:34Z</time>
      </trkpt>
      <trkpt lat="48.64671" lon="7.21116">
        <ele>475</ele>
        <time>2011-08-14T08:27:37Z</time>
      </trkpt>
      <trkpt lat="48.64667" lon="7.21123">
        <ele>475</ele>
        <time>2011-08-14T08:27:40Z</time>
      </trkpt>
      <trkpt lat="48.64665" lon="7.21131">
        <ele>475</ele>
        <time>2011-08-14T08:27:43Z</time>
      </trkpt>
      <trkpt lat="48.64661" lon="7.21138">
        <ele>475</ele>
        <time>2011-08-14T08:27:46Z</time>
      </trkpt>
      <trkpt lat="48.64658" lon="7.21144">
        <ele>476</ele>
        <time>2011-08-14T08:27:49Z</time>
      </trkpt>
      <trkpt lat="48.64657" lon="7.21151">
        <ele>476</ele>
        <time>2011-08-14T08:27:52Z</time>
      </trkpt>
      <trkpt lat="48.64656" lon="7.21158">
        <ele>476</ele>
        <time>2011-08-14T08:27:55Z</time>
      </trkpt>
      <trkpt lat="48.64655" lon="7.21167">
        <ele>477</ele>
        <time>2011-08-14T08:27:58Z</time>
      </trkpt>
      <trkpt lat="48.64654" lon="7.21174">
        <ele>477</ele>
        <time>2011-08-14T08:28:01Z</time>
      </trkpt>
      <trkpt lat="48.64651" lon="7.2118">
        <ele>477</ele>
        <time>2011-08-14T08:28:04Z</time>
      </trkpt>
      <trkpt lat="48.64649" lon="7.21186">
        <ele>477</ele>
        <time>2011-08-14T08:28:07Z</time>
      </trkpt>
      <trkpt lat="48.64647" lon="7.21192">
        <ele>477</ele>
        <time>2011-08-14T08:28:10Z</time>
      </trkpt>
      <trkpt lat="48.64644" lon="7.21198">
        <ele>477</ele>
        <time>2011-08-14T08:28:13Z</time>
      </trkpt>
      <trkpt lat="48.64694" lon="7.21363">
        <ele>477</ele>
        <time>2011-08-14T08:28:48Z</time>
      </trkpt>
      <trkpt lat="48.64729" lon="7.2139">
        <ele>477</ele>
        <time>2011-08-14T08:28:49Z</time>
      </trkpt>
      <trkpt lat="48.64729" lon="7.2139">
        <ele>477</ele>
        <time>2011-08-14T08:28:49Z</time>
      </trkpt>
      <trkpt lat="48.64729" lon="7.2139">
        <ele>477</ele>
        <time>2011-08-14T08:28:50Z</time>
      </trkpt>
      <trkpt lat="48.64702" lon="7.21382">
        <ele>477</ele>
        <time>2011-08-14T08:28:51Z</time>
      </trkpt>
      <trkpt lat="48.64702" lon="7.21382">
        <ele>477</ele>
        <time>2011-08-14T08:28:51Z</time>
      </trkpt>
      <trkpt lat="48.64702" lon="7.21382">
        <ele>477</ele>
        <time>2011-08-14T08:28:52Z</time>
      </trkpt>
      <trkpt lat="48.647" lon="7.21389">
        <ele>478</ele>
        <time>2011-08-14T08:29:00Z</time>
      </trkpt>
      <trkpt lat="48.64702" lon="7.21396">
        <ele>478</ele>
        <time>2011-08-14T08:29:04Z</time>
      </trkpt>
      <trkpt lat="48.64703" lon="7.21404">
        <ele>478</ele>
        <time>2011-08-14T08:29:08Z</time>
      </trkpt>
      <trkpt lat="48.64705" lon="7.21412">
        <ele>478</ele>
        <time>2011-08-14T08:29:11Z</time>
      </trkpt>
      <trkpt lat="48.64707" lon="7.21418">
        <ele>479</ele>
        <time>2011-08-14T08:29:14Z</time>
      </trkpt>
      <trkpt lat="48.64709" lon="7.21425">
        <ele>479</ele>
        <time>2011-08-14T08:29:17Z</time>
      </trkpt>
      <trkpt lat="48.64711" lon="7.21435">
        <ele>479</ele>
        <time>2011-08-14T08:29:20Z</time>
      </trkpt>
      <trkpt lat="48.64714" lon="7.21442">
        <ele>479</ele>
        <time>2011-08-14T08:29:23Z</time>
      </trkpt>
      <trkpt lat="48.64717" lon="7.21449">
        <ele>479</ele>
        <time>2011-08-14T08:29:25Z</time>
      </trkpt>
      <trkpt lat="48.64721" lon="7.21458">
        <ele>480</ele>
        <time>2011-08-14T08:29:27Z</time>
      </trkpt>
      <trkpt lat="48.64724" lon="7.21468">
        <ele>480</ele>
        <time>2011-08-14T08:29:29Z</time>
      </trkpt>
      <trkpt lat="48.64726" lon="7.21478">
        <ele>480</ele>
        <time>2011-08-14T08:29:31Z</time>
      </trkpt>
      <trkpt lat="48.64728" lon="7.21487">
        <ele>480</ele>
        <time>2011-08-14T08:29:33Z</time>
      </trkpt>
      <trkpt lat="48.64728" lon="7.21499">
        <ele>481</ele>
        <time>2011-08-14T08:29:35Z</time>
      </trkpt>
      <trkpt lat="48.64728" lon="7.21513">
        <ele>481</ele>
        <time>2011-08-14T08:29:37Z</time>
      </trkpt>
      <trkpt lat="48.64725" lon="7.21524">
        <ele>481</ele>
        <time>2011-08-14T08:29:39Z</time>
      </trkpt>
      <trkpt lat="48.64722" lon="7.21532">
        <ele>482</ele>
        <time>2011-08-14T08:29:41Z</time>
      </trkpt>
      <trkpt lat="48.64718" lon="7.21538">
        <ele>482</ele>
        <time>2011-08-14T08:29:43Z</time>
      </trkpt>
      <trkpt lat="48.64714" lon="7.21544">
        <ele>482</ele>
        <time>2011-08-14T08:29:45Z</time>
      </trkpt>
      <trkpt lat="48.6471" lon="7.21548">
        <ele>483</ele>
        <time>2011-08-14T08:29:47Z</time>
      </trkpt>
      <trkpt lat="48.64705" lon="7.21553">
        <ele>483</ele>
        <time>2011-08-14T08:29:49Z</time>
      </trkpt>
      <trkpt lat="48.647" lon="7.21557">
        <ele>483</ele>
        <time>2011-08-14T08:29:52Z</time>
      </trkpt>
      <trkpt lat="48.64695" lon="7.21561">
        <ele>484</ele>
        <time>2011-08-14T08:29:55Z</time>
      </trkpt>
      <trkpt lat="48.6469" lon="7.21565">
        <ele>484</ele>
        <time>2011-08-14T08:29:58Z</time>
      </trkpt>
      <trkpt lat="48.64685" lon="7.21568">
        <ele>485</ele>
        <time>2011-08-14T08:30:01Z</time>
      </trkpt>
      <trkpt lat="48.6468" lon="7.21572">
        <ele>485</ele>
        <time>2011-08-14T08:30:04Z</time>
      </trkpt>
      <trkpt lat="48.64674" lon="7.21577">
        <ele>486</ele>
        <time>2011-08-14T08:30:07Z</time>
      </trkpt>
      <trkpt lat="48.64669" lon="7.21581">
        <ele>486</ele>
        <time>2011-08-14T08:30:10Z</time>
      </trkpt>
      <trkpt lat="48.64663" lon="7.21587">
        <ele>487</ele>
        <time>2011-08-14T08:30:13Z</time>
      </trkpt>
      <trkpt lat="48.64658" lon="7.21593">
        <ele>487</ele>
        <time>2011-08-14T08:30:16Z</time>
      </trkpt>
      <trkpt lat="48.64654" lon="7.21597">
        <ele>487</ele>
        <time>2011-08-14T08:30:18Z</time>
      </trkpt>
      <trkpt lat="48.64648" lon="7.21602">
        <ele>488</ele>
        <time>2011-08-14T08:30:21Z</time>
      </trkpt>
      <trkpt lat="48.64644" lon="7.21605">
        <ele>488</ele>
        <time>2011-08-14T08:30:23Z</time>
      </trkpt>
      <trkpt lat="48.64639" lon="7.2161">
        <ele>489</ele>
        <time>2011-08-14T08:30:26Z</time>
      </trkpt>
      <trkpt lat="48.64633" lon="7.21616">
        <ele>489</ele>
        <time>2011-08-14T08:30:29Z</time>
      </trkpt>
      <trkpt lat="48.64628" lon="7.21622">
        <ele>489</ele>
        <time>2011-08-14T08:30:32Z</time>
      </trkpt>
      <trkpt lat="48.64624" lon="7.21626">
        <ele>490</ele>
        <time>2011-08-14T08:30:34Z</time>
      </trkpt>
      <trkpt lat="48.6462" lon="7.2163">
        <ele>490</ele>
        <time>2011-08-14T08:30:36Z</time>
      </trkpt>
      <trkpt lat="48.64616" lon="7.21634">
        <ele>490</ele>
        <time>2011-08-14T08:30:38Z</time>
      </trkpt>
      <trkpt lat="48.64613" lon="7.21639">
        <ele>490</ele>
        <time>2011-08-14T08:30:40Z</time>
      </trkpt>
      <trkpt lat="48.6461" lon="7.21643">
        <ele>491</ele>
        <time>2011-08-14T08:30:42Z</time>
      </trkpt>
      <trkpt lat="48.64606" lon="7.21651">
        <ele>491</ele>
        <time>2011-08-14T08:30:45Z</time>
      </trkpt>
      <trkpt lat="48.646" lon="7.21656">
        <ele>491</ele>
        <time>2011-08-14T08:30:48Z</time>
      </trkpt>
      <trkpt lat="48.64596" lon="7.21657">
        <ele>492</ele>
        <time>2011-08-14T08:30:50Z</time>
      </trkpt>
      <trkpt lat="48.64591" lon="7.21659">
        <ele>492</ele>
        <time>2011-08-14T08:30:52Z</time>
      </trkpt>
      <trkpt lat="48.64585" lon="7.21662">
        <ele>492</ele>
        <time>2011-08-14T08:30:55Z</time>
      </trkpt>
      <trkpt lat="48.64579" lon="7.21665">
        <ele>492</ele>
        <time>2011-08-14T08:30:58Z</time>
      </trkpt>
      <trkpt lat="48.64573" lon="7.21668">
        <ele>493</ele>
        <time>2011-08-14T08:31:01Z</time>
      </trkpt>
      <trkpt lat="48.64567" lon="7.2167">
        <ele>493</ele>
        <time>2011-08-14T08:31:04Z</time>
      </trkpt>
      <trkpt lat="48.64561" lon="7.21672">
        <ele>493</ele>
        <time>2011-08-14T08:31:07Z</time>
      </trkpt>
      <trkpt lat="48.64555" lon="7.21673">
        <ele>494</ele>
        <time>2011-08-14T08:31:10Z</time>
      </trkpt>
      <trkpt lat="48.6455" lon="7.21674">
        <ele>494</ele>
        <time>2011-08-14T08:31:13Z</time>
      </trkpt>
      <trkpt lat="48.64546" lon="7.21675">
        <ele>494</ele>
        <time>2011-08-14T08:31:16Z</time>
      </trkpt>
      <trkpt lat="48.64541" lon="7.21676">
        <ele>494</ele>
        <time>2011-08-14T08:31:19Z</time>
      </trkpt>
      <trkpt lat="48.64536" lon="7.21677">
        <ele>495</ele>
        <time>2011-08-14T08:31:22Z</time>
      </trkpt>
      <trkpt lat="48.64531" lon="7.21678">
        <ele>495</ele>
        <time>2011-08-14T08:31:25Z</time>
      </trkpt>
      <trkpt lat="48.64526" lon="7.21678">
        <ele>495</ele>
        <time>2011-08-14T08:31:28Z</time>
      </trkpt>
      <trkpt lat="48.6452" lon="7.21678">
        <ele>495</ele>
        <time>2011-08-14T08:31:31Z</time>
      </trkpt>
      <trkpt lat="48.64515" lon="7.21678">
        <ele>495</ele>
        <time>2011-08-14T08:31:34Z</time>
      </trkpt>
      <trkpt lat="48.6451" lon="7.21678">
        <ele>496</ele>
        <time>2011-08-14T08:31:37Z</time>
      </trkpt>
      <trkpt lat="48.64504" lon="7.21677">
        <ele>496</ele>
        <time>2011-08-14T08:31:40Z</time>
      </trkpt>
      <trkpt lat="48.64499" lon="7.21677">
        <ele>496</ele>
        <time>2011-08-14T08:31:43Z</time>
      </trkpt>
      <trkpt lat="48.64493" lon="7.21677">
        <ele>496</ele>
        <time>2011-08-14T08:31:46Z</time>
      </trkpt>
      <trkpt lat="48.64487" lon="7.21677">
        <ele>497</ele>
        <time>2011-08-14T08:31:49Z</time>
      </trkpt>
      <trkpt lat="48.6448" lon="7.21677">
        <ele>497</ele>
        <time>2011-08-14T08:31:52Z</time>
      </trkpt>
      <trkpt lat="48.64474" lon="7.21677">
        <ele>497</ele>
        <time>2011-08-14T08:31:55Z</time>
      </trkpt>
      <trkpt lat="48.64467" lon="7.21678">
        <ele>497</ele>
        <time>2011-08-14T08:31:58Z</time>
      </trkpt>
      <trkpt lat="48.64461" lon="7.2168">
        <ele>498</ele>
        <time>2011-08-14T08:32:01Z</time>
      </trkpt>
      <trkpt lat="48.64454" lon="7.21681">
        <ele>498</ele>
        <time>2011-08-14T08:32:04Z</time>
      </trkpt>
      <trkpt lat="48.64448" lon="7.21683">
        <ele>498</ele>
        <time>2011-08-14T08:32:07Z</time>
      </trkpt>
      <trkpt lat="48.64442" lon="7.21685">
        <ele>498</ele>
        <time>2011-08-14T08:32:10Z</time>
      </trkpt>
      <trkpt lat="48.64435" lon="7.21687">
        <ele>499</ele>
        <time>2011-08-14T08:32:13Z</time>
      </trkpt>
      <trkpt lat="48.64429" lon="7.21688">
        <ele>499</ele>
        <time>2011-08-14T08:32:16Z</time>
      </trkpt>
      <trkpt lat="48.64422" lon="7.21689">
        <ele>499</ele>
        <time>2011-08-14T08:32:19Z</time>
      </trkpt>
      <trkpt lat="48.64416" lon="7.21692">
        <ele>499</ele>
        <time>2011-08-14T08:32:22Z</time>
      </trkpt>
      <trkpt lat="48.6441" lon="7.21694">
        <ele>500</ele>
        <time>2011-08-14T08:32:25Z</time>
      </trkpt>
      <trkpt lat="48.64405" lon="7.21697">
        <ele>500</ele>
        <time>2011-08-14T08:32:28Z</time>
      </trkpt>
      <trkpt lat="48.644" lon="7.217">
        <ele>500</ele>
        <time>2011-08-14T08:32:31Z</time>
      </trkpt>
      <trkpt lat="48.64394" lon="7.21702">
        <ele>501</ele>
        <time>2011-08-14T08:32:34Z</time>
      </trkpt>
      <trkpt lat="48.64389" lon="7.21705">
        <ele>501</ele>
        <time>2011-08-14T08:32:37Z</time>
      </trkpt>
      <trkpt lat="48.64383" lon="7.21708">
        <ele>501</ele>
        <time>2011-08-14T08:32:40Z</time>
      </trkpt>
      <trkpt lat="48.64378" lon="7.2171">
        <ele>501</ele>
        <time>2011-08-14T08:32:43Z</time>
      </trkpt>
      <trkpt lat="48.64373" lon="7.21713">
        <ele>502</ele>
        <time>2011-08-14T08:32:46Z</time>
      </trkpt>
      <trkpt lat="48.64367" lon="7.21717">
        <ele>502</ele>
        <time>2011-08-14T08:32:49Z</time>
      </trkpt>
      <trkpt lat="48.64362" lon="7.21722">
        <ele>502</ele>
        <time>2011-08-14T08:32:52Z</time>
      </trkpt>
      <trkpt lat="48.64358" lon="7.2173">
        <ele>502</ele>
        <time>2011-08-14T08:32:55Z</time>
      </trkpt>
      <trkpt lat="48.64356" lon="7.21737">
        <ele>502</ele>
        <time>2011-08-14T08:32:57Z</time>
      </trkpt>
      <trkpt lat="48.64354" lon="7.21744">
        <ele>502</ele>
        <time>2011-08-14T08:32:59Z</time>
      </trkpt>
      <trkpt lat="48.64353" lon="7.2175">
        <ele>503</ele>
        <time>2011-08-14T08:33:01Z</time>
      </trkpt>
      <trkpt lat="48.6435" lon="7.21759">
        <ele>503</ele>
        <time>2011-08-14T08:33:04Z</time>
      </trkpt>
      <trkpt lat="48.64347" lon="7.21768">
        <ele>503</ele>
        <time>2011-08-14T08:33:07Z</time>
      </trkpt>
      <trkpt lat="48.64343" lon="7.21776">
        <ele>503</ele>
        <time>2011-08-14T08:33:10Z</time>
      </trkpt>
      <trkpt lat="48.64338" lon="7.21783">
        <ele>503</ele>
        <time>2011-08-14T08:33:13Z</time>
      </trkpt>
      <trkpt lat="48.64333" lon="7.21789">
        <ele>504</ele>
        <time>2011-08-14T08:33:16Z</time>
      </trkpt>
      <trkpt lat="48.64328" lon="7.21795">
        <ele>504</ele>
        <time>2011-08-14T08:33:19Z</time>
      </trkpt>
      <trkpt lat="48.64323" lon="7.218">
        <ele>504</ele>
        <time>2011-08-14T08:33:22Z</time>
      </trkpt>
      <trkpt lat="48.6432" lon="7.21807">
        <ele>505</ele>
        <time>2011-08-14T08:33:25Z</time>
      </trkpt>
      <trkpt lat="48.64316" lon="7.21813">
        <ele>505</ele>
        <time>2011-08-14T08:33:28Z</time>
      </trkpt>
      <trkpt lat="48.64314" lon="7.2182">
        <ele>505</ele>
        <time>2011-08-14T08:33:31Z</time>
      </trkpt>
      <trkpt lat="48.64314" lon="7.21829">
        <ele>506</ele>
        <time>2011-08-14T08:33:34Z</time>
      </trkpt>
      <trkpt lat="48.64317" lon="7.21837">
        <ele>506</ele>
        <time>2011-08-14T08:33:36Z</time>
      </trkpt>
      <trkpt lat="48.64321" lon="7.21846">
        <ele>506</ele>
        <time>2011-08-14T08:33:38Z</time>
      </trkpt>
      <trkpt lat="48.64324" lon="7.21854">
        <ele>506</ele>
        <time>2011-08-14T08:33:40Z</time>
      </trkpt>
      <trkpt lat="48.64326" lon="7.21862">
        <ele>507</ele>
        <time>2011-08-14T08:33:42Z</time>
      </trkpt>
      <trkpt lat="48.64328" lon="7.21869">
        <ele>507</ele>
        <time>2011-08-14T08:33:44Z</time>
      </trkpt>
      <trkpt lat="48.6433" lon="7.21876">
        <ele>507</ele>
        <time>2011-08-14T08:33:46Z</time>
      </trkpt>
      <trkpt lat="48.64334" lon="7.21886">
        <ele>507</ele>
        <time>2011-08-14T08:33:48Z</time>
      </trkpt>
      <trkpt lat="48.64336" lon="7.21892">
        <ele>507</ele>
        <time>2011-08-14T08:33:49Z</time>
      </trkpt>
      <trkpt lat="48.6434" lon="7.21903">
        <ele>507</ele>
        <time>2011-08-14T08:33:51Z</time>
      </trkpt>
      <trkpt lat="48.64344" lon="7.21913">
        <ele>508</ele>
        <time>2011-08-14T08:33:53Z</time>
      </trkpt>
      <trkpt lat="48.64346" lon="7.21922">
        <ele>508</ele>
        <time>2011-08-14T08:33:55Z</time>
      </trkpt>
      <trkpt lat="48.64348" lon="7.21931">
        <ele>508</ele>
        <time>2011-08-14T08:33:57Z</time>
      </trkpt>
      <trkpt lat="48.64349" lon="7.2194">
        <ele>508</ele>
        <time>2011-08-14T08:33:59Z</time>
      </trkpt>
      <trkpt lat="48.64351" lon="7.21954">
        <ele>508</ele>
        <time>2011-08-14T08:34:01Z</time>
      </trkpt>
      <trkpt lat="48.64351" lon="7.21965">
        <ele>508</ele>
        <time>2011-08-14T08:34:03Z</time>
      </trkpt>
      <trkpt lat="48.64351" lon="7.21975">
        <ele>509</ele>
        <time>2011-08-14T08:34:05Z</time>
      </trkpt>
      <trkpt lat="48.6435" lon="7.21983">
        <ele>509</ele>
        <time>2011-08-14T08:34:07Z</time>
      </trkpt>
      <trkpt lat="48.64348" lon="7.21992">
        <ele>509</ele>
        <time>2011-08-14T08:34:09Z</time>
      </trkpt>
      <trkpt lat="48.64346" lon="7.21999">
        <ele>509</ele>
        <time>2011-08-14T08:34:11Z</time>
      </trkpt>
      <trkpt lat="48.64343" lon="7.22005">
        <ele>510</ele>
        <time>2011-08-14T08:34:13Z</time>
      </trkpt>
      <trkpt lat="48.64339" lon="7.2201">
        <ele>510</ele>
        <time>2011-08-14T08:34:15Z</time>
      </trkpt>
      <trkpt lat="48.64335" lon="7.22014">
        <ele>510</ele>
        <time>2011-08-14T08:34:17Z</time>
      </trkpt>
      <trkpt lat="48.64329" lon="7.22018">
        <ele>510</ele>
        <time>2011-08-14T08:34:20Z</time>
      </trkpt>
      <trkpt lat="48.64322" lon="7.22019">
        <ele>511</ele>
        <time>2011-08-14T08:34:23Z</time>
      </trkpt>
      <trkpt lat="48.64316" lon="7.2202">
        <ele>511</ele>
        <time>2011-08-14T08:34:26Z</time>
      </trkpt>
      <trkpt lat="48.6431" lon="7.22022">
        <ele>511</ele>
        <time>2011-08-14T08:34:29Z</time>
      </trkpt>
      <trkpt lat="48.64304" lon="7.22022">
        <ele>511</ele>
        <time>2011-08-14T08:34:32Z</time>
      </trkpt>
      <trkpt lat="48.64298" lon="7.22021">
        <ele>512</ele>
        <time>2011-08-14T08:34:35Z</time>
      </trkpt>
      <trkpt lat="48.64292" lon="7.2202">
        <ele>512</ele>
        <time>2011-08-14T08:34:38Z</time>
      </trkpt>
      <trkpt lat="48.64287" lon="7.22019">
        <ele>512</ele>
        <time>2011-08-14T08:34:41Z</time>
      </trkpt>
      <trkpt lat="48.64282" lon="7.22018">
        <ele>512</ele>
        <time>2011-08-14T08:34:44Z</time>
      </trkpt>
      <trkpt lat="48.64276" lon="7.22017">
        <ele>512</ele>
        <time>2011-08-14T08:34:47Z</time>
      </trkpt>
      <trkpt lat="48.6427" lon="7.22016">
        <ele>513</ele>
        <time>2011-08-14T08:34:50Z</time>
      </trkpt>
      <trkpt lat="48.64264" lon="7.22016">
        <ele>513</ele>
        <time>2011-08-14T08:34:53Z</time>
      </trkpt>
      <trkpt lat="48.64258" lon="7.22017">
        <ele>513</ele>
        <time>2011-08-14T08:34:56Z</time>
      </trkpt>
      <trkpt lat="48.64252" lon="7.22019">
        <ele>513</ele>
        <time>2011-08-14T08:34:59Z</time>
      </trkpt>
      <trkpt lat="48.64245" lon="7.2202">
        <ele>514</ele>
        <time>2011-08-14T08:35:02Z</time>
      </trkpt>
      <trkpt lat="48.64238" lon="7.22021">
        <ele>514</ele>
        <time>2011-08-14T08:35:05Z</time>
      </trkpt>
      <trkpt lat="48.64234" lon="7.22023">
        <ele>514</ele>
        <time>2011-08-14T08:35:07Z</time>
      </trkpt>
      <trkpt lat="48.64229" lon="7.22025">
        <ele>515</ele>
        <time>2011-08-14T08:35:09Z</time>
      </trkpt>
      <trkpt lat="48.64224" lon="7.22026">
        <ele>515</ele>
        <time>2011-08-14T08:35:11Z</time>
      </trkpt>
      <trkpt lat="48.6422" lon="7.22028">
        <ele>515</ele>
        <time>2011-08-14T08:35:13Z</time>
      </trkpt>
      <trkpt lat="48.64215" lon="7.22029">
        <ele>515</ele>
        <time>2011-08-14T08:35:15Z</time>
      </trkpt>
      <trkpt lat="48.6421" lon="7.2203">
        <ele>516</ele>
        <time>2011-08-14T08:35:17Z</time>
      </trkpt>
      <trkpt lat="48.64205" lon="7.2203">
        <ele>516</ele>
        <time>2011-08-14T08:35:19Z</time>
      </trkpt>
      <trkpt lat="48.64201" lon="7.22031">
        <ele>516</ele>
        <time>2011-08-14T08:35:21Z</time>
      </trkpt>
      <trkpt lat="48.64195" lon="7.22032">
        <ele>516</ele>
        <time>2011-08-14T08:35:24Z</time>
      </trkpt>
      <trkpt lat="48.64189" lon="7.22033">
        <ele>516</ele>
        <time>2011-08-14T08:35:27Z</time>
      </trkpt>
      <trkpt lat="48.64183" lon="7.22034">
        <ele>516</ele>
        <time>2011-08-14T08:35:30Z</time>
      </trkpt>
      <trkpt lat="48.64176" lon="7.22035">
        <ele>516</ele>
        <time>2011-08-14T08:35:33Z</time>
      </trkpt>
      <trkpt lat="48.6417" lon="7.22036">
        <ele>517</ele>
        <time>2011-08-14T08:35:36Z</time>
      </trkpt>
      <trkpt lat="48.64164" lon="7.2204">
        <ele>517</ele>
        <time>2011-08-14T08:35:39Z</time>
      </trkpt>
      <trkpt lat="48.6416" lon="7.22044">
        <ele>517</ele>
        <time>2011-08-14T08:35:41Z</time>
      </trkpt>
      <trkpt lat="48.64156" lon="7.22048">
        <ele>517</ele>
        <time>2011-08-14T08:35:43Z</time>
      </trkpt>
      <trkpt lat="48.64152" lon="7.22051">
        <ele>517</ele>
        <time>2011-08-14T08:35:45Z</time>
      </trkpt>
      <trkpt lat="48.64146" lon="7.22055">
        <ele>517</ele>
        <time>2011-08-14T08:35:48Z</time>
      </trkpt>
      <trkpt lat="48.64139" lon="7.22059">
        <ele>518</ele>
        <time>2011-08-14T08:35:51Z</time>
      </trkpt>
      <trkpt lat="48.64133" lon="7.22062">
        <ele>518</ele>
        <time>2011-08-14T08:35:54Z</time>
      </trkpt>
      <trkpt lat="48.64127" lon="7.22066">
        <ele>518</ele>
        <time>2011-08-14T08:35:57Z</time>
      </trkpt>
      <trkpt lat="48.64122" lon="7.22071">
        <ele>518</ele>
        <time>2011-08-14T08:35:59Z</time>
      </trkpt>
      <trkpt lat="48.64118" lon="7.22076">
        <ele>518</ele>
        <time>2011-08-14T08:36:01Z</time>
      </trkpt>
      <trkpt lat="48.64114" lon="7.2208">
        <ele>518</ele>
        <time>2011-08-14T08:36:03Z</time>
      </trkpt>
      <trkpt lat="48.6411" lon="7.22085">
        <ele>519</ele>
        <time>2011-08-14T08:36:05Z</time>
      </trkpt>
      <trkpt lat="48.64104" lon="7.2209">
        <ele>519</ele>
        <time>2011-08-14T08:36:08Z</time>
      </trkpt>
      <trkpt lat="48.64099" lon="7.22096">
        <ele>519</ele>
        <time>2011-08-14T08:36:11Z</time>
      </trkpt>
      <trkpt lat="48.64094" lon="7.221">
        <ele>519</ele>
        <time>2011-08-14T08:36:14Z</time>
      </trkpt>
      <trkpt lat="48.64089" lon="7.22105">
        <ele>520</ele>
        <time>2011-08-14T08:36:17Z</time>
      </trkpt>
      <trkpt lat="48.64084" lon="7.22109">
        <ele>520</ele>
        <time>2011-08-14T08:36:20Z</time>
      </trkpt>
      <trkpt lat="48.64078" lon="7.22114">
        <ele>520</ele>
        <time>2011-08-14T08:36:23Z</time>
      </trkpt>
      <trkpt lat="48.64073" lon="7.22118">
        <ele>520</ele>
        <time>2011-08-14T08:36:26Z</time>
      </trkpt>
      <trkpt lat="48.64068" lon="7.22123">
        <ele>521</ele>
        <time>2011-08-14T08:36:29Z</time>
      </trkpt>
      <trkpt lat="48.64064" lon="7.22128">
        <ele>521</ele>
        <time>2011-08-14T08:36:32Z</time>
      </trkpt>
      <trkpt lat="48.64059" lon="7.22133">
        <ele>521</ele>
        <time>2011-08-14T08:36:35Z</time>
      </trkpt>
      <trkpt lat="48.64055" lon="7.2214">
        <ele>521</ele>
        <time>2011-08-14T08:36:38Z</time>
      </trkpt>
      <trkpt lat="48.64053" lon="7.22147">
        <ele>522</ele>
        <time>2011-08-14T08:36:41Z</time>
      </trkpt>
      <trkpt lat="48.64049" lon="7.22152">
        <ele>522</ele>
        <time>2011-08-14T08:36:44Z</time>
      </trkpt>
      <trkpt lat="48.64045" lon="7.22156">
        <ele>522</ele>
        <time>2011-08-14T08:36:47Z</time>
      </trkpt>
      <trkpt lat="48.64041" lon="7.22162">
        <ele>522</ele>
        <time>2011-08-14T08:36:50Z</time>
      </trkpt>
      <trkpt lat="48.64037" lon="7.22168">
        <ele>523</ele>
        <time>2011-08-14T08:36:53Z</time>
      </trkpt>
      <trkpt lat="48.64036" lon="7.22176">
        <ele>523</ele>
        <time>2011-08-14T08:36:56Z</time>
      </trkpt>
      <trkpt lat="48.64034" lon="7.22184">
        <ele>523</ele>
        <time>2011-08-14T08:36:59Z</time>
      </trkpt>
      <trkpt lat="48.64032" lon="7.2219">
        <ele>523</ele>
        <time>2011-08-14T08:37:02Z</time>
      </trkpt>
      <trkpt lat="48.6403" lon="7.22197">
        <ele>523</ele>
        <time>2011-08-14T08:37:05Z</time>
      </trkpt>
      <trkpt lat="48.64028" lon="7.22205">
        <ele>524</ele>
        <time>2011-08-14T08:37:09Z</time>
      </trkpt>
      <trkpt lat="48.64024" lon="7.22212">
        <ele>524</ele>
        <time>2011-08-14T08:37:13Z</time>
      </trkpt>
      <trkpt lat="48.64021" lon="7.22217">
        <ele>524</ele>
        <time>2011-08-14T08:37:16Z</time>
      </trkpt>
      <trkpt lat="48.64017" lon="7.22224">
        <ele>524</ele>
        <time>2011-08-14T08:37:19Z</time>
      </trkpt>
      <trkpt lat="48.64014" lon="7.2223">
        <ele>525</ele>
        <time>2011-08-14T08:37:22Z</time>
      </trkpt>
      <trkpt lat="48.64012" lon="7.22236">
        <ele>525</ele>
        <time>2011-08-14T08:37:25Z</time>
      </trkpt>
      <trkpt lat="48.6401" lon="7.22242">
        <ele>525</ele>
        <time>2011-08-14T08:37:28Z</time>
      </trkpt>
      <trkpt lat="48.64008" lon="7.22249">
        <ele>525</ele>
        <time>2011-08-14T08:37:32Z</time>
      </trkpt>
      <trkpt lat="48.64006" lon="7.22255">
        <ele>526</ele>
        <time>2011-08-14T08:37:35Z</time>
      </trkpt>
      <trkpt lat="48.64004" lon="7.22262">
        <ele>526</ele>
        <time>2011-08-14T08:37:38Z</time>
      </trkpt>
      <trkpt lat="48.64003" lon="7.22269">
        <ele>526</ele>
        <time>2011-08-14T08:37:41Z</time>
      </trkpt>
      <trkpt lat="48.64002" lon="7.22276">
        <ele>526</ele>
        <time>2011-08-14T08:37:44Z</time>
      </trkpt>
      <trkpt lat="48.64" lon="7.22284">
        <ele>526</ele>
        <time>2011-08-14T08:37:47Z</time>
      </trkpt>
      <trkpt lat="48.63997" lon="7.22292">
        <ele>526</ele>
        <time>2011-08-14T08:37:50Z</time>
      </trkpt>
      <trkpt lat="48.63997" lon="7.22301">
        <ele>527</ele>
        <time>2011-08-14T08:37:54Z</time>
      </trkpt>
      <trkpt lat="48.63998" lon="7.22311">
        <ele>527</ele>
        <time>2011-08-14T08:37:57Z</time>
      </trkpt>
      <trkpt lat="48.63998" lon="7.22318">
        <ele>527</ele>
        <time>2011-08-14T08:37:59Z</time>
      </trkpt>
      <trkpt lat="48.63998" lon="7.22326">
        <ele>527</ele>
        <time>2011-08-14T08:38:02Z</time>
      </trkpt>
      <trkpt lat="48.63998" lon="7.22333">
        <ele>527</ele>
        <time>2011-08-14T08:38:06Z</time>
      </trkpt>
      <trkpt lat="48.63999" lon="7.22342">
        <ele>527</ele>
        <time>2011-08-14T08:38:10Z</time>
      </trkpt>
      <trkpt lat="48.63998" lon="7.22351">
        <ele>527</ele>
        <time>2011-08-14T08:38:13Z</time>
      </trkpt>
      <trkpt lat="48.64" lon="7.2236">
        <ele>527</ele>
        <time>2011-08-14T08:38:14Z</time>
      </trkpt>
      <trkpt lat="48.63999" lon="7.22366">
        <ele>527</ele>
        <time>2011-08-14T08:38:17Z</time>
      </trkpt>
      <trkpt lat="48.63998" lon="7.22375">
        <ele>528</ele>
        <time>2011-08-14T08:38:21Z</time>
      </trkpt>
      <trkpt lat="48.63997" lon="7.22383">
        <ele>528</ele>
        <time>2011-08-14T08:38:25Z</time>
      </trkpt>
      <trkpt lat="48.63995" lon="7.22391">
        <ele>528</ele>
        <time>2011-08-14T08:38:29Z</time>
      </trkpt>
      <trkpt lat="48.63992" lon="7.22397">
        <ele>528</ele>
        <time>2011-08-14T08:38:32Z</time>
      </trkpt>
      <trkpt lat="48.63989" lon="7.22402">
        <ele>528</ele>
        <time>2011-08-14T08:38:36Z</time>
      </trkpt>
      <trkpt lat="48.63986" lon="7.22407">
        <ele>528</ele>
        <time>2011-08-14T08:38:41Z</time>
      </trkpt>
      <trkpt lat="48.63984" lon="7.22416">
        <ele>528</ele>
        <time>2011-08-14T08:38:46Z</time>
      </trkpt>
      <trkpt lat="48.63983" lon="7.22423">
        <ele>529</ele>
        <time>2011-08-14T08:38:49Z</time>
      </trkpt>
      <trkpt lat="48.63981" lon="7.22431">
        <ele>529</ele>
        <time>2011-08-14T08:38:52Z</time>
      </trkpt>
      <trkpt lat="48.63981" lon="7.2244">
        <ele>529</ele>
        <time>2011-08-14T08:38:56Z</time>
      </trkpt>
      <trkpt lat="48.6398" lon="7.22447">
        <ele>529</ele>
        <time>2011-08-14T08:39:00Z</time>
      </trkpt>
      <trkpt lat="48.63978" lon="7.22453">
        <ele>529</ele>
        <time>2011-08-14T08:39:04Z</time>
      </trkpt>
      <trkpt lat="48.63976" lon="7.2246">
        <ele>529</ele>
        <time>2011-08-14T08:39:07Z</time>
      </trkpt>
      <trkpt lat="48.63983" lon="7.22471">
        <ele>531</ele>
        <time>2011-08-14T08:41:06Z</time>
      </trkpt>
      <trkpt lat="48.63987" lon="7.2248">
        <ele>531</ele>
        <time>2011-08-14T08:41:07Z</time>
      </trkpt>
      <trkpt lat="48.6399" lon="7.22488">
        <ele>531</ele>
        <time>2011-08-14T08:41:08Z</time>
      </trkpt>
      <trkpt lat="48.63994" lon="7.22498">
        <ele>531</ele>
        <time>2011-08-14T08:41:10Z</time>
      </trkpt>
      <trkpt lat="48.63997" lon="7.22506">
        <ele>531</ele>
        <time>2011-08-14T08:41:12Z</time>
      </trkpt>
      <trkpt lat="48.64" lon="7.22513">
        <ele>531</ele>
        <time>2011-08-14T08:41:20Z</time>
      </trkpt>
      <trkpt lat="48.63999" lon="7.22521">
        <ele>531</ele>
        <time>2011-08-14T08:41:24Z</time>
      </trkpt>
      <trkpt lat="48.63997" lon="7.22529">
        <ele>531</ele>
        <time>2011-08-14T08:41:28Z</time>
      </trkpt>
      <trkpt lat="48.63994" lon="7.22535">
        <ele>531</ele>
        <time>2011-08-14T08:41:32Z</time>
      </trkpt>
      <trkpt lat="48.6399" lon="7.22542">
        <ele>532</ele>
        <time>2011-08-14T08:41:38Z</time>
      </trkpt>
      <trkpt lat="48.63991" lon="7.2255">
        <ele>533</ele>
        <time>2011-08-14T08:41:43Z</time>
      </trkpt>
      <trkpt lat="48.6399" lon="7.22557">
        <ele>533</ele>
        <time>2011-08-14T08:41:46Z</time>
      </trkpt>
      <trkpt lat="48.63989" lon="7.22566">
        <ele>534</ele>
        <time>2011-08-14T08:41:49Z</time>
      </trkpt>
      <trkpt lat="48.63988" lon="7.22573">
        <ele>534</ele>
        <time>2011-08-14T08:41:52Z</time>
      </trkpt>
      <trkpt lat="48.63987" lon="7.2258">
        <ele>535</ele>
        <time>2011-08-14T08:41:55Z</time>
      </trkpt>
      <trkpt lat="48.63985" lon="7.22588">
        <ele>536</ele>
        <time>2011-08-14T08:42:00Z</time>
      </trkpt>
      <trkpt lat="48.63984" lon="7.22596">
        <ele>536</ele>
        <time>2011-08-14T08:42:03Z</time>
      </trkpt>
      <trkpt lat="48.63984" lon="7.22603">
        <ele>536</ele>
        <time>2011-08-14T08:42:05Z</time>
      </trkpt>
      <trkpt lat="48.63985" lon="7.2261">
        <ele>536</ele>
        <time>2011-08-14T08:42:07Z</time>
      </trkpt>
      <trkpt lat="48.63986" lon="7.22618">
        <ele>537</ele>
        <time>2011-08-14T08:42:10Z</time>
      </trkpt>
      <trkpt lat="48.63987" lon="7.22625">
        <ele>537</ele>
        <time>2011-08-14T08:42:13Z</time>
      </trkpt>
      <trkpt lat="48.63988" lon="7.22634">
        <ele>537</ele>
        <time>2011-08-14T08:42:17Z</time>
      </trkpt>
      <trkpt lat="48.63987" lon="7.22641">
        <ele>537</ele>
        <time>2011-08-14T08:42:20Z</time>
      </trkpt>
      <trkpt lat="48.63987" lon="7.22648">
        <ele>538</ele>
        <time>2011-08-14T08:42:23Z</time>
      </trkpt>
      <trkpt lat="48.63987" lon="7.22658">
        <ele>538</ele>
        <time>2011-08-14T08:42:26Z</time>
      </trkpt>
      <trkpt lat="48.63988" lon="7.22668">
        <ele>538</ele>
        <time>2011-08-14T08:42:29Z</time>
      </trkpt>
      <trkpt lat="48.63988" lon="7.22676">
        <ele>538</ele>
        <time>2011-08-14T08:42:32Z</time>
      </trkpt>
      <trkpt lat="48.63989" lon="7.22686">
        <ele>538</ele>
        <time>2011-08-14T08:42:35Z</time>
      </trkpt>
      <trkpt lat="48.6399" lon="7.22693">
        <ele>539</ele>
        <time>2011-08-14T08:42:38Z</time>
      </trkpt>
      <trkpt lat="48.6399" lon="7.227">
        <ele>539</ele>
        <time>2011-08-14T08:42:41Z</time>
      </trkpt>
      <trkpt lat="48.6399" lon="7.22707">
        <ele>539</ele>
        <time>2011-08-14T08:42:44Z</time>
      </trkpt>
      <trkpt lat="48.6399" lon="7.22715">
        <ele>539</ele>
        <time>2011-08-14T08:42:47Z</time>
      </trkpt>
      <trkpt lat="48.63989" lon="7.22724">
        <ele>539</ele>
        <time>2011-08-14T08:42:50Z</time>
      </trkpt>
      <trkpt lat="48.63989" lon="7.22732">
        <ele>539</ele>
        <time>2011-08-14T08:42:53Z</time>
      </trkpt>
      <trkpt lat="48.63988" lon="7.2274">
        <ele>539</ele>
        <time>2011-08-14T08:42:56Z</time>
      </trkpt>
      <trkpt lat="48.63988" lon="7.22751">
        <ele>540</ele>
        <time>2011-08-14T08:42:59Z</time>
      </trkpt>
      <trkpt lat="48.63988" lon="7.22758">
        <ele>540</ele>
        <time>2011-08-14T08:43:02Z</time>
      </trkpt>
      <trkpt lat="48.63988" lon="7.22767">
        <ele>540</ele>
        <time>2011-08-14T08:43:07Z</time>
      </trkpt>
      <trkpt lat="48.63988" lon="7.22774">
        <ele>540</ele>
        <time>2011-08-14T08:43:10Z</time>
      </trkpt>
      <trkpt lat="48.63988" lon="7.22783">
        <ele>540</ele>
        <time>2011-08-14T08:43:15Z</time>
      </trkpt>
      <trkpt lat="48.63989" lon="7.22791">
        <ele>540</ele>
        <time>2011-08-14T08:43:19Z</time>
      </trkpt>
      <trkpt lat="48.6399" lon="7.22799">
        <ele>540</ele>
        <time>2011-08-14T08:43:22Z</time>
      </trkpt>
      <trkpt lat="48.63991" lon="7.22806">
        <ele>541</ele>
        <time>2011-08-14T08:43:25Z</time>
      </trkpt>
      <trkpt lat="48.63993" lon="7.22814">
        <ele>541</ele>
        <time>2011-08-14T08:43:28Z</time>
      </trkpt>
      <trkpt lat="48.63994" lon="7.2282">
        <ele>541</ele>
        <time>2011-08-14T08:43:31Z</time>
      </trkpt>
      <trkpt lat="48.63996" lon="7.22827">
        <ele>541</ele>
        <time>2011-08-14T08:43:34Z</time>
      </trkpt>
      <trkpt lat="48.63998" lon="7.22833">
        <ele>541</ele>
        <time>2011-08-14T08:43:37Z</time>
      </trkpt>
      <trkpt lat="48.64" lon="7.2284">
        <ele>542</ele>
        <time>2011-08-14T08:43:40Z</time>
      </trkpt>
      <trkpt lat="48.64003" lon="7.22849">
        <ele>542</ele>
        <time>2011-08-14T08:43:43Z</time>
      </trkpt>
      <trkpt lat="48.64007" lon="7.22857">
        <ele>542</ele>
        <time>2011-08-14T08:43:46Z</time>
      </trkpt>
      <trkpt lat="48.6401" lon="7.22862">
        <ele>542</ele>
        <time>2011-08-14T08:43:48Z</time>
      </trkpt>
      <trkpt lat="48.64013" lon="7.22869">
        <ele>542</ele>
        <time>2011-08-14T08:43:50Z</time>
      </trkpt>
      <trkpt lat="48.64017" lon="7.22875">
        <ele>542</ele>
        <time>2011-08-14T08:43:53Z</time>
      </trkpt>
      <trkpt lat="48.64021" lon="7.22881">
        <ele>542</ele>
        <time>2011-08-14T08:43:56Z</time>
      </trkpt>
      <trkpt lat="48.64025" lon="7.22888">
        <ele>543</ele>
        <time>2011-08-14T08:43:59Z</time>
      </trkpt>
      <trkpt lat="48.64028" lon="7.22893">
        <ele>543</ele>
        <time>2011-08-14T08:44:01Z</time>
      </trkpt>
      <trkpt lat="48.64031" lon="7.229">
        <ele>543</ele>
        <time>2011-08-14T08:44:04Z</time>
      </trkpt>
      <trkpt lat="48.64034" lon="7.22905">
        <ele>543</ele>
        <time>2011-08-14T08:44:07Z</time>
      </trkpt>
      <trkpt lat="48.64037" lon="7.22913">
        <ele>543</ele>
        <time>2011-08-14T08:44:10Z</time>
      </trkpt>
      <trkpt lat="48.6404" lon="7.22919">
        <ele>544</ele>
        <time>2011-08-14T08:44:13Z</time>
      </trkpt>
      <trkpt lat="48.64044" lon="7.22926">
        <ele>544</ele>
        <time>2011-08-14T08:44:16Z</time>
      </trkpt>
      <trkpt lat="48.64046" lon="7.22933">
        <ele>545</ele>
        <time>2011-08-14T08:44:19Z</time>
      </trkpt>
      <trkpt lat="48.64049" lon="7.22939">
        <ele>546</ele>
        <time>2011-08-14T08:44:23Z</time>
      </trkpt>
      <trkpt lat="48.64052" lon="7.22946">
        <ele>546</ele>
        <time>2011-08-14T08:44:27Z</time>
      </trkpt>
      <trkpt lat="48.64055" lon="7.22954">
        <ele>547</ele>
        <time>2011-08-14T08:44:30Z</time>
      </trkpt>
      <trkpt lat="48.64058" lon="7.22961">
        <ele>547</ele>
        <time>2011-08-14T08:44:33Z</time>
      </trkpt>
      <trkpt lat="48.64061" lon="7.22968">
        <ele>547</ele>
        <time>2011-08-14T08:44:35Z</time>
      </trkpt>
      <trkpt lat="48.64064" lon="7.22976">
        <ele>547</ele>
        <time>2011-08-14T08:44:37Z</time>
      </trkpt>
      <trkpt lat="48.64068" lon="7.22983">
        <ele>548</ele>
        <time>2011-08-14T08:44:39Z</time>
      </trkpt>
      <trkpt lat="48.64071" lon="7.2299">
        <ele>548</ele>
        <time>2011-08-14T08:44:41Z</time>
      </trkpt>
      <trkpt lat="48.64074" lon="7.22997">
        <ele>548</ele>
        <time>2011-08-14T08:44:43Z</time>
      </trkpt>
      <trkpt lat="48.64078" lon="7.23005">
        <ele>549</ele>
        <time>2011-08-14T08:44:45Z</time>
      </trkpt>
      <trkpt lat="48.64082" lon="7.23013">
        <ele>549</ele>
        <time>2011-08-14T08:44:47Z</time>
      </trkpt>
      <trkpt lat="48.64085" lon="7.2302">
        <ele>549</ele>
        <time>2011-08-14T08:44:49Z</time>
      </trkpt>
      <trkpt lat="48.64088" lon="7.23027">
        <ele>549</ele>
        <time>2011-08-14T08:44:52Z</time>
      </trkpt>
      <trkpt lat="48.64091" lon="7.23033">
        <ele>550</ele>
        <time>2011-08-14T08:44:55Z</time>
      </trkpt>
      <trkpt lat="48.64093" lon="7.23041">
        <ele>550</ele>
        <time>2011-08-14T08:44:58Z</time>
      </trkpt>
      <trkpt lat="48.64094" lon="7.23048">
        <ele>550</ele>
        <time>2011-08-14T08:45:00Z</time>
      </trkpt>
      <trkpt lat="48.64088" lon="7.23051">
        <ele>551</ele>
        <time>2011-08-14T08:45:02Z</time>
      </trkpt>
      <trkpt lat="48.64085" lon="7.23058">
        <ele>551</ele>
        <time>2011-08-14T08:45:07Z</time>
      </trkpt>
      <trkpt lat="48.64083" lon="7.23064">
        <ele>551</ele>
        <time>2011-08-14T08:45:10Z</time>
      </trkpt>
      <trkpt lat="48.6408" lon="7.2307">
        <ele>552</ele>
        <time>2011-08-14T08:45:14Z</time>
      </trkpt>
      <trkpt lat="48.6408" lon="7.23078">
        <ele>552</ele>
        <time>2011-08-14T08:45:22Z</time>
      </trkpt>
      <trkpt lat="48.64082" lon="7.23086">
        <ele>552</ele>
        <time>2011-08-14T08:45:26Z</time>
      </trkpt>
      <trkpt lat="48.6409" lon="7.23098">
        <ele>552</ele>
        <time>2011-08-14T08:45:27Z</time>
      </trkpt>
      <trkpt lat="48.64092" lon="7.23107">
        <ele>552</ele>
        <time>2011-08-14T08:45:30Z</time>
      </trkpt>
      <trkpt lat="48.64093" lon="7.23115">
        <ele>552</ele>
        <time>2011-08-14T08:45:33Z</time>
      </trkpt>
      <trkpt lat="48.64092" lon="7.23125">
        <ele>552</ele>
        <time>2011-08-14T08:45:36Z</time>
      </trkpt>
      <trkpt lat="48.64091" lon="7.23132">
        <ele>552</ele>
        <time>2011-08-14T08:45:38Z</time>
      </trkpt>
      <trkpt lat="48.64091" lon="7.23139">
        <ele>553</ele>
        <time>2011-08-14T08:45:40Z</time>
      </trkpt>
      <trkpt lat="48.64091" lon="7.23149">
        <ele>553</ele>
        <time>2011-08-14T08:45:43Z</time>
      </trkpt>
      <trkpt lat="48.64089" lon="7.23157">
        <ele>553</ele>
        <time>2011-08-14T08:45:46Z</time>
      </trkpt>
      <trkpt lat="48.64088" lon="7.23166">
        <ele>553</ele>
        <time>2011-08-14T08:45:49Z</time>
      </trkpt>
      <trkpt lat="48.64089" lon="7.23174">
        <ele>553</ele>
        <time>2011-08-14T08:45:50Z</time>
      </trkpt>
      <trkpt lat="48.64089" lon="7.23184">
        <ele>553</ele>
        <time>2011-08-14T08:45:53Z</time>
      </trkpt>
      <trkpt lat="48.64089" lon="7.23192">
        <ele>553</ele>
        <time>2011-08-14T08:45:56Z</time>
      </trkpt>
      <trkpt lat="48.64089" lon="7.23198">
        <ele>554</ele>
        <time>2011-08-14T08:45:58Z</time>
      </trkpt>
      <trkpt lat="48.64088" lon="7.23206">
        <ele>554</ele>
        <time>2011-08-14T08:46:00Z</time>
      </trkpt>
      <trkpt lat="48.64088" lon="7.23213">
        <ele>554</ele>
        <time>2011-08-14T08:46:02Z</time>
      </trkpt>
      <trkpt lat="48.64087" lon="7.23222">
        <ele>554</ele>
        <time>2011-08-14T08:46:05Z</time>
      </trkpt>
      <trkpt lat="48.64086" lon="7.23229">
        <ele>554</ele>
        <time>2011-08-14T08:46:07Z</time>
      </trkpt>
      <trkpt lat="48.64085" lon="7.23237">
        <ele>555</ele>
        <time>2011-08-14T08:46:09Z</time>
      </trkpt>
      <trkpt lat="48.64083" lon="7.23245">
        <ele>555</ele>
        <time>2011-08-14T08:46:12Z</time>
      </trkpt>
      <trkpt lat="48.64081" lon="7.23251">
        <ele>555</ele>
        <time>2011-08-14T08:46:14Z</time>
      </trkpt>
      <trkpt lat="48.64079" lon="7.2326">
        <ele>555</ele>
        <time>2011-08-14T08:46:17Z</time>
      </trkpt>
      <trkpt lat="48.64077" lon="7.23266">
        <ele>556</ele>
        <time>2011-08-14T08:46:20Z</time>
      </trkpt>
      <trkpt lat="48.64074" lon="7.23274">
        <ele>556</ele>
        <time>2011-08-14T08:46:23Z</time>
      </trkpt>
      <trkpt lat="48.64073" lon="7.23283">
        <ele>556</ele>
        <time>2011-08-14T08:46:27Z</time>
      </trkpt>
      <trkpt lat="48.64071" lon="7.2329">
        <ele>556</ele>
        <time>2011-08-14T08:46:31Z</time>
      </trkpt>
      <trkpt lat="48.6407" lon="7.23298">
        <ele>557</ele>
        <time>2011-08-14T08:46:34Z</time>
      </trkpt>
      <trkpt lat="48.64068" lon="7.23304">
        <ele>557</ele>
        <time>2011-08-14T08:46:37Z</time>
      </trkpt>
      <trkpt lat="48.64066" lon="7.23313">
        <ele>557</ele>
        <time>2011-08-14T08:46:42Z</time>
      </trkpt>
      <trkpt lat="48.64064" lon="7.2332">
        <ele>557</ele>
        <time>2011-08-14T08:46:45Z</time>
      </trkpt>
      <trkpt lat="48.64062" lon="7.23328">
        <ele>557</ele>
        <time>2011-08-14T08:46:47Z</time>
      </trkpt>
      <trkpt lat="48.6406" lon="7.23334">
        <ele>557</ele>
        <time>2011-08-14T08:46:51Z</time>
      </trkpt>
      <trkpt lat="48.64058" lon="7.23341">
        <ele>557</ele>
        <time>2011-08-14T08:46:58Z</time>
      </trkpt>
      <trkpt lat="48.64056" lon="7.23349">
        <ele>558</ele>
        <time>2011-08-14T08:47:02Z</time>
      </trkpt>
      <trkpt lat="48.64055" lon="7.23356">
        <ele>558</ele>
        <time>2011-08-14T08:47:05Z</time>
      </trkpt>
      <trkpt lat="48.64053" lon="7.23363">
        <ele>558</ele>
        <time>2011-08-14T08:47:07Z</time>
      </trkpt>
      <trkpt lat="48.64052" lon="7.2337">
        <ele>558</ele>
        <time>2011-08-14T08:47:10Z</time>
      </trkpt>
      <trkpt lat="48.64051" lon="7.23378">
        <ele>558</ele>
        <time>2011-08-14T08:47:13Z</time>
      </trkpt>
      <trkpt lat="48.6405" lon="7.23388">
        <ele>558</ele>
        <time>2011-08-14T08:47:16Z</time>
      </trkpt>
      <trkpt lat="48.6405" lon="7.23397">
        <ele>558</ele>
        <time>2011-08-14T08:47:19Z</time>
      </trkpt>
      <trkpt lat="48.64052" lon="7.23406">
        <ele>558</ele>
        <time>2011-08-14T08:47:22Z</time>
      </trkpt>
      <trkpt lat="48.64052" lon="7.23412">
        <ele>558</ele>
        <time>2011-08-14T08:47:24Z</time>
      </trkpt>
      <trkpt lat="48.64054" lon="7.23421">
        <ele>558</ele>
        <time>2011-08-14T08:47:27Z</time>
      </trkpt>
      <trkpt lat="48.64056" lon="7.23431">
        <ele>558</ele>
        <time>2011-08-14T08:47:30Z</time>
      </trkpt>
      <trkpt lat="48.64057" lon="7.23438">
        <ele>559</ele>
        <time>2011-08-14T08:47:32Z</time>
      </trkpt>
      <trkpt lat="48.64058" lon="7.23445">
        <ele>559</ele>
        <time>2011-08-14T08:47:34Z</time>
      </trkpt>
      <trkpt lat="48.6406" lon="7.23452">
        <ele>559</ele>
        <time>2011-08-14T08:47:37Z</time>
      </trkpt>
      <trkpt lat="48.64062" lon="7.2346">
        <ele>559</ele>
        <time>2011-08-14T08:47:40Z</time>
      </trkpt>
      <trkpt lat="48.64064" lon="7.23469">
        <ele>559</ele>
        <time>2011-08-14T08:47:43Z</time>
      </trkpt>
      <trkpt lat="48.64066" lon="7.23477">
        <ele>559</ele>
        <time>2011-08-14T08:47:46Z</time>
      </trkpt>
      <trkpt lat="48.64067" lon="7.23485">
        <ele>559</ele>
        <time>2011-08-14T08:47:49Z</time>
      </trkpt>
      <trkpt lat="48.64067" lon="7.23492">
        <ele>560</ele>
        <time>2011-08-14T08:47:52Z</time>
      </trkpt>
      <trkpt lat="48.64069" lon="7.23499">
        <ele>560</ele>
        <time>2011-08-14T08:47:54Z</time>
      </trkpt>
      <trkpt lat="48.64069" lon="7.23507">
        <ele>560</ele>
        <time>2011-08-14T08:47:58Z</time>
      </trkpt>
      <trkpt lat="48.6407" lon="7.23514">
        <ele>560</ele>
        <time>2011-08-14T08:48:03Z</time>
      </trkpt>
      <trkpt lat="48.6407" lon="7.23521">
        <ele>560</ele>
        <time>2011-08-14T08:48:11Z</time>
      </trkpt>
      <trkpt lat="48.64065" lon="7.2352">
        <ele>561</ele>
        <time>2011-08-14T08:48:26Z</time>
      </trkpt>
      <trkpt lat="48.6406" lon="7.23527">
        <ele>563</ele>
        <time>2011-08-14T08:48:54Z</time>
      </trkpt>
      <trkpt lat="48.64057" lon="7.23532">
        <ele>563</ele>
        <time>2011-08-14T08:48:57Z</time>
      </trkpt>
      <trkpt lat="48.64054" lon="7.23539">
        <ele>563</ele>
        <time>2011-08-14T08:49:02Z</time>
      </trkpt>
      <trkpt lat="48.64053" lon="7.23548">
        <ele>563</ele>
        <time>2011-08-14T08:49:06Z</time>
      </trkpt>
      <trkpt lat="48.64054" lon="7.23555">
        <ele>563</ele>
        <time>2011-08-14T08:49:13Z</time>
      </trkpt>
      <trkpt lat="48.64055" lon="7.23563">
        <ele>563</ele>
        <time>2011-08-14T08:49:20Z</time>
      </trkpt>
      <trkpt lat="48.64057" lon="7.23571">
        <ele>563</ele>
        <time>2011-08-14T08:49:25Z</time>
      </trkpt>
      <trkpt lat="48.64058" lon="7.23578">
        <ele>563</ele>
        <time>2011-08-14T08:49:29Z</time>
      </trkpt>
      <trkpt lat="48.6406" lon="7.23585">
        <ele>563</ele>
        <time>2011-08-14T08:49:33Z</time>
      </trkpt>
      <trkpt lat="48.64062" lon="7.23591">
        <ele>563</ele>
        <time>2011-08-14T08:49:38Z</time>
      </trkpt>
      <trkpt lat="48.64064" lon="7.23598">
        <ele>564</ele>
        <time>2011-08-14T08:49:42Z</time>
      </trkpt>
      <trkpt lat="48.64067" lon="7.23606">
        <ele>564</ele>
        <time>2011-08-14T08:49:46Z</time>
      </trkpt>
      <trkpt lat="48.64068" lon="7.23613">
        <ele>564</ele>
        <time>2011-08-14T08:49:49Z</time>
      </trkpt>
      <trkpt lat="48.6407" lon="7.2362">
        <ele>565</ele>
        <time>2011-08-14T08:49:52Z</time>
      </trkpt>
      <trkpt lat="48.64072" lon="7.23628">
        <ele>565</ele>
        <time>2011-08-14T08:49:55Z</time>
      </trkpt>
      <trkpt lat="48.64075" lon="7.23636">
        <ele>565</ele>
        <time>2011-08-14T08:49:58Z</time>
      </trkpt>
      <trkpt lat="48.64077" lon="7.23642">
        <ele>566</ele>
        <time>2011-08-14T08:50:01Z</time>
      </trkpt>
      <trkpt lat="48.64079" lon="7.23652">
        <ele>566</ele>
        <time>2011-08-14T08:50:04Z</time>
      </trkpt>
      <trkpt lat="48.64082" lon="7.2366">
        <ele>567</ele>
        <time>2011-08-14T08:50:07Z</time>
      </trkpt>
      <trkpt lat="48.64084" lon="7.23668">
        <ele>568</ele>
        <time>2011-08-14T08:50:10Z</time>
      </trkpt>
      <trkpt lat="48.64087" lon="7.23677">
        <ele>568</ele>
        <time>2011-08-14T08:50:13Z</time>
      </trkpt>
      <trkpt lat="48.6409" lon="7.23684">
        <ele>569</ele>
        <time>2011-08-14T08:50:15Z</time>
      </trkpt>
      <trkpt lat="48.64093" lon="7.23692">
        <ele>569</ele>
        <time>2011-08-14T08:50:18Z</time>
      </trkpt>
      <trkpt lat="48.64096" lon="7.23699">
        <ele>569</ele>
        <time>2011-08-14T08:50:20Z</time>
      </trkpt>
      <trkpt lat="48.64098" lon="7.23706">
        <ele>570</ele>
        <time>2011-08-14T08:50:22Z</time>
      </trkpt>
      <trkpt lat="48.64103" lon="7.23713">
        <ele>570</ele>
        <time>2011-08-14T08:50:24Z</time>
      </trkpt>
      <trkpt lat="48.64106" lon="7.2372">
        <ele>570</ele>
        <time>2011-08-14T08:50:26Z</time>
      </trkpt>
      <trkpt lat="48.64108" lon="7.23726">
        <ele>570</ele>
        <time>2011-08-14T08:50:28Z</time>
      </trkpt>
      <trkpt lat="48.64112" lon="7.23734">
        <ele>571</ele>
        <time>2011-08-14T08:50:31Z</time>
      </trkpt>
      <trkpt lat="48.64115" lon="7.2374">
        <ele>571</ele>
        <time>2011-08-14T08:50:33Z</time>
      </trkpt>
      <trkpt lat="48.64118" lon="7.23747">
        <ele>571</ele>
        <time>2011-08-14T08:50:35Z</time>
      </trkpt>
      <trkpt lat="48.64121" lon="7.23755">
        <ele>571</ele>
        <time>2011-08-14T08:50:37Z</time>
      </trkpt>
      <trkpt lat="48.64123" lon="7.23761">
        <ele>571</ele>
        <time>2011-08-14T08:50:39Z</time>
      </trkpt>
      <trkpt lat="48.64125" lon="7.23768">
        <ele>571</ele>
        <time>2011-08-14T08:50:41Z</time>
      </trkpt>
      <trkpt lat="48.64128" lon="7.23777">
        <ele>572</ele>
        <time>2011-08-14T08:50:43Z</time>
      </trkpt>
      <trkpt lat="48.64131" lon="7.23785">
        <ele>572</ele>
        <time>2011-08-14T08:50:47Z</time>
      </trkpt>
      <trkpt lat="48.64133" lon="7.23795">
        <ele>572</ele>
        <time>2011-08-14T08:50:49Z</time>
      </trkpt>
      <trkpt lat="48.64136" lon="7.23802">
        <ele>572</ele>
        <time>2011-08-14T08:50:52Z</time>
      </trkpt>
      <trkpt lat="48.64138" lon="7.2381">
        <ele>573</ele>
        <time>2011-08-14T08:50:55Z</time>
      </trkpt>
      <trkpt lat="48.64139" lon="7.23817">
        <ele>573</ele>
        <time>2011-08-14T08:50:58Z</time>
      </trkpt>
      <trkpt lat="48.64141" lon="7.23824">
        <ele>573</ele>
        <time>2011-08-14T08:51:01Z</time>
      </trkpt>
      <trkpt lat="48.64142" lon="7.23831">
        <ele>574</ele>
        <time>2011-08-14T08:51:04Z</time>
      </trkpt>
      <trkpt lat="48.64144" lon="7.2384">
        <ele>574</ele>
        <time>2011-08-14T08:51:07Z</time>
      </trkpt>
      <trkpt lat="48.64145" lon="7.23847">
        <ele>574</ele>
        <time>2011-08-14T08:51:09Z</time>
      </trkpt>
      <trkpt lat="48.64146" lon="7.23854">
        <ele>574</ele>
        <time>2011-08-14T08:51:12Z</time>
      </trkpt>
      <trkpt lat="48.64147" lon="7.23862">
        <ele>574</ele>
        <time>2011-08-14T08:51:16Z</time>
      </trkpt>
      <trkpt lat="48.64148" lon="7.23869">
        <ele>575</ele>
        <time>2011-08-14T08:51:19Z</time>
      </trkpt>
      <trkpt lat="48.64149" lon="7.23877">
        <ele>575</ele>
        <time>2011-08-14T08:51:22Z</time>
      </trkpt>
      <trkpt lat="48.6415" lon="7.23885">
        <ele>576</ele>
        <time>2011-08-14T08:51:25Z</time>
      </trkpt>
      <trkpt lat="48.64151" lon="7.23895">
        <ele>576</ele>
        <time>2011-08-14T08:51:28Z</time>
      </trkpt>
      <trkpt lat="48.64152" lon="7.23904">
        <ele>576</ele>
        <time>2011-08-14T08:51:31Z</time>
      </trkpt>
      <trkpt lat="48.64152" lon="7.23913">
        <ele>577</ele>
        <time>2011-08-14T08:51:34Z</time>
      </trkpt>
      <trkpt lat="48.64152" lon="7.23922">
        <ele>577</ele>
        <time>2011-08-14T08:51:37Z</time>
      </trkpt>
      <trkpt lat="48.64152" lon="7.23922">
        <ele>577</ele>
        <time>2011-08-14T08:51:37Z</time>
      </trkpt>
      <trkpt lat="48.64152" lon="7.23922">
        <ele>577</ele>
        <time>2011-08-14T08:51:40Z</time>
      </trkpt>
      <trkpt lat="48.64153" lon="7.23929">
        <ele>577</ele>
        <time>2011-08-14T08:51:42Z</time>
      </trkpt>
      <trkpt lat="48.64154" lon="7.23936">
        <ele>577</ele>
        <time>2011-08-14T08:51:44Z</time>
      </trkpt>
      <trkpt lat="48.64155" lon="7.23945">
        <ele>578</ele>
        <time>2011-08-14T08:51:46Z</time>
      </trkpt>
      <trkpt lat="48.64156" lon="7.23954">
        <ele>578</ele>
        <time>2011-08-14T08:51:49Z</time>
      </trkpt>
      <trkpt lat="48.64156" lon="7.23962">
        <ele>578</ele>
        <time>2011-08-14T08:51:52Z</time>
      </trkpt>
      <trkpt lat="48.64155" lon="7.23972">
        <ele>578</ele>
        <time>2011-08-14T08:51:55Z</time>
      </trkpt>
      <trkpt lat="48.64154" lon="7.23979">
        <ele>579</ele>
        <time>2011-08-14T08:51:58Z</time>
      </trkpt>
      <trkpt lat="48.64152" lon="7.23985">
        <ele>579</ele>
        <time>2011-08-14T08:52:02Z</time>
      </trkpt>
      <trkpt lat="48.6415" lon="7.23992">
        <ele>580</ele>
        <time>2011-08-14T08:52:06Z</time>
      </trkpt>
      <trkpt lat="48.64146" lon="7.23997">
        <ele>580</ele>
        <time>2011-08-14T08:52:10Z</time>
      </trkpt>
      <trkpt lat="48.64143" lon="7.24002">
        <ele>580</ele>
        <time>2011-08-14T08:52:13Z</time>
      </trkpt>
      <trkpt lat="48.64141" lon="7.24009">
        <ele>581</ele>
        <time>2011-08-14T08:52:17Z</time>
      </trkpt>
      <trkpt lat="48.64139" lon="7.24015">
        <ele>581</ele>
        <time>2011-08-14T08:52:21Z</time>
      </trkpt>
      <trkpt lat="48.64135" lon="7.2402">
        <ele>581</ele>
        <time>2011-08-14T08:52:24Z</time>
      </trkpt>
      <trkpt lat="48.64133" lon="7.24026">
        <ele>581</ele>
        <time>2011-08-14T08:52:28Z</time>
      </trkpt>
      <trkpt lat="48.64131" lon="7.24033">
        <ele>582</ele>
        <time>2011-08-14T08:52:32Z</time>
      </trkpt>
      <trkpt lat="48.64129" lon="7.24039">
        <ele>582</ele>
        <time>2011-08-14T08:52:35Z</time>
      </trkpt>
      <trkpt lat="48.64127" lon="7.24046">
        <ele>582</ele>
        <time>2011-08-14T08:52:38Z</time>
      </trkpt>
      <trkpt lat="48.64127" lon="7.24052">
        <ele>582</ele>
        <time>2011-08-14T08:52:45Z</time>
      </trkpt>
      <trkpt lat="48.64128" lon="7.24061">
        <ele>583</ele>
        <time>2011-08-14T08:52:50Z</time>
      </trkpt>
      <trkpt lat="48.64129" lon="7.24069">
        <ele>583</ele>
        <time>2011-08-14T08:52:54Z</time>
      </trkpt>
      <trkpt lat="48.64131" lon="7.24078">
        <ele>584</ele>
        <time>2011-08-14T08:52:57Z</time>
      </trkpt>
      <trkpt lat="48.64133" lon="7.24085">
        <ele>584</ele>
        <time>2011-08-14T08:53:00Z</time>
      </trkpt>
      <trkpt lat="48.64135" lon="7.24092">
        <ele>584</ele>
        <time>2011-08-14T08:53:03Z</time>
      </trkpt>
      <trkpt lat="48.64136" lon="7.24099">
        <ele>585</ele>
        <time>2011-08-14T08:53:06Z</time>
      </trkpt>
      <trkpt lat="48.64137" lon="7.24106">
        <ele>585</ele>
        <time>2011-08-14T08:53:10Z</time>
      </trkpt>
      <trkpt lat="48.6414" lon="7.24113">
        <ele>586</ele>
        <time>2011-08-14T08:53:14Z</time>
      </trkpt>
      <trkpt lat="48.64142" lon="7.24119">
        <ele>586</ele>
        <time>2011-08-14T08:53:17Z</time>
      </trkpt>
      <trkpt lat="48.64143" lon="7.24127">
        <ele>586</ele>
        <time>2011-08-14T08:53:22Z</time>
      </trkpt>
      <trkpt lat="48.64138" lon="7.24131">
        <ele>587</ele>
        <time>2011-08-14T08:53:27Z</time>
      </trkpt>
      <trkpt lat="48.64135" lon="7.24136">
        <ele>587</ele>
        <time>2011-08-14T08:53:33Z</time>
      </trkpt>
      <trkpt lat="48.64135" lon="7.24136">
        <ele>587</ele>
        <time>2011-08-14T08:53:33Z</time>
      </trkpt>
      <trkpt lat="48.64135" lon="7.24136">
        <ele>587</ele>
        <time>2011-08-14T08:56:18Z</time>
      </trkpt>
      <trkpt lat="48.64143" lon="7.24145">
        <ele>592</ele>
        <time>2011-08-14T08:56:19Z</time>
      </trkpt>
      <trkpt lat="48.64147" lon="7.2415">
        <ele>592</ele>
        <time>2011-08-14T08:56:20Z</time>
      </trkpt>
      <trkpt lat="48.6415" lon="7.24159">
        <ele>593</ele>
        <time>2011-08-14T08:56:22Z</time>
      </trkpt>
      <trkpt lat="48.64154" lon="7.24166">
        <ele>593</ele>
        <time>2011-08-14T08:56:23Z</time>
      </trkpt>
      <trkpt lat="48.64156" lon="7.24171">
        <ele>593</ele>
        <time>2011-08-14T08:56:24Z</time>
      </trkpt>
      <trkpt lat="48.6416" lon="7.2418">
        <ele>594</ele>
        <time>2011-08-14T08:56:26Z</time>
      </trkpt>
      <trkpt lat="48.64161" lon="7.24187">
        <ele>594</ele>
        <time>2011-08-14T08:56:28Z</time>
      </trkpt>
      <trkpt lat="48.64162" lon="7.24194">
        <ele>595</ele>
        <time>2011-08-14T08:56:30Z</time>
      </trkpt>
      <trkpt lat="48.64161" lon="7.24201">
        <ele>595</ele>
        <time>2011-08-14T08:56:32Z</time>
      </trkpt>
      <trkpt lat="48.64159" lon="7.24207">
        <ele>595</ele>
        <time>2011-08-14T08:56:35Z</time>
      </trkpt>
      <trkpt lat="48.64155" lon="7.24211">
        <ele>596</ele>
        <time>2011-08-14T08:56:41Z</time>
      </trkpt>
      <trkpt lat="48.64151" lon="7.24214">
        <ele>597</ele>
        <time>2011-08-14T08:56:49Z</time>
      </trkpt>
      <trkpt lat="48.6415" lon="7.24221">
        <ele>599</ele>
        <time>2011-08-14T08:57:05Z</time>
      </trkpt>
      <trkpt lat="48.6415" lon="7.24228">
        <ele>599</ele>
        <time>2011-08-14T08:57:08Z</time>
      </trkpt>
      <trkpt lat="48.64149" lon="7.24235">
        <ele>599</ele>
        <time>2011-08-14T08:57:13Z</time>
      </trkpt>
      <trkpt lat="48.64148" lon="7.24243">
        <ele>600</ele>
        <time>2011-08-14T08:57:17Z</time>
      </trkpt>
      <trkpt lat="48.64149" lon="7.2425">
        <ele>600</ele>
        <time>2011-08-14T08:57:20Z</time>
      </trkpt>
      <trkpt lat="48.6415" lon="7.24257">
        <ele>600</ele>
        <time>2011-08-14T08:57:24Z</time>
      </trkpt>
      <trkpt lat="48.64151" lon="7.24264">
        <ele>600</ele>
        <time>2011-08-14T08:57:34Z</time>
      </trkpt>
      <trkpt lat="48.64152" lon="7.24271">
        <ele>600</ele>
        <time>2011-08-14T08:57:38Z</time>
      </trkpt>
      <trkpt lat="48.64149" lon="7.24277">
        <ele>600</ele>
        <time>2011-08-14T08:57:41Z</time>
      </trkpt>
      <trkpt lat="48.64148" lon="7.24286">
        <ele>601</ele>
        <time>2011-08-14T08:57:45Z</time>
      </trkpt>
      <trkpt lat="48.64149" lon="7.24296">
        <ele>601</ele>
        <time>2011-08-14T08:57:48Z</time>
      </trkpt>
      <trkpt lat="48.6415" lon="7.24304">
        <ele>601</ele>
        <time>2011-08-14T08:57:51Z</time>
      </trkpt>
      <trkpt lat="48.6415" lon="7.24311">
        <ele>601</ele>
        <time>2011-08-14T08:57:54Z</time>
      </trkpt>
      <trkpt lat="48.6415" lon="7.24319">
        <ele>602</ele>
        <time>2011-08-14T08:57:57Z</time>
      </trkpt>
      <trkpt lat="48.64152" lon="7.24326">
        <ele>602</ele>
        <time>2011-08-14T08:57:59Z</time>
      </trkpt>
      <trkpt lat="48.64153" lon="7.24334">
        <ele>603</ele>
        <time>2011-08-14T08:58:01Z</time>
      </trkpt>
      <trkpt lat="48.64154" lon="7.24342">
        <ele>603</ele>
        <time>2011-08-14T08:58:03Z</time>
      </trkpt>
      <trkpt lat="48.64155" lon="7.2435">
        <ele>604</ele>
        <time>2011-08-14T08:58:05Z</time>
      </trkpt>
      <trkpt lat="48.64155" lon="7.24359">
        <ele>604</ele>
        <time>2011-08-14T08:58:07Z</time>
      </trkpt>
      <trkpt lat="48.64155" lon="7.24367">
        <ele>604</ele>
        <time>2011-08-14T08:58:09Z</time>
      </trkpt>
      <trkpt lat="48.64155" lon="7.24375">
        <ele>605</ele>
        <time>2011-08-14T08:58:11Z</time>
      </trkpt>
      <trkpt lat="48.64154" lon="7.24382">
        <ele>605</ele>
        <time>2011-08-14T08:58:13Z</time>
      </trkpt>
      <trkpt lat="48.64153" lon="7.2439">
        <ele>605</ele>
        <time>2011-08-14T08:58:15Z</time>
      </trkpt>
      <trkpt lat="48.64151" lon="7.24397">
        <ele>606</ele>
        <time>2011-08-14T08:58:17Z</time>
      </trkpt>
      <trkpt lat="48.64149" lon="7.24404">
        <ele>606</ele>
        <time>2011-08-14T08:58:19Z</time>
      </trkpt>
      <trkpt lat="48.64146" lon="7.24411">
        <ele>606</ele>
        <time>2011-08-14T08:58:21Z</time>
      </trkpt>
      <trkpt lat="48.64144" lon="7.24418">
        <ele>607</ele>
        <time>2011-08-14T08:58:23Z</time>
      </trkpt>
      <trkpt lat="48.64141" lon="7.24424">
        <ele>607</ele>
        <time>2011-08-14T08:58:25Z</time>
      </trkpt>
      <trkpt lat="48.64138" lon="7.2443">
        <ele>607</ele>
        <time>2011-08-14T08:58:27Z</time>
      </trkpt>
      <trkpt lat="48.64136" lon="7.24436">
        <ele>607</ele>
        <time>2011-08-14T08:58:29Z</time>
      </trkpt>
      <trkpt lat="48.64132" lon="7.24445">
        <ele>608</ele>
        <time>2011-08-14T08:58:32Z</time>
      </trkpt>
      <trkpt lat="48.64131" lon="7.24452">
        <ele>608</ele>
        <time>2011-08-14T08:58:34Z</time>
      </trkpt>
      <trkpt lat="48.6413" lon="7.2446">
        <ele>608</ele>
        <time>2011-08-14T08:58:36Z</time>
      </trkpt>
      <trkpt lat="48.64128" lon="7.24468">
        <ele>608</ele>
        <time>2011-08-14T08:58:38Z</time>
      </trkpt>
      <trkpt lat="48.64128" lon="7.24475">
        <ele>608</ele>
        <time>2011-08-14T08:58:40Z</time>
      </trkpt>
      <trkpt lat="48.64129" lon="7.24483">
        <ele>608</ele>
        <time>2011-08-14T08:58:43Z</time>
      </trkpt>
      <trkpt lat="48.6413" lon="7.24491">
        <ele>608</ele>
        <time>2011-08-14T08:58:46Z</time>
      </trkpt>
      <trkpt lat="48.64131" lon="7.24499">
        <ele>609</ele>
        <time>2011-08-14T08:58:49Z</time>
      </trkpt>
      <trkpt lat="48.64132" lon="7.24506">
        <ele>609</ele>
        <time>2011-08-14T08:58:52Z</time>
      </trkpt>
      <trkpt lat="48.64134" lon="7.24514">
        <ele>609</ele>
        <time>2011-08-14T08:58:55Z</time>
      </trkpt>
      <trkpt lat="48.64136" lon="7.24523">
        <ele>609</ele>
        <time>2011-08-14T08:58:58Z</time>
      </trkpt>
      <trkpt lat="48.64139" lon="7.24531">
        <ele>609</ele>
        <time>2011-08-14T08:59:00Z</time>
      </trkpt>
      <trkpt lat="48.64146" lon="7.24544">
        <ele>610</ele>
        <time>2011-08-14T08:59:02Z</time>
      </trkpt>
      <trkpt lat="48.64154" lon="7.24557">
        <ele>610</ele>
        <time>2011-08-14T08:59:03Z</time>
      </trkpt>
      <trkpt lat="48.64159" lon="7.24565">
        <ele>610</ele>
        <time>2011-08-14T08:59:04Z</time>
      </trkpt>
      <trkpt lat="48.64163" lon="7.24573">
        <ele>610</ele>
        <time>2011-08-14T08:59:05Z</time>
      </trkpt>
      <trkpt lat="48.64167" lon="7.24581">
        <ele>610</ele>
        <time>2011-08-14T08:59:06Z</time>
      </trkpt>
      <trkpt lat="48.6417" lon="7.24588">
        <ele>611</ele>
        <time>2011-08-14T08:59:07Z</time>
      </trkpt>
      <trkpt lat="48.64173" lon="7.24594">
        <ele>611</ele>
        <time>2011-08-14T08:59:08Z</time>
      </trkpt>
      <trkpt lat="48.64176" lon="7.246">
        <ele>611</ele>
        <time>2011-08-14T08:59:09Z</time>
      </trkpt>
      <trkpt lat="48.64178" lon="7.24606">
        <ele>611</ele>
        <time>2011-08-14T08:59:10Z</time>
      </trkpt>
      <trkpt lat="48.64182" lon="7.24617">
        <ele>612</ele>
        <time>2011-08-14T08:59:12Z</time>
      </trkpt>
      <trkpt lat="48.64184" lon="7.24625">
        <ele>612</ele>
        <time>2011-08-14T08:59:14Z</time>
      </trkpt>
      <trkpt lat="48.64185" lon="7.24632">
        <ele>613</ele>
        <time>2011-08-14T08:59:18Z</time>
      </trkpt>
      <trkpt lat="48.64186" lon="7.24641">
        <ele>616</ele>
        <time>2011-08-14T09:01:59Z</time>
      </trkpt>
      <trkpt lat="48.64188" lon="7.24648">
        <ele>616</ele>
        <time>2011-08-14T09:02:02Z</time>
      </trkpt>
      <trkpt lat="48.64188" lon="7.24648">
        <ele>616</ele>
        <time>2011-08-14T09:02:02Z</time>
      </trkpt>
      <trkpt lat="48.64188" lon="7.24648">
        <ele>616</ele>
        <time>2011-08-14T09:02:14Z</time>
      </trkpt>
      <trkpt lat="48.64193" lon="7.24645">
        <ele>617</ele>
        <time>2011-08-14T09:09:42Z</time>
      </trkpt>
      <trkpt lat="48.64199" lon="7.2464">
        <ele>617</ele>
        <time>2011-08-14T09:09:43Z</time>
      </trkpt>
      <trkpt lat="48.64204" lon="7.24647">
        <ele>617</ele>
        <time>2011-08-14T09:09:45Z</time>
      </trkpt>
      <trkpt lat="48.64209" lon="7.24655">
        <ele>617</ele>
        <time>2011-08-14T09:09:47Z</time>
      </trkpt>
      <trkpt lat="48.64212" lon="7.24664">
        <ele>617</ele>
        <time>2011-08-14T09:09:49Z</time>
      </trkpt>
      <trkpt lat="48.64216" lon="7.24673">
        <ele>617</ele>
        <time>2011-08-14T09:09:51Z</time>
      </trkpt>
      <trkpt lat="48.64219" lon="7.24683">
        <ele>617</ele>
        <time>2011-08-14T09:09:53Z</time>
      </trkpt>
      <trkpt lat="48.64223" lon="7.24692">
        <ele>617</ele>
        <time>2011-08-14T09:09:55Z</time>
      </trkpt>
      <trkpt lat="48.64226" lon="7.24702">
        <ele>617</ele>
        <time>2011-08-14T09:09:57Z</time>
      </trkpt>
      <trkpt lat="48.6423" lon="7.24711">
        <ele>617</ele>
        <time>2011-08-14T09:09:59Z</time>
      </trkpt>
      <trkpt lat="48.64234" lon="7.24721">
        <ele>618</ele>
        <time>2011-08-14T09:10:01Z</time>
      </trkpt>
      <trkpt lat="48.64237" lon="7.24729">
        <ele>618</ele>
        <time>2011-08-14T09:10:03Z</time>
      </trkpt>
      <trkpt lat="48.6424" lon="7.24737">
        <ele>618</ele>
        <time>2011-08-14T09:10:05Z</time>
      </trkpt>
      <trkpt lat="48.64244" lon="7.24745">
        <ele>618</ele>
        <time>2011-08-14T09:10:07Z</time>
      </trkpt>
      <trkpt lat="48.64247" lon="7.24753">
        <ele>618</ele>
        <time>2011-08-14T09:10:09Z</time>
      </trkpt>
      <trkpt lat="48.6425" lon="7.24761">
        <ele>618</ele>
        <time>2011-08-14T09:10:11Z</time>
      </trkpt>
      <trkpt lat="48.64254" lon="7.24768">
        <ele>618</ele>
        <time>2011-08-14T09:10:13Z</time>
      </trkpt>
      <trkpt lat="48.64258" lon="7.24776">
        <ele>618</ele>
        <time>2011-08-14T09:10:15Z</time>
      </trkpt>
      <trkpt lat="48.64262" lon="7.24783">
        <ele>618</ele>
        <time>2011-08-14T09:10:17Z</time>
      </trkpt>
      <trkpt lat="48.64266" lon="7.2479">
        <ele>618</ele>
        <time>2011-08-14T09:10:19Z</time>
      </trkpt>
      <trkpt lat="48.64271" lon="7.24796">
        <ele>618</ele>
        <time>2011-08-14T09:10:21Z</time>
      </trkpt>
      <trkpt lat="48.64276" lon="7.24801">
        <ele>618</ele>
        <time>2011-08-14T09:10:23Z</time>
      </trkpt>
      <trkpt lat="48.64283" lon="7.24805">
        <ele>619</ele>
        <time>2011-08-14T09:10:25Z</time>
      </trkpt>
      <trkpt lat="48.6429" lon="7.24808">
        <ele>619</ele>
        <time>2011-08-14T09:10:27Z</time>
      </trkpt>
      <trkpt lat="48.64295" lon="7.24812">
        <ele>619</ele>
        <time>2011-08-14T09:10:29Z</time>
      </trkpt>
      <trkpt lat="48.64301" lon="7.24815">
        <ele>619</ele>
        <time>2011-08-14T09:10:31Z</time>
      </trkpt>
      <trkpt lat="48.64308" lon="7.24816">
        <ele>619</ele>
        <time>2011-08-14T09:10:33Z</time>
      </trkpt>
      <trkpt lat="48.64315" lon="7.24817">
        <ele>619</ele>
        <time>2011-08-14T09:10:35Z</time>
      </trkpt>
      <trkpt lat="48.64322" lon="7.24819">
        <ele>619</ele>
        <time>2011-08-14T09:10:37Z</time>
      </trkpt>
      <trkpt lat="48.6433" lon="7.24821">
        <ele>619</ele>
        <time>2011-08-14T09:10:39Z</time>
      </trkpt>
      <trkpt lat="48.64337" lon="7.24823">
        <ele>619</ele>
        <time>2011-08-14T09:10:41Z</time>
      </trkpt>
      <trkpt lat="48.64345" lon="7.24824">
        <ele>619</ele>
        <time>2011-08-14T09:10:43Z</time>
      </trkpt>
      <trkpt lat="48.64353" lon="7.24824">
        <ele>619</ele>
        <time>2011-08-14T09:10:45Z</time>
      </trkpt>
      <trkpt lat="48.64361" lon="7.24824">
        <ele>619</ele>
        <time>2011-08-14T09:10:47Z</time>
      </trkpt>
      <trkpt lat="48.64368" lon="7.24823">
        <ele>620</ele>
        <time>2011-08-14T09:10:49Z</time>
      </trkpt>
      <trkpt lat="48.64375" lon="7.24822">
        <ele>620</ele>
        <time>2011-08-14T09:10:51Z</time>
      </trkpt>
      <trkpt lat="48.6438" lon="7.2482">
        <ele>620</ele>
        <time>2011-08-14T09:10:53Z</time>
      </trkpt>
      <trkpt lat="48.64385" lon="7.2482">
        <ele>620</ele>
        <time>2011-08-14T09:10:55Z</time>
      </trkpt>
      <trkpt lat="48.6439" lon="7.24818">
        <ele>620</ele>
        <time>2011-08-14T09:10:57Z</time>
      </trkpt>
      <trkpt lat="48.64394" lon="7.24817">
        <ele>620</ele>
        <time>2011-08-14T09:10:59Z</time>
      </trkpt>
      <trkpt lat="48.64399" lon="7.24817">
        <ele>621</ele>
        <time>2011-08-14T09:11:01Z</time>
      </trkpt>
      <trkpt lat="48.64404" lon="7.24817">
        <ele>621</ele>
        <time>2011-08-14T09:11:04Z</time>
      </trkpt>
      <trkpt lat="48.64405" lon="7.24811">
        <ele>621</ele>
        <time>2011-08-14T09:11:19Z</time>
      </trkpt>
      <trkpt lat="48.64411" lon="7.24811">
        <ele>621</ele>
        <time>2011-08-14T09:11:25Z</time>
      </trkpt>
      <trkpt lat="48.64418" lon="7.2481">
        <ele>622</ele>
        <time>2011-08-14T09:11:27Z</time>
      </trkpt>
      <trkpt lat="48.64425" lon="7.24809">
        <ele>622</ele>
        <time>2011-08-14T09:11:29Z</time>
      </trkpt>
      <trkpt lat="48.64433" lon="7.24806">
        <ele>622</ele>
        <time>2011-08-14T09:11:31Z</time>
      </trkpt>
      <trkpt lat="48.64441" lon="7.24803">
        <ele>623</ele>
        <time>2011-08-14T09:11:33Z</time>
      </trkpt>
      <trkpt lat="48.64449" lon="7.24801">
        <ele>623</ele>
        <time>2011-08-14T09:11:35Z</time>
      </trkpt>
      <trkpt lat="48.64456" lon="7.24798">
        <ele>624</ele>
        <time>2011-08-14T09:11:37Z</time>
      </trkpt>
      <trkpt lat="48.64462" lon="7.24797">
        <ele>624</ele>
        <time>2011-08-14T09:11:39Z</time>
      </trkpt>
      <trkpt lat="48.64467" lon="7.24796">
        <ele>624</ele>
        <time>2011-08-14T09:11:41Z</time>
      </trkpt>
      <trkpt lat="48.64473" lon="7.24795">
        <ele>624</ele>
        <time>2011-08-14T09:11:43Z</time>
      </trkpt>
      <trkpt lat="48.64479" lon="7.24794">
        <ele>624</ele>
        <time>2011-08-14T09:11:45Z</time>
      </trkpt>
      <trkpt lat="48.64484" lon="7.24793">
        <ele>624</ele>
        <time>2011-08-14T09:11:47Z</time>
      </trkpt>
      <trkpt lat="48.64489" lon="7.24792">
        <ele>624</ele>
        <time>2011-08-14T09:11:49Z</time>
      </trkpt>
      <trkpt lat="48.64495" lon="7.24792">
        <ele>624</ele>
        <time>2011-08-14T09:11:52Z</time>
      </trkpt>
      <trkpt lat="48.64501" lon="7.24791">
        <ele>624</ele>
        <time>2011-08-14T09:11:55Z</time>
      </trkpt>
      <trkpt lat="48.64506" lon="7.24791">
        <ele>624</ele>
        <time>2011-08-14T09:11:57Z</time>
      </trkpt>
      <trkpt lat="48.64518" lon="7.2479">
        <ele>624</ele>
        <time>2011-08-14T09:12:02Z</time>
      </trkpt>
      <trkpt lat="48.64522" lon="7.24791">
        <ele>624</ele>
        <time>2011-08-14T09:12:04Z</time>
      </trkpt>
      <trkpt lat="48.64528" lon="7.24791">
        <ele>624</ele>
        <time>2011-08-14T09:12:06Z</time>
      </trkpt>
      <trkpt lat="48.64533" lon="7.24791">
        <ele>624</ele>
        <time>2011-08-14T09:12:08Z</time>
      </trkpt>
      <trkpt lat="48.64542" lon="7.24791">
        <ele>624</ele>
        <time>2011-08-14T09:12:11Z</time>
      </trkpt>
      <trkpt lat="48.64542" lon="7.24791">
        <ele>624</ele>
        <time>2011-08-14T09:12:11Z</time>
      </trkpt>
      <trkpt lat="48.64542" lon="7.24791">
        <ele>624</ele>
        <time>2011-08-14T09:12:14Z</time>
      </trkpt>
      <trkpt lat="48.64551" lon="7.2479">
        <ele>624</ele>
        <time>2011-08-14T09:12:15Z</time>
      </trkpt>
      <trkpt lat="48.64551" lon="7.2479">
        <ele>624</ele>
        <time>2011-08-14T09:12:15Z</time>
      </trkpt>
      <trkpt lat="48.64551" lon="7.2479">
        <ele>624</ele>
        <time>2011-08-14T09:12:18Z</time>
      </trkpt>
      <trkpt lat="48.64557" lon="7.2479">
        <ele>625</ele>
        <time>2011-08-14T09:12:19Z</time>
      </trkpt>
      <trkpt lat="48.64557" lon="7.2479">
        <ele>625</ele>
        <time>2011-08-14T09:12:19Z</time>
      </trkpt>
      <trkpt lat="48.64557" lon="7.2479">
        <ele>625</ele>
        <time>2011-08-14T09:12:56Z</time>
      </trkpt>
      <trkpt lat="48.64566" lon="7.2479">
        <ele>625</ele>
        <time>2011-08-14T09:13:06Z</time>
      </trkpt>
      <trkpt lat="48.64571" lon="7.2479">
        <ele>625</ele>
        <time>2011-08-14T09:13:07Z</time>
      </trkpt>
      <trkpt lat="48.64576" lon="7.2479">
        <ele>625</ele>
        <time>2011-08-14T09:13:08Z</time>
      </trkpt>
      <trkpt lat="48.64586" lon="7.24789">
        <ele>625</ele>
        <time>2011-08-14T09:13:10Z</time>
      </trkpt>
      <trkpt lat="48.64591" lon="7.24788">
        <ele>625</ele>
        <time>2011-08-14T09:13:11Z</time>
      </trkpt>
      <trkpt lat="48.64598" lon="7.24784">
        <ele>625</ele>
        <time>2011-08-14T09:13:13Z</time>
      </trkpt>
      <trkpt lat="48.64605" lon="7.2478">
        <ele>625</ele>
        <time>2011-08-14T09:13:15Z</time>
      </trkpt>
      <trkpt lat="48.64612" lon="7.24777">
        <ele>625</ele>
        <time>2011-08-14T09:13:17Z</time>
      </trkpt>
      <trkpt lat="48.64618" lon="7.24773">
        <ele>625</ele>
        <time>2011-08-14T09:13:19Z</time>
      </trkpt>
      <trkpt lat="48.64625" lon="7.2477">
        <ele>625</ele>
        <time>2011-08-14T09:13:21Z</time>
      </trkpt>
      <trkpt lat="48.6463" lon="7.24768">
        <ele>624</ele>
        <time>2011-08-14T09:14:22Z</time>
      </trkpt>
      <trkpt lat="48.64635" lon="7.24765">
        <ele>624</ele>
        <time>2011-08-14T09:14:25Z</time>
      </trkpt>
      <trkpt lat="48.6464" lon="7.24761">
        <ele>624</ele>
        <time>2011-08-14T09:14:27Z</time>
      </trkpt>
      <trkpt lat="48.64645" lon="7.24757">
        <ele>624</ele>
        <time>2011-08-14T09:14:30Z</time>
      </trkpt>
      <trkpt lat="48.6465" lon="7.24753">
        <ele>624</ele>
        <time>2011-08-14T09:14:33Z</time>
      </trkpt>
      <trkpt lat="48.64654" lon="7.2475">
        <ele>624</ele>
        <time>2011-08-14T09:14:35Z</time>
      </trkpt>
      <trkpt lat="48.64657" lon="7.24745">
        <ele>624</ele>
        <time>2011-08-14T09:14:36Z</time>
      </trkpt>
      <trkpt lat="48.64662" lon="7.24739">
        <ele>624</ele>
        <time>2011-08-14T09:14:38Z</time>
      </trkpt>
      <trkpt lat="48.64668" lon="7.24734">
        <ele>624</ele>
        <time>2011-08-14T09:14:41Z</time>
      </trkpt>
      <trkpt lat="48.64674" lon="7.24729">
        <ele>624</ele>
        <time>2011-08-14T09:14:44Z</time>
      </trkpt>
      <trkpt lat="48.64679" lon="7.24726">
        <ele>624</ele>
        <time>2011-08-14T09:14:46Z</time>
      </trkpt>
      <trkpt lat="48.64683" lon="7.24723">
        <ele>624</ele>
        <time>2011-08-14T09:14:48Z</time>
      </trkpt>
      <trkpt lat="48.64688" lon="7.2472">
        <ele>624</ele>
        <time>2011-08-14T09:14:51Z</time>
      </trkpt>
      <trkpt lat="48.64693" lon="7.24716">
        <ele>624</ele>
        <time>2011-08-14T09:14:54Z</time>
      </trkpt>
      <trkpt lat="48.64697" lon="7.24711">
        <ele>624</ele>
        <time>2011-08-14T09:14:56Z</time>
      </trkpt>
      <trkpt lat="48.647" lon="7.24705">
        <ele>624</ele>
        <time>2011-08-14T09:14:59Z</time>
      </trkpt>
      <trkpt lat="48.64701" lon="7.24695">
        <ele>624</ele>
        <time>2011-08-14T09:15:01Z</time>
      </trkpt>
      <trkpt lat="48.64704" lon="7.24683">
        <ele>624</ele>
        <time>2011-08-14T09:15:03Z</time>
      </trkpt>
      <trkpt lat="48.64706" lon="7.24671">
        <ele>624</ele>
        <time>2011-08-14T09:15:05Z</time>
      </trkpt>
      <trkpt lat="48.64707" lon="7.24659">
        <ele>624</ele>
        <time>2011-08-14T09:15:07Z</time>
      </trkpt>
      <trkpt lat="48.64709" lon="7.24648">
        <ele>624</ele>
        <time>2011-08-14T09:15:09Z</time>
      </trkpt>
      <trkpt lat="48.64712" lon="7.24638">
        <ele>624</ele>
        <time>2011-08-14T09:15:11Z</time>
      </trkpt>
      <trkpt lat="48.64714" lon="7.24628">
        <ele>624</ele>
        <time>2011-08-14T09:15:13Z</time>
      </trkpt>
      <trkpt lat="48.64716" lon="7.24619">
        <ele>624</ele>
        <time>2011-08-14T09:15:15Z</time>
      </trkpt>
      <trkpt lat="48.64718" lon="7.24609">
        <ele>624</ele>
        <time>2011-08-14T09:15:17Z</time>
      </trkpt>
      <trkpt lat="48.6472" lon="7.24601">
        <ele>624</ele>
        <time>2011-08-14T09:15:19Z</time>
      </trkpt>
      <trkpt lat="48.64721" lon="7.24592">
        <ele>624</ele>
        <time>2011-08-14T09:15:21Z</time>
      </trkpt>
      <trkpt lat="48.64722" lon="7.24584">
        <ele>624</ele>
        <time>2011-08-14T09:15:23Z</time>
      </trkpt>
      <trkpt lat="48.64723" lon="7.24575">
        <ele>624</ele>
        <time>2011-08-14T09:15:25Z</time>
      </trkpt>
      <trkpt lat="48.64724" lon="7.24565">
        <ele>624</ele>
        <time>2011-08-14T09:15:27Z</time>
      </trkpt>
      <trkpt lat="48.64724" lon="7.24553">
        <ele>624</ele>
        <time>2011-08-14T09:15:29Z</time>
      </trkpt>
      <trkpt lat="48.64725" lon="7.24542">
        <ele>624</ele>
        <time>2011-08-14T09:15:31Z</time>
      </trkpt>
      <trkpt lat="48.64727" lon="7.24534">
        <ele>624</ele>
        <time>2011-08-14T09:15:33Z</time>
      </trkpt>
      <trkpt lat="48.64728" lon="7.24526">
        <ele>624</ele>
        <time>2011-08-14T09:15:35Z</time>
      </trkpt>
      <trkpt lat="48.6473" lon="7.24519">
        <ele>624</ele>
        <time>2011-08-14T09:15:37Z</time>
      </trkpt>
      <trkpt lat="48.64731" lon="7.24512">
        <ele>623</ele>
        <time>2011-08-14T09:15:39Z</time>
      </trkpt>
      <trkpt lat="48.64732" lon="7.24505">
        <ele>623</ele>
        <time>2011-08-14T09:15:41Z</time>
      </trkpt>
      <trkpt lat="48.64732" lon="7.24497">
        <ele>623</ele>
        <time>2011-08-14T09:15:43Z</time>
      </trkpt>
      <trkpt lat="48.64733" lon="7.24488">
        <ele>623</ele>
        <time>2011-08-14T09:15:45Z</time>
      </trkpt>
      <trkpt lat="48.64734" lon="7.24477">
        <ele>623</ele>
        <time>2011-08-14T09:15:47Z</time>
      </trkpt>
      <trkpt lat="48.64734" lon="7.24465">
        <ele>623</ele>
        <time>2011-08-14T09:15:49Z</time>
      </trkpt>
      <trkpt lat="48.64735" lon="7.24458">
        <ele>623</ele>
        <time>2011-08-14T09:15:50Z</time>
      </trkpt>
      <trkpt lat="48.64736" lon="7.24451">
        <ele>623</ele>
        <time>2011-08-14T09:15:51Z</time>
      </trkpt>
      <trkpt lat="48.64738" lon="7.24438">
        <ele>624</ele>
        <time>2011-08-14T09:15:53Z</time>
      </trkpt>
      <trkpt lat="48.64741" lon="7.24426">
        <ele>624</ele>
        <time>2011-08-14T09:15:55Z</time>
      </trkpt>
      <trkpt lat="48.64744" lon="7.24414">
        <ele>624</ele>
        <time>2011-08-14T09:15:57Z</time>
      </trkpt>
      <trkpt lat="48.64747" lon="7.24402">
        <ele>624</ele>
        <time>2011-08-14T09:15:59Z</time>
      </trkpt>
      <trkpt lat="48.6475" lon="7.24391">
        <ele>624</ele>
        <time>2011-08-14T09:16:01Z</time>
      </trkpt>
      <trkpt lat="48.64752" lon="7.2438">
        <ele>624</ele>
        <time>2011-08-14T09:16:03Z</time>
      </trkpt>
      <trkpt lat="48.64756" lon="7.24369">
        <ele>623</ele>
        <time>2011-08-14T09:16:05Z</time>
      </trkpt>
      <trkpt lat="48.64763" lon="7.2436">
        <ele>623</ele>
        <time>2011-08-14T09:16:07Z</time>
      </trkpt>
      <trkpt lat="48.64768" lon="7.24356">
        <ele>623</ele>
        <time>2011-08-14T09:16:08Z</time>
      </trkpt>
      <trkpt lat="48.64772" lon="7.24351">
        <ele>622</ele>
        <time>2011-08-14T09:16:09Z</time>
      </trkpt>
      <trkpt lat="48.64776" lon="7.24347">
        <ele>622</ele>
        <time>2011-08-14T09:16:10Z</time>
      </trkpt>
      <trkpt lat="48.6478" lon="7.24342">
        <ele>621</ele>
        <time>2011-08-14T09:16:11Z</time>
      </trkpt>
      <trkpt lat="48.64784" lon="7.24338">
        <ele>621</ele>
        <time>2011-08-14T09:16:12Z</time>
      </trkpt>
      <trkpt lat="48.64788" lon="7.24334">
        <ele>621</ele>
        <time>2011-08-14T09:16:13Z</time>
      </trkpt>
      <trkpt lat="48.64793" lon="7.24326">
        <ele>621</ele>
        <time>2011-08-14T09:16:15Z</time>
      </trkpt>
      <trkpt lat="48.64798" lon="7.24319">
        <ele>621</ele>
        <time>2011-08-14T09:16:17Z</time>
      </trkpt>
      <trkpt lat="48.64804" lon="7.24313">
        <ele>621</ele>
        <time>2011-08-14T09:16:19Z</time>
      </trkpt>
      <trkpt lat="48.64808" lon="7.24306">
        <ele>621</ele>
        <time>2011-08-14T09:16:21Z</time>
      </trkpt>
      <trkpt lat="48.64814" lon="7.24298">
        <ele>621</ele>
        <time>2011-08-14T09:16:23Z</time>
      </trkpt>
      <trkpt lat="48.6482" lon="7.24289">
        <ele>621</ele>
        <time>2011-08-14T09:16:25Z</time>
      </trkpt>
      <trkpt lat="48.64823" lon="7.24284">
        <ele>621</ele>
        <time>2011-08-14T09:16:26Z</time>
      </trkpt>
      <trkpt lat="48.64827" lon="7.24278">
        <ele>621</ele>
        <time>2011-08-14T09:16:27Z</time>
      </trkpt>
      <trkpt lat="48.6483" lon="7.24271">
        <ele>621</ele>
        <time>2011-08-14T09:16:28Z</time>
      </trkpt>
      <trkpt lat="48.64833" lon="7.24265">
        <ele>621</ele>
        <time>2011-08-14T09:16:29Z</time>
      </trkpt>
      <trkpt lat="48.64836" lon="7.24259">
        <ele>621</ele>
        <time>2011-08-14T09:16:30Z</time>
      </trkpt>
      <trkpt lat="48.6484" lon="7.24252">
        <ele>622</ele>
        <time>2011-08-14T09:16:31Z</time>
      </trkpt>
      <trkpt lat="48.64845" lon="7.24244">
        <ele>622</ele>
        <time>2011-08-14T09:16:32Z</time>
      </trkpt>
      <trkpt lat="48.6485" lon="7.24238">
        <ele>622</ele>
        <time>2011-08-14T09:16:33Z</time>
      </trkpt>
      <trkpt lat="48.64855" lon="7.24231">
        <ele>622</ele>
        <time>2011-08-14T09:16:34Z</time>
      </trkpt>
      <trkpt lat="48.6486" lon="7.24224">
        <ele>622</ele>
        <time>2011-08-14T09:16:35Z</time>
      </trkpt>
      <trkpt lat="48.64864" lon="7.24217">
        <ele>622</ele>
        <time>2011-08-14T09:16:36Z</time>
      </trkpt>
      <trkpt lat="48.64869" lon="7.24211">
        <ele>623</ele>
        <time>2011-08-14T09:16:37Z</time>
      </trkpt>
      <trkpt lat="48.64873" lon="7.24205">
        <ele>623</ele>
        <time>2011-08-14T09:16:38Z</time>
      </trkpt>
      <trkpt lat="48.64877" lon="7.242">
        <ele>623</ele>
        <time>2011-08-14T09:16:39Z</time>
      </trkpt>
      <trkpt lat="48.6488" lon="7.24195">
        <ele>623</ele>
        <time>2011-08-14T09:16:40Z</time>
      </trkpt>
      <trkpt lat="48.64884" lon="7.2419">
        <ele>623</ele>
        <time>2011-08-14T09:16:41Z</time>
      </trkpt>
      <trkpt lat="48.64887" lon="7.24185">
        <ele>623</ele>
        <time>2011-08-14T09:16:42Z</time>
      </trkpt>
      <trkpt lat="48.6489" lon="7.24179">
        <ele>623</ele>
        <time>2011-08-14T09:16:43Z</time>
      </trkpt>
      <trkpt lat="48.64893" lon="7.24174">
        <ele>623</ele>
        <time>2011-08-14T09:16:44Z</time>
      </trkpt>
      <trkpt lat="48.64896" lon="7.24168">
        <ele>623</ele>
        <time>2011-08-14T09:16:45Z</time>
      </trkpt>
      <trkpt lat="48.64899" lon="7.24162">
        <ele>623</ele>
        <time>2011-08-14T09:16:46Z</time>
      </trkpt>
      <trkpt lat="48.64902" lon="7.24157">
        <ele>623</ele>
        <time>2011-08-14T09:16:47Z</time>
      </trkpt>
      <trkpt lat="48.64905" lon="7.24151">
        <ele>623</ele>
        <time>2011-08-14T09:16:48Z</time>
      </trkpt>
      <trkpt lat="48.64907" lon="7.24144">
        <ele>623</ele>
        <time>2011-08-14T09:16:49Z</time>
      </trkpt>
      <trkpt lat="48.64909" lon="7.24137">
        <ele>623</ele>
        <time>2011-08-14T09:16:50Z</time>
      </trkpt>
      <trkpt lat="48.64911" lon="7.2413">
        <ele>624</ele>
        <time>2011-08-14T09:16:51Z</time>
      </trkpt>
      <trkpt lat="48.64913" lon="7.24123">
        <ele>624</ele>
        <time>2011-08-14T09:16:52Z</time>
      </trkpt>
      <trkpt lat="48.64915" lon="7.24116">
        <ele>624</ele>
        <time>2011-08-14T09:16:53Z</time>
      </trkpt>
      <trkpt lat="48.64917" lon="7.24108">
        <ele>624</ele>
        <time>2011-08-14T09:16:54Z</time>
      </trkpt>
      <trkpt lat="48.64919" lon="7.24101">
        <ele>624</ele>
        <time>2011-08-14T09:16:55Z</time>
      </trkpt>
      <trkpt lat="48.64921" lon="7.24094">
        <ele>625</ele>
        <time>2011-08-14T09:16:56Z</time>
      </trkpt>
      <trkpt lat="48.64923" lon="7.24087">
        <ele>625</ele>
        <time>2011-08-14T09:16:57Z</time>
      </trkpt>
      <trkpt lat="48.64926" lon="7.2408">
        <ele>625</ele>
        <time>2011-08-14T09:16:58Z</time>
      </trkpt>
      <trkpt lat="48.64928" lon="7.24072">
        <ele>625</ele>
        <time>2011-08-14T09:16:59Z</time>
      </trkpt>
      <trkpt lat="48.6493" lon="7.24065">
        <ele>625</ele>
        <time>2011-08-14T09:17:00Z</time>
      </trkpt>
      <trkpt lat="48.64932" lon="7.24058">
        <ele>624</ele>
        <time>2011-08-14T09:17:01Z</time>
      </trkpt>
      <trkpt lat="48.64934" lon="7.24051">
        <ele>624</ele>
        <time>2011-08-14T09:17:02Z</time>
      </trkpt>
      <trkpt lat="48.64936" lon="7.24043">
        <ele>624</ele>
        <time>2011-08-14T09:17:03Z</time>
      </trkpt>
      <trkpt lat="48.64938" lon="7.24036">
        <ele>624</ele>
        <time>2011-08-14T09:17:04Z</time>
      </trkpt>
      <trkpt lat="48.64941" lon="7.24029">
        <ele>625</ele>
        <time>2011-08-14T09:17:05Z</time>
      </trkpt>
      <trkpt lat="48.64943" lon="7.24022">
        <ele>625</ele>
        <time>2011-08-14T09:17:06Z</time>
      </trkpt>
      <trkpt lat="48.64946" lon="7.24014">
        <ele>625</ele>
        <time>2011-08-14T09:17:07Z</time>
      </trkpt>
      <trkpt lat="48.64949" lon="7.24008">
        <ele>625</ele>
        <time>2011-08-14T09:17:08Z</time>
      </trkpt>
      <trkpt lat="48.64952" lon="7.24002">
        <ele>625</ele>
        <time>2011-08-14T09:17:09Z</time>
      </trkpt>
      <trkpt lat="48.64955" lon="7.23996">
        <ele>625</ele>
        <time>2011-08-14T09:17:10Z</time>
      </trkpt>
      <trkpt lat="48.64959" lon="7.23991">
        <ele>625</ele>
        <time>2011-08-14T09:17:11Z</time>
      </trkpt>
      <trkpt lat="48.64963" lon="7.23986">
        <ele>625</ele>
        <time>2011-08-14T09:17:12Z</time>
      </trkpt>
      <trkpt lat="48.64967" lon="7.23982">
        <ele>625</ele>
        <time>2011-08-14T09:17:13Z</time>
      </trkpt>
      <trkpt lat="48.64971" lon="7.23978">
        <ele>624</ele>
        <time>2011-08-14T09:17:14Z</time>
      </trkpt>
      <trkpt lat="48.64975" lon="7.23973">
        <ele>624</ele>
        <time>2011-08-14T09:17:15Z</time>
      </trkpt>
      <trkpt lat="48.6498" lon="7.2397">
        <ele>624</ele>
        <time>2011-08-14T09:17:16Z</time>
      </trkpt>
      <trkpt lat="48.64984" lon="7.23966">
        <ele>623</ele>
        <time>2011-08-14T09:17:17Z</time>
      </trkpt>
      <trkpt lat="48.64989" lon="7.23963">
        <ele>622</ele>
        <time>2011-08-14T09:17:18Z</time>
      </trkpt>
      <trkpt lat="48.64993" lon="7.23959">
        <ele>622</ele>
        <time>2011-08-14T09:17:19Z</time>
      </trkpt>
      <trkpt lat="48.64997" lon="7.23956">
        <ele>621</ele>
        <time>2011-08-14T09:17:20Z</time>
      </trkpt>
      <trkpt lat="48.65001" lon="7.23952">
        <ele>621</ele>
        <time>2011-08-14T09:17:21Z</time>
      </trkpt>
      <trkpt lat="48.65005" lon="7.23949">
        <ele>620</ele>
        <time>2011-08-14T09:17:22Z</time>
      </trkpt>
      <trkpt lat="48.65009" lon="7.23944">
        <ele>620</ele>
        <time>2011-08-14T09:17:23Z</time>
      </trkpt>
      <trkpt lat="48.65012" lon="7.2394">
        <ele>620</ele>
        <time>2011-08-14T09:17:24Z</time>
      </trkpt>
      <trkpt lat="48.65019" lon="7.23931">
        <ele>620</ele>
        <time>2011-08-14T09:17:26Z</time>
      </trkpt>
      <trkpt lat="48.65026" lon="7.23923">
        <ele>620</ele>
        <time>2011-08-14T09:17:28Z</time>
      </trkpt>
      <trkpt lat="48.65033" lon="7.23915">
        <ele>619</ele>
        <time>2011-08-14T09:17:30Z</time>
      </trkpt>
      <trkpt lat="48.65039" lon="7.23909">
        <ele>619</ele>
        <time>2011-08-14T09:17:32Z</time>
      </trkpt>
      <trkpt lat="48.65046" lon="7.23904">
        <ele>619</ele>
        <time>2011-08-14T09:17:34Z</time>
      </trkpt>
      <trkpt lat="48.65052" lon="7.23899">
        <ele>619</ele>
        <time>2011-08-14T09:17:36Z</time>
      </trkpt>
      <trkpt lat="48.65058" lon="7.23894">
        <ele>619</ele>
        <time>2011-08-14T09:17:38Z</time>
      </trkpt>
      <trkpt lat="48.65063" lon="7.23888">
        <ele>618</ele>
        <time>2011-08-14T09:17:40Z</time>
      </trkpt>
      <trkpt lat="48.6507" lon="7.23882">
        <ele>618</ele>
        <time>2011-08-14T09:17:42Z</time>
      </trkpt>
      <trkpt lat="48.65078" lon="7.23876">
        <ele>618</ele>
        <time>2011-08-14T09:17:44Z</time>
      </trkpt>
      <trkpt lat="48.65085" lon="7.2387">
        <ele>618</ele>
        <time>2011-08-14T09:17:46Z</time>
      </trkpt>
      <trkpt lat="48.6509" lon="7.23866">
        <ele>618</ele>
        <time>2011-08-14T09:17:47Z</time>
      </trkpt>
      <trkpt lat="48.65094" lon="7.23862">
        <ele>618</ele>
        <time>2011-08-14T09:17:48Z</time>
      </trkpt>
      <trkpt lat="48.65098" lon="7.23856">
        <ele>618</ele>
        <time>2011-08-14T09:17:49Z</time>
      </trkpt>
      <trkpt lat="48.651" lon="7.23851">
        <ele>618</ele>
        <time>2011-08-14T09:17:50Z</time>
      </trkpt>
      <trkpt lat="48.65107" lon="7.23832">
        <ele>618</ele>
        <time>2011-08-14T09:17:55Z</time>
      </trkpt>
      <trkpt lat="48.65107" lon="7.23832">
        <ele>618</ele>
        <time>2011-08-14T09:17:55Z</time>
      </trkpt>
      <trkpt lat="48.65107" lon="7.23832">
        <ele>618</ele>
        <time>2011-08-14T09:17:58Z</time>
      </trkpt>
      <trkpt lat="48.6511" lon="7.23818">
        <ele>617</ele>
        <time>2011-08-14T09:17:59Z</time>
      </trkpt>
      <trkpt lat="48.6511" lon="7.23818">
        <ele>617</ele>
        <time>2011-08-14T09:17:59Z</time>
      </trkpt>
      <trkpt lat="48.6511" lon="7.23818">
        <ele>617</ele>
        <time>2011-08-14T09:18:08Z</time>
      </trkpt>
      <trkpt lat="48.6511" lon="7.23804">
        <ele>615</ele>
        <time>2011-08-14T09:18:09Z</time>
      </trkpt>
      <trkpt lat="48.6511" lon="7.23804">
        <ele>615</ele>
        <time>2011-08-14T09:18:09Z</time>
      </trkpt>
      <trkpt lat="48.6511" lon="7.23804">
        <ele>615</ele>
        <time>2011-08-14T09:18:32Z</time>
      </trkpt>
      <trkpt lat="48.65099" lon="7.23807">
        <ele>613</ele>
        <time>2011-08-14T09:18:33Z</time>
      </trkpt>
      <trkpt lat="48.65099" lon="7.23807">
        <ele>613</ele>
        <time>2011-08-14T09:18:33Z</time>
      </trkpt>
      <trkpt lat="48.65099" lon="7.23807">
        <ele>613</ele>
        <time>2011-08-14T09:18:36Z</time>
      </trkpt>
      <trkpt lat="48.6509" lon="7.2381">
        <ele>613</ele>
        <time>2011-08-14T09:18:37Z</time>
      </trkpt>
      <trkpt lat="48.6509" lon="7.2381">
        <ele>613</ele>
        <time>2011-08-14T09:18:37Z</time>
      </trkpt>
      <trkpt lat="48.6509" lon="7.2381">
        <ele>613</ele>
        <time>2011-08-14T09:19:01Z</time>
      </trkpt>
      <trkpt lat="48.65083" lon="7.2381">
        <ele>613</ele>
        <time>2011-08-14T09:19:10Z</time>
      </trkpt>
      <trkpt lat="48.65078" lon="7.2381">
        <ele>613</ele>
        <time>2011-08-14T09:19:15Z</time>
      </trkpt>
      <trkpt lat="48.65075" lon="7.23815">
        <ele>608</ele>
        <time>2011-08-14T09:20:14Z</time>
      </trkpt>
      <trkpt lat="48.65075" lon="7.23825">
        <ele>606</ele>
        <time>2011-08-14T09:20:19Z</time>
      </trkpt>
      <trkpt lat="48.65075" lon="7.23832">
        <ele>606</ele>
        <time>2011-08-14T09:20:22Z</time>
      </trkpt>
      <trkpt lat="48.65074" lon="7.23839">
        <ele>604</ele>
        <time>2011-08-14T09:20:28Z</time>
      </trkpt>
      <trkpt lat="48.65074" lon="7.23846">
        <ele>599</ele>
        <time>2011-08-14T09:20:41Z</time>
      </trkpt>
      <trkpt lat="48.65072" lon="7.23852">
        <ele>597</ele>
        <time>2011-08-14T09:20:59Z</time>
      </trkpt>
      <trkpt lat="48.65072" lon="7.23852">
        <ele>597</ele>
        <time>2011-08-14T09:20:59Z</time>
      </trkpt>
      <trkpt lat="48.65072" lon="7.23852">
        <ele>597</ele>
        <time>2011-08-14T09:21:00Z</time>
      </trkpt>
      <trkpt lat="48.65074" lon="7.2386">
        <ele>596</ele>
        <time>2011-08-14T09:21:05Z</time>
      </trkpt>
      <trkpt lat="48.65076" lon="7.23866">
        <ele>596</ele>
        <time>2011-08-14T09:21:09Z</time>
      </trkpt>
      <trkpt lat="48.65078" lon="7.23873">
        <ele>596</ele>
        <time>2011-08-14T09:21:14Z</time>
      </trkpt>
      <trkpt lat="48.6508" lon="7.2388">
        <ele>596</ele>
        <time>2011-08-14T09:21:21Z</time>
      </trkpt>
      <trkpt lat="48.65083" lon="7.23885">
        <ele>596</ele>
        <time>2011-08-14T09:21:40Z</time>
      </trkpt>
      <trkpt lat="48.65087" lon="7.2389">
        <ele>596</ele>
        <time>2011-08-14T09:21:44Z</time>
      </trkpt>
      <trkpt lat="48.65091" lon="7.23897">
        <ele>596</ele>
        <time>2011-08-14T09:21:47Z</time>
      </trkpt>
      <trkpt lat="48.65095" lon="7.23905">
        <ele>597</ele>
        <time>2011-08-14T09:21:50Z</time>
      </trkpt>
      <trkpt lat="48.65098" lon="7.23911">
        <ele>597</ele>
        <time>2011-08-14T09:21:52Z</time>
      </trkpt>
      <trkpt lat="48.65101" lon="7.23917">
        <ele>597</ele>
        <time>2011-08-14T09:21:54Z</time>
      </trkpt>
      <trkpt lat="48.65106" lon="7.23924">
        <ele>597</ele>
        <time>2011-08-14T09:21:55Z</time>
      </trkpt>
      <trkpt lat="48.65109" lon="7.23929">
        <ele>597</ele>
        <time>2011-08-14T09:21:57Z</time>
      </trkpt>
      <trkpt lat="48.65114" lon="7.23936">
        <ele>597</ele>
        <time>2011-08-14T09:22:00Z</time>
      </trkpt>
      <trkpt lat="48.65118" lon="7.23942">
        <ele>597</ele>
        <time>2011-08-14T09:22:03Z</time>
      </trkpt>
      <trkpt lat="48.65122" lon="7.23948">
        <ele>597</ele>
        <time>2011-08-14T09:22:06Z</time>
      </trkpt>
      <trkpt lat="48.65125" lon="7.23954">
        <ele>598</ele>
        <time>2011-08-14T09:22:09Z</time>
      </trkpt>
      <trkpt lat="48.65128" lon="7.23959">
        <ele>598</ele>
        <time>2011-08-14T09:22:12Z</time>
      </trkpt>
      <trkpt lat="48.65131" lon="7.23964">
        <ele>598</ele>
        <time>2011-08-14T09:22:17Z</time>
      </trkpt>
      <trkpt lat="48.65135" lon="7.23968">
        <ele>598</ele>
        <time>2011-08-14T09:22:27Z</time>
      </trkpt>
      <trkpt lat="48.65141" lon="7.23968">
        <ele>598</ele>
        <time>2011-08-14T09:22:31Z</time>
      </trkpt>
      <trkpt lat="48.65146" lon="7.23969">
        <ele>598</ele>
        <time>2011-08-14T09:22:33Z</time>
      </trkpt>
      <trkpt lat="48.65151" lon="7.23971">
        <ele>598</ele>
        <time>2011-08-14T09:22:35Z</time>
      </trkpt>
      <trkpt lat="48.65156" lon="7.23973">
        <ele>598</ele>
        <time>2011-08-14T09:22:37Z</time>
      </trkpt>
      <trkpt lat="48.65161" lon="7.23976">
        <ele>598</ele>
        <time>2011-08-14T09:22:39Z</time>
      </trkpt>
      <trkpt lat="48.65168" lon="7.2398">
        <ele>598</ele>
        <time>2011-08-14T09:22:41Z</time>
      </trkpt>
      <trkpt lat="48.65173" lon="7.23984">
        <ele>598</ele>
        <time>2011-08-14T09:22:43Z</time>
      </trkpt>
      <trkpt lat="48.65179" lon="7.23987">
        <ele>598</ele>
        <time>2011-08-14T09:22:45Z</time>
      </trkpt>
      <trkpt lat="48.65185" lon="7.2399">
        <ele>597</ele>
        <time>2011-08-14T09:22:47Z</time>
      </trkpt>
      <trkpt lat="48.65189" lon="7.23993">
        <ele>597</ele>
        <time>2011-08-14T09:22:49Z</time>
      </trkpt>
      <trkpt lat="48.65194" lon="7.23996">
        <ele>597</ele>
        <time>2011-08-14T09:22:51Z</time>
      </trkpt>
      <trkpt lat="48.65198" lon="7.24">
        <ele>597</ele>
        <time>2011-08-14T09:22:53Z</time>
      </trkpt>
      <trkpt lat="48.65204" lon="7.24005">
        <ele>597</ele>
        <time>2011-08-14T09:22:56Z</time>
      </trkpt>
      <trkpt lat="48.65209" lon="7.24009">
        <ele>597</ele>
        <time>2011-08-14T09:22:58Z</time>
      </trkpt>
      <trkpt lat="48.65217" lon="7.24013">
        <ele>596</ele>
        <time>2011-08-14T09:23:00Z</time>
      </trkpt>
      <trkpt lat="48.65225" lon="7.24018">
        <ele>596</ele>
        <time>2011-08-14T09:23:02Z</time>
      </trkpt>
      <trkpt lat="48.65232" lon="7.24023">
        <ele>596</ele>
        <time>2011-08-14T09:23:04Z</time>
      </trkpt>
      <trkpt lat="48.65239" lon="7.24029">
        <ele>596</ele>
        <time>2011-08-14T09:23:06Z</time>
      </trkpt>
      <trkpt lat="48.65246" lon="7.24036">
        <ele>595</ele>
        <time>2011-08-14T09:23:08Z</time>
      </trkpt>
      <trkpt lat="48.65252" lon="7.24044">
        <ele>595</ele>
        <time>2011-08-14T09:23:10Z</time>
      </trkpt>
      <trkpt lat="48.65258" lon="7.24052">
        <ele>593</ele>
        <time>2011-08-14T09:23:12Z</time>
      </trkpt>
      <trkpt lat="48.65262" lon="7.2406">
        <ele>593</ele>
        <time>2011-08-14T09:23:14Z</time>
      </trkpt>
      <trkpt lat="48.65267" lon="7.24066">
        <ele>592</ele>
        <time>2011-08-14T09:23:16Z</time>
      </trkpt>
      <trkpt lat="48.65272" lon="7.24072">
        <ele>592</ele>
        <time>2011-08-14T09:23:18Z</time>
      </trkpt>
      <trkpt lat="48.65277" lon="7.24075">
        <ele>592</ele>
        <time>2011-08-14T09:23:20Z</time>
      </trkpt>
      <trkpt lat="48.65283" lon="7.24078">
        <ele>592</ele>
        <time>2011-08-14T09:23:22Z</time>
      </trkpt>
      <trkpt lat="48.6529" lon="7.24078">
        <ele>591</ele>
        <time>2011-08-14T09:23:24Z</time>
      </trkpt>
      <trkpt lat="48.65295" lon="7.24077">
        <ele>591</ele>
        <time>2011-08-14T09:23:26Z</time>
      </trkpt>
      <trkpt lat="48.653" lon="7.24075">
        <ele>591</ele>
        <time>2011-08-14T09:23:29Z</time>
      </trkpt>
      <trkpt lat="48.65303" lon="7.2407">
        <ele>591</ele>
        <time>2011-08-14T09:23:32Z</time>
      </trkpt>
      <trkpt lat="48.65308" lon="7.24066">
        <ele>590</ele>
        <time>2011-08-14T09:23:36Z</time>
      </trkpt>
      <trkpt lat="48.65312" lon="7.24065">
        <ele>590</ele>
        <time>2011-08-14T09:23:39Z</time>
      </trkpt>
      <trkpt lat="48.65317" lon="7.24069">
        <ele>590</ele>
        <time>2011-08-14T09:23:43Z</time>
      </trkpt>
      <trkpt lat="48.65319" lon="7.24078">
        <ele>589</ele>
        <time>2011-08-14T09:23:46Z</time>
      </trkpt>
      <trkpt lat="48.65319" lon="7.24088">
        <ele>589</ele>
        <time>2011-08-14T09:23:48Z</time>
      </trkpt>
      <trkpt lat="48.65319" lon="7.24098">
        <ele>589</ele>
        <time>2011-08-14T09:23:50Z</time>
      </trkpt>
      <trkpt lat="48.65318" lon="7.24108">
        <ele>589</ele>
        <time>2011-08-14T09:23:52Z</time>
      </trkpt>
      <trkpt lat="48.65316" lon="7.24116">
        <ele>589</ele>
        <time>2011-08-14T09:23:54Z</time>
      </trkpt>
      <trkpt lat="48.65314" lon="7.24123">
        <ele>588</ele>
        <time>2011-08-14T09:23:56Z</time>
      </trkpt>
      <trkpt lat="48.65311" lon="7.2413">
        <ele>588</ele>
        <time>2011-08-14T09:23:58Z</time>
      </trkpt>
      <trkpt lat="48.65308" lon="7.24136">
        <ele>588</ele>
        <time>2011-08-14T09:24:00Z</time>
      </trkpt>
      <trkpt lat="48.65305" lon="7.24142">
        <ele>588</ele>
        <time>2011-08-14T09:24:02Z</time>
      </trkpt>
      <trkpt lat="48.65303" lon="7.24148">
        <ele>587</ele>
        <time>2011-08-14T09:24:04Z</time>
      </trkpt>
      <trkpt lat="48.653" lon="7.24157">
        <ele>587</ele>
        <time>2011-08-14T09:24:07Z</time>
      </trkpt>
      <trkpt lat="48.65298" lon="7.24163">
        <ele>587</ele>
        <time>2011-08-14T09:24:09Z</time>
      </trkpt>
      <trkpt lat="48.65296" lon="7.2417">
        <ele>587</ele>
        <time>2011-08-14T09:24:11Z</time>
      </trkpt>
      <trkpt lat="48.65295" lon="7.24176">
        <ele>587</ele>
        <time>2011-08-14T09:24:13Z</time>
      </trkpt>
      <trkpt lat="48.65293" lon="7.24186">
        <ele>586</ele>
        <time>2011-08-14T09:24:16Z</time>
      </trkpt>
      <trkpt lat="48.65292" lon="7.24196">
        <ele>586</ele>
        <time>2011-08-14T09:24:19Z</time>
      </trkpt>
      <trkpt lat="48.6529" lon="7.24205">
        <ele>586</ele>
        <time>2011-08-14T09:24:22Z</time>
      </trkpt>
      <trkpt lat="48.65289" lon="7.24214">
        <ele>586</ele>
        <time>2011-08-14T09:24:25Z</time>
      </trkpt>
      <trkpt lat="48.6529" lon="7.24223">
        <ele>586</ele>
        <time>2011-08-14T09:24:28Z</time>
      </trkpt>
      <trkpt lat="48.6529" lon="7.24232">
        <ele>586</ele>
        <time>2011-08-14T09:24:31Z</time>
      </trkpt>
      <trkpt lat="48.6529" lon="7.2424">
        <ele>585</ele>
        <time>2011-08-14T09:24:34Z</time>
      </trkpt>
      <trkpt lat="48.6529" lon="7.24249">
        <ele>585</ele>
        <time>2011-08-14T09:24:37Z</time>
      </trkpt>
      <trkpt lat="48.6529" lon="7.24258">
        <ele>585</ele>
        <time>2011-08-14T09:24:40Z</time>
      </trkpt>
      <trkpt lat="48.6529" lon="7.24266">
        <ele>585</ele>
        <time>2011-08-14T09:24:43Z</time>
      </trkpt>
      <trkpt lat="48.65291" lon="7.24274">
        <ele>585</ele>
        <time>2011-08-14T09:24:46Z</time>
      </trkpt>
      <trkpt lat="48.65291" lon="7.24283">
        <ele>585</ele>
        <time>2011-08-14T09:24:49Z</time>
      </trkpt>
      <trkpt lat="48.65291" lon="7.24292">
        <ele>585</ele>
        <time>2011-08-14T09:24:52Z</time>
      </trkpt>
      <trkpt lat="48.65291" lon="7.243">
        <ele>585</ele>
        <time>2011-08-14T09:24:55Z</time>
      </trkpt>
      <trkpt lat="48.65291" lon="7.24309">
        <ele>584</ele>
        <time>2011-08-14T09:24:58Z</time>
      </trkpt>
      <trkpt lat="48.65291" lon="7.24318">
        <ele>584</ele>
        <time>2011-08-14T09:25:01Z</time>
      </trkpt>
      <trkpt lat="48.6529" lon="7.24328">
        <ele>584</ele>
        <time>2011-08-14T09:25:04Z</time>
      </trkpt>
      <trkpt lat="48.6529" lon="7.24337">
        <ele>584</ele>
        <time>2011-08-14T09:25:07Z</time>
      </trkpt>
      <trkpt lat="48.6529" lon="7.24347">
        <ele>584</ele>
        <time>2011-08-14T09:25:10Z</time>
      </trkpt>
      <trkpt lat="48.6529" lon="7.24357">
        <ele>584</ele>
        <time>2011-08-14T09:25:13Z</time>
      </trkpt>
      <trkpt lat="48.6529" lon="7.24367">
        <ele>584</ele>
        <time>2011-08-14T09:25:16Z</time>
      </trkpt>
      <trkpt lat="48.65291" lon="7.24377">
        <ele>584</ele>
        <time>2011-08-14T09:25:19Z</time>
      </trkpt>
      <trkpt lat="48.65291" lon="7.24384">
        <ele>584</ele>
        <time>2011-08-14T09:25:21Z</time>
      </trkpt>
      <trkpt lat="48.65293" lon="7.24393">
        <ele>584</ele>
        <time>2011-08-14T09:25:24Z</time>
      </trkpt>
      <trkpt lat="48.65293" lon="7.24403">
        <ele>584</ele>
        <time>2011-08-14T09:25:27Z</time>
      </trkpt>
      <trkpt lat="48.65293" lon="7.2441">
        <ele>584</ele>
        <time>2011-08-14T09:25:29Z</time>
      </trkpt>
      <trkpt lat="48.65293" lon="7.24417">
        <ele>584</ele>
        <time>2011-08-14T09:25:31Z</time>
      </trkpt>
      <trkpt lat="48.65293" lon="7.24424">
        <ele>584</ele>
        <time>2011-08-14T09:25:33Z</time>
      </trkpt>
      <trkpt lat="48.65293" lon="7.24431">
        <ele>584</ele>
        <time>2011-08-14T09:25:35Z</time>
      </trkpt>
      <trkpt lat="48.65293" lon="7.24438">
        <ele>583</ele>
        <time>2011-08-14T09:25:37Z</time>
      </trkpt>
      <trkpt lat="48.65293" lon="7.24445">
        <ele>583</ele>
        <time>2011-08-14T09:25:39Z</time>
      </trkpt>
      <trkpt lat="48.65293" lon="7.24452">
        <ele>583</ele>
        <time>2011-08-14T09:25:41Z</time>
      </trkpt>
      <trkpt lat="48.65293" lon="7.24459">
        <ele>583</ele>
        <time>2011-08-14T09:25:43Z</time>
      </trkpt>
      <trkpt lat="48.65292" lon="7.24466">
        <ele>583</ele>
        <time>2011-08-14T09:25:45Z</time>
      </trkpt>
      <trkpt lat="48.65292" lon="7.24473">
        <ele>583</ele>
        <time>2011-08-14T09:25:47Z</time>
      </trkpt>
      <trkpt lat="48.65292" lon="7.2448">
        <ele>583</ele>
        <time>2011-08-14T09:25:49Z</time>
      </trkpt>
      <trkpt lat="48.65292" lon="7.24487">
        <ele>583</ele>
        <time>2011-08-14T09:25:51Z</time>
      </trkpt>
      <trkpt lat="48.65292" lon="7.24494">
        <ele>583</ele>
        <time>2011-08-14T09:25:53Z</time>
      </trkpt>
      <trkpt lat="48.65292" lon="7.24501">
        <ele>583</ele>
        <time>2011-08-14T09:25:55Z</time>
      </trkpt>
      <trkpt lat="48.65292" lon="7.24509">
        <ele>583</ele>
        <time>2011-08-14T09:25:57Z</time>
      </trkpt>
      <trkpt lat="48.65292" lon="7.24516">
        <ele>583</ele>
        <time>2011-08-14T09:25:59Z</time>
      </trkpt>
      <trkpt lat="48.65292" lon="7.24523">
        <ele>583</ele>
        <time>2011-08-14T09:26:01Z</time>
      </trkpt>
      <trkpt lat="48.65291" lon="7.2453">
        <ele>583</ele>
        <time>2011-08-14T09:26:03Z</time>
      </trkpt>
      <trkpt lat="48.6529" lon="7.24538">
        <ele>583</ele>
        <time>2011-08-14T09:26:05Z</time>
      </trkpt>
      <trkpt lat="48.65289" lon="7.24546">
        <ele>583</ele>
        <time>2011-08-14T09:26:07Z</time>
      </trkpt>
      <trkpt lat="48.65288" lon="7.24555">
        <ele>583</ele>
        <time>2011-08-14T09:26:09Z</time>
      </trkpt>
      <trkpt lat="48.65287" lon="7.24564">
        <ele>583</ele>
        <time>2011-08-14T09:26:11Z</time>
      </trkpt>
      <trkpt lat="48.65285" lon="7.24572">
        <ele>583</ele>
        <time>2011-08-14T09:26:13Z</time>
      </trkpt>
      <trkpt lat="48.65283" lon="7.24581">
        <ele>583</ele>
        <time>2011-08-14T09:26:15Z</time>
      </trkpt>
      <trkpt lat="48.65281" lon="7.2459">
        <ele>583</ele>
        <time>2011-08-14T09:26:17Z</time>
      </trkpt>
      <trkpt lat="48.6528" lon="7.24598">
        <ele>583</ele>
        <time>2011-08-14T09:26:19Z</time>
      </trkpt>
      <trkpt lat="48.65277" lon="7.24606">
        <ele>583</ele>
        <time>2011-08-14T09:26:21Z</time>
      </trkpt>
      <trkpt lat="48.65275" lon="7.24613">
        <ele>583</ele>
        <time>2011-08-14T09:26:23Z</time>
      </trkpt>
      <trkpt lat="48.65273" lon="7.24621">
        <ele>583</ele>
        <time>2011-08-14T09:26:25Z</time>
      </trkpt>
      <trkpt lat="48.65271" lon="7.24628">
        <ele>583</ele>
        <time>2011-08-14T09:26:27Z</time>
      </trkpt>
      <trkpt lat="48.65269" lon="7.24634">
        <ele>583</ele>
        <time>2011-08-14T09:26:29Z</time>
      </trkpt>
      <trkpt lat="48.65267" lon="7.24641">
        <ele>583</ele>
        <time>2011-08-14T09:26:31Z</time>
      </trkpt>
      <trkpt lat="48.65264" lon="7.24649">
        <ele>583</ele>
        <time>2011-08-14T09:26:34Z</time>
      </trkpt>
      <trkpt lat="48.65261" lon="7.24658">
        <ele>583</ele>
        <time>2011-08-14T09:26:37Z</time>
      </trkpt>
      <trkpt lat="48.65258" lon="7.24666">
        <ele>583</ele>
        <time>2011-08-14T09:26:40Z</time>
      </trkpt>
      <trkpt lat="48.65255" lon="7.24674">
        <ele>583</ele>
        <time>2011-08-14T09:26:43Z</time>
      </trkpt>
      <trkpt lat="48.65252" lon="7.24682">
        <ele>583</ele>
        <time>2011-08-14T09:26:46Z</time>
      </trkpt>
      <trkpt lat="48.65249" lon="7.2469">
        <ele>584</ele>
        <time>2011-08-14T09:26:49Z</time>
      </trkpt>
      <trkpt lat="48.65247" lon="7.24699">
        <ele>584</ele>
        <time>2011-08-14T09:26:52Z</time>
      </trkpt>
      <trkpt lat="48.65244" lon="7.24708">
        <ele>584</ele>
        <time>2011-08-14T09:26:55Z</time>
      </trkpt>
      <trkpt lat="48.65241" lon="7.24717">
        <ele>584</ele>
        <time>2011-08-14T09:26:58Z</time>
      </trkpt>
      <trkpt lat="48.65239" lon="7.24724">
        <ele>584</ele>
        <time>2011-08-14T09:27:00Z</time>
      </trkpt>
      <trkpt lat="48.65236" lon="7.24731">
        <ele>584</ele>
        <time>2011-08-14T09:27:02Z</time>
      </trkpt>
      <trkpt lat="48.65233" lon="7.24738">
        <ele>584</ele>
        <time>2011-08-14T09:27:04Z</time>
      </trkpt>
      <trkpt lat="48.6523" lon="7.24746">
        <ele>584</ele>
        <time>2011-08-14T09:27:06Z</time>
      </trkpt>
      <trkpt lat="48.65226" lon="7.24753">
        <ele>585</ele>
        <time>2011-08-14T09:27:08Z</time>
      </trkpt>
      <trkpt lat="48.65223" lon="7.24761">
        <ele>585</ele>
        <time>2011-08-14T09:27:10Z</time>
      </trkpt>
      <trkpt lat="48.6522" lon="7.24768">
        <ele>585</ele>
        <time>2011-08-14T09:27:12Z</time>
      </trkpt>
      <trkpt lat="48.65218" lon="7.24776">
        <ele>585</ele>
        <time>2011-08-14T09:27:14Z</time>
      </trkpt>
      <trkpt lat="48.65215" lon="7.24784">
        <ele>585</ele>
        <time>2011-08-14T09:27:16Z</time>
      </trkpt>
      <trkpt lat="48.65212" lon="7.24791">
        <ele>585</ele>
        <time>2011-08-14T09:27:18Z</time>
      </trkpt>
      <trkpt lat="48.65209" lon="7.24798">
        <ele>585</ele>
        <time>2011-08-14T09:27:20Z</time>
      </trkpt>
      <trkpt lat="48.65206" lon="7.24804">
        <ele>585</ele>
        <time>2011-08-14T09:27:22Z</time>
      </trkpt>
      <trkpt lat="48.65203" lon="7.24811">
        <ele>585</ele>
        <time>2011-08-14T09:27:24Z</time>
      </trkpt>
      <trkpt lat="48.652" lon="7.24817">
        <ele>585</ele>
        <time>2011-08-14T09:27:26Z</time>
      </trkpt>
      <trkpt lat="48.65198" lon="7.24823">
        <ele>585</ele>
        <time>2011-08-14T09:27:28Z</time>
      </trkpt>
      <trkpt lat="48.65194" lon="7.24829">
        <ele>585</ele>
        <time>2011-08-14T09:27:30Z</time>
      </trkpt>
      <trkpt lat="48.65191" lon="7.24835">
        <ele>585</ele>
        <time>2011-08-14T09:27:32Z</time>
      </trkpt>
      <trkpt lat="48.65188" lon="7.2484">
        <ele>585</ele>
        <time>2011-08-14T09:27:34Z</time>
      </trkpt>
      <trkpt lat="48.65185" lon="7.24846">
        <ele>585</ele>
        <time>2011-08-14T09:27:36Z</time>
      </trkpt>
      <trkpt lat="48.65182" lon="7.24852">
        <ele>585</ele>
        <time>2011-08-14T09:27:38Z</time>
      </trkpt>
      <trkpt lat="48.65179" lon="7.24858">
        <ele>585</ele>
        <time>2011-08-14T09:27:40Z</time>
      </trkpt>
      <trkpt lat="48.65176" lon="7.24863">
        <ele>585</ele>
        <time>2011-08-14T09:27:42Z</time>
      </trkpt>
      <trkpt lat="48.65174" lon="7.24869">
        <ele>585</ele>
        <time>2011-08-14T09:27:44Z</time>
      </trkpt>
      <trkpt lat="48.65171" lon="7.24875">
        <ele>585</ele>
        <time>2011-08-14T09:27:46Z</time>
      </trkpt>
      <trkpt lat="48.65168" lon="7.2488">
        <ele>585</ele>
        <time>2011-08-14T09:27:48Z</time>
      </trkpt>
      <trkpt lat="48.65164" lon="7.24885">
        <ele>585</ele>
        <time>2011-08-14T09:27:50Z</time>
      </trkpt>
      <trkpt lat="48.65159" lon="7.24892">
        <ele>585</ele>
        <time>2011-08-14T09:27:53Z</time>
      </trkpt>
      <trkpt lat="48.65155" lon="7.24896">
        <ele>585</ele>
        <time>2011-08-14T09:27:55Z</time>
      </trkpt>
      <trkpt lat="48.65151" lon="7.24899">
        <ele>585</ele>
        <time>2011-08-14T09:27:57Z</time>
      </trkpt>
      <trkpt lat="48.65147" lon="7.24903">
        <ele>585</ele>
        <time>2011-08-14T09:27:59Z</time>
      </trkpt>
      <trkpt lat="48.65142" lon="7.24906">
        <ele>585</ele>
        <time>2011-08-14T09:28:01Z</time>
      </trkpt>
      <trkpt lat="48.65138" lon="7.24909">
        <ele>585</ele>
        <time>2011-08-14T09:28:03Z</time>
      </trkpt>
      <trkpt lat="48.65132" lon="7.24912">
        <ele>585</ele>
        <time>2011-08-14T09:28:05Z</time>
      </trkpt>
      <trkpt lat="48.65127" lon="7.24915">
        <ele>585</ele>
        <time>2011-08-14T09:28:07Z</time>
      </trkpt>
      <trkpt lat="48.65122" lon="7.24917">
        <ele>585</ele>
        <time>2011-08-14T09:28:09Z</time>
      </trkpt>
      <trkpt lat="48.65116" lon="7.2492">
        <ele>585</ele>
        <time>2011-08-14T09:28:11Z</time>
      </trkpt>
      <trkpt lat="48.6511" lon="7.24923">
        <ele>585</ele>
        <time>2011-08-14T09:28:13Z</time>
      </trkpt>
      <trkpt lat="48.65105" lon="7.24925">
        <ele>585</ele>
        <time>2011-08-14T09:28:15Z</time>
      </trkpt>
      <trkpt lat="48.651" lon="7.24927">
        <ele>585</ele>
        <time>2011-08-14T09:28:17Z</time>
      </trkpt>
      <trkpt lat="48.65094" lon="7.24929">
        <ele>585</ele>
        <time>2011-08-14T09:28:19Z</time>
      </trkpt>
      <trkpt lat="48.65089" lon="7.24931">
        <ele>585</ele>
        <time>2011-08-14T09:28:21Z</time>
      </trkpt>
      <trkpt lat="48.65084" lon="7.24934">
        <ele>585</ele>
        <time>2011-08-14T09:28:23Z</time>
      </trkpt>
      <trkpt lat="48.6508" lon="7.24936">
        <ele>585</ele>
        <time>2011-08-14T09:28:25Z</time>
      </trkpt>
      <trkpt lat="48.65075" lon="7.24937">
        <ele>585</ele>
        <time>2011-08-14T09:28:27Z</time>
      </trkpt>
      <trkpt lat="48.6507" lon="7.24938">
        <ele>585</ele>
        <time>2011-08-14T09:28:29Z</time>
      </trkpt>
      <trkpt lat="48.65066" lon="7.24938">
        <ele>585</ele>
        <time>2011-08-14T09:28:31Z</time>
      </trkpt>
      <trkpt lat="48.65061" lon="7.24938">
        <ele>585</ele>
        <time>2011-08-14T09:28:33Z</time>
      </trkpt>
      <trkpt lat="48.65057" lon="7.24938">
        <ele>585</ele>
        <time>2011-08-14T09:28:35Z</time>
      </trkpt>
      <trkpt lat="48.65052" lon="7.24937">
        <ele>585</ele>
        <time>2011-08-14T09:28:37Z</time>
      </trkpt>
      <trkpt lat="48.65048" lon="7.24936">
        <ele>585</ele>
        <time>2011-08-14T09:28:39Z</time>
      </trkpt>
      <trkpt lat="48.65041" lon="7.24935">
        <ele>585</ele>
        <time>2011-08-14T09:28:42Z</time>
      </trkpt>
      <trkpt lat="48.65034" lon="7.24934">
        <ele>585</ele>
        <time>2011-08-14T09:28:45Z</time>
      </trkpt>
      <trkpt lat="48.65027" lon="7.24934">
        <ele>585</ele>
        <time>2011-08-14T09:28:48Z</time>
      </trkpt>
      <trkpt lat="48.65023" lon="7.24934">
        <ele>585</ele>
        <time>2011-08-14T09:28:50Z</time>
      </trkpt>
      <trkpt lat="48.65018" lon="7.24934">
        <ele>585</ele>
        <time>2011-08-14T09:28:52Z</time>
      </trkpt>
      <trkpt lat="48.65013" lon="7.24934">
        <ele>585</ele>
        <time>2011-08-14T09:28:54Z</time>
      </trkpt>
      <trkpt lat="48.65008" lon="7.24934">
        <ele>585</ele>
        <time>2011-08-14T09:28:56Z</time>
      </trkpt>
      <trkpt lat="48.65002" lon="7.24933">
        <ele>585</ele>
        <time>2011-08-14T09:28:58Z</time>
      </trkpt>
      <trkpt lat="48.64994" lon="7.24933">
        <ele>586</ele>
        <time>2011-08-14T09:29:00Z</time>
      </trkpt>
      <trkpt lat="48.64986" lon="7.24933">
        <ele>586</ele>
        <time>2011-08-14T09:29:02Z</time>
      </trkpt>
      <trkpt lat="48.64979" lon="7.24934">
        <ele>586</ele>
        <time>2011-08-14T09:29:04Z</time>
      </trkpt>
      <trkpt lat="48.64972" lon="7.24934">
        <ele>586</ele>
        <time>2011-08-14T09:29:06Z</time>
      </trkpt>
      <trkpt lat="48.64965" lon="7.24934">
        <ele>586</ele>
        <time>2011-08-14T09:29:08Z</time>
      </trkpt>
      <trkpt lat="48.64958" lon="7.24935">
        <ele>586</ele>
        <time>2011-08-14T09:29:10Z</time>
      </trkpt>
      <trkpt lat="48.64952" lon="7.24935">
        <ele>587</ele>
        <time>2011-08-14T09:29:12Z</time>
      </trkpt>
      <trkpt lat="48.64945" lon="7.24935">
        <ele>587</ele>
        <time>2011-08-14T09:29:14Z</time>
      </trkpt>
      <trkpt lat="48.64938" lon="7.24935">
        <ele>587</ele>
        <time>2011-08-14T09:29:16Z</time>
      </trkpt>
      <trkpt lat="48.64931" lon="7.24936">
        <ele>587</ele>
        <time>2011-08-14T09:29:18Z</time>
      </trkpt>
      <trkpt lat="48.64923" lon="7.24936">
        <ele>587</ele>
        <time>2011-08-14T09:29:20Z</time>
      </trkpt>
      <trkpt lat="48.64918" lon="7.24937">
        <ele>588</ele>
        <time>2011-08-14T09:29:21Z</time>
      </trkpt>
      <trkpt lat="48.64909" lon="7.24938">
        <ele>588</ele>
        <time>2011-08-14T09:29:23Z</time>
      </trkpt>
      <trkpt lat="48.64904" lon="7.24938">
        <ele>588</ele>
        <time>2011-08-14T09:29:24Z</time>
      </trkpt>
      <trkpt lat="48.64896" lon="7.2494">
        <ele>588</ele>
        <time>2011-08-14T09:29:26Z</time>
      </trkpt>
      <trkpt lat="48.64889" lon="7.2494">
        <ele>589</ele>
        <time>2011-08-14T09:29:28Z</time>
      </trkpt>
      <trkpt lat="48.64882" lon="7.24943">
        <ele>589</ele>
        <time>2011-08-14T09:29:30Z</time>
      </trkpt>
      <trkpt lat="48.64876" lon="7.24946">
        <ele>589</ele>
        <time>2011-08-14T09:29:32Z</time>
      </trkpt>
      <trkpt lat="48.64871" lon="7.24949">
        <ele>590</ele>
        <time>2011-08-14T09:29:34Z</time>
      </trkpt>
      <trkpt lat="48.64866" lon="7.24953">
        <ele>590</ele>
        <time>2011-08-14T09:29:36Z</time>
      </trkpt>
      <trkpt lat="48.64862" lon="7.24959">
        <ele>590</ele>
        <time>2011-08-14T09:29:38Z</time>
      </trkpt>
      <trkpt lat="48.64858" lon="7.24964">
        <ele>591</ele>
        <time>2011-08-14T09:29:40Z</time>
      </trkpt>
      <trkpt lat="48.64853" lon="7.24968">
        <ele>591</ele>
        <time>2011-08-14T09:29:42Z</time>
      </trkpt>
      <trkpt lat="48.64848" lon="7.24972">
        <ele>591</ele>
        <time>2011-08-14T09:29:44Z</time>
      </trkpt>
      <trkpt lat="48.64844" lon="7.24976">
        <ele>591</ele>
        <time>2011-08-14T09:29:46Z</time>
      </trkpt>
      <trkpt lat="48.6484" lon="7.24982">
        <ele>591</ele>
        <time>2011-08-14T09:29:48Z</time>
      </trkpt>
      <trkpt lat="48.64838" lon="7.24988">
        <ele>592</ele>
        <time>2011-08-14T09:29:50Z</time>
      </trkpt>
      <trkpt lat="48.64836" lon="7.24995">
        <ele>592</ele>
        <time>2011-08-14T09:29:52Z</time>
      </trkpt>
      <trkpt lat="48.64835" lon="7.25004">
        <ele>592</ele>
        <time>2011-08-14T09:29:54Z</time>
      </trkpt>
      <trkpt lat="48.64835" lon="7.25012">
        <ele>593</ele>
        <time>2011-08-14T09:29:56Z</time>
      </trkpt>
      <trkpt lat="48.64834" lon="7.2502">
        <ele>593</ele>
        <time>2011-08-14T09:29:58Z</time>
      </trkpt>
      <trkpt lat="48.64834" lon="7.25028">
        <ele>593</ele>
        <time>2011-08-14T09:30:00Z</time>
      </trkpt>
      <trkpt lat="48.64833" lon="7.25036">
        <ele>594</ele>
        <time>2011-08-14T09:30:02Z</time>
      </trkpt>
      <trkpt lat="48.64834" lon="7.25044">
        <ele>594</ele>
        <time>2011-08-14T09:30:04Z</time>
      </trkpt>
      <trkpt lat="48.64835" lon="7.25056">
        <ele>594</ele>
        <time>2011-08-14T09:30:06Z</time>
      </trkpt>
      <trkpt lat="48.64837" lon="7.25063">
        <ele>595</ele>
        <time>2011-08-14T09:30:07Z</time>
      </trkpt>
      <trkpt lat="48.6484" lon="7.25075">
        <ele>595</ele>
        <time>2011-08-14T09:30:09Z</time>
      </trkpt>
      <trkpt lat="48.64842" lon="7.25085">
        <ele>595</ele>
        <time>2011-08-14T09:30:11Z</time>
      </trkpt>
      <trkpt lat="48.64844" lon="7.25095">
        <ele>596</ele>
        <time>2011-08-14T09:30:13Z</time>
      </trkpt>
      <trkpt lat="48.64847" lon="7.25104">
        <ele>596</ele>
        <time>2011-08-14T09:30:15Z</time>
      </trkpt>
      <trkpt lat="48.64849" lon="7.25112">
        <ele>596</ele>
        <time>2011-08-14T09:30:17Z</time>
      </trkpt>
      <trkpt lat="48.64851" lon="7.2512">
        <ele>597</ele>
        <time>2011-08-14T09:30:19Z</time>
      </trkpt>
      <trkpt lat="48.64853" lon="7.25128">
        <ele>597</ele>
        <time>2011-08-14T09:30:21Z</time>
      </trkpt>
      <trkpt lat="48.64854" lon="7.25136">
        <ele>597</ele>
        <time>2011-08-14T09:30:23Z</time>
      </trkpt>
      <trkpt lat="48.64855" lon="7.25144">
        <ele>597</ele>
        <time>2011-08-14T09:30:25Z</time>
      </trkpt>
      <trkpt lat="48.64856" lon="7.25152">
        <ele>598</ele>
        <time>2011-08-14T09:30:27Z</time>
      </trkpt>
      <trkpt lat="48.64857" lon="7.25161">
        <ele>598</ele>
        <time>2011-08-14T09:30:29Z</time>
      </trkpt>
      <trkpt lat="48.64858" lon="7.25169">
        <ele>598</ele>
        <time>2011-08-14T09:30:31Z</time>
      </trkpt>
      <trkpt lat="48.64858" lon="7.25177">
        <ele>598</ele>
        <time>2011-08-14T09:30:33Z</time>
      </trkpt>
      <trkpt lat="48.64859" lon="7.25186">
        <ele>598</ele>
        <time>2011-08-14T09:30:35Z</time>
      </trkpt>
      <trkpt lat="48.6486" lon="7.25194">
        <ele>598</ele>
        <time>2011-08-14T09:30:37Z</time>
      </trkpt>
      <trkpt lat="48.64861" lon="7.25202">
        <ele>599</ele>
        <time>2011-08-14T09:30:39Z</time>
      </trkpt>
      <trkpt lat="48.64863" lon="7.2521">
        <ele>599</ele>
        <time>2011-08-14T09:30:41Z</time>
      </trkpt>
      <trkpt lat="48.64865" lon="7.25217">
        <ele>599</ele>
        <time>2011-08-14T09:30:43Z</time>
      </trkpt>
      <trkpt lat="48.64867" lon="7.25225">
        <ele>599</ele>
        <time>2011-08-14T09:30:45Z</time>
      </trkpt>
      <trkpt lat="48.64868" lon="7.25232">
        <ele>599</ele>
        <time>2011-08-14T09:30:47Z</time>
      </trkpt>
      <trkpt lat="48.64869" lon="7.2524">
        <ele>599</ele>
        <time>2011-08-14T09:30:49Z</time>
      </trkpt>
      <trkpt lat="48.6487" lon="7.25247">
        <ele>599</ele>
        <time>2011-08-14T09:30:51Z</time>
      </trkpt>
      <trkpt lat="48.64872" lon="7.25254">
        <ele>599</ele>
        <time>2011-08-14T09:30:53Z</time>
      </trkpt>
      <trkpt lat="48.64874" lon="7.25261">
        <ele>599</ele>
        <time>2011-08-14T09:30:55Z</time>
      </trkpt>
      <trkpt lat="48.64876" lon="7.25268">
        <ele>599</ele>
        <time>2011-08-14T09:30:57Z</time>
      </trkpt>
      <trkpt lat="48.64879" lon="7.25274">
        <ele>599</ele>
        <time>2011-08-14T09:30:59Z</time>
      </trkpt>
      <trkpt lat="48.6488" lon="7.25281">
        <ele>599</ele>
        <time>2011-08-14T09:31:01Z</time>
      </trkpt>
      <trkpt lat="48.64881" lon="7.25288">
        <ele>599</ele>
        <time>2011-08-14T09:31:03Z</time>
      </trkpt>
      <trkpt lat="48.64882" lon="7.25297">
        <ele>599</ele>
        <time>2011-08-14T09:31:06Z</time>
      </trkpt>
      <trkpt lat="48.64884" lon="7.25304">
        <ele>599</ele>
        <time>2011-08-14T09:31:08Z</time>
      </trkpt>
      <trkpt lat="48.64886" lon="7.25311">
        <ele>599</ele>
        <time>2011-08-14T09:31:10Z</time>
      </trkpt>
      <trkpt lat="48.64888" lon="7.25318">
        <ele>599</ele>
        <time>2011-08-14T09:31:12Z</time>
      </trkpt>
      <trkpt lat="48.6489" lon="7.25325">
        <ele>599</ele>
        <time>2011-08-14T09:31:14Z</time>
      </trkpt>
      <trkpt lat="48.64893" lon="7.25333">
        <ele>599</ele>
        <time>2011-08-14T09:31:16Z</time>
      </trkpt>
      <trkpt lat="48.64897" lon="7.25341">
        <ele>599</ele>
        <time>2011-08-14T09:31:18Z</time>
      </trkpt>
      <trkpt lat="48.64901" lon="7.25348">
        <ele>599</ele>
        <time>2011-08-14T09:31:20Z</time>
      </trkpt>
      <trkpt lat="48.64904" lon="7.25354">
        <ele>599</ele>
        <time>2011-08-14T09:31:22Z</time>
      </trkpt>
      <trkpt lat="48.64908" lon="7.25358">
        <ele>599</ele>
        <time>2011-08-14T09:31:24Z</time>
      </trkpt>
      <trkpt lat="48.64914" lon="7.25363">
        <ele>599</ele>
        <time>2011-08-14T09:31:26Z</time>
      </trkpt>
      <trkpt lat="48.6492" lon="7.25372">
        <ele>598</ele>
        <time>2011-08-14T09:31:28Z</time>
      </trkpt>
      <trkpt lat="48.64923" lon="7.25378">
        <ele>597</ele>
        <time>2011-08-14T09:31:29Z</time>
      </trkpt>
      <trkpt lat="48.64926" lon="7.25385">
        <ele>597</ele>
        <time>2011-08-14T09:31:30Z</time>
      </trkpt>
      <trkpt lat="48.64929" lon="7.25392">
        <ele>597</ele>
        <time>2011-08-14T09:31:31Z</time>
      </trkpt>
      <trkpt lat="48.64932" lon="7.254">
        <ele>596</ele>
        <time>2011-08-14T09:31:32Z</time>
      </trkpt>
      <trkpt lat="48.64934" lon="7.25407">
        <ele>596</ele>
        <time>2011-08-14T09:31:33Z</time>
      </trkpt>
      <trkpt lat="48.64937" lon="7.25414">
        <ele>596</ele>
        <time>2011-08-14T09:31:34Z</time>
      </trkpt>
      <trkpt lat="48.64939" lon="7.25422">
        <ele>596</ele>
        <time>2011-08-14T09:31:35Z</time>
      </trkpt>
      <trkpt lat="48.64941" lon="7.25429">
        <ele>596</ele>
        <time>2011-08-14T09:31:36Z</time>
      </trkpt>
      <trkpt lat="48.64944" lon="7.25437">
        <ele>596</ele>
        <time>2011-08-14T09:31:37Z</time>
      </trkpt>
      <trkpt lat="48.64946" lon="7.25444">
        <ele>595</ele>
        <time>2011-08-14T09:31:38Z</time>
      </trkpt>
      <trkpt lat="48.64948" lon="7.25451">
        <ele>595</ele>
        <time>2011-08-14T09:31:39Z</time>
      </trkpt>
      <trkpt lat="48.6495" lon="7.25459">
        <ele>595</ele>
        <time>2011-08-14T09:31:40Z</time>
      </trkpt>
      <trkpt lat="48.64952" lon="7.25466">
        <ele>594</ele>
        <time>2011-08-14T09:31:41Z</time>
      </trkpt>
      <trkpt lat="48.64954" lon="7.25473">
        <ele>594</ele>
        <time>2011-08-14T09:31:42Z</time>
      </trkpt>
      <trkpt lat="48.64957" lon="7.2548">
        <ele>594</ele>
        <time>2011-08-14T09:31:43Z</time>
      </trkpt>
      <trkpt lat="48.64959" lon="7.25487">
        <ele>594</ele>
        <time>2011-08-14T09:31:44Z</time>
      </trkpt>
      <trkpt lat="48.64961" lon="7.25493">
        <ele>594</ele>
        <time>2011-08-14T09:31:45Z</time>
      </trkpt>
      <trkpt lat="48.64963" lon="7.25499">
        <ele>594</ele>
        <time>2011-08-14T09:31:46Z</time>
      </trkpt>
      <trkpt lat="48.64965" lon="7.25505">
        <ele>594</ele>
        <time>2011-08-14T09:31:47Z</time>
      </trkpt>
      <trkpt lat="48.64969" lon="7.25517">
        <ele>594</ele>
        <time>2011-08-14T09:31:49Z</time>
      </trkpt>
      <trkpt lat="48.64972" lon="7.25524">
        <ele>594</ele>
        <time>2011-08-14T09:31:51Z</time>
      </trkpt>
      <trkpt lat="48.64972" lon="7.25524">
        <ele>594</ele>
        <time>2011-08-14T09:31:51Z</time>
      </trkpt>
      <trkpt lat="48.64972" lon="7.25524">
        <ele>594</ele>
        <time>2011-08-14T09:32:16Z</time>
      </trkpt>
      <trkpt lat="48.64976" lon="7.2552">
        <ele>595</ele>
        <time>2011-08-14T09:32:26Z</time>
      </trkpt>
      <trkpt lat="48.64979" lon="7.25515">
        <ele>595</ele>
        <time>2011-08-14T09:32:28Z</time>
      </trkpt>
      <trkpt lat="48.64984" lon="7.25511">
        <ele>594</ele>
        <time>2011-08-14T09:32:32Z</time>
      </trkpt>
      <trkpt lat="48.64988" lon="7.2551">
        <ele>594</ele>
        <time>2011-08-14T09:32:35Z</time>
      </trkpt>
      <trkpt lat="48.64995" lon="7.2551">
        <ele>594</ele>
        <time>2011-08-14T09:32:38Z</time>
      </trkpt>
      <trkpt lat="48.65002" lon="7.2551">
        <ele>594</ele>
        <time>2011-08-14T09:32:42Z</time>
      </trkpt>
      <trkpt lat="48.65008" lon="7.25511">
        <ele>594</ele>
        <time>2011-08-14T09:32:45Z</time>
      </trkpt>
      <trkpt lat="48.65014" lon="7.2551">
        <ele>594</ele>
        <time>2011-08-14T09:32:48Z</time>
      </trkpt>
      <trkpt lat="48.65021" lon="7.25505">
        <ele>593</ele>
        <time>2011-08-14T09:32:57Z</time>
      </trkpt>
      <trkpt lat="48.65028" lon="7.25502">
        <ele>593</ele>
        <time>2011-08-14T09:32:59Z</time>
      </trkpt>
      <trkpt lat="48.65032" lon="7.255">
        <ele>593</ele>
        <time>2011-08-14T09:33:01Z</time>
      </trkpt>
      <trkpt lat="48.65038" lon="7.25495">
        <ele>592</ele>
        <time>2011-08-14T09:33:03Z</time>
      </trkpt>
      <trkpt lat="48.65044" lon="7.25492">
        <ele>592</ele>
        <time>2011-08-14T09:33:06Z</time>
      </trkpt>
      <trkpt lat="48.65049" lon="7.25491">
        <ele>592</ele>
        <time>2011-08-14T09:33:08Z</time>
      </trkpt>
      <trkpt lat="48.65057" lon="7.25483">
        <ele>591</ele>
        <time>2011-08-14T09:33:10Z</time>
      </trkpt>
      <trkpt lat="48.65062" lon="7.25479">
        <ele>591</ele>
        <time>2011-08-14T09:33:11Z</time>
      </trkpt>
      <trkpt lat="48.65067" lon="7.25474">
        <ele>591</ele>
        <time>2011-08-14T09:33:12Z</time>
      </trkpt>
      <trkpt lat="48.65072" lon="7.25471">
        <ele>591</ele>
        <time>2011-08-14T09:33:13Z</time>
      </trkpt>
      <trkpt lat="48.65077" lon="7.25467">
        <ele>591</ele>
        <time>2011-08-14T09:33:14Z</time>
      </trkpt>
      <trkpt lat="48.65081" lon="7.25464">
        <ele>591</ele>
        <time>2011-08-14T09:33:15Z</time>
      </trkpt>
      <trkpt lat="48.65086" lon="7.25461">
        <ele>591</ele>
        <time>2011-08-14T09:33:16Z</time>
      </trkpt>
      <trkpt lat="48.65091" lon="7.25458">
        <ele>591</ele>
        <time>2011-08-14T09:33:17Z</time>
      </trkpt>
      <trkpt lat="48.65095" lon="7.25455">
        <ele>591</ele>
        <time>2011-08-14T09:33:18Z</time>
      </trkpt>
      <trkpt lat="48.65103" lon="7.2545">
        <ele>590</ele>
        <time>2011-08-14T09:33:20Z</time>
      </trkpt>
      <trkpt lat="48.65107" lon="7.25447">
        <ele>590</ele>
        <time>2011-08-14T09:33:21Z</time>
      </trkpt>
      <trkpt lat="48.65114" lon="7.25442">
        <ele>590</ele>
        <time>2011-08-14T09:33:23Z</time>
      </trkpt>
      <trkpt lat="48.65122" lon="7.25437">
        <ele>590</ele>
        <time>2011-08-14T09:33:25Z</time>
      </trkpt>
      <trkpt lat="48.65128" lon="7.25432">
        <ele>590</ele>
        <time>2011-08-14T09:33:27Z</time>
      </trkpt>
      <trkpt lat="48.65134" lon="7.25429">
        <ele>590</ele>
        <time>2011-08-14T09:33:29Z</time>
      </trkpt>
      <trkpt lat="48.65144" lon="7.25422">
        <ele>590</ele>
        <time>2011-08-14T09:33:31Z</time>
      </trkpt>
      <trkpt lat="48.6515" lon="7.25418">
        <ele>590</ele>
        <time>2011-08-14T09:33:33Z</time>
      </trkpt>
      <trkpt lat="48.65156" lon="7.25414">
        <ele>590</ele>
        <time>2011-08-14T09:33:35Z</time>
      </trkpt>
      <trkpt lat="48.65162" lon="7.25409">
        <ele>590</ele>
        <time>2011-08-14T09:33:37Z</time>
      </trkpt>
      <trkpt lat="48.65168" lon="7.25405">
        <ele>590</ele>
        <time>2011-08-14T09:33:39Z</time>
      </trkpt>
      <trkpt lat="48.65173" lon="7.254">
        <ele>590</ele>
        <time>2011-08-14T09:33:41Z</time>
      </trkpt>
      <trkpt lat="48.65178" lon="7.25396">
        <ele>590</ele>
        <time>2011-08-14T09:33:43Z</time>
      </trkpt>
      <trkpt lat="48.65184" lon="7.25392">
        <ele>590</ele>
        <time>2011-08-14T09:33:45Z</time>
      </trkpt>
      <trkpt lat="48.65189" lon="7.25388">
        <ele>590</ele>
        <time>2011-08-14T09:33:47Z</time>
      </trkpt>
      <trkpt lat="48.65194" lon="7.25384">
        <ele>590</ele>
        <time>2011-08-14T09:33:49Z</time>
      </trkpt>
      <trkpt lat="48.652" lon="7.2538">
        <ele>590</ele>
        <time>2011-08-14T09:33:51Z</time>
      </trkpt>
      <trkpt lat="48.65205" lon="7.25377">
        <ele>590</ele>
        <time>2011-08-14T09:33:53Z</time>
      </trkpt>
      <trkpt lat="48.6521" lon="7.25373">
        <ele>590</ele>
        <time>2011-08-14T09:33:55Z</time>
      </trkpt>
      <trkpt lat="48.6521" lon="7.25373">
        <ele>590</ele>
        <time>2011-08-14T09:33:55Z</time>
      </trkpt>
      <trkpt lat="48.6521" lon="7.25373">
        <ele>590</ele>
        <time>2011-08-14T09:33:58Z</time>
      </trkpt>
      <trkpt lat="48.6522" lon="7.25365">
        <ele>590</ele>
        <time>2011-08-14T09:33:59Z</time>
      </trkpt>
      <trkpt lat="48.6522" lon="7.25365">
        <ele>590</ele>
        <time>2011-08-14T09:33:59Z</time>
      </trkpt>
      <trkpt lat="48.6522" lon="7.25365">
        <ele>590</ele>
        <time>2011-08-14T09:34:03Z</time>
      </trkpt>
      <trkpt lat="48.65227" lon="7.25358">
        <ele>590</ele>
        <time>2011-08-14T09:34:04Z</time>
      </trkpt>
      <trkpt lat="48.65231" lon="7.25355">
        <ele>590</ele>
        <time>2011-08-14T09:34:05Z</time>
      </trkpt>
      <trkpt lat="48.65237" lon="7.25349">
        <ele>590</ele>
        <time>2011-08-14T09:34:07Z</time>
      </trkpt>
      <trkpt lat="48.65243" lon="7.25343">
        <ele>590</ele>
        <time>2011-08-14T09:34:09Z</time>
      </trkpt>
      <trkpt lat="48.65248" lon="7.25338">
        <ele>590</ele>
        <time>2011-08-14T09:34:11Z</time>
      </trkpt>
      <trkpt lat="48.65253" lon="7.25332">
        <ele>590</ele>
        <time>2011-08-14T09:34:13Z</time>
      </trkpt>
      <trkpt lat="48.65259" lon="7.25326">
        <ele>590</ele>
        <time>2011-08-14T09:34:15Z</time>
      </trkpt>
      <trkpt lat="48.65264" lon="7.25321">
        <ele>590</ele>
        <time>2011-08-14T09:34:17Z</time>
      </trkpt>
      <trkpt lat="48.65269" lon="7.25314">
        <ele>590</ele>
        <time>2011-08-14T09:34:18Z</time>
      </trkpt>
      <trkpt lat="48.65274" lon="7.25309">
        <ele>590</ele>
        <time>2011-08-14T09:34:20Z</time>
      </trkpt>
      <trkpt lat="48.6528" lon="7.25303">
        <ele>590</ele>
        <time>2011-08-14T09:34:22Z</time>
      </trkpt>
      <trkpt lat="48.65286" lon="7.25297">
        <ele>590</ele>
        <time>2011-08-14T09:34:24Z</time>
      </trkpt>
      <trkpt lat="48.65291" lon="7.2529">
        <ele>590</ele>
        <time>2011-08-14T09:34:26Z</time>
      </trkpt>
      <trkpt lat="48.65296" lon="7.25282">
        <ele>590</ele>
        <time>2011-08-14T09:34:28Z</time>
      </trkpt>
      <trkpt lat="48.653" lon="7.25276">
        <ele>590</ele>
        <time>2011-08-14T09:34:30Z</time>
      </trkpt>
      <trkpt lat="48.65305" lon="7.25268">
        <ele>590</ele>
        <time>2011-08-14T09:34:32Z</time>
      </trkpt>
      <trkpt lat="48.65309" lon="7.25262">
        <ele>590</ele>
        <time>2011-08-14T09:34:34Z</time>
      </trkpt>
      <trkpt lat="48.65313" lon="7.25254">
        <ele>590</ele>
        <time>2011-08-14T09:34:36Z</time>
      </trkpt>
      <trkpt lat="48.65317" lon="7.25246">
        <ele>590</ele>
        <time>2011-08-14T09:34:38Z</time>
      </trkpt>
      <trkpt lat="48.65322" lon="7.25238">
        <ele>590</ele>
        <time>2011-08-14T09:34:40Z</time>
      </trkpt>
      <trkpt lat="48.6533" lon="7.25224">
        <ele>590</ele>
        <time>2011-08-14T09:34:44Z</time>
      </trkpt>
      <trkpt lat="48.6533" lon="7.25224">
        <ele>590</ele>
        <time>2011-08-14T09:34:44Z</time>
      </trkpt>
      <trkpt lat="48.6533" lon="7.25224">
        <ele>590</ele>
        <time>2011-08-14T09:34:47Z</time>
      </trkpt>
      <trkpt lat="48.65338" lon="7.25212">
        <ele>590</ele>
        <time>2011-08-14T09:34:48Z</time>
      </trkpt>
      <trkpt lat="48.65343" lon="7.25205">
        <ele>590</ele>
        <time>2011-08-14T09:34:52Z</time>
      </trkpt>
      <trkpt lat="48.65348" lon="7.252">
        <ele>590</ele>
        <time>2011-08-14T09:34:54Z</time>
      </trkpt>
      <trkpt lat="48.65353" lon="7.25195">
        <ele>590</ele>
        <time>2011-08-14T09:34:57Z</time>
      </trkpt>
      <trkpt lat="48.65359" lon="7.25189">
        <ele>590</ele>
        <time>2011-08-14T09:35:00Z</time>
      </trkpt>
      <trkpt lat="48.65364" lon="7.25186">
        <ele>590</ele>
        <time>2011-08-14T09:35:02Z</time>
      </trkpt>
      <trkpt lat="48.6537" lon="7.25182">
        <ele>590</ele>
        <time>2011-08-14T09:35:04Z</time>
      </trkpt>
      <trkpt lat="48.65375" lon="7.25178">
        <ele>590</ele>
        <time>2011-08-14T09:35:06Z</time>
      </trkpt>
      <trkpt lat="48.6538" lon="7.25174">
        <ele>590</ele>
        <time>2011-08-14T09:35:08Z</time>
      </trkpt>
      <trkpt lat="48.65385" lon="7.2517">
        <ele>590</ele>
        <time>2011-08-14T09:35:10Z</time>
      </trkpt>
      <trkpt lat="48.6539" lon="7.25165">
        <ele>589</ele>
        <time>2011-08-14T09:35:12Z</time>
      </trkpt>
      <trkpt lat="48.65395" lon="7.2516">
        <ele>589</ele>
        <time>2011-08-14T09:35:14Z</time>
      </trkpt>
      <trkpt lat="48.654" lon="7.25155">
        <ele>589</ele>
        <time>2011-08-14T09:35:16Z</time>
      </trkpt>
      <trkpt lat="48.65405" lon="7.2515">
        <ele>589</ele>
        <time>2011-08-14T09:35:18Z</time>
      </trkpt>
      <trkpt lat="48.6541" lon="7.25145">
        <ele>589</ele>
        <time>2011-08-14T09:35:20Z</time>
      </trkpt>
      <trkpt lat="48.65415" lon="7.2514">
        <ele>589</ele>
        <time>2011-08-14T09:35:22Z</time>
      </trkpt>
      <trkpt lat="48.6542" lon="7.25134">
        <ele>589</ele>
        <time>2011-08-14T09:35:24Z</time>
      </trkpt>
      <trkpt lat="48.65426" lon="7.2513">
        <ele>589</ele>
        <time>2011-08-14T09:35:26Z</time>
      </trkpt>
      <trkpt lat="48.65431" lon="7.25126">
        <ele>588</ele>
        <time>2011-08-14T09:35:28Z</time>
      </trkpt>
      <trkpt lat="48.65436" lon="7.25122">
        <ele>588</ele>
        <time>2011-08-14T09:35:30Z</time>
      </trkpt>
      <trkpt lat="48.65441" lon="7.25118">
        <ele>588</ele>
        <time>2011-08-14T09:35:32Z</time>
      </trkpt>
      <trkpt lat="48.65447" lon="7.25116">
        <ele>588</ele>
        <time>2011-08-14T09:35:35Z</time>
      </trkpt>
      <trkpt lat="48.65451" lon="7.25117">
        <ele>588</ele>
        <time>2011-08-14T09:35:37Z</time>
      </trkpt>
      <trkpt lat="48.65454" lon="7.25111">
        <ele>588</ele>
        <time>2011-08-14T09:35:51Z</time>
      </trkpt>
      <trkpt lat="48.65456" lon="7.25105">
        <ele>588</ele>
        <time>2011-08-14T09:36:08Z</time>
      </trkpt>
      <trkpt lat="48.65461" lon="7.25105">
        <ele>587</ele>
        <time>2011-08-14T09:36:17Z</time>
      </trkpt>
      <trkpt lat="48.65466" lon="7.25101">
        <ele>587</ele>
        <time>2011-08-14T09:36:21Z</time>
      </trkpt>
      <trkpt lat="48.65471" lon="7.25097">
        <ele>587</ele>
        <time>2011-08-14T09:36:24Z</time>
      </trkpt>
      <trkpt lat="48.65476" lon="7.25092">
        <ele>587</ele>
        <time>2011-08-14T09:36:27Z</time>
      </trkpt>
      <trkpt lat="48.65479" lon="7.25087">
        <ele>587</ele>
        <time>2011-08-14T09:36:30Z</time>
      </trkpt>
      <trkpt lat="48.65484" lon="7.2508">
        <ele>587</ele>
        <time>2011-08-14T09:36:33Z</time>
      </trkpt>
      <trkpt lat="48.65488" lon="7.25074">
        <ele>587</ele>
        <time>2011-08-14T09:36:35Z</time>
      </trkpt>
      <trkpt lat="48.65491" lon="7.2507">
        <ele>586</ele>
        <time>2011-08-14T09:36:37Z</time>
      </trkpt>
      <trkpt lat="48.65495" lon="7.25065">
        <ele>586</ele>
        <time>2011-08-14T09:36:39Z</time>
      </trkpt>
      <trkpt lat="48.65499" lon="7.2506">
        <ele>586</ele>
        <time>2011-08-14T09:36:41Z</time>
      </trkpt>
      <trkpt lat="48.65504" lon="7.25054">
        <ele>586</ele>
        <time>2011-08-14T09:36:43Z</time>
      </trkpt>
      <trkpt lat="48.65509" lon="7.25048">
        <ele>586</ele>
        <time>2011-08-14T09:36:45Z</time>
      </trkpt>
      <trkpt lat="48.65514" lon="7.25042">
        <ele>586</ele>
        <time>2011-08-14T09:36:47Z</time>
      </trkpt>
      <trkpt lat="48.6552" lon="7.25035">
        <ele>586</ele>
        <time>2011-08-14T09:36:49Z</time>
      </trkpt>
      <trkpt lat="48.65526" lon="7.25028">
        <ele>586</ele>
        <time>2011-08-14T09:36:51Z</time>
      </trkpt>
      <trkpt lat="48.65532" lon="7.25021">
        <ele>586</ele>
        <time>2011-08-14T09:36:53Z</time>
      </trkpt>
      <trkpt lat="48.65538" lon="7.25013">
        <ele>586</ele>
        <time>2011-08-14T09:36:55Z</time>
      </trkpt>
      <trkpt lat="48.65544" lon="7.25006">
        <ele>586</ele>
        <time>2011-08-14T09:36:57Z</time>
      </trkpt>
      <trkpt lat="48.65551" lon="7.25">
        <ele>585</ele>
        <time>2011-08-14T09:36:59Z</time>
      </trkpt>
      <trkpt lat="48.65557" lon="7.24995">
        <ele>585</ele>
        <time>2011-08-14T09:37:01Z</time>
      </trkpt>
      <trkpt lat="48.65563" lon="7.2499">
        <ele>585</ele>
        <time>2011-08-14T09:37:03Z</time>
      </trkpt>
      <trkpt lat="48.65568" lon="7.24985">
        <ele>585</ele>
        <time>2011-08-14T09:37:05Z</time>
      </trkpt>
      <trkpt lat="48.65574" lon="7.24981">
        <ele>585</ele>
        <time>2011-08-14T09:37:07Z</time>
      </trkpt>
      <trkpt lat="48.6558" lon="7.24977">
        <ele>585</ele>
        <time>2011-08-14T09:37:09Z</time>
      </trkpt>
      <trkpt lat="48.65585" lon="7.24973">
        <ele>585</ele>
        <time>2011-08-14T09:37:11Z</time>
      </trkpt>
      <trkpt lat="48.65591" lon="7.24968">
        <ele>585</ele>
        <time>2011-08-14T09:37:13Z</time>
      </trkpt>
      <trkpt lat="48.65596" lon="7.24965">
        <ele>585</ele>
        <time>2011-08-14T09:37:15Z</time>
      </trkpt>
      <trkpt lat="48.65602" lon="7.24961">
        <ele>585</ele>
        <time>2011-08-14T09:37:17Z</time>
      </trkpt>
      <trkpt lat="48.65608" lon="7.24958">
        <ele>585</ele>
        <time>2011-08-14T09:37:19Z</time>
      </trkpt>
      <trkpt lat="48.65612" lon="7.24954">
        <ele>585</ele>
        <time>2011-08-14T09:37:21Z</time>
      </trkpt>
      <trkpt lat="48.65617" lon="7.2495">
        <ele>585</ele>
        <time>2011-08-14T09:37:23Z</time>
      </trkpt>
      <trkpt lat="48.65621" lon="7.24947">
        <ele>585</ele>
        <time>2011-08-14T09:37:25Z</time>
      </trkpt>
      <trkpt lat="48.65626" lon="7.24942">
        <ele>585</ele>
        <time>2011-08-14T09:37:27Z</time>
      </trkpt>
      <trkpt lat="48.65632" lon="7.24937">
        <ele>585</ele>
        <time>2011-08-14T09:37:29Z</time>
      </trkpt>
      <trkpt lat="48.65637" lon="7.24932">
        <ele>585</ele>
        <time>2011-08-14T09:37:31Z</time>
      </trkpt>
      <trkpt lat="48.65643" lon="7.24925">
        <ele>585</ele>
        <time>2011-08-14T09:37:33Z</time>
      </trkpt>
      <trkpt lat="48.65653" lon="7.24913">
        <ele>585</ele>
        <time>2011-08-14T09:37:35Z</time>
      </trkpt>
      <trkpt lat="48.65659" lon="7.24906">
        <ele>585</ele>
        <time>2011-08-14T09:37:37Z</time>
      </trkpt>
      <trkpt lat="48.65664" lon="7.24899">
        <ele>585</ele>
        <time>2011-08-14T09:37:39Z</time>
      </trkpt>
      <trkpt lat="48.6567" lon="7.24893">
        <ele>585</ele>
        <time>2011-08-14T09:37:41Z</time>
      </trkpt>
      <trkpt lat="48.65677" lon="7.24889">
        <ele>585</ele>
        <time>2011-08-14T09:37:43Z</time>
      </trkpt>
      <trkpt lat="48.65684" lon="7.24884">
        <ele>584</ele>
        <time>2011-08-14T09:37:45Z</time>
      </trkpt>
      <trkpt lat="48.6569" lon="7.24878">
        <ele>584</ele>
        <time>2011-08-14T09:37:47Z</time>
      </trkpt>
      <trkpt lat="48.65697" lon="7.24872">
        <ele>584</ele>
        <time>2011-08-14T09:37:49Z</time>
      </trkpt>
      <trkpt lat="48.65703" lon="7.24866">
        <ele>584</ele>
        <time>2011-08-14T09:37:51Z</time>
      </trkpt>
      <trkpt lat="48.65709" lon="7.2486">
        <ele>584</ele>
        <time>2011-08-14T09:37:53Z</time>
      </trkpt>
      <trkpt lat="48.65715" lon="7.24854">
        <ele>584</ele>
        <time>2011-08-14T09:37:55Z</time>
      </trkpt>
      <trkpt lat="48.65721" lon="7.24848">
        <ele>584</ele>
        <time>2011-08-14T09:37:57Z</time>
      </trkpt>
      <trkpt lat="48.65728" lon="7.24845">
        <ele>584</ele>
        <time>2011-08-14T09:37:59Z</time>
      </trkpt>
      <trkpt lat="48.65735" lon="7.24842">
        <ele>584</ele>
        <time>2011-08-14T09:38:01Z</time>
      </trkpt>
      <trkpt lat="48.65742" lon="7.24839">
        <ele>584</ele>
        <time>2011-08-14T09:38:03Z</time>
      </trkpt>
      <trkpt lat="48.65748" lon="7.24836">
        <ele>584</ele>
        <time>2011-08-14T09:38:05Z</time>
      </trkpt>
      <trkpt lat="48.65754" lon="7.24832">
        <ele>584</ele>
        <time>2011-08-14T09:38:07Z</time>
      </trkpt>
      <trkpt lat="48.6576" lon="7.24826">
        <ele>584</ele>
        <time>2011-08-14T09:38:09Z</time>
      </trkpt>
      <trkpt lat="48.65765" lon="7.24821">
        <ele>583</ele>
        <time>2011-08-14T09:38:11Z</time>
      </trkpt>
      <trkpt lat="48.65771" lon="7.24816">
        <ele>583</ele>
        <time>2011-08-14T09:38:13Z</time>
      </trkpt>
      <trkpt lat="48.65777" lon="7.24811">
        <ele>583</ele>
        <time>2011-08-14T09:38:15Z</time>
      </trkpt>
      <trkpt lat="48.65784" lon="7.24806">
        <ele>583</ele>
        <time>2011-08-14T09:38:17Z</time>
      </trkpt>
      <trkpt lat="48.65792" lon="7.24803">
        <ele>583</ele>
        <time>2011-08-14T09:38:19Z</time>
      </trkpt>
      <trkpt lat="48.658" lon="7.24799">
        <ele>583</ele>
        <time>2011-08-14T09:38:21Z</time>
      </trkpt>
      <trkpt lat="48.65808" lon="7.24795">
        <ele>583</ele>
        <time>2011-08-14T09:38:23Z</time>
      </trkpt>
      <trkpt lat="48.65816" lon="7.2479">
        <ele>583</ele>
        <time>2011-08-14T09:38:25Z</time>
      </trkpt>
      <trkpt lat="48.65824" lon="7.24786">
        <ele>583</ele>
        <time>2011-08-14T09:38:27Z</time>
      </trkpt>
      <trkpt lat="48.65831" lon="7.24783">
        <ele>582</ele>
        <time>2011-08-14T09:38:29Z</time>
      </trkpt>
      <trkpt lat="48.65839" lon="7.2478">
        <ele>582</ele>
        <time>2011-08-14T09:38:31Z</time>
      </trkpt>
      <trkpt lat="48.65846" lon="7.24779">
        <ele>582</ele>
        <time>2011-08-14T09:38:33Z</time>
      </trkpt>
      <trkpt lat="48.65854" lon="7.24778">
        <ele>582</ele>
        <time>2011-08-14T09:38:35Z</time>
      </trkpt>
      <trkpt lat="48.65863" lon="7.24777">
        <ele>582</ele>
        <time>2011-08-14T09:38:37Z</time>
      </trkpt>
      <trkpt lat="48.65867" lon="7.24777">
        <ele>582</ele>
        <time>2011-08-14T09:38:38Z</time>
      </trkpt>
      <trkpt lat="48.65872" lon="7.24777">
        <ele>582</ele>
        <time>2011-08-14T09:38:39Z</time>
      </trkpt>
      <trkpt lat="48.65881" lon="7.24777">
        <ele>582</ele>
        <time>2011-08-14T09:38:41Z</time>
      </trkpt>
      <trkpt lat="48.65889" lon="7.24778">
        <ele>582</ele>
        <time>2011-08-14T09:38:43Z</time>
      </trkpt>
      <trkpt lat="48.65896" lon="7.2478">
        <ele>582</ele>
        <time>2011-08-14T09:38:45Z</time>
      </trkpt>
      <trkpt lat="48.65903" lon="7.24782">
        <ele>582</ele>
        <time>2011-08-14T09:38:47Z</time>
      </trkpt>
      <trkpt lat="48.65909" lon="7.24784">
        <ele>582</ele>
        <time>2011-08-14T09:38:49Z</time>
      </trkpt>
      <trkpt lat="48.65915" lon="7.24786">
        <ele>582</ele>
        <time>2011-08-14T09:38:51Z</time>
      </trkpt>
      <trkpt lat="48.65921" lon="7.24788">
        <ele>582</ele>
        <time>2011-08-14T09:38:53Z</time>
      </trkpt>
      <trkpt lat="48.65927" lon="7.24789">
        <ele>582</ele>
        <time>2011-08-14T09:38:55Z</time>
      </trkpt>
      <trkpt lat="48.65932" lon="7.2479">
        <ele>581</ele>
        <time>2011-08-14T09:38:58Z</time>
      </trkpt>
      <trkpt lat="48.65929" lon="7.24784">
        <ele>581</ele>
        <time>2011-08-14T09:39:04Z</time>
      </trkpt>
      <trkpt lat="48.65924" lon="7.24783">
        <ele>581</ele>
        <time>2011-08-14T09:39:06Z</time>
      </trkpt>
      <trkpt lat="48.65918" lon="7.24783">
        <ele>581</ele>
        <time>2011-08-14T09:39:09Z</time>
      </trkpt>
      <trkpt lat="48.65913" lon="7.24784">
        <ele>581</ele>
        <time>2011-08-14T09:39:11Z</time>
      </trkpt>
      <trkpt lat="48.65908" lon="7.24787">
        <ele>581</ele>
        <time>2011-08-14T09:39:14Z</time>
      </trkpt>
      <trkpt lat="48.65903" lon="7.24789">
        <ele>581</ele>
        <time>2011-08-14T09:39:18Z</time>
      </trkpt>
      <trkpt lat="48.65898" lon="7.24789">
        <ele>581</ele>
        <time>2011-08-14T09:39:29Z</time>
      </trkpt>
      <trkpt lat="48.65903" lon="7.24788">
        <ele>580</ele>
        <time>2011-08-14T09:39:45Z</time>
      </trkpt>
      <trkpt lat="48.6591" lon="7.24785">
        <ele>580</ele>
        <time>2011-08-14T09:39:47Z</time>
      </trkpt>
      <trkpt lat="48.65917" lon="7.24783">
        <ele>580</ele>
        <time>2011-08-14T09:39:49Z</time>
      </trkpt>
      <trkpt lat="48.65926" lon="7.2478">
        <ele>580</ele>
        <time>2011-08-14T09:39:51Z</time>
      </trkpt>
      <trkpt lat="48.65934" lon="7.24779">
        <ele>580</ele>
        <time>2011-08-14T09:39:53Z</time>
      </trkpt>
      <trkpt lat="48.65942" lon="7.24778">
        <ele>579</ele>
        <time>2011-08-14T09:39:55Z</time>
      </trkpt>
      <trkpt lat="48.6595" lon="7.24778">
        <ele>579</ele>
        <time>2011-08-14T09:39:57Z</time>
      </trkpt>
      <trkpt lat="48.65958" lon="7.24778">
        <ele>579</ele>
        <time>2011-08-14T09:39:59Z</time>
      </trkpt>
      <trkpt lat="48.65965" lon="7.24778">
        <ele>579</ele>
        <time>2011-08-14T09:40:01Z</time>
      </trkpt>
      <trkpt lat="48.65971" lon="7.24779">
        <ele>579</ele>
        <time>2011-08-14T09:40:03Z</time>
      </trkpt>
      <trkpt lat="48.65977" lon="7.2478">
        <ele>579</ele>
        <time>2011-08-14T09:40:05Z</time>
      </trkpt>
      <trkpt lat="48.65981" lon="7.24781">
        <ele>578</ele>
        <time>2011-08-14T09:40:09Z</time>
      </trkpt>
      <trkpt lat="48.65986" lon="7.24777">
        <ele>578</ele>
        <time>2011-08-14T09:40:20Z</time>
      </trkpt>
      <trkpt lat="48.65989" lon="7.2477">
        <ele>577</ele>
        <time>2011-08-14T09:40:23Z</time>
      </trkpt>
      <trkpt lat="48.6599" lon="7.24762">
        <ele>577</ele>
        <time>2011-08-14T09:40:27Z</time>
      </trkpt>
      <trkpt lat="48.65988" lon="7.24752">
        <ele>577</ele>
        <time>2011-08-14T09:40:30Z</time>
      </trkpt>
      <trkpt lat="48.65984" lon="7.24744">
        <ele>576</ele>
        <time>2011-08-14T09:40:32Z</time>
      </trkpt>
      <trkpt lat="48.65977" lon="7.24736">
        <ele>576</ele>
        <time>2011-08-14T09:40:34Z</time>
      </trkpt>
      <trkpt lat="48.65969" lon="7.2473">
        <ele>576</ele>
        <time>2011-08-14T09:40:36Z</time>
      </trkpt>
      <trkpt lat="48.65964" lon="7.24727">
        <ele>575</ele>
        <time>2011-08-14T09:40:37Z</time>
      </trkpt>
      <trkpt lat="48.65959" lon="7.24724">
        <ele>574</ele>
        <time>2011-08-14T09:40:38Z</time>
      </trkpt>
      <trkpt lat="48.65954" lon="7.24722">
        <ele>573</ele>
        <time>2011-08-14T09:40:39Z</time>
      </trkpt>
      <trkpt lat="48.6595" lon="7.2472">
        <ele>572</ele>
        <time>2011-08-14T09:40:40Z</time>
      </trkpt>
      <trkpt lat="48.65945" lon="7.24719">
        <ele>572</ele>
        <time>2011-08-14T09:40:41Z</time>
      </trkpt>
      <trkpt lat="48.6594" lon="7.24718">
        <ele>571</ele>
        <time>2011-08-14T09:40:42Z</time>
      </trkpt>
      <trkpt lat="48.65935" lon="7.24716">
        <ele>571</ele>
        <time>2011-08-14T09:40:43Z</time>
      </trkpt>
      <trkpt lat="48.6593" lon="7.24714">
        <ele>571</ele>
        <time>2011-08-14T09:40:44Z</time>
      </trkpt>
      <trkpt lat="48.65926" lon="7.24712">
        <ele>571</ele>
        <time>2011-08-14T09:40:45Z</time>
      </trkpt>
      <trkpt lat="48.65921" lon="7.24709">
        <ele>570</ele>
        <time>2011-08-14T09:40:46Z</time>
      </trkpt>
      <trkpt lat="48.65916" lon="7.24707">
        <ele>570</ele>
        <time>2011-08-14T09:40:47Z</time>
      </trkpt>
      <trkpt lat="48.65912" lon="7.24705">
        <ele>569</ele>
        <time>2011-08-14T09:40:48Z</time>
      </trkpt>
      <trkpt lat="48.65907" lon="7.24702">
        <ele>568</ele>
        <time>2011-08-14T09:40:49Z</time>
      </trkpt>
      <trkpt lat="48.65902" lon="7.24699">
        <ele>568</ele>
        <time>2011-08-14T09:40:50Z</time>
      </trkpt>
      <trkpt lat="48.65898" lon="7.24696">
        <ele>567</ele>
        <time>2011-08-14T09:40:51Z</time>
      </trkpt>
      <trkpt lat="48.65893" lon="7.24693">
        <ele>566</ele>
        <time>2011-08-14T09:40:52Z</time>
      </trkpt>
      <trkpt lat="48.65888" lon="7.2469">
        <ele>566</ele>
        <time>2011-08-14T09:40:53Z</time>
      </trkpt>
      <trkpt lat="48.65883" lon="7.24688">
        <ele>566</ele>
        <time>2011-08-14T09:40:54Z</time>
      </trkpt>
      <trkpt lat="48.65879" lon="7.24686">
        <ele>565</ele>
        <time>2011-08-14T09:40:55Z</time>
      </trkpt>
      <trkpt lat="48.6587" lon="7.24687">
        <ele>565</ele>
        <time>2011-08-14T09:40:57Z</time>
      </trkpt>
      <trkpt lat="48.65862" lon="7.24689">
        <ele>564</ele>
        <time>2011-08-14T09:40:59Z</time>
      </trkpt>
      <trkpt lat="48.65854" lon="7.2469">
        <ele>564</ele>
        <time>2011-08-14T09:41:01Z</time>
      </trkpt>
      <trkpt lat="48.65846" lon="7.2469">
        <ele>563</ele>
        <time>2011-08-14T09:41:03Z</time>
      </trkpt>
      <trkpt lat="48.65839" lon="7.24691">
        <ele>563</ele>
        <time>2011-08-14T09:41:05Z</time>
      </trkpt>
      <trkpt lat="48.65832" lon="7.24691">
        <ele>563</ele>
        <time>2011-08-14T09:41:07Z</time>
      </trkpt>
      <trkpt lat="48.65826" lon="7.2469">
        <ele>563</ele>
        <time>2011-08-14T09:41:09Z</time>
      </trkpt>
      <trkpt lat="48.65821" lon="7.24686">
        <ele>563</ele>
        <time>2011-08-14T09:41:11Z</time>
      </trkpt>
      <trkpt lat="48.65818" lon="7.24681">
        <ele>563</ele>
        <time>2011-08-14T09:41:13Z</time>
      </trkpt>
      <trkpt lat="48.65814" lon="7.24678">
        <ele>563</ele>
        <time>2011-08-14T09:41:15Z</time>
      </trkpt>
      <trkpt lat="48.6581" lon="7.24673">
        <ele>563</ele>
        <time>2011-08-14T09:41:18Z</time>
      </trkpt>
      <trkpt lat="48.65806" lon="7.24667">
        <ele>563</ele>
        <time>2011-08-14T09:41:26Z</time>
      </trkpt>
      <trkpt lat="48.65803" lon="7.24662">
        <ele>563</ele>
        <time>2011-08-14T09:41:29Z</time>
      </trkpt>
      <trkpt lat="48.65799" lon="7.24658">
        <ele>563</ele>
        <time>2011-08-14T09:41:32Z</time>
      </trkpt>
      <trkpt lat="48.65795" lon="7.24654">
        <ele>563</ele>
        <time>2011-08-14T09:41:35Z</time>
      </trkpt>
      <trkpt lat="48.6579" lon="7.24648">
        <ele>563</ele>
        <time>2011-08-14T09:41:38Z</time>
      </trkpt>
      <trkpt lat="48.65786" lon="7.24643">
        <ele>563</ele>
        <time>2011-08-14T09:41:42Z</time>
      </trkpt>
      <trkpt lat="48.65782" lon="7.24639">
        <ele>562</ele>
        <time>2011-08-14T09:41:46Z</time>
      </trkpt>
      <trkpt lat="48.65778" lon="7.24636">
        <ele>562</ele>
        <time>2011-08-14T09:41:49Z</time>
      </trkpt>
      <trkpt lat="48.65774" lon="7.24632">
        <ele>560</ele>
        <time>2011-08-14T09:41:52Z</time>
      </trkpt>
      <trkpt lat="48.65769" lon="7.24627">
        <ele>560</ele>
        <time>2011-08-14T09:41:56Z</time>
      </trkpt>
      <trkpt lat="48.65765" lon="7.24623">
        <ele>559</ele>
        <time>2011-08-14T09:42:00Z</time>
      </trkpt>
      <trkpt lat="48.6576" lon="7.24618">
        <ele>559</ele>
        <time>2011-08-14T09:42:04Z</time>
      </trkpt>
      <trkpt lat="48.65756" lon="7.24614">
        <ele>557</ele>
        <time>2011-08-14T09:42:07Z</time>
      </trkpt>
      <trkpt lat="48.65752" lon="7.2461">
        <ele>557</ele>
        <time>2011-08-14T09:42:12Z</time>
      </trkpt>
      <trkpt lat="48.65747" lon="7.24607">
        <ele>556</ele>
        <time>2011-08-14T09:42:16Z</time>
      </trkpt>
      <trkpt lat="48.65741" lon="7.24604">
        <ele>555</ele>
        <time>2011-08-14T09:42:34Z</time>
      </trkpt>
      <trkpt lat="48.65736" lon="7.24603">
        <ele>555</ele>
        <time>2011-08-14T09:42:38Z</time>
      </trkpt>
      <trkpt lat="48.65732" lon="7.24601">
        <ele>555</ele>
        <time>2011-08-14T09:42:50Z</time>
      </trkpt>
      <trkpt lat="48.65727" lon="7.24596">
        <ele>555</ele>
        <time>2011-08-14T09:43:04Z</time>
      </trkpt>
      <trkpt lat="48.65722" lon="7.24597">
        <ele>553</ele>
        <time>2011-08-14T09:43:14Z</time>
      </trkpt>
      <trkpt lat="48.65716" lon="7.24592">
        <ele>553</ele>
        <time>2011-08-14T09:43:18Z</time>
      </trkpt>
      <trkpt lat="48.65711" lon="7.24589">
        <ele>553</ele>
        <time>2011-08-14T09:43:21Z</time>
      </trkpt>
      <trkpt lat="48.65707" lon="7.24586">
        <ele>552</ele>
        <time>2011-08-14T09:43:23Z</time>
      </trkpt>
      <trkpt lat="48.657" lon="7.24585">
        <ele>552</ele>
        <time>2011-08-14T09:43:25Z</time>
      </trkpt>
      <trkpt lat="48.65691" lon="7.24587">
        <ele>552</ele>
        <time>2011-08-14T09:43:28Z</time>
      </trkpt>
      <trkpt lat="48.65683" lon="7.24589">
        <ele>552</ele>
        <time>2011-08-14T09:43:30Z</time>
      </trkpt>
      <trkpt lat="48.65674" lon="7.24594">
        <ele>552</ele>
        <time>2011-08-14T09:43:32Z</time>
      </trkpt>
      <trkpt lat="48.65667" lon="7.24597">
        <ele>552</ele>
        <time>2011-08-14T09:43:34Z</time>
      </trkpt>
      <trkpt lat="48.65661" lon="7.24597">
        <ele>552</ele>
        <time>2011-08-14T09:43:36Z</time>
      </trkpt>
      <trkpt lat="48.65654" lon="7.24598">
        <ele>551</ele>
        <time>2011-08-14T09:43:38Z</time>
      </trkpt>
      <trkpt lat="48.6565" lon="7.24603">
        <ele>551</ele>
        <time>2011-08-14T09:43:39Z</time>
      </trkpt>
      <trkpt lat="48.65642" lon="7.24609">
        <ele>551</ele>
        <time>2011-08-14T09:43:41Z</time>
      </trkpt>
      <trkpt lat="48.65636" lon="7.24614">
        <ele>551</ele>
        <time>2011-08-14T09:43:43Z</time>
      </trkpt>
      <trkpt lat="48.65626" lon="7.24626">
        <ele>551</ele>
        <time>2011-08-14T09:43:45Z</time>
      </trkpt>
      <trkpt lat="48.6562" lon="7.24627">
        <ele>551</ele>
        <time>2011-08-14T09:43:48Z</time>
      </trkpt>
      <trkpt lat="48.65614" lon="7.24635">
        <ele>550</ele>
        <time>2011-08-14T09:43:50Z</time>
      </trkpt>
      <trkpt lat="48.6561" lon="7.2464">
        <ele>550</ele>
        <time>2011-08-14T09:43:52Z</time>
      </trkpt>
      <trkpt lat="48.65605" lon="7.24647">
        <ele>550</ele>
        <time>2011-08-14T09:43:54Z</time>
      </trkpt>
      <trkpt lat="48.65601" lon="7.24652">
        <ele>550</ele>
        <time>2011-08-14T09:43:57Z</time>
      </trkpt>
      <trkpt lat="48.65597" lon="7.24658">
        <ele>550</ele>
        <time>2011-08-14T09:44:01Z</time>
      </trkpt>
      <trkpt lat="48.65593" lon="7.2466">
        <ele>548</ele>
        <time>2011-08-14T09:44:07Z</time>
      </trkpt>
      <trkpt lat="48.65597" lon="7.24657">
        <ele>543</ele>
        <time>2011-08-14T09:44:45Z</time>
      </trkpt>
      <trkpt lat="48.65601" lon="7.2465">
        <ele>543</ele>
        <time>2011-08-14T09:44:49Z</time>
      </trkpt>
      <trkpt lat="48.65604" lon="7.24642">
        <ele>542</ele>
        <time>2011-08-14T09:44:52Z</time>
      </trkpt>
      <trkpt lat="48.65607" lon="7.24634">
        <ele>542</ele>
        <time>2011-08-14T09:44:54Z</time>
      </trkpt>
      <trkpt lat="48.6561" lon="7.24624">
        <ele>541</ele>
        <time>2011-08-14T09:44:56Z</time>
      </trkpt>
      <trkpt lat="48.65613" lon="7.24614">
        <ele>541</ele>
        <time>2011-08-14T09:44:58Z</time>
      </trkpt>
      <trkpt lat="48.65616" lon="7.24605">
        <ele>540</ele>
        <time>2011-08-14T09:45:00Z</time>
      </trkpt>
      <trkpt lat="48.65618" lon="7.24596">
        <ele>540</ele>
        <time>2011-08-14T09:45:02Z</time>
      </trkpt>
      <trkpt lat="48.6562" lon="7.24588">
        <ele>539</ele>
        <time>2011-08-14T09:45:04Z</time>
      </trkpt>
      <trkpt lat="48.65623" lon="7.2458">
        <ele>539</ele>
        <time>2011-08-14T09:45:06Z</time>
      </trkpt>
      <trkpt lat="48.65625" lon="7.24572">
        <ele>539</ele>
        <time>2011-08-14T09:45:08Z</time>
      </trkpt>
      <trkpt lat="48.65628" lon="7.24562">
        <ele>538</ele>
        <time>2011-08-14T09:45:10Z</time>
      </trkpt>
      <trkpt lat="48.65631" lon="7.24552">
        <ele>537</ele>
        <time>2011-08-14T09:45:12Z</time>
      </trkpt>
      <trkpt lat="48.65634" lon="7.24543">
        <ele>537</ele>
        <time>2011-08-14T09:45:14Z</time>
      </trkpt>
      <trkpt lat="48.65637" lon="7.24534">
        <ele>536</ele>
        <time>2011-08-14T09:45:16Z</time>
      </trkpt>
      <trkpt lat="48.6564" lon="7.24525">
        <ele>536</ele>
        <time>2011-08-14T09:45:18Z</time>
      </trkpt>
      <trkpt lat="48.65643" lon="7.24516">
        <ele>536</ele>
        <time>2011-08-14T09:45:20Z</time>
      </trkpt>
      <trkpt lat="48.65646" lon="7.24507">
        <ele>535</ele>
        <time>2011-08-14T09:45:22Z</time>
      </trkpt>
      <trkpt lat="48.65649" lon="7.24499">
        <ele>535</ele>
        <time>2011-08-14T09:45:24Z</time>
      </trkpt>
      <trkpt lat="48.65651" lon="7.24491">
        <ele>534</ele>
        <time>2011-08-14T09:45:26Z</time>
      </trkpt>
      <trkpt lat="48.65654" lon="7.24483">
        <ele>534</ele>
        <time>2011-08-14T09:45:28Z</time>
      </trkpt>
      <trkpt lat="48.65657" lon="7.24476">
        <ele>534</ele>
        <time>2011-08-14T09:45:30Z</time>
      </trkpt>
      <trkpt lat="48.65659" lon="7.24468">
        <ele>533</ele>
        <time>2011-08-14T09:45:32Z</time>
      </trkpt>
      <trkpt lat="48.65664" lon="7.24462">
        <ele>533</ele>
        <time>2011-08-14T09:45:35Z</time>
      </trkpt>
      <trkpt lat="48.65664" lon="7.24454">
        <ele>532</ele>
        <time>2011-08-14T09:45:40Z</time>
      </trkpt>
      <trkpt lat="48.65663" lon="7.24447">
        <ele>532</ele>
        <time>2011-08-14T09:45:44Z</time>
      </trkpt>
      <trkpt lat="48.65659" lon="7.24441">
        <ele>532</ele>
        <time>2011-08-14T09:45:48Z</time>
      </trkpt>
      <trkpt lat="48.65657" lon="7.24435">
        <ele>532</ele>
        <time>2011-08-14T09:45:53Z</time>
      </trkpt>
      <trkpt lat="48.65656" lon="7.24442">
        <ele>531</ele>
        <time>2011-08-14T09:46:03Z</time>
      </trkpt>
      <trkpt lat="48.65654" lon="7.24448">
        <ele>531</ele>
        <time>2011-08-14T09:46:10Z</time>
      </trkpt>
      <trkpt lat="48.65652" lon="7.24455">
        <ele>531</ele>
        <time>2011-08-14T09:46:14Z</time>
      </trkpt>
      <trkpt lat="48.6565" lon="7.24463">
        <ele>531</ele>
        <time>2011-08-14T09:46:18Z</time>
      </trkpt>
      <trkpt lat="48.6565" lon="7.2447">
        <ele>531</ele>
        <time>2011-08-14T09:46:22Z</time>
      </trkpt>
      <trkpt lat="48.6565" lon="7.24479">
        <ele>531</ele>
        <time>2011-08-14T09:46:26Z</time>
      </trkpt>
      <trkpt lat="48.65651" lon="7.24487">
        <ele>531</ele>
        <time>2011-08-14T09:46:30Z</time>
      </trkpt>
      <trkpt lat="48.65652" lon="7.24494">
        <ele>531</ele>
        <time>2011-08-14T09:46:35Z</time>
      </trkpt>
      <trkpt lat="48.65653" lon="7.245">
        <ele>531</ele>
        <time>2011-08-14T09:46:41Z</time>
      </trkpt>
      <trkpt lat="48.65654" lon="7.24508">
        <ele>531</ele>
        <time>2011-08-14T09:46:47Z</time>
      </trkpt>
      <trkpt lat="48.65656" lon="7.24514">
        <ele>531</ele>
        <time>2011-08-14T09:46:57Z</time>
      </trkpt>
      <trkpt lat="48.65658" lon="7.24509">
        <ele>531</ele>
        <time>2011-08-14T09:47:09Z</time>
      </trkpt>
      <trkpt lat="48.65663" lon="7.24506">
        <ele>531</ele>
        <time>2011-08-14T09:47:15Z</time>
      </trkpt>
      <trkpt lat="48.65667" lon="7.24503">
        <ele>531</ele>
        <time>2011-08-14T09:47:23Z</time>
      </trkpt>
      <trkpt lat="48.65667" lon="7.24496">
        <ele>531</ele>
        <time>2011-08-14T09:47:41Z</time>
      </trkpt>
      <trkpt lat="48.65667" lon="7.24486">
        <ele>531</ele>
        <time>2011-08-14T09:47:52Z</time>
      </trkpt>
      <trkpt lat="48.65666" lon="7.2448">
        <ele>531</ele>
        <time>2011-08-14T09:47:59Z</time>
      </trkpt>
      <trkpt lat="48.65662" lon="7.24473">
        <ele>531</ele>
        <time>2011-08-14T09:48:10Z</time>
      </trkpt>
      <trkpt lat="48.65658" lon="7.24473">
        <ele>531</ele>
        <time>2011-08-14T09:48:21Z</time>
      </trkpt>
      <trkpt lat="48.65653" lon="7.24471">
        <ele>530</ele>
        <time>2011-08-14T09:48:29Z</time>
      </trkpt>
      <trkpt lat="48.65648" lon="7.24471">
        <ele>530</ele>
        <time>2011-08-14T09:48:35Z</time>
      </trkpt>
      <trkpt lat="48.65644" lon="7.24466">
        <ele>530</ele>
        <time>2011-08-14T09:48:40Z</time>
      </trkpt>
      <trkpt lat="48.65637" lon="7.24463">
        <ele>530</ele>
        <time>2011-08-14T09:48:43Z</time>
      </trkpt>
      <trkpt lat="48.65631" lon="7.24463">
        <ele>530</ele>
        <time>2011-08-14T09:48:47Z</time>
      </trkpt>
      <trkpt lat="48.65626" lon="7.24464">
        <ele>530</ele>
        <time>2011-08-14T09:48:51Z</time>
      </trkpt>
      <trkpt lat="48.65621" lon="7.24464">
        <ele>530</ele>
        <time>2011-08-14T09:48:56Z</time>
      </trkpt>
      <trkpt lat="48.65616" lon="7.24464">
        <ele>530</ele>
        <time>2011-08-14T09:49:01Z</time>
      </trkpt>
      <trkpt lat="48.65612" lon="7.24464">
        <ele>530</ele>
        <time>2011-08-14T09:49:05Z</time>
      </trkpt>
      <trkpt lat="48.65606" lon="7.24462">
        <ele>530</ele>
        <time>2011-08-14T09:49:09Z</time>
      </trkpt>
      <trkpt lat="48.65601" lon="7.2446">
        <ele>530</ele>
        <time>2011-08-14T09:49:12Z</time>
      </trkpt>
      <trkpt lat="48.65596" lon="7.24458">
        <ele>530</ele>
        <time>2011-08-14T09:49:17Z</time>
      </trkpt>
      <trkpt lat="48.65594" lon="7.24465">
        <ele>529</ele>
        <time>2011-08-14T09:49:21Z</time>
      </trkpt>
      <trkpt lat="48.65594" lon="7.24474">
        <ele>529</ele>
        <time>2011-08-14T09:49:24Z</time>
      </trkpt>
      <trkpt lat="48.65592" lon="7.24494">
        <ele>529</ele>
        <time>2011-08-14T09:49:25Z</time>
      </trkpt>
      <trkpt lat="48.65588" lon="7.24498">
        <ele>528</ele>
        <time>2011-08-14T09:49:28Z</time>
      </trkpt>
      <trkpt lat="48.65584" lon="7.245">
        <ele>528</ele>
        <time>2011-08-14T09:49:32Z</time>
      </trkpt>
      <trkpt lat="48.65579" lon="7.24501">
        <ele>527</ele>
        <time>2011-08-14T09:49:39Z</time>
      </trkpt>
      <trkpt lat="48.65574" lon="7.24497">
        <ele>527</ele>
        <time>2011-08-14T09:49:46Z</time>
      </trkpt>
      <trkpt lat="48.65571" lon="7.24491">
        <ele>527</ele>
        <time>2011-08-14T09:49:58Z</time>
      </trkpt>
      <trkpt lat="48.65567" lon="7.24493">
        <ele>527</ele>
        <time>2011-08-14T09:50:13Z</time>
      </trkpt>
      <trkpt lat="48.65564" lon="7.24487">
        <ele>528</ele>
        <time>2011-08-14T09:50:32Z</time>
      </trkpt>
      <trkpt lat="48.65562" lon="7.24481">
        <ele>529</ele>
        <time>2011-08-14T09:50:56Z</time>
      </trkpt>
      <trkpt lat="48.6556" lon="7.24474">
        <ele>529</ele>
        <time>2011-08-14T09:51:08Z</time>
      </trkpt>
      <trkpt lat="48.6556" lon="7.24466">
        <ele>529</ele>
        <time>2011-08-14T09:51:16Z</time>
      </trkpt>
      <trkpt lat="48.65559" lon="7.24459">
        <ele>530</ele>
        <time>2011-08-14T09:51:23Z</time>
      </trkpt>
      <trkpt lat="48.6556" lon="7.24451">
        <ele>530</ele>
        <time>2011-08-14T09:51:30Z</time>
      </trkpt>
      <trkpt lat="48.65561" lon="7.24444">
        <ele>530</ele>
        <time>2011-08-14T09:51:35Z</time>
      </trkpt>
      <trkpt lat="48.65562" lon="7.24436">
        <ele>530</ele>
        <time>2011-08-14T09:51:39Z</time>
      </trkpt>
      <trkpt lat="48.65563" lon="7.24429">
        <ele>531</ele>
        <time>2011-08-14T09:51:44Z</time>
      </trkpt>
      <trkpt lat="48.65565" lon="7.24422">
        <ele>531</ele>
        <time>2011-08-14T09:51:48Z</time>
      </trkpt>
      <trkpt lat="48.65566" lon="7.24416">
        <ele>531</ele>
        <time>2011-08-14T09:51:52Z</time>
      </trkpt>
      <trkpt lat="48.65567" lon="7.24408">
        <ele>531</ele>
        <time>2011-08-14T09:51:56Z</time>
      </trkpt>
      <trkpt lat="48.65569" lon="7.24401">
        <ele>531</ele>
        <time>2011-08-14T09:52:00Z</time>
      </trkpt>
      <trkpt lat="48.65571" lon="7.24394">
        <ele>531</ele>
        <time>2011-08-14T09:52:04Z</time>
      </trkpt>
      <trkpt lat="48.65572" lon="7.24387">
        <ele>531</ele>
        <time>2011-08-14T09:52:08Z</time>
      </trkpt>
      <trkpt lat="48.65574" lon="7.24379">
        <ele>532</ele>
        <time>2011-08-14T09:52:12Z</time>
      </trkpt>
      <trkpt lat="48.65577" lon="7.24372">
        <ele>532</ele>
        <time>2011-08-14T09:52:16Z</time>
      </trkpt>
      <trkpt lat="48.6558" lon="7.24366">
        <ele>532</ele>
        <time>2011-08-14T09:52:19Z</time>
      </trkpt>
      <trkpt lat="48.65584" lon="7.2436">
        <ele>532</ele>
        <time>2011-08-14T09:52:22Z</time>
      </trkpt>
      <trkpt lat="48.65586" lon="7.24354">
        <ele>532</ele>
        <time>2011-08-14T09:52:26Z</time>
      </trkpt>
      <trkpt lat="48.65589" lon="7.24348">
        <ele>532</ele>
        <time>2011-08-14T09:52:30Z</time>
      </trkpt>
      <trkpt lat="48.65593" lon="7.24343">
        <ele>532</ele>
        <time>2011-08-14T09:52:33Z</time>
      </trkpt>
      <trkpt lat="48.65597" lon="7.24337">
        <ele>532</ele>
        <time>2011-08-14T09:52:36Z</time>
      </trkpt>
      <trkpt lat="48.65602" lon="7.24331">
        <ele>532</ele>
        <time>2011-08-14T09:52:39Z</time>
      </trkpt>
      <trkpt lat="48.65606" lon="7.24326">
        <ele>532</ele>
        <time>2011-08-14T09:52:41Z</time>
      </trkpt>
      <trkpt lat="48.6561" lon="7.24321">
        <ele>532</ele>
        <time>2011-08-14T09:52:43Z</time>
      </trkpt>
      <trkpt lat="48.65616" lon="7.24316">
        <ele>532</ele>
        <time>2011-08-14T09:52:45Z</time>
      </trkpt>
      <trkpt lat="48.65621" lon="7.2431">
        <ele>532</ele>
        <time>2011-08-14T09:52:47Z</time>
      </trkpt>
      <trkpt lat="48.6563" lon="7.24302">
        <ele>532</ele>
        <time>2011-08-14T09:52:49Z</time>
      </trkpt>
      <trkpt lat="48.65633" lon="7.24298">
        <ele>532</ele>
        <time>2011-08-14T09:52:51Z</time>
      </trkpt>
      <trkpt lat="48.65637" lon="7.24295">
        <ele>532</ele>
        <time>2011-08-14T09:52:52Z</time>
      </trkpt>
      <trkpt lat="48.65642" lon="7.24292">
        <ele>532</ele>
        <time>2011-08-14T09:52:53Z</time>
      </trkpt>
      <trkpt lat="48.65648" lon="7.24288">
        <ele>532</ele>
        <time>2011-08-14T09:52:54Z</time>
      </trkpt>
      <trkpt lat="48.65653" lon="7.24282">
        <ele>532</ele>
        <time>2011-08-14T09:52:55Z</time>
      </trkpt>
      <trkpt lat="48.65658" lon="7.24276">
        <ele>532</ele>
        <time>2011-08-14T09:52:56Z</time>
      </trkpt>
      <trkpt lat="48.65661" lon="7.24271">
        <ele>532</ele>
        <time>2011-08-14T09:52:57Z</time>
      </trkpt>
      <trkpt lat="48.65666" lon="7.24262">
        <ele>532</ele>
        <time>2011-08-14T09:52:59Z</time>
      </trkpt>
      <trkpt lat="48.6567" lon="7.24254">
        <ele>531</ele>
        <time>2011-08-14T09:53:01Z</time>
      </trkpt>
      <trkpt lat="48.65672" lon="7.24247">
        <ele>531</ele>
        <time>2011-08-14T09:53:03Z</time>
      </trkpt>
      <trkpt lat="48.65674" lon="7.24238">
        <ele>530</ele>
        <time>2011-08-14T09:53:06Z</time>
      </trkpt>
      <trkpt lat="48.65675" lon="7.24231">
        <ele>530</ele>
        <time>2011-08-14T09:53:09Z</time>
      </trkpt>
      <trkpt lat="48.65674" lon="7.24223">
        <ele>530</ele>
        <time>2011-08-14T09:53:13Z</time>
      </trkpt>
      <trkpt lat="48.65673" lon="7.24216">
        <ele>529</ele>
        <time>2011-08-14T09:53:18Z</time>
      </trkpt>
      <trkpt lat="48.65672" lon="7.24209">
        <ele>528</ele>
        <time>2011-08-14T09:53:24Z</time>
      </trkpt>
      <trkpt lat="48.65669" lon="7.24203">
        <ele>527</ele>
        <time>2011-08-14T09:53:32Z</time>
      </trkpt>
      <trkpt lat="48.65666" lon="7.24197">
        <ele>526</ele>
        <time>2011-08-14T09:53:38Z</time>
      </trkpt>
      <trkpt lat="48.65664" lon="7.24189">
        <ele>523</ele>
        <time>2011-08-14T09:54:07Z</time>
      </trkpt>
      <trkpt lat="48.65663" lon="7.24182">
        <ele>522</ele>
        <time>2011-08-14T09:54:13Z</time>
      </trkpt>
      <trkpt lat="48.65658" lon="7.2418">
        <ele>520</ele>
        <time>2011-08-14T09:54:32Z</time>
      </trkpt>
      <trkpt lat="48.65654" lon="7.24178">
        <ele>519</ele>
        <time>2011-08-14T09:54:38Z</time>
      </trkpt>
      <trkpt lat="48.65649" lon="7.24174">
        <ele>518</ele>
        <time>2011-08-14T09:54:43Z</time>
      </trkpt>
      <trkpt lat="48.65645" lon="7.24171">
        <ele>518</ele>
        <time>2011-08-14T09:54:47Z</time>
      </trkpt>
      <trkpt lat="48.6564" lon="7.24168">
        <ele>518</ele>
        <time>2011-08-14T09:54:51Z</time>
      </trkpt>
      <trkpt lat="48.65634" lon="7.24164">
        <ele>517</ele>
        <time>2011-08-14T09:54:55Z</time>
      </trkpt>
      <trkpt lat="48.65629" lon="7.24161">
        <ele>517</ele>
        <time>2011-08-14T09:54:59Z</time>
      </trkpt>
      <trkpt lat="48.65624" lon="7.24157">
        <ele>517</ele>
        <time>2011-08-14T09:55:03Z</time>
      </trkpt>
      <trkpt lat="48.6562" lon="7.24154">
        <ele>517</ele>
        <time>2011-08-14T09:55:06Z</time>
      </trkpt>
      <trkpt lat="48.65614" lon="7.24154">
        <ele>517</ele>
        <time>2011-08-14T09:55:09Z</time>
      </trkpt>
      <trkpt lat="48.65609" lon="7.24155">
        <ele>517</ele>
        <time>2011-08-14T09:55:11Z</time>
      </trkpt>
      <trkpt lat="48.65603" lon="7.24155">
        <ele>517</ele>
        <time>2011-08-14T09:55:14Z</time>
      </trkpt>
      <trkpt lat="48.65597" lon="7.24154">
        <ele>517</ele>
        <time>2011-08-14T09:55:17Z</time>
      </trkpt>
      <trkpt lat="48.65591" lon="7.24152">
        <ele>517</ele>
        <time>2011-08-14T09:55:20Z</time>
      </trkpt>
      <trkpt lat="48.65586" lon="7.2415">
        <ele>517</ele>
        <time>2011-08-14T09:55:23Z</time>
      </trkpt>
      <trkpt lat="48.6558" lon="7.24148">
        <ele>517</ele>
        <time>2011-08-14T09:55:26Z</time>
      </trkpt>
      <trkpt lat="48.65575" lon="7.24144">
        <ele>517</ele>
        <time>2011-08-14T09:55:29Z</time>
      </trkpt>
      <trkpt lat="48.6557" lon="7.2414">
        <ele>517</ele>
        <time>2011-08-14T09:55:32Z</time>
      </trkpt>
      <trkpt lat="48.65566" lon="7.24135">
        <ele>517</ele>
        <time>2011-08-14T09:55:35Z</time>
      </trkpt>
      <trkpt lat="48.65562" lon="7.24131">
        <ele>517</ele>
        <time>2011-08-14T09:55:38Z</time>
      </trkpt>
      <trkpt lat="48.65558" lon="7.24126">
        <ele>517</ele>
        <time>2011-08-14T09:55:41Z</time>
      </trkpt>
      <trkpt lat="48.65553" lon="7.24122">
        <ele>517</ele>
        <time>2011-08-14T09:55:44Z</time>
      </trkpt>
      <trkpt lat="48.65548" lon="7.24118">
        <ele>517</ele>
        <time>2011-08-14T09:55:47Z</time>
      </trkpt>
      <trkpt lat="48.65542" lon="7.24116">
        <ele>517</ele>
        <time>2011-08-14T09:55:50Z</time>
      </trkpt>
      <trkpt lat="48.65537" lon="7.24114">
        <ele>517</ele>
        <time>2011-08-14T09:55:53Z</time>
      </trkpt>
      <trkpt lat="48.65531" lon="7.24112">
        <ele>517</ele>
        <time>2011-08-14T09:55:56Z</time>
      </trkpt>
      <trkpt lat="48.65526" lon="7.24111">
        <ele>517</ele>
        <time>2011-08-14T09:55:59Z</time>
      </trkpt>
      <trkpt lat="48.65521" lon="7.2411">
        <ele>517</ele>
        <time>2011-08-14T09:56:02Z</time>
      </trkpt>
      <trkpt lat="48.65517" lon="7.24109">
        <ele>517</ele>
        <time>2011-08-14T09:56:05Z</time>
      </trkpt>
      <trkpt lat="48.65512" lon="7.24109">
        <ele>517</ele>
        <time>2011-08-14T09:56:08Z</time>
      </trkpt>
      <trkpt lat="48.65507" lon="7.24108">
        <ele>517</ele>
        <time>2011-08-14T09:56:11Z</time>
      </trkpt>
      <trkpt lat="48.65502" lon="7.24109">
        <ele>517</ele>
        <time>2011-08-14T09:56:14Z</time>
      </trkpt>
      <trkpt lat="48.65497" lon="7.2411">
        <ele>517</ele>
        <time>2011-08-14T09:56:16Z</time>
      </trkpt>
      <trkpt lat="48.65491" lon="7.2411">
        <ele>517</ele>
        <time>2011-08-14T09:56:18Z</time>
      </trkpt>
      <trkpt lat="48.65486" lon="7.2411">
        <ele>517</ele>
        <time>2011-08-14T09:56:20Z</time>
      </trkpt>
      <trkpt lat="48.6548" lon="7.24109">
        <ele>517</ele>
        <time>2011-08-14T09:56:22Z</time>
      </trkpt>
      <trkpt lat="48.65474" lon="7.24106">
        <ele>516</ele>
        <time>2011-08-14T09:56:24Z</time>
      </trkpt>
      <trkpt lat="48.65468" lon="7.24103">
        <ele>516</ele>
        <time>2011-08-14T09:56:26Z</time>
      </trkpt>
      <trkpt lat="48.65463" lon="7.24102">
        <ele>516</ele>
        <time>2011-08-14T09:56:28Z</time>
      </trkpt>
      <trkpt lat="48.65458" lon="7.24101">
        <ele>516</ele>
        <time>2011-08-14T09:56:32Z</time>
      </trkpt>
      <trkpt lat="48.65454" lon="7.24097">
        <ele>516</ele>
        <time>2011-08-14T09:56:35Z</time>
      </trkpt>
      <trkpt lat="48.6545" lon="7.24092">
        <ele>516</ele>
        <time>2011-08-14T09:56:37Z</time>
      </trkpt>
      <trkpt lat="48.65446" lon="7.24085">
        <ele>516</ele>
        <time>2011-08-14T09:56:39Z</time>
      </trkpt>
      <trkpt lat="48.65443" lon="7.24077">
        <ele>516</ele>
        <time>2011-08-14T09:56:41Z</time>
      </trkpt>
      <trkpt lat="48.65442" lon="7.24069">
        <ele>516</ele>
        <time>2011-08-14T09:56:43Z</time>
      </trkpt>
      <trkpt lat="48.65442" lon="7.24061">
        <ele>516</ele>
        <time>2011-08-14T09:56:45Z</time>
      </trkpt>
      <trkpt lat="48.65443" lon="7.24053">
        <ele>516</ele>
        <time>2011-08-14T09:56:47Z</time>
      </trkpt>
      <trkpt lat="48.65444" lon="7.24044">
        <ele>516</ele>
        <time>2011-08-14T09:56:49Z</time>
      </trkpt>
      <trkpt lat="48.65445" lon="7.24032">
        <ele>516</ele>
        <time>2011-08-14T09:56:51Z</time>
      </trkpt>
      <trkpt lat="48.65446" lon="7.24018">
        <ele>516</ele>
        <time>2011-08-14T09:56:53Z</time>
      </trkpt>
      <trkpt lat="48.65446" lon="7.24005">
        <ele>517</ele>
        <time>2011-08-14T09:56:55Z</time>
      </trkpt>
      <trkpt lat="48.65446" lon="7.23992">
        <ele>517</ele>
        <time>2011-08-14T09:56:57Z</time>
      </trkpt>
      <trkpt lat="48.65445" lon="7.23979">
        <ele>517</ele>
        <time>2011-08-14T09:56:59Z</time>
      </trkpt>
      <trkpt lat="48.65444" lon="7.23965">
        <ele>517</ele>
        <time>2011-08-14T09:57:01Z</time>
      </trkpt>
      <trkpt lat="48.65443" lon="7.23952">
        <ele>517</ele>
        <time>2011-08-14T09:57:03Z</time>
      </trkpt>
      <trkpt lat="48.65442" lon="7.23939">
        <ele>517</ele>
        <time>2011-08-14T09:57:05Z</time>
      </trkpt>
      <trkpt lat="48.65442" lon="7.23925">
        <ele>517</ele>
        <time>2011-08-14T09:57:07Z</time>
      </trkpt>
      <trkpt lat="48.65441" lon="7.23913">
        <ele>517</ele>
        <time>2011-08-14T09:57:09Z</time>
      </trkpt>
      <trkpt lat="48.6544" lon="7.23901">
        <ele>517</ele>
        <time>2011-08-14T09:57:11Z</time>
      </trkpt>
      <trkpt lat="48.65438" lon="7.2389">
        <ele>517</ele>
        <time>2011-08-14T09:57:13Z</time>
      </trkpt>
      <trkpt lat="48.65436" lon="7.23879">
        <ele>518</ele>
        <time>2011-08-14T09:57:15Z</time>
      </trkpt>
      <trkpt lat="48.65434" lon="7.23869">
        <ele>518</ele>
        <time>2011-08-14T09:57:17Z</time>
      </trkpt>
      <trkpt lat="48.65432" lon="7.23859">
        <ele>518</ele>
        <time>2011-08-14T09:57:19Z</time>
      </trkpt>
      <trkpt lat="48.6543" lon="7.23849">
        <ele>518</ele>
        <time>2011-08-14T09:57:21Z</time>
      </trkpt>
      <trkpt lat="48.65428" lon="7.23839">
        <ele>518</ele>
        <time>2011-08-14T09:57:23Z</time>
      </trkpt>
      <trkpt lat="48.65426" lon="7.2383">
        <ele>518</ele>
        <time>2011-08-14T09:57:25Z</time>
      </trkpt>
      <trkpt lat="48.65423" lon="7.2382">
        <ele>518</ele>
        <time>2011-08-14T09:57:27Z</time>
      </trkpt>
      <trkpt lat="48.65421" lon="7.23811">
        <ele>518</ele>
        <time>2011-08-14T09:57:29Z</time>
      </trkpt>
      <trkpt lat="48.65418" lon="7.23801">
        <ele>518</ele>
        <time>2011-08-14T09:57:31Z</time>
      </trkpt>
      <trkpt lat="48.65416" lon="7.23791">
        <ele>518</ele>
        <time>2011-08-14T09:57:33Z</time>
      </trkpt>
      <trkpt lat="48.65413" lon="7.23781">
        <ele>518</ele>
        <time>2011-08-14T09:57:35Z</time>
      </trkpt>
      <trkpt lat="48.6541" lon="7.23771">
        <ele>518</ele>
        <time>2011-08-14T09:57:37Z</time>
      </trkpt>
      <trkpt lat="48.65407" lon="7.2376">
        <ele>518</ele>
        <time>2011-08-14T09:57:39Z</time>
      </trkpt>
      <trkpt lat="48.65406" lon="7.2375">
        <ele>518</ele>
        <time>2011-08-14T09:57:41Z</time>
      </trkpt>
      <trkpt lat="48.65404" lon="7.2374">
        <ele>518</ele>
        <time>2011-08-14T09:57:43Z</time>
      </trkpt>
      <trkpt lat="48.65402" lon="7.2373">
        <ele>519</ele>
        <time>2011-08-14T09:57:45Z</time>
      </trkpt>
      <trkpt lat="48.654" lon="7.23719">
        <ele>519</ele>
        <time>2011-08-14T09:57:47Z</time>
      </trkpt>
      <trkpt lat="48.65399" lon="7.23709">
        <ele>519</ele>
        <time>2011-08-14T09:57:49Z</time>
      </trkpt>
      <trkpt lat="48.65398" lon="7.23698">
        <ele>519</ele>
        <time>2011-08-14T09:57:51Z</time>
      </trkpt>
      <trkpt lat="48.65397" lon="7.23689">
        <ele>519</ele>
        <time>2011-08-14T09:57:53Z</time>
      </trkpt>
      <trkpt lat="48.65397" lon="7.23679">
        <ele>519</ele>
        <time>2011-08-14T09:57:55Z</time>
      </trkpt>
      <trkpt lat="48.65396" lon="7.2367">
        <ele>519</ele>
        <time>2011-08-14T09:57:57Z</time>
      </trkpt>
      <trkpt lat="48.65395" lon="7.2366">
        <ele>520</ele>
        <time>2011-08-14T09:57:59Z</time>
      </trkpt>
      <trkpt lat="48.65392" lon="7.23654">
        <ele>520</ele>
        <time>2011-08-14T09:58:04Z</time>
      </trkpt>
      <trkpt lat="48.6539" lon="7.23646">
        <ele>521</ele>
        <time>2011-08-14T09:58:07Z</time>
      </trkpt>
      <trkpt lat="48.65388" lon="7.23639">
        <ele>521</ele>
        <time>2011-08-14T09:58:09Z</time>
      </trkpt>
      <trkpt lat="48.65385" lon="7.23633">
        <ele>521</ele>
        <time>2011-08-14T09:58:11Z</time>
      </trkpt>
      <trkpt lat="48.65382" lon="7.23626">
        <ele>521</ele>
        <time>2011-08-14T09:58:13Z</time>
      </trkpt>
      <trkpt lat="48.65378" lon="7.23621">
        <ele>521</ele>
        <time>2011-08-14T09:58:15Z</time>
      </trkpt>
      <trkpt lat="48.65376" lon="7.23615">
        <ele>522</ele>
        <time>2011-08-14T09:58:17Z</time>
      </trkpt>
      <trkpt lat="48.65372" lon="7.23609">
        <ele>522</ele>
        <time>2011-08-14T09:58:19Z</time>
      </trkpt>
      <trkpt lat="48.65368" lon="7.23603">
        <ele>522</ele>
        <time>2011-08-14T09:58:21Z</time>
      </trkpt>
      <trkpt lat="48.65363" lon="7.23595">
        <ele>522</ele>
        <time>2011-08-14T09:58:23Z</time>
      </trkpt>
      <trkpt lat="48.65359" lon="7.23589">
        <ele>522</ele>
        <time>2011-08-14T09:58:25Z</time>
      </trkpt>
      <trkpt lat="48.65355" lon="7.23581">
        <ele>522</ele>
        <time>2011-08-14T09:58:27Z</time>
      </trkpt>
      <trkpt lat="48.65352" lon="7.23572">
        <ele>522</ele>
        <time>2011-08-14T09:58:29Z</time>
      </trkpt>
      <trkpt lat="48.65351" lon="7.23563">
        <ele>522</ele>
        <time>2011-08-14T09:58:31Z</time>
      </trkpt>
      <trkpt lat="48.65349" lon="7.23553">
        <ele>523</ele>
        <time>2011-08-14T09:58:34Z</time>
      </trkpt>
      <trkpt lat="48.65348" lon="7.23545">
        <ele>523</ele>
        <time>2011-08-14T09:58:36Z</time>
      </trkpt>
      <trkpt lat="48.65347" lon="7.23537">
        <ele>523</ele>
        <time>2011-08-14T09:58:38Z</time>
      </trkpt>
      <trkpt lat="48.65348" lon="7.23529">
        <ele>523</ele>
        <time>2011-08-14T09:58:40Z</time>
      </trkpt>
      <trkpt lat="48.65352" lon="7.23521">
        <ele>523</ele>
        <time>2011-08-14T09:58:42Z</time>
      </trkpt>
      <trkpt lat="48.65359" lon="7.23515">
        <ele>523</ele>
        <time>2011-08-14T09:58:44Z</time>
      </trkpt>
      <trkpt lat="48.65367" lon="7.2351">
        <ele>523</ele>
        <time>2011-08-14T09:58:46Z</time>
      </trkpt>
      <trkpt lat="48.65374" lon="7.23506">
        <ele>523</ele>
        <time>2011-08-14T09:58:48Z</time>
      </trkpt>
      <trkpt lat="48.65381" lon="7.23503">
        <ele>523</ele>
        <time>2011-08-14T09:58:50Z</time>
      </trkpt>
      <trkpt lat="48.65386" lon="7.23501">
        <ele>523</ele>
        <time>2011-08-14T09:58:52Z</time>
      </trkpt>
      <trkpt lat="48.65392" lon="7.235">
        <ele>523</ele>
        <time>2011-08-14T09:58:54Z</time>
      </trkpt>
      <trkpt lat="48.65396" lon="7.23498">
        <ele>523</ele>
        <time>2011-08-14T09:58:56Z</time>
      </trkpt>
      <trkpt lat="48.65401" lon="7.23494">
        <ele>522</ele>
        <time>2011-08-14T09:58:59Z</time>
      </trkpt>
      <trkpt lat="48.65405" lon="7.23489">
        <ele>522</ele>
        <time>2011-08-14T09:59:02Z</time>
      </trkpt>
      <trkpt lat="48.65406" lon="7.23482">
        <ele>522</ele>
        <time>2011-08-14T09:59:05Z</time>
      </trkpt>
      <trkpt lat="48.65407" lon="7.23475">
        <ele>522</ele>
        <time>2011-08-14T09:59:08Z</time>
      </trkpt>
      <trkpt lat="48.65407" lon="7.23468">
        <ele>522</ele>
        <time>2011-08-14T09:59:11Z</time>
      </trkpt>
      <trkpt lat="48.65405" lon="7.23461">
        <ele>522</ele>
        <time>2011-08-14T09:59:15Z</time>
      </trkpt>
      <trkpt lat="48.65404" lon="7.23454">
        <ele>522</ele>
        <time>2011-08-14T09:59:20Z</time>
      </trkpt>
      <trkpt lat="48.65403" lon="7.23445">
        <ele>522</ele>
        <time>2011-08-14T09:59:24Z</time>
      </trkpt>
      <trkpt lat="48.65403" lon="7.23436">
        <ele>522</ele>
        <time>2011-08-14T09:59:27Z</time>
      </trkpt>
      <trkpt lat="48.65403" lon="7.23426">
        <ele>522</ele>
        <time>2011-08-14T09:59:30Z</time>
      </trkpt>
      <trkpt lat="48.65403" lon="7.23416">
        <ele>522</ele>
        <time>2011-08-14T09:59:32Z</time>
      </trkpt>
      <trkpt lat="48.65403" lon="7.23407">
        <ele>522</ele>
        <time>2011-08-14T09:59:35Z</time>
      </trkpt>
      <trkpt lat="48.65404" lon="7.23399">
        <ele>522</ele>
        <time>2011-08-14T09:59:39Z</time>
      </trkpt>
      <trkpt lat="48.65404" lon="7.23392">
        <ele>522</ele>
        <time>2011-08-14T09:59:42Z</time>
      </trkpt>
      <trkpt lat="48.65405" lon="7.23384">
        <ele>522</ele>
        <time>2011-08-14T09:59:44Z</time>
      </trkpt>
      <trkpt lat="48.65406" lon="7.23376">
        <ele>522</ele>
        <time>2011-08-14T09:59:47Z</time>
      </trkpt>
      <trkpt lat="48.65406" lon="7.23368">
        <ele>522</ele>
        <time>2011-08-14T09:59:52Z</time>
      </trkpt>
      <trkpt lat="48.65404" lon="7.23362">
        <ele>522</ele>
        <time>2011-08-14T10:00:04Z</time>
      </trkpt>
      <trkpt lat="48.65402" lon="7.23367">
        <ele>521</ele>
        <time>2011-08-14T10:00:10Z</time>
      </trkpt>
      <trkpt lat="48.65406" lon="7.23367">
        <ele>521</ele>
        <time>2011-08-14T10:00:21Z</time>
      </trkpt>
      <trkpt lat="48.65409" lon="7.2336">
        <ele>521</ele>
        <time>2011-08-14T10:00:24Z</time>
      </trkpt>
      <trkpt lat="48.65412" lon="7.23353">
        <ele>521</ele>
        <time>2011-08-14T10:00:27Z</time>
      </trkpt>
      <trkpt lat="48.65416" lon="7.2335">
        <ele>521</ele>
        <time>2011-08-14T10:00:30Z</time>
      </trkpt>
      <trkpt lat="48.65422" lon="7.23349">
        <ele>521</ele>
        <time>2011-08-14T10:00:33Z</time>
      </trkpt>
      <trkpt lat="48.65426" lon="7.2335">
        <ele>521</ele>
        <time>2011-08-14T10:00:36Z</time>
      </trkpt>
      <trkpt lat="48.65432" lon="7.2335">
        <ele>521</ele>
        <time>2011-08-14T10:00:40Z</time>
      </trkpt>
      <trkpt lat="48.65437" lon="7.23348">
        <ele>521</ele>
        <time>2011-08-14T10:00:44Z</time>
      </trkpt>
      <trkpt lat="48.65441" lon="7.23345">
        <ele>521</ele>
        <time>2011-08-14T10:00:48Z</time>
      </trkpt>
      <trkpt lat="48.65446" lon="7.2334">
        <ele>521</ele>
        <time>2011-08-14T10:00:52Z</time>
      </trkpt>
      <trkpt lat="48.6545" lon="7.23336">
        <ele>521</ele>
        <time>2011-08-14T10:00:56Z</time>
      </trkpt>
      <trkpt lat="48.65454" lon="7.23331">
        <ele>521</ele>
        <time>2011-08-14T10:01:01Z</time>
      </trkpt>
      <trkpt lat="48.65458" lon="7.23326">
        <ele>521</ele>
        <time>2011-08-14T10:01:04Z</time>
      </trkpt>
      <trkpt lat="48.65462" lon="7.23322">
        <ele>521</ele>
        <time>2011-08-14T10:01:06Z</time>
      </trkpt>
      <trkpt lat="48.65465" lon="7.23316">
        <ele>521</ele>
        <time>2011-08-14T10:01:12Z</time>
      </trkpt>
      <trkpt lat="48.65468" lon="7.2331">
        <ele>521</ele>
        <time>2011-08-14T10:01:16Z</time>
      </trkpt>
      <trkpt lat="48.6547" lon="7.23303">
        <ele>521</ele>
        <time>2011-08-14T10:01:20Z</time>
      </trkpt>
      <trkpt lat="48.65471" lon="7.23295">
        <ele>521</ele>
        <time>2011-08-14T10:01:24Z</time>
      </trkpt>
      <trkpt lat="48.6547" lon="7.23287">
        <ele>521</ele>
        <time>2011-08-14T10:01:27Z</time>
      </trkpt>
      <trkpt lat="48.65471" lon="7.23279">
        <ele>521</ele>
        <time>2011-08-14T10:01:31Z</time>
      </trkpt>
      <trkpt lat="48.65473" lon="7.23271">
        <ele>521</ele>
        <time>2011-08-14T10:01:35Z</time>
      </trkpt>
      <trkpt lat="48.65475" lon="7.23263">
        <ele>522</ele>
        <time>2011-08-14T10:01:40Z</time>
      </trkpt>
      <trkpt lat="48.65477" lon="7.23256">
        <ele>522</ele>
        <time>2011-08-14T10:01:45Z</time>
      </trkpt>
      <trkpt lat="48.65479" lon="7.2325">
        <ele>522</ele>
        <time>2011-08-14T10:01:48Z</time>
      </trkpt>
      <trkpt lat="48.65481" lon="7.23243">
        <ele>522</ele>
        <time>2011-08-14T10:01:51Z</time>
      </trkpt>
      <trkpt lat="48.65483" lon="7.23235">
        <ele>522</ele>
        <time>2011-08-14T10:01:53Z</time>
      </trkpt>
      <trkpt lat="48.65484" lon="7.23224">
        <ele>522</ele>
        <time>2011-08-14T10:01:56Z</time>
      </trkpt>
      <trkpt lat="48.65485" lon="7.23217">
        <ele>522</ele>
        <time>2011-08-14T10:01:58Z</time>
      </trkpt>
      <trkpt lat="48.65486" lon="7.23207">
        <ele>522</ele>
        <time>2011-08-14T10:02:00Z</time>
      </trkpt>
      <trkpt lat="48.65487" lon="7.23198">
        <ele>522</ele>
        <time>2011-08-14T10:02:02Z</time>
      </trkpt>
      <trkpt lat="48.65488" lon="7.2319">
        <ele>523</ele>
        <time>2011-08-14T10:02:04Z</time>
      </trkpt>
      <trkpt lat="48.65489" lon="7.23181">
        <ele>523</ele>
        <time>2011-08-14T10:02:06Z</time>
      </trkpt>
      <trkpt lat="48.65489" lon="7.23174">
        <ele>523</ele>
        <time>2011-08-14T10:02:08Z</time>
      </trkpt>
      <trkpt lat="48.6549" lon="7.23166">
        <ele>523</ele>
        <time>2011-08-14T10:02:10Z</time>
      </trkpt>
      <trkpt lat="48.65491" lon="7.23159">
        <ele>523</ele>
        <time>2011-08-14T10:02:12Z</time>
      </trkpt>
      <trkpt lat="48.65492" lon="7.23152">
        <ele>523</ele>
        <time>2011-08-14T10:02:15Z</time>
      </trkpt>
      <trkpt lat="48.65493" lon="7.23144">
        <ele>523</ele>
        <time>2011-08-14T10:02:19Z</time>
      </trkpt>
      <trkpt lat="48.65494" lon="7.23134">
        <ele>523</ele>
        <time>2011-08-14T10:02:23Z</time>
      </trkpt>
      <trkpt lat="48.65494" lon="7.23125">
        <ele>523</ele>
        <time>2011-08-14T10:02:26Z</time>
      </trkpt>
      <trkpt lat="48.65494" lon="7.23118">
        <ele>523</ele>
        <time>2011-08-14T10:02:29Z</time>
      </trkpt>
      <trkpt lat="48.65494" lon="7.2311">
        <ele>523</ele>
        <time>2011-08-14T10:02:33Z</time>
      </trkpt>
      <trkpt lat="48.65495" lon="7.23103">
        <ele>523</ele>
        <time>2011-08-14T10:02:36Z</time>
      </trkpt>
      <trkpt lat="48.65497" lon="7.23096">
        <ele>524</ele>
        <time>2011-08-14T10:02:40Z</time>
      </trkpt>
      <trkpt lat="48.655" lon="7.23103">
        <ele>524</ele>
        <time>2011-08-14T10:02:43Z</time>
      </trkpt>
      <trkpt lat="48.65503" lon="7.23112">
        <ele>524</ele>
        <time>2011-08-14T10:02:46Z</time>
      </trkpt>
      <trkpt lat="48.65504" lon="7.23119">
        <ele>524</ele>
        <time>2011-08-14T10:02:49Z</time>
      </trkpt>
      <trkpt lat="48.65506" lon="7.23127">
        <ele>524</ele>
        <time>2011-08-14T10:02:52Z</time>
      </trkpt>
      <trkpt lat="48.65509" lon="7.23136">
        <ele>525</ele>
        <time>2011-08-14T10:02:55Z</time>
      </trkpt>
      <trkpt lat="48.65512" lon="7.23143">
        <ele>525</ele>
        <time>2011-08-14T10:02:58Z</time>
      </trkpt>
      <trkpt lat="48.65515" lon="7.23149">
        <ele>525</ele>
        <time>2011-08-14T10:03:01Z</time>
      </trkpt>
      <trkpt lat="48.65518" lon="7.23155">
        <ele>526</ele>
        <time>2011-08-14T10:03:04Z</time>
      </trkpt>
      <trkpt lat="48.6552" lon="7.23161">
        <ele>526</ele>
        <time>2011-08-14T10:03:07Z</time>
      </trkpt>
      <trkpt lat="48.65523" lon="7.23167">
        <ele>526</ele>
        <time>2011-08-14T10:03:10Z</time>
      </trkpt>
      <trkpt lat="48.65525" lon="7.23172">
        <ele>526</ele>
        <time>2011-08-14T10:03:13Z</time>
      </trkpt>
      <trkpt lat="48.65528" lon="7.23179">
        <ele>526</ele>
        <time>2011-08-14T10:03:17Z</time>
      </trkpt>
      <trkpt lat="48.6553" lon="7.23186">
        <ele>527</ele>
        <time>2011-08-14T10:03:21Z</time>
      </trkpt>
      <trkpt lat="48.65533" lon="7.23192">
        <ele>527</ele>
        <time>2011-08-14T10:03:25Z</time>
      </trkpt>
      <trkpt lat="48.65536" lon="7.23198">
        <ele>527</ele>
        <time>2011-08-14T10:03:30Z</time>
      </trkpt>
      <trkpt lat="48.65539" lon="7.23204">
        <ele>528</ele>
        <time>2011-08-14T10:03:35Z</time>
      </trkpt>
      <trkpt lat="48.65541" lon="7.2321">
        <ele>528</ele>
        <time>2011-08-14T10:03:40Z</time>
      </trkpt>
      <trkpt lat="48.65544" lon="7.23217">
        <ele>528</ele>
        <time>2011-08-14T10:03:45Z</time>
      </trkpt>
      <trkpt lat="48.65545" lon="7.23224">
        <ele>529</ele>
        <time>2011-08-14T10:03:50Z</time>
      </trkpt>
      <trkpt lat="48.65548" lon="7.23231">
        <ele>529</ele>
        <time>2011-08-14T10:03:55Z</time>
      </trkpt>
      <trkpt lat="48.6555" lon="7.23237">
        <ele>529</ele>
        <time>2011-08-14T10:03:59Z</time>
      </trkpt>
      <trkpt lat="48.65554" lon="7.23243">
        <ele>529</ele>
        <time>2011-08-14T10:04:04Z</time>
      </trkpt>
      <trkpt lat="48.65555" lon="7.2325">
        <ele>529</ele>
        <time>2011-08-14T10:04:08Z</time>
      </trkpt>
      <trkpt lat="48.65557" lon="7.23257">
        <ele>530</ele>
        <time>2011-08-14T10:04:13Z</time>
      </trkpt>
      <trkpt lat="48.65558" lon="7.23264">
        <ele>530</ele>
        <time>2011-08-14T10:04:17Z</time>
      </trkpt>
      <trkpt lat="48.65558" lon="7.23271">
        <ele>530</ele>
        <time>2011-08-14T10:04:21Z</time>
      </trkpt>
      <trkpt lat="48.6556" lon="7.23278">
        <ele>530</ele>
        <time>2011-08-14T10:04:26Z</time>
      </trkpt>
      <trkpt lat="48.65561" lon="7.23286">
        <ele>531</ele>
        <time>2011-08-14T10:04:31Z</time>
      </trkpt>
      <trkpt lat="48.65563" lon="7.23293">
        <ele>531</ele>
        <time>2011-08-14T10:04:35Z</time>
      </trkpt>
      <trkpt lat="48.65565" lon="7.233">
        <ele>531</ele>
        <time>2011-08-14T10:04:39Z</time>
      </trkpt>
      <trkpt lat="48.65566" lon="7.23308">
        <ele>532</ele>
        <time>2011-08-14T10:04:43Z</time>
      </trkpt>
      <trkpt lat="48.65568" lon="7.23315">
        <ele>532</ele>
        <time>2011-08-14T10:04:46Z</time>
      </trkpt>
      <trkpt lat="48.6557" lon="7.23323">
        <ele>533</ele>
        <time>2011-08-14T10:04:49Z</time>
      </trkpt>
      <trkpt lat="48.65573" lon="7.23331">
        <ele>533</ele>
        <time>2011-08-14T10:04:52Z</time>
      </trkpt>
      <trkpt lat="48.65574" lon="7.23338">
        <ele>534</ele>
        <time>2011-08-14T10:04:55Z</time>
      </trkpt>
      <trkpt lat="48.65576" lon="7.23346">
        <ele>534</ele>
        <time>2011-08-14T10:04:58Z</time>
      </trkpt>
      <trkpt lat="48.65579" lon="7.23355">
        <ele>535</ele>
        <time>2011-08-14T10:05:01Z</time>
      </trkpt>
      <trkpt lat="48.65581" lon="7.23361">
        <ele>535</ele>
        <time>2011-08-14T10:05:03Z</time>
      </trkpt>
      <trkpt lat="48.65582" lon="7.23368">
        <ele>535</ele>
        <time>2011-08-14T10:05:05Z</time>
      </trkpt>
      <trkpt lat="48.65584" lon="7.23375">
        <ele>536</ele>
        <time>2011-08-14T10:05:07Z</time>
      </trkpt>
      <trkpt lat="48.65588" lon="7.23383">
        <ele>536</ele>
        <time>2011-08-14T10:05:10Z</time>
      </trkpt>
      <trkpt lat="48.6559" lon="7.23392">
        <ele>537</ele>
        <time>2011-08-14T10:05:13Z</time>
      </trkpt>
      <trkpt lat="48.65593" lon="7.234">
        <ele>537</ele>
        <time>2011-08-14T10:05:16Z</time>
      </trkpt>
      <trkpt lat="48.65595" lon="7.23408">
        <ele>538</ele>
        <time>2011-08-14T10:05:19Z</time>
      </trkpt>
      <trkpt lat="48.65597" lon="7.23417">
        <ele>538</ele>
        <time>2011-08-14T10:05:22Z</time>
      </trkpt>
      <trkpt lat="48.656" lon="7.23426">
        <ele>538</ele>
        <time>2011-08-14T10:05:25Z</time>
      </trkpt>
      <trkpt lat="48.65601" lon="7.23432">
        <ele>539</ele>
        <time>2011-08-14T10:05:27Z</time>
      </trkpt>
      <trkpt lat="48.65603" lon="7.23438">
        <ele>539</ele>
        <time>2011-08-14T10:05:29Z</time>
      </trkpt>
      <trkpt lat="48.65604" lon="7.23445">
        <ele>539</ele>
        <time>2011-08-14T10:05:31Z</time>
      </trkpt>
      <trkpt lat="48.65606" lon="7.23453">
        <ele>539</ele>
        <time>2011-08-14T10:05:33Z</time>
      </trkpt>
      <trkpt lat="48.6561" lon="7.23465">
        <ele>540</ele>
        <time>2011-08-14T10:05:35Z</time>
      </trkpt>
      <trkpt lat="48.65613" lon="7.23476">
        <ele>540</ele>
        <time>2011-08-14T10:05:37Z</time>
      </trkpt>
      <trkpt lat="48.65616" lon="7.23486">
        <ele>540</ele>
        <time>2011-08-14T10:05:39Z</time>
      </trkpt>
      <trkpt lat="48.65619" lon="7.23496">
        <ele>540</ele>
        <time>2011-08-14T10:05:41Z</time>
      </trkpt>
      <trkpt lat="48.65621" lon="7.23504">
        <ele>540</ele>
        <time>2011-08-14T10:05:43Z</time>
      </trkpt>
      <trkpt lat="48.65624" lon="7.23513">
        <ele>540</ele>
        <time>2011-08-14T10:05:45Z</time>
      </trkpt>
      <trkpt lat="48.65626" lon="7.23521">
        <ele>541</ele>
        <time>2011-08-14T10:05:47Z</time>
      </trkpt>
      <trkpt lat="48.65629" lon="7.23529">
        <ele>541</ele>
        <time>2011-08-14T10:05:49Z</time>
      </trkpt>
      <trkpt lat="48.65634" lon="7.23537">
        <ele>541</ele>
        <time>2011-08-14T10:05:51Z</time>
      </trkpt>
      <trkpt lat="48.6564" lon="7.23544">
        <ele>541</ele>
        <time>2011-08-14T10:05:53Z</time>
      </trkpt>
      <trkpt lat="48.65648" lon="7.2355">
        <ele>541</ele>
        <time>2011-08-14T10:05:55Z</time>
      </trkpt>
      <trkpt lat="48.65653" lon="7.23552">
        <ele>541</ele>
        <time>2011-08-14T10:05:56Z</time>
      </trkpt>
      <trkpt lat="48.65661" lon="7.23556">
        <ele>541</ele>
        <time>2011-08-14T10:05:58Z</time>
      </trkpt>
      <trkpt lat="48.65668" lon="7.23559">
        <ele>541</ele>
        <time>2011-08-14T10:06:00Z</time>
      </trkpt>
      <trkpt lat="48.65676" lon="7.23561">
        <ele>541</ele>
        <time>2011-08-14T10:06:02Z</time>
      </trkpt>
      <trkpt lat="48.65683" lon="7.23562">
        <ele>541</ele>
        <time>2011-08-14T10:06:04Z</time>
      </trkpt>
      <trkpt lat="48.6569" lon="7.23564">
        <ele>541</ele>
        <time>2011-08-14T10:06:06Z</time>
      </trkpt>
      <trkpt lat="48.65697" lon="7.23565">
        <ele>541</ele>
        <time>2011-08-14T10:06:08Z</time>
      </trkpt>
      <trkpt lat="48.65704" lon="7.23566">
        <ele>541</ele>
        <time>2011-08-14T10:06:10Z</time>
      </trkpt>
      <trkpt lat="48.65712" lon="7.23565">
        <ele>540</ele>
        <time>2011-08-14T10:06:12Z</time>
      </trkpt>
      <trkpt lat="48.65719" lon="7.23565">
        <ele>540</ele>
        <time>2011-08-14T10:06:14Z</time>
      </trkpt>
      <trkpt lat="48.65727" lon="7.23564">
        <ele>540</ele>
        <time>2011-08-14T10:06:16Z</time>
      </trkpt>
      <trkpt lat="48.65734" lon="7.23564">
        <ele>540</ele>
        <time>2011-08-14T10:06:18Z</time>
      </trkpt>
      <trkpt lat="48.65739" lon="7.23566">
        <ele>540</ele>
        <time>2011-08-14T10:06:20Z</time>
      </trkpt>
      <trkpt lat="48.65744" lon="7.2357">
        <ele>539</ele>
        <time>2011-08-14T10:06:22Z</time>
      </trkpt>
      <trkpt lat="48.65748" lon="7.23576">
        <ele>539</ele>
        <time>2011-08-14T10:06:24Z</time>
      </trkpt>
      <trkpt lat="48.65751" lon="7.23582">
        <ele>539</ele>
        <time>2011-08-14T10:06:26Z</time>
      </trkpt>
      <trkpt lat="48.65754" lon="7.23586">
        <ele>538</ele>
        <time>2011-08-14T10:06:28Z</time>
      </trkpt>
      <trkpt lat="48.65758" lon="7.2359">
        <ele>538</ele>
        <time>2011-08-14T10:06:30Z</time>
      </trkpt>
      <trkpt lat="48.65762" lon="7.2359">
        <ele>538</ele>
        <time>2011-08-14T10:06:34Z</time>
      </trkpt>
      <trkpt lat="48.65765" lon="7.23584">
        <ele>538</ele>
        <time>2011-08-14T10:06:37Z</time>
      </trkpt>
      <trkpt lat="48.65768" lon="7.23578">
        <ele>537</ele>
        <time>2011-08-14T10:06:40Z</time>
      </trkpt>
      <trkpt lat="48.65768" lon="7.23568">
        <ele>537</ele>
        <time>2011-08-14T10:06:42Z</time>
      </trkpt>
      <trkpt lat="48.6577" lon="7.23553">
        <ele>537</ele>
        <time>2011-08-14T10:06:44Z</time>
      </trkpt>
      <trkpt lat="48.65771" lon="7.23546">
        <ele>536</ele>
        <time>2011-08-14T10:06:45Z</time>
      </trkpt>
      <trkpt lat="48.65773" lon="7.2354">
        <ele>536</ele>
        <time>2011-08-14T10:06:46Z</time>
      </trkpt>
      <trkpt lat="48.65776" lon="7.23528">
        <ele>536</ele>
        <time>2011-08-14T10:06:48Z</time>
      </trkpt>
      <trkpt lat="48.65778" lon="7.23522">
        <ele>536</ele>
        <time>2011-08-14T10:06:49Z</time>
      </trkpt>
      <trkpt lat="48.6578" lon="7.23516">
        <ele>536</ele>
        <time>2011-08-14T10:06:50Z</time>
      </trkpt>
      <trkpt lat="48.65783" lon="7.23504">
        <ele>535</ele>
        <time>2011-08-14T10:06:52Z</time>
      </trkpt>
      <trkpt lat="48.65785" lon="7.23493">
        <ele>535</ele>
        <time>2011-08-14T10:06:54Z</time>
      </trkpt>
      <trkpt lat="48.65788" lon="7.23482">
        <ele>534</ele>
        <time>2011-08-14T10:06:56Z</time>
      </trkpt>
      <trkpt lat="48.6579" lon="7.23471">
        <ele>534</ele>
        <time>2011-08-14T10:06:58Z</time>
      </trkpt>
      <trkpt lat="48.65791" lon="7.23461">
        <ele>534</ele>
        <time>2011-08-14T10:07:00Z</time>
      </trkpt>
      <trkpt lat="48.65792" lon="7.23452">
        <ele>533</ele>
        <time>2011-08-14T10:07:02Z</time>
      </trkpt>
      <trkpt lat="48.65792" lon="7.23442">
        <ele>533</ele>
        <time>2011-08-14T10:07:04Z</time>
      </trkpt>
      <trkpt lat="48.65792" lon="7.23432">
        <ele>533</ele>
        <time>2011-08-14T10:07:06Z</time>
      </trkpt>
      <trkpt lat="48.65792" lon="7.23422">
        <ele>533</ele>
        <time>2011-08-14T10:07:08Z</time>
      </trkpt>
      <trkpt lat="48.6579" lon="7.23412">
        <ele>532</ele>
        <time>2011-08-14T10:07:10Z</time>
      </trkpt>
      <trkpt lat="48.65788" lon="7.23401">
        <ele>532</ele>
        <time>2011-08-14T10:07:12Z</time>
      </trkpt>
      <trkpt lat="48.65786" lon="7.2339">
        <ele>532</ele>
        <time>2011-08-14T10:07:14Z</time>
      </trkpt>
      <trkpt lat="48.65784" lon="7.23378">
        <ele>531</ele>
        <time>2011-08-14T10:07:16Z</time>
      </trkpt>
      <trkpt lat="48.65781" lon="7.23365">
        <ele>531</ele>
        <time>2011-08-14T10:07:18Z</time>
      </trkpt>
      <trkpt lat="48.65779" lon="7.23353">
        <ele>530</ele>
        <time>2011-08-14T10:07:20Z</time>
      </trkpt>
      <trkpt lat="48.65778" lon="7.23342">
        <ele>530</ele>
        <time>2011-08-14T10:07:22Z</time>
      </trkpt>
      <trkpt lat="48.65776" lon="7.23333">
        <ele>529</ele>
        <time>2011-08-14T10:07:24Z</time>
      </trkpt>
      <trkpt lat="48.65775" lon="7.23324">
        <ele>529</ele>
        <time>2011-08-14T10:07:26Z</time>
      </trkpt>
      <trkpt lat="48.65771" lon="7.23312">
        <ele>529</ele>
        <time>2011-08-14T10:07:28Z</time>
      </trkpt>
      <trkpt lat="48.65769" lon="7.23306">
        <ele>528</ele>
        <time>2011-08-14T10:07:29Z</time>
      </trkpt>
      <trkpt lat="48.65766" lon="7.23299">
        <ele>527</ele>
        <time>2011-08-14T10:07:30Z</time>
      </trkpt>
      <trkpt lat="48.65763" lon="7.23291">
        <ele>525</ele>
        <time>2011-08-14T10:07:31Z</time>
      </trkpt>
      <trkpt lat="48.6576" lon="7.23284">
        <ele>524</ele>
        <time>2011-08-14T10:07:32Z</time>
      </trkpt>
      <trkpt lat="48.65758" lon="7.23276">
        <ele>523</ele>
        <time>2011-08-14T10:07:33Z</time>
      </trkpt>
      <trkpt lat="48.65755" lon="7.23269">
        <ele>523</ele>
        <time>2011-08-14T10:07:34Z</time>
      </trkpt>
      <trkpt lat="48.65752" lon="7.23262">
        <ele>522</ele>
        <time>2011-08-14T10:07:35Z</time>
      </trkpt>
      <trkpt lat="48.65749" lon="7.23256">
        <ele>522</ele>
        <time>2011-08-14T10:07:36Z</time>
      </trkpt>
      <trkpt lat="48.65747" lon="7.2325">
        <ele>521</ele>
        <time>2011-08-14T10:07:37Z</time>
      </trkpt>
      <trkpt lat="48.65745" lon="7.23243">
        <ele>521</ele>
        <time>2011-08-14T10:07:38Z</time>
      </trkpt>
      <trkpt lat="48.65742" lon="7.23237">
        <ele>521</ele>
        <time>2011-08-14T10:07:39Z</time>
      </trkpt>
      <trkpt lat="48.65738" lon="7.23226">
        <ele>520</ele>
        <time>2011-08-14T10:07:41Z</time>
      </trkpt>
      <trkpt lat="48.65734" lon="7.23215">
        <ele>520</ele>
        <time>2011-08-14T10:07:43Z</time>
      </trkpt>
      <trkpt lat="48.6573" lon="7.23206">
        <ele>519</ele>
        <time>2011-08-14T10:07:45Z</time>
      </trkpt>
      <trkpt lat="48.65728" lon="7.23198">
        <ele>519</ele>
        <time>2011-08-14T10:07:47Z</time>
      </trkpt>
      <trkpt lat="48.65728" lon="7.23191">
        <ele>519</ele>
        <time>2011-08-14T10:07:49Z</time>
      </trkpt>
      <trkpt lat="48.65728" lon="7.23182">
        <ele>519</ele>
        <time>2011-08-14T10:07:51Z</time>
      </trkpt>
      <trkpt lat="48.65731" lon="7.23171">
        <ele>517</ele>
        <time>2011-08-14T10:07:53Z</time>
      </trkpt>
      <trkpt lat="48.65734" lon="7.23159">
        <ele>516</ele>
        <time>2011-08-14T10:07:55Z</time>
      </trkpt>
      <trkpt lat="48.65736" lon="7.23147">
        <ele>515</ele>
        <time>2011-08-14T10:07:57Z</time>
      </trkpt>
      <trkpt lat="48.65738" lon="7.23135">
        <ele>514</ele>
        <time>2011-08-14T10:07:59Z</time>
      </trkpt>
      <trkpt lat="48.6574" lon="7.23124">
        <ele>514</ele>
        <time>2011-08-14T10:08:01Z</time>
      </trkpt>
      <trkpt lat="48.65742" lon="7.23113">
        <ele>514</ele>
        <time>2011-08-14T10:08:03Z</time>
      </trkpt>
      <trkpt lat="48.65743" lon="7.23106">
        <ele>514</ele>
        <time>2011-08-14T10:08:05Z</time>
      </trkpt>
      <trkpt lat="48.65749" lon="7.23099">
        <ele>514</ele>
        <time>2011-08-14T10:08:07Z</time>
      </trkpt>
      <trkpt lat="48.65752" lon="7.23094">
        <ele>513</ele>
        <time>2011-08-14T10:08:08Z</time>
      </trkpt>
      <trkpt lat="48.65756" lon="7.23088">
        <ele>512</ele>
        <time>2011-08-14T10:08:09Z</time>
      </trkpt>
      <trkpt lat="48.65763" lon="7.23083">
        <ele>511</ele>
        <time>2011-08-14T10:08:10Z</time>
      </trkpt>
      <trkpt lat="48.65772" lon="7.23076">
        <ele>510</ele>
        <time>2011-08-14T10:08:11Z</time>
      </trkpt>
      <trkpt lat="48.65782" lon="7.23068">
        <ele>509</ele>
        <time>2011-08-14T10:08:12Z</time>
      </trkpt>
      <trkpt lat="48.65792" lon="7.23059">
        <ele>508</ele>
        <time>2011-08-14T10:08:13Z</time>
      </trkpt>
      <trkpt lat="48.65801" lon="7.23051">
        <ele>507</ele>
        <time>2011-08-14T10:08:14Z</time>
      </trkpt>
      <trkpt lat="48.65809" lon="7.23043">
        <ele>506</ele>
        <time>2011-08-14T10:08:15Z</time>
      </trkpt>
      <trkpt lat="48.65815" lon="7.23036">
        <ele>506</ele>
        <time>2011-08-14T10:08:16Z</time>
      </trkpt>
      <trkpt lat="48.65822" lon="7.23028">
        <ele>505</ele>
        <time>2011-08-14T10:08:17Z</time>
      </trkpt>
      <trkpt lat="48.65828" lon="7.23021">
        <ele>504</ele>
        <time>2011-08-14T10:08:18Z</time>
      </trkpt>
      <trkpt lat="48.65833" lon="7.23013">
        <ele>504</ele>
        <time>2011-08-14T10:08:19Z</time>
      </trkpt>
      <trkpt lat="48.65838" lon="7.23006">
        <ele>504</ele>
        <time>2011-08-14T10:08:20Z</time>
      </trkpt>
      <trkpt lat="48.65843" lon="7.22999">
        <ele>503</ele>
        <time>2011-08-14T10:08:21Z</time>
      </trkpt>
      <trkpt lat="48.65847" lon="7.22992">
        <ele>503</ele>
        <time>2011-08-14T10:08:22Z</time>
      </trkpt>
      <trkpt lat="48.65851" lon="7.22986">
        <ele>503</ele>
        <time>2011-08-14T10:08:23Z</time>
      </trkpt>
      <trkpt lat="48.65855" lon="7.22979">
        <ele>503</ele>
        <time>2011-08-14T10:08:24Z</time>
      </trkpt>
      <trkpt lat="48.65858" lon="7.22973">
        <ele>503</ele>
        <time>2011-08-14T10:08:25Z</time>
      </trkpt>
      <trkpt lat="48.65861" lon="7.22967">
        <ele>503</ele>
        <time>2011-08-14T10:08:26Z</time>
      </trkpt>
      <trkpt lat="48.65864" lon="7.2296">
        <ele>503</ele>
        <time>2011-08-14T10:08:27Z</time>
      </trkpt>
      <trkpt lat="48.65868" lon="7.22954">
        <ele>503</ele>
        <time>2011-08-14T10:08:28Z</time>
      </trkpt>
      <trkpt lat="48.6587" lon="7.22947">
        <ele>503</ele>
        <time>2011-08-14T10:08:29Z</time>
      </trkpt>
      <trkpt lat="48.65872" lon="7.22935">
        <ele>503</ele>
        <time>2011-08-14T10:08:31Z</time>
      </trkpt>
      <trkpt lat="48.65872" lon="7.22924">
        <ele>503</ele>
        <time>2011-08-14T10:08:33Z</time>
      </trkpt>
      <trkpt lat="48.65872" lon="7.22916">
        <ele>503</ele>
        <time>2011-08-14T10:08:35Z</time>
      </trkpt>
      <trkpt lat="48.65872" lon="7.229">
        <ele>502</ele>
        <time>2011-08-14T10:09:06Z</time>
      </trkpt>
      <trkpt lat="48.65872" lon="7.229">
        <ele>502</ele>
        <time>2011-08-14T10:09:06Z</time>
      </trkpt>
      <trkpt lat="48.65872" lon="7.229">
        <ele>502</ele>
        <time>2011-08-14T10:09:58Z</time>
      </trkpt>
      <trkpt lat="48.65871" lon="7.22893">
        <ele>502</ele>
        <time>2011-08-14T10:12:11Z</time>
      </trkpt>
      <trkpt lat="48.65872" lon="7.229">
        <ele>502</ele>
        <time>2011-08-14T10:12:31Z</time>
      </trkpt>
      <trkpt lat="48.65872" lon="7.229">
        <ele>502</ele>
        <time>2011-08-14T10:12:31Z</time>
      </trkpt>
      <trkpt lat="48.65872" lon="7.229">
        <ele>502</ele>
        <time>2011-08-14T10:12:49Z</time>
      </trkpt>
      <trkpt lat="48.65866" lon="7.229">
        <ele>502</ele>
        <time>2011-08-14T10:12:55Z</time>
      </trkpt>
    </trkseg>
  </trk>
</gpx>